<?xml version="1.0" encoding="UTF-8" standalone="no" ?>
<gpx xmlns="http://www.topografix.com/GPX/1/1" xmlns:xsi="http://www.w3.org/2001/XMLSchema-instance" xsi:schemaLocation="http://www.topografix.com/GPX/1/1 http://www.topografix.com/GPX/1/1/gpx.xsd" version="1.1" creator="VisuGPX - https://www.visugpx.com">
  <metadata>
    <name>2011-02-12 - GIVRY - GERMOLES</name>
    <desc><![CDATA[Sortie VTT au départ de CHALON par GIVRY   GERMOLLES]]></desc>
  </metadata>
  <trk>
    <name><![CDATA[2011-02-12 - GIVRY - GERMOLES]]></name>
    <desc><![CDATA[12 févr. 2011  7:35 am]]></desc>
    <trkseg>
      <trkpt lat="46.78139" lon="4.85351">
        <ele>177.843065</ele>
        <time>2011-02-12T06:35:58Z</time>
      </trkpt>
      <trkpt lat="46.78107" lon="4.85363">
        <ele>177.804729</ele>
        <time>2011-02-12T06:36:24Z</time>
      </trkpt>
      <trkpt lat="46.78103" lon="4.85351">
        <ele>177.790427</ele>
        <time>2011-02-12T06:36:30Z</time>
      </trkpt>
      <trkpt lat="46.78099" lon="4.85332">
        <ele>177.790595</ele>
        <time>2011-02-12T06:36:33Z</time>
      </trkpt>
      <trkpt lat="46.78094" lon="4.85314">
        <ele>177.870067</ele>
        <time>2011-02-12T06:36:35Z</time>
      </trkpt>
      <trkpt lat="46.78088" lon="4.85298">
        <ele>178.254393</ele>
        <time>2011-02-12T06:36:37Z</time>
      </trkpt>
      <trkpt lat="46.7808" lon="4.85273">
        <ele>179.945941</ele>
        <time>2011-02-12T06:36:40Z</time>
      </trkpt>
      <trkpt lat="46.78075" lon="4.85257">
        <ele>183.462291</ele>
        <time>2011-02-12T06:36:42Z</time>
      </trkpt>
      <trkpt lat="46.78067" lon="4.85238">
        <ele>187.359625</ele>
        <time>2011-02-12T06:36:45Z</time>
      </trkpt>
      <trkpt lat="46.7806" lon="4.85222">
        <ele>189.956321</ele>
        <time>2011-02-12T06:36:48Z</time>
      </trkpt>
      <trkpt lat="46.78053" lon="4.85209">
        <ele>191.069594</ele>
        <time>2011-02-12T06:36:51Z</time>
      </trkpt>
      <trkpt lat="46.78045" lon="4.85197">
        <ele>191.237458</ele>
        <time>2011-02-12T06:36:54Z</time>
      </trkpt>
      <trkpt lat="46.78036" lon="4.85183">
        <ele>191.100761</ele>
        <time>2011-02-12T06:36:57Z</time>
      </trkpt>
      <trkpt lat="46.78027" lon="4.85168">
        <ele>191.016676</ele>
        <time>2011-02-12T06:37:00Z</time>
      </trkpt>
      <trkpt lat="46.78018" lon="4.85155">
        <ele>191.020762</ele>
        <time>2011-02-12T06:37:03Z</time>
      </trkpt>
      <trkpt lat="46.78009" lon="4.85141">
        <ele>191.083024</ele>
        <time>2011-02-12T06:37:06Z</time>
      </trkpt>
      <trkpt lat="46.78" lon="4.85127">
        <ele>191.193949</ele>
        <time>2011-02-12T06:37:09Z</time>
      </trkpt>
      <trkpt lat="46.77991" lon="4.85123">
        <ele>191.294852</ele>
        <time>2011-02-12T06:37:12Z</time>
      </trkpt>
      <trkpt lat="46.77978" lon="4.85124">
        <ele>191.339124</ele>
        <time>2011-02-12T06:37:15Z</time>
      </trkpt>
      <trkpt lat="46.77967" lon="4.85123">
        <ele>191.337946</ele>
        <time>2011-02-12T06:37:17Z</time>
      </trkpt>
      <trkpt lat="46.77957" lon="4.85119">
        <ele>191.290345</ele>
        <time>2011-02-12T06:37:19Z</time>
      </trkpt>
      <trkpt lat="46.77947" lon="4.851">
        <ele>191.155009</ele>
        <time>2011-02-12T06:37:22Z</time>
      </trkpt>
      <trkpt lat="46.77942" lon="4.85088">
        <ele>190.636954</ele>
        <time>2011-02-12T06:37:24Z</time>
      </trkpt>
      <trkpt lat="46.77942" lon="4.85088">
        <ele>189.656252</ele>
        <time>2011-02-12T06:37:26Z</time>
      </trkpt>
      <trkpt lat="46.77934" lon="4.85066">
        <ele>188.203896</ele>
        <time>2011-02-12T06:37:30Z</time>
      </trkpt>
      <trkpt lat="46.77927" lon="4.85057">
        <ele>185.866001</ele>
        <time>2011-02-12T06:37:33Z</time>
      </trkpt>
      <trkpt lat="46.77927" lon="4.85057">
        <ele>183.033684</ele>
        <time>2011-02-12T06:37:37Z</time>
      </trkpt>
      <trkpt lat="46.77909" lon="4.85036">
        <ele>181.035788</ele>
        <time>2011-02-12T06:37:51Z</time>
      </trkpt>
      <trkpt lat="46.779" lon="4.85029">
        <ele>180.279454</ele>
        <time>2011-02-12T06:37:53Z</time>
      </trkpt>
      <trkpt lat="46.77891" lon="4.85024">
        <ele>180.234588</ele>
        <time>2011-02-12T06:37:55Z</time>
      </trkpt>
      <trkpt lat="46.77882" lon="4.85022">
        <ele>180.362755</ele>
        <time>2011-02-12T06:37:57Z</time>
      </trkpt>
      <trkpt lat="46.77869" lon="4.8502">
        <ele>180.24097</ele>
        <time>2011-02-12T06:38:00Z</time>
      </trkpt>
      <trkpt lat="46.77857" lon="4.85023">
        <ele>179.579101</ele>
        <time>2011-02-12T06:38:03Z</time>
      </trkpt>
      <trkpt lat="46.77843" lon="4.85028">
        <ele>178.451285</ele>
        <time>2011-02-12T06:38:06Z</time>
      </trkpt>
      <trkpt lat="46.7783" lon="4.85028">
        <ele>177.292389</ele>
        <time>2011-02-12T06:38:09Z</time>
      </trkpt>
      <trkpt lat="46.7783" lon="4.85028">
        <ele>176.505417</ele>
        <time>2011-02-12T06:38:12Z</time>
      </trkpt>
      <trkpt lat="46.77801" lon="4.84985">
        <ele>176.152049</ele>
        <time>2011-02-12T06:38:47Z</time>
      </trkpt>
      <trkpt lat="46.77794" lon="4.8497">
        <ele>176.011388</ele>
        <time>2011-02-12T06:38:51Z</time>
      </trkpt>
      <trkpt lat="46.77783" lon="4.84962">
        <ele>175.84479</ele>
        <time>2011-02-12T06:38:54Z</time>
      </trkpt>
      <trkpt lat="46.77774" lon="4.84952">
        <ele>175.399175</ele>
        <time>2011-02-12T06:38:57Z</time>
      </trkpt>
      <trkpt lat="46.77765" lon="4.84939">
        <ele>174.644405</ele>
        <time>2011-02-12T06:39:00Z</time>
      </trkpt>
      <trkpt lat="46.77757" lon="4.84926">
        <ele>173.961179</ele>
        <time>2011-02-12T06:39:02Z</time>
      </trkpt>
      <trkpt lat="46.77742" lon="4.8492">
        <ele>173.633518</ele>
        <time>2011-02-12T06:39:05Z</time>
      </trkpt>
      <trkpt lat="46.77728" lon="4.84915">
        <ele>173.566863</ele>
        <time>2011-02-12T06:39:08Z</time>
      </trkpt>
      <trkpt lat="46.7772" lon="4.84904">
        <ele>173.626317</ele>
        <time>2011-02-12T06:39:10Z</time>
      </trkpt>
      <trkpt lat="46.7771" lon="4.84893">
        <ele>173.737034</ele>
        <time>2011-02-12T06:39:12Z</time>
      </trkpt>
      <trkpt lat="46.77695" lon="4.84874">
        <ele>173.851053</ele>
        <time>2011-02-12T06:39:15Z</time>
      </trkpt>
      <trkpt lat="46.77685" lon="4.84861">
        <ele>173.948037</ele>
        <time>2011-02-12T06:39:17Z</time>
      </trkpt>
      <trkpt lat="46.77672" lon="4.84842">
        <ele>174.066593</ele>
        <time>2011-02-12T06:39:20Z</time>
      </trkpt>
      <trkpt lat="46.77661" lon="4.84822">
        <ele>174.329746</ele>
        <time>2011-02-12T06:39:23Z</time>
      </trkpt>
      <trkpt lat="46.77654" lon="4.84809">
        <ele>174.774823</ele>
        <time>2011-02-12T06:39:25Z</time>
      </trkpt>
      <trkpt lat="46.77645" lon="4.84794">
        <ele>175.207878</ele>
        <time>2011-02-12T06:39:28Z</time>
      </trkpt>
      <trkpt lat="46.77637" lon="4.84781">
        <ele>175.43572</ele>
        <time>2011-02-12T06:39:31Z</time>
      </trkpt>
      <trkpt lat="46.77628" lon="4.84766">
        <ele>175.483662</ele>
        <time>2011-02-12T06:39:34Z</time>
      </trkpt>
      <trkpt lat="46.77619" lon="4.84748">
        <ele>175.412796</ele>
        <time>2011-02-12T06:39:37Z</time>
      </trkpt>
      <trkpt lat="46.77609" lon="4.84734">
        <ele>175.261865</ele>
        <time>2011-02-12T06:39:40Z</time>
      </trkpt>
      <trkpt lat="46.776" lon="4.8472">
        <ele>174.978098</ele>
        <time>2011-02-12T06:39:43Z</time>
      </trkpt>
      <trkpt lat="46.7759" lon="4.84706">
        <ele>174.500879</ele>
        <time>2011-02-12T06:39:46Z</time>
      </trkpt>
      <trkpt lat="46.7758" lon="4.84692">
        <ele>173.999129</ele>
        <time>2011-02-12T06:39:49Z</time>
      </trkpt>
      <trkpt lat="46.77569" lon="4.84679">
        <ele>173.710989</ele>
        <time>2011-02-12T06:39:52Z</time>
      </trkpt>
      <trkpt lat="46.77563" lon="4.8467">
        <ele>173.637277</ele>
        <time>2011-02-12T06:39:54Z</time>
      </trkpt>
      <trkpt lat="46.77552" lon="4.84656">
        <ele>173.729126</ele>
        <time>2011-02-12T06:39:57Z</time>
      </trkpt>
      <trkpt lat="46.77541" lon="4.84643">
        <ele>173.987859</ele>
        <time>2011-02-12T06:40:00Z</time>
      </trkpt>
      <trkpt lat="46.77533" lon="4.84635">
        <ele>174.310189</ele>
        <time>2011-02-12T06:40:02Z</time>
      </trkpt>
      <trkpt lat="46.77521" lon="4.84623">
        <ele>174.526763</ele>
        <time>2011-02-12T06:40:05Z</time>
      </trkpt>
      <trkpt lat="46.77508" lon="4.84611">
        <ele>174.597781</ele>
        <time>2011-02-12T06:40:08Z</time>
      </trkpt>
      <trkpt lat="46.77496" lon="4.84599">
        <ele>174.583995</ele>
        <time>2011-02-12T06:40:11Z</time>
      </trkpt>
      <trkpt lat="46.77482" lon="4.84587">
        <ele>174.528703</ele>
        <time>2011-02-12T06:40:14Z</time>
      </trkpt>
      <trkpt lat="46.77469" lon="4.84576">
        <ele>174.406168</ele>
        <time>2011-02-12T06:40:17Z</time>
      </trkpt>
      <trkpt lat="46.77456" lon="4.84567">
        <ele>174.123754</ele>
        <time>2011-02-12T06:40:20Z</time>
      </trkpt>
      <trkpt lat="46.77447" lon="4.8456">
        <ele>173.634054</ele>
        <time>2011-02-12T06:40:22Z</time>
      </trkpt>
      <trkpt lat="46.77434" lon="4.84551">
        <ele>173.054381</ele>
        <time>2011-02-12T06:40:25Z</time>
      </trkpt>
      <trkpt lat="46.77426" lon="4.84546">
        <ele>172.56513</ele>
        <time>2011-02-12T06:40:27Z</time>
      </trkpt>
      <trkpt lat="46.77416" lon="4.8454">
        <ele>172.221177</ele>
        <time>2011-02-12T06:40:29Z</time>
      </trkpt>
      <trkpt lat="46.77407" lon="4.84534">
        <ele>171.945741</ele>
        <time>2011-02-12T06:40:31Z</time>
      </trkpt>
      <trkpt lat="46.77397" lon="4.84524">
        <ele>171.691293</ele>
        <time>2011-02-12T06:40:33Z</time>
      </trkpt>
      <trkpt lat="46.77383" lon="4.8451">
        <ele>171.494936</ele>
        <time>2011-02-12T06:40:36Z</time>
      </trkpt>
      <trkpt lat="46.7737" lon="4.84496">
        <ele>171.387063</ele>
        <time>2011-02-12T06:40:39Z</time>
      </trkpt>
      <trkpt lat="46.77357" lon="4.84485">
        <ele>171.347391</ele>
        <time>2011-02-12T06:40:42Z</time>
      </trkpt>
      <trkpt lat="46.77348" lon="4.84479">
        <ele>171.348295</ele>
        <time>2011-02-12T06:40:44Z</time>
      </trkpt>
      <trkpt lat="46.77333" lon="4.84471">
        <ele>171.372372</ele>
        <time>2011-02-12T06:40:47Z</time>
      </trkpt>
      <trkpt lat="46.77318" lon="4.84464">
        <ele>171.405804</ele>
        <time>2011-02-12T06:40:50Z</time>
      </trkpt>
      <trkpt lat="46.77302" lon="4.84457">
        <ele>171.446281</ele>
        <time>2011-02-12T06:40:53Z</time>
      </trkpt>
      <trkpt lat="46.77291" lon="4.84452">
        <ele>171.49635</ele>
        <time>2011-02-12T06:40:55Z</time>
      </trkpt>
      <trkpt lat="46.77275" lon="4.84444">
        <ele>171.539273</ele>
        <time>2011-02-12T06:40:58Z</time>
      </trkpt>
      <trkpt lat="46.77258" lon="4.84436">
        <ele>171.557284</ele>
        <time>2011-02-12T06:41:01Z</time>
      </trkpt>
      <trkpt lat="46.77241" lon="4.84429">
        <ele>171.541792</ele>
        <time>2011-02-12T06:41:04Z</time>
      </trkpt>
      <trkpt lat="46.7723" lon="4.84425">
        <ele>171.483684</ele>
        <time>2011-02-12T06:41:06Z</time>
      </trkpt>
      <trkpt lat="46.77213" lon="4.84419">
        <ele>171.380423</ele>
        <time>2011-02-12T06:41:09Z</time>
      </trkpt>
      <trkpt lat="46.77197" lon="4.84413">
        <ele>171.20525</ele>
        <time>2011-02-12T06:41:12Z</time>
      </trkpt>
      <trkpt lat="46.77186" lon="4.8441">
        <ele>170.938767</ele>
        <time>2011-02-12T06:41:14Z</time>
      </trkpt>
      <trkpt lat="46.7717" lon="4.84405">
        <ele>170.637757</ele>
        <time>2011-02-12T06:41:17Z</time>
      </trkpt>
      <trkpt lat="46.77159" lon="4.84402">
        <ele>170.401985</ele>
        <time>2011-02-12T06:41:19Z</time>
      </trkpt>
      <trkpt lat="46.77143" lon="4.84397">
        <ele>170.27997</ele>
        <time>2011-02-12T06:41:22Z</time>
      </trkpt>
      <trkpt lat="46.77133" lon="4.84394">
        <ele>170.227551</ele>
        <time>2011-02-12T06:41:24Z</time>
      </trkpt>
      <trkpt lat="46.77117" lon="4.84389">
        <ele>170.170806</ele>
        <time>2011-02-12T06:41:27Z</time>
      </trkpt>
      <trkpt lat="46.771" lon="4.84384">
        <ele>170.08613</ele>
        <time>2011-02-12T06:41:30Z</time>
      </trkpt>
      <trkpt lat="46.77084" lon="4.84379">
        <ele>169.992745</ele>
        <time>2011-02-12T06:41:33Z</time>
      </trkpt>
      <trkpt lat="46.77069" lon="4.84375">
        <ele>169.8805</ele>
        <time>2011-02-12T06:41:36Z</time>
      </trkpt>
      <trkpt lat="46.77059" lon="4.84373">
        <ele>169.724087</ele>
        <time>2011-02-12T06:41:38Z</time>
      </trkpt>
      <trkpt lat="46.77043" lon="4.8437">
        <ele>169.528936</ele>
        <time>2011-02-12T06:41:41Z</time>
      </trkpt>
      <trkpt lat="46.77028" lon="4.84368">
        <ele>169.29789</ele>
        <time>2011-02-12T06:41:44Z</time>
      </trkpt>
      <trkpt lat="46.77018" lon="4.84367">
        <ele>169.021058</ele>
        <time>2011-02-12T06:41:46Z</time>
      </trkpt>
      <trkpt lat="46.77001" lon="4.84363">
        <ele>168.717501</ele>
        <time>2011-02-12T06:41:49Z</time>
      </trkpt>
      <trkpt lat="46.7699" lon="4.84361">
        <ele>168.425952</ele>
        <time>2011-02-12T06:41:51Z</time>
      </trkpt>
      <trkpt lat="46.76974" lon="4.84358">
        <ele>168.195673</ele>
        <time>2011-02-12T06:41:54Z</time>
      </trkpt>
      <trkpt lat="46.76964" lon="4.84357">
        <ele>167.997315</ele>
        <time>2011-02-12T06:41:56Z</time>
      </trkpt>
      <trkpt lat="46.76947" lon="4.84355">
        <ele>167.74885</ele>
        <time>2011-02-12T06:41:59Z</time>
      </trkpt>
      <trkpt lat="46.76936" lon="4.84354">
        <ele>167.481852</ele>
        <time>2011-02-12T06:42:01Z</time>
      </trkpt>
      <trkpt lat="46.76926" lon="4.84352">
        <ele>167.297248</ele>
        <time>2011-02-12T06:42:03Z</time>
      </trkpt>
      <trkpt lat="46.76911" lon="4.84352">
        <ele>167.206556</ele>
        <time>2011-02-12T06:42:06Z</time>
      </trkpt>
      <trkpt lat="46.76896" lon="4.84353">
        <ele>167.158517</ele>
        <time>2011-02-12T06:42:09Z</time>
      </trkpt>
      <trkpt lat="46.76881" lon="4.84354">
        <ele>167.115041</ele>
        <time>2011-02-12T06:42:12Z</time>
      </trkpt>
      <trkpt lat="46.76866" lon="4.84355">
        <ele>167.012965</ele>
        <time>2011-02-12T06:42:15Z</time>
      </trkpt>
      <trkpt lat="46.76852" lon="4.84357">
        <ele>166.771491</ele>
        <time>2011-02-12T06:42:18Z</time>
      </trkpt>
      <trkpt lat="46.76838" lon="4.8436">
        <ele>166.425571</ele>
        <time>2011-02-12T06:42:21Z</time>
      </trkpt>
      <trkpt lat="46.76829" lon="4.84361">
        <ele>166.073109</ele>
        <time>2011-02-12T06:42:23Z</time>
      </trkpt>
      <trkpt lat="46.76814" lon="4.8436">
        <ele>165.702888</ele>
        <time>2011-02-12T06:42:26Z</time>
      </trkpt>
      <trkpt lat="46.76798" lon="4.84358">
        <ele>165.257686</ele>
        <time>2011-02-12T06:42:29Z</time>
      </trkpt>
      <trkpt lat="46.76783" lon="4.84355">
        <ele>164.818086</ele>
        <time>2011-02-12T06:42:32Z</time>
      </trkpt>
      <trkpt lat="46.76772" lon="4.84353">
        <ele>164.541221</ele>
        <time>2011-02-12T06:42:34Z</time>
      </trkpt>
      <trkpt lat="46.76761" lon="4.84349">
        <ele>164.458279</ele>
        <time>2011-02-12T06:42:36Z</time>
      </trkpt>
      <trkpt lat="46.76746" lon="4.8434">
        <ele>164.489402</ele>
        <time>2011-02-12T06:42:39Z</time>
      </trkpt>
      <trkpt lat="46.76731" lon="4.84327">
        <ele>164.594172</ele>
        <time>2011-02-12T06:42:42Z</time>
      </trkpt>
      <trkpt lat="46.76716" lon="4.84316">
        <ele>164.764958</ele>
        <time>2011-02-12T06:42:45Z</time>
      </trkpt>
      <trkpt lat="46.76705" lon="4.84308">
        <ele>164.982966</ele>
        <time>2011-02-12T06:42:47Z</time>
      </trkpt>
      <trkpt lat="46.76694" lon="4.84302">
        <ele>165.254987</ele>
        <time>2011-02-12T06:42:49Z</time>
      </trkpt>
      <trkpt lat="46.76677" lon="4.84292">
        <ele>165.550039</ele>
        <time>2011-02-12T06:42:52Z</time>
      </trkpt>
      <trkpt lat="46.76666" lon="4.84286">
        <ele>165.758309</ele>
        <time>2011-02-12T06:42:54Z</time>
      </trkpt>
      <trkpt lat="46.76657" lon="4.8428">
        <ele>165.830855</ele>
        <time>2011-02-12T06:42:56Z</time>
      </trkpt>
      <trkpt lat="46.76643" lon="4.8427">
        <ele>165.77026</ele>
        <time>2011-02-12T06:42:59Z</time>
      </trkpt>
      <trkpt lat="46.76633" lon="4.84263">
        <ele>165.561427</ele>
        <time>2011-02-12T06:43:01Z</time>
      </trkpt>
      <trkpt lat="46.76622" lon="4.84256">
        <ele>165.263805</ele>
        <time>2011-02-12T06:43:03Z</time>
      </trkpt>
      <trkpt lat="46.76605" lon="4.84245">
        <ele>164.966134</ele>
        <time>2011-02-12T06:43:06Z</time>
      </trkpt>
      <trkpt lat="46.76594" lon="4.84239">
        <ele>164.648322</ele>
        <time>2011-02-12T06:43:08Z</time>
      </trkpt>
      <trkpt lat="46.76584" lon="4.84235">
        <ele>164.313966</ele>
        <time>2011-02-12T06:43:10Z</time>
      </trkpt>
      <trkpt lat="46.76575" lon="4.84232">
        <ele>164.077257</ele>
        <time>2011-02-12T06:43:12Z</time>
      </trkpt>
      <trkpt lat="46.76563" lon="4.84224">
        <ele>163.994525</ele>
        <time>2011-02-12T06:43:15Z</time>
      </trkpt>
      <trkpt lat="46.76555" lon="4.84212">
        <ele>164.043373</ele>
        <time>2011-02-12T06:43:18Z</time>
      </trkpt>
      <trkpt lat="46.76548" lon="4.84198">
        <ele>164.25554</ele>
        <time>2011-02-12T06:43:21Z</time>
      </trkpt>
      <trkpt lat="46.76539" lon="4.84187">
        <ele>164.630851</ele>
        <time>2011-02-12T06:43:24Z</time>
      </trkpt>
      <trkpt lat="46.76529" lon="4.84187">
        <ele>165.08868</ele>
        <time>2011-02-12T06:43:26Z</time>
      </trkpt>
      <trkpt lat="46.76514" lon="4.84188">
        <ele>165.591007</ele>
        <time>2011-02-12T06:43:29Z</time>
      </trkpt>
      <trkpt lat="46.76499" lon="4.84183">
        <ele>166.155528</ele>
        <time>2011-02-12T06:43:32Z</time>
      </trkpt>
      <trkpt lat="46.76483" lon="4.84175">
        <ele>166.700021</ele>
        <time>2011-02-12T06:43:35Z</time>
      </trkpt>
      <trkpt lat="46.76472" lon="4.84167">
        <ele>167.063834</ele>
        <time>2011-02-12T06:43:37Z</time>
      </trkpt>
      <trkpt lat="46.7646" lon="4.84153">
        <ele>167.199547</ele>
        <time>2011-02-12T06:43:40Z</time>
      </trkpt>
      <trkpt lat="46.7645" lon="4.84139">
        <ele>167.19794</ele>
        <time>2011-02-12T06:43:43Z</time>
      </trkpt>
      <trkpt lat="46.76443" lon="4.8413">
        <ele>167.134918</ele>
        <time>2011-02-12T06:43:45Z</time>
      </trkpt>
      <trkpt lat="46.76433" lon="4.84115">
        <ele>167.005908</ele>
        <time>2011-02-12T06:43:48Z</time>
      </trkpt>
      <trkpt lat="46.76424" lon="4.84103">
        <ele>166.724265</ele>
        <time>2011-02-12T06:43:51Z</time>
      </trkpt>
      <trkpt lat="46.76416" lon="4.84091">
        <ele>166.193149</ele>
        <time>2011-02-12T06:43:54Z</time>
      </trkpt>
      <trkpt lat="46.76409" lon="4.8408">
        <ele>165.426979</ele>
        <time>2011-02-12T06:43:57Z</time>
      </trkpt>
      <trkpt lat="46.76402" lon="4.84068">
        <ele>164.62691</ele>
        <time>2011-02-12T06:44:00Z</time>
      </trkpt>
      <trkpt lat="46.76393" lon="4.84055">
        <ele>164.060136</ele>
        <time>2011-02-12T06:44:03Z</time>
      </trkpt>
      <trkpt lat="46.76384" lon="4.84041">
        <ele>163.827535</ele>
        <time>2011-02-12T06:44:06Z</time>
      </trkpt>
      <trkpt lat="46.76375" lon="4.84028">
        <ele>163.814114</ele>
        <time>2011-02-12T06:44:09Z</time>
      </trkpt>
      <trkpt lat="46.76366" lon="4.84015">
        <ele>163.893345</ele>
        <time>2011-02-12T06:44:12Z</time>
      </trkpt>
      <trkpt lat="46.76358" lon="4.84002">
        <ele>164.189633</ele>
        <time>2011-02-12T06:44:15Z</time>
      </trkpt>
      <trkpt lat="46.76351" lon="4.8399">
        <ele>164.836513</ele>
        <time>2011-02-12T06:44:18Z</time>
      </trkpt>
      <trkpt lat="46.76346" lon="4.83978">
        <ele>165.585816</ele>
        <time>2011-02-12T06:44:21Z</time>
      </trkpt>
      <trkpt lat="46.76342" lon="4.83964">
        <ele>166.11462</ele>
        <time>2011-02-12T06:44:24Z</time>
      </trkpt>
      <trkpt lat="46.76336" lon="4.8395">
        <ele>166.413834</ele>
        <time>2011-02-12T06:44:27Z</time>
      </trkpt>
      <trkpt lat="46.76329" lon="4.83936">
        <ele>166.613584</ele>
        <time>2011-02-12T06:44:30Z</time>
      </trkpt>
      <trkpt lat="46.76324" lon="4.83919">
        <ele>166.815788</ele>
        <time>2011-02-12T06:44:33Z</time>
      </trkpt>
      <trkpt lat="46.76318" lon="4.83902">
        <ele>167.054435</ele>
        <time>2011-02-12T06:44:36Z</time>
      </trkpt>
      <trkpt lat="46.76312" lon="4.83884">
        <ele>167.403166</ele>
        <time>2011-02-12T06:44:39Z</time>
      </trkpt>
      <trkpt lat="46.76306" lon="4.83865">
        <ele>168.022962</ele>
        <time>2011-02-12T06:44:42Z</time>
      </trkpt>
      <trkpt lat="46.76299" lon="4.83846">
        <ele>168.884945</ele>
        <time>2011-02-12T06:44:45Z</time>
      </trkpt>
      <trkpt lat="46.76294" lon="4.83833">
        <ele>169.688998</ele>
        <time>2011-02-12T06:44:47Z</time>
      </trkpt>
      <trkpt lat="46.76289" lon="4.83819">
        <ele>170.243866</ele>
        <time>2011-02-12T06:44:49Z</time>
      </trkpt>
      <trkpt lat="46.7628" lon="4.83799">
        <ele>170.643075</ele>
        <time>2011-02-12T06:44:52Z</time>
      </trkpt>
      <trkpt lat="46.76272" lon="4.83781">
        <ele>171.15441</ele>
        <time>2011-02-12T06:44:55Z</time>
      </trkpt>
      <trkpt lat="46.76267" lon="4.83769">
        <ele>172.011544</ele>
        <time>2011-02-12T06:44:57Z</time>
      </trkpt>
      <trkpt lat="46.7626" lon="4.83751">
        <ele>173.260404</ele>
        <time>2011-02-12T06:45:00Z</time>
      </trkpt>
      <trkpt lat="46.76253" lon="4.83735">
        <ele>174.72532</ele>
        <time>2011-02-12T06:45:03Z</time>
      </trkpt>
      <trkpt lat="46.76247" lon="4.83725">
        <ele>176.022779</ele>
        <time>2011-02-12T06:45:05Z</time>
      </trkpt>
      <trkpt lat="46.76237" lon="4.83711">
        <ele>176.849545</ele>
        <time>2011-02-12T06:45:08Z</time>
      </trkpt>
      <trkpt lat="46.76223" lon="4.83697">
        <ele>177.292838</ele>
        <time>2011-02-12T06:45:11Z</time>
      </trkpt>
      <trkpt lat="46.76209" lon="4.83685">
        <ele>177.563968</ele>
        <time>2011-02-12T06:45:14Z</time>
      </trkpt>
      <trkpt lat="46.76195" lon="4.83671">
        <ele>177.738822</ele>
        <time>2011-02-12T06:45:17Z</time>
      </trkpt>
      <trkpt lat="46.76185" lon="4.83653">
        <ele>177.842834</ele>
        <time>2011-02-12T06:45:20Z</time>
      </trkpt>
      <trkpt lat="46.76179" lon="4.83635">
        <ele>177.912075</ele>
        <time>2011-02-12T06:45:23Z</time>
      </trkpt>
      <trkpt lat="46.76175" lon="4.83615">
        <ele>177.962277</ele>
        <time>2011-02-12T06:45:26Z</time>
      </trkpt>
      <trkpt lat="46.76172" lon="4.83602">
        <ele>177.991146</ele>
        <time>2011-02-12T06:45:28Z</time>
      </trkpt>
      <trkpt lat="46.76167" lon="4.83578">
        <ele>177.99855</ele>
        <time>2011-02-12T06:45:31Z</time>
      </trkpt>
      <trkpt lat="46.7616" lon="4.83549">
        <ele>177.977022</ele>
        <time>2011-02-12T06:45:34Z</time>
      </trkpt>
      <trkpt lat="46.76155" lon="4.8353">
        <ele>177.909529</ele>
        <time>2011-02-12T06:45:36Z</time>
      </trkpt>
      <trkpt lat="46.76148" lon="4.8351">
        <ele>177.770387</ele>
        <time>2011-02-12T06:45:38Z</time>
      </trkpt>
      <trkpt lat="46.76138" lon="4.83481">
        <ele>177.46854</ele>
        <time>2011-02-12T06:45:41Z</time>
      </trkpt>
      <trkpt lat="46.76142" lon="4.83451">
        <ele>176.987052</ele>
        <time>2011-02-12T06:45:44Z</time>
      </trkpt>
      <trkpt lat="46.76152" lon="4.83428">
        <ele>176.525378</ele>
        <time>2011-02-12T06:45:47Z</time>
      </trkpt>
      <trkpt lat="46.76159" lon="4.83405">
        <ele>176.269739</ele>
        <time>2011-02-12T06:45:50Z</time>
      </trkpt>
      <trkpt lat="46.76163" lon="4.8339">
        <ele>176.184584</ele>
        <time>2011-02-12T06:45:52Z</time>
      </trkpt>
      <trkpt lat="46.76167" lon="4.83369">
        <ele>176.158745</ele>
        <time>2011-02-12T06:45:55Z</time>
      </trkpt>
      <trkpt lat="46.7617" lon="4.83347">
        <ele>176.146537</ele>
        <time>2011-02-12T06:45:58Z</time>
      </trkpt>
      <trkpt lat="46.76173" lon="4.83327">
        <ele>176.099279</ele>
        <time>2011-02-12T06:46:01Z</time>
      </trkpt>
      <trkpt lat="46.76176" lon="4.83308">
        <ele>175.881191</ele>
        <time>2011-02-12T06:46:04Z</time>
      </trkpt>
      <trkpt lat="46.76178" lon="4.83289">
        <ele>175.405518</ele>
        <time>2011-02-12T06:46:07Z</time>
      </trkpt>
      <trkpt lat="46.76181" lon="4.8327">
        <ele>174.799103</ele>
        <time>2011-02-12T06:46:10Z</time>
      </trkpt>
      <trkpt lat="46.76185" lon="4.83252">
        <ele>174.292843</ele>
        <time>2011-02-12T06:46:13Z</time>
      </trkpt>
      <trkpt lat="46.76188" lon="4.83233">
        <ele>173.96663</ele>
        <time>2011-02-12T06:46:16Z</time>
      </trkpt>
      <trkpt lat="46.76192" lon="4.83216">
        <ele>173.673661</ele>
        <time>2011-02-12T06:46:19Z</time>
      </trkpt>
      <trkpt lat="46.76195" lon="4.83198">
        <ele>173.213355</ele>
        <time>2011-02-12T06:46:22Z</time>
      </trkpt>
      <trkpt lat="46.76198" lon="4.8318">
        <ele>172.643429</ele>
        <time>2011-02-12T06:46:25Z</time>
      </trkpt>
      <trkpt lat="46.76202" lon="4.83161">
        <ele>172.232017</ele>
        <time>2011-02-12T06:46:28Z</time>
      </trkpt>
      <trkpt lat="46.76204" lon="4.83149">
        <ele>172.085033</ele>
        <time>2011-02-12T06:46:30Z</time>
      </trkpt>
      <trkpt lat="46.76208" lon="4.83135">
        <ele>172.14109</ele>
        <time>2011-02-12T06:46:32Z</time>
      </trkpt>
      <trkpt lat="46.76213" lon="4.83115">
        <ele>172.36083</ele>
        <time>2011-02-12T06:46:35Z</time>
      </trkpt>
      <trkpt lat="46.76218" lon="4.83096">
        <ele>172.677082</ele>
        <time>2011-02-12T06:46:38Z</time>
      </trkpt>
      <trkpt lat="46.76224" lon="4.83076">
        <ele>173.024912</ele>
        <time>2011-02-12T06:46:41Z</time>
      </trkpt>
      <trkpt lat="46.76231" lon="4.83058">
        <ele>173.446665</ele>
        <time>2011-02-12T06:46:44Z</time>
      </trkpt>
      <trkpt lat="46.76238" lon="4.83041">
        <ele>174.0122</ele>
        <time>2011-02-12T06:46:47Z</time>
      </trkpt>
      <trkpt lat="46.76247" lon="4.83025">
        <ele>174.696354</ele>
        <time>2011-02-12T06:46:50Z</time>
      </trkpt>
      <trkpt lat="46.76254" lon="4.83015">
        <ele>175.425191</ele>
        <time>2011-02-12T06:46:52Z</time>
      </trkpt>
      <trkpt lat="46.76261" lon="4.83005">
        <ele>176.106459</ele>
        <time>2011-02-12T06:46:54Z</time>
      </trkpt>
      <trkpt lat="46.76271" lon="4.82989">
        <ele>176.596429</ele>
        <time>2011-02-12T06:46:57Z</time>
      </trkpt>
      <trkpt lat="46.76283" lon="4.82972">
        <ele>176.814828</ele>
        <time>2011-02-12T06:47:00Z</time>
      </trkpt>
      <trkpt lat="46.76294" lon="4.82954">
        <ele>176.839453</ele>
        <time>2011-02-12T06:47:03Z</time>
      </trkpt>
      <trkpt lat="46.763" lon="4.82943">
        <ele>176.772656</ele>
        <time>2011-02-12T06:47:05Z</time>
      </trkpt>
      <trkpt lat="46.7631" lon="4.82925">
        <ele>176.629804</ele>
        <time>2011-02-12T06:47:08Z</time>
      </trkpt>
      <trkpt lat="46.76319" lon="4.82906">
        <ele>176.389646</ele>
        <time>2011-02-12T06:47:11Z</time>
      </trkpt>
      <trkpt lat="46.76328" lon="4.82886">
        <ele>176.098621</ele>
        <time>2011-02-12T06:47:14Z</time>
      </trkpt>
      <trkpt lat="46.76334" lon="4.82874">
        <ele>175.86382</ele>
        <time>2011-02-12T06:47:16Z</time>
      </trkpt>
      <trkpt lat="46.76342" lon="4.82853">
        <ele>175.746366</ele>
        <time>2011-02-12T06:47:19Z</time>
      </trkpt>
      <trkpt lat="46.76347" lon="4.8284">
        <ele>175.72122</ele>
        <time>2011-02-12T06:47:21Z</time>
      </trkpt>
      <trkpt lat="46.76353" lon="4.82821">
        <ele>175.735777</ele>
        <time>2011-02-12T06:47:24Z</time>
      </trkpt>
      <trkpt lat="46.76357" lon="4.82808">
        <ele>175.781728</ele>
        <time>2011-02-12T06:47:26Z</time>
      </trkpt>
      <trkpt lat="46.76363" lon="4.82788">
        <ele>175.906599</ele>
        <time>2011-02-12T06:47:29Z</time>
      </trkpt>
      <trkpt lat="46.76366" lon="4.82774">
        <ele>176.16043</ele>
        <time>2011-02-12T06:47:31Z</time>
      </trkpt>
      <trkpt lat="46.76369" lon="4.8276">
        <ele>176.526589</ele>
        <time>2011-02-12T06:47:33Z</time>
      </trkpt>
      <trkpt lat="46.76376" lon="4.82741">
        <ele>176.967212</ele>
        <time>2011-02-12T06:47:36Z</time>
      </trkpt>
      <trkpt lat="46.76381" lon="4.82722">
        <ele>177.463069</ele>
        <time>2011-02-12T06:47:39Z</time>
      </trkpt>
      <trkpt lat="46.76386" lon="4.82704">
        <ele>177.983347</ele>
        <time>2011-02-12T06:47:42Z</time>
      </trkpt>
      <trkpt lat="46.76391" lon="4.82685">
        <ele>178.50257</ele>
        <time>2011-02-12T06:47:45Z</time>
      </trkpt>
      <trkpt lat="46.76395" lon="4.82664">
        <ele>178.95889</ele>
        <time>2011-02-12T06:47:48Z</time>
      </trkpt>
      <trkpt lat="46.76397" lon="4.8265">
        <ele>179.235185</ele>
        <time>2011-02-12T06:47:50Z</time>
      </trkpt>
      <trkpt lat="46.76399" lon="4.8263">
        <ele>179.315578</ele>
        <time>2011-02-12T06:47:53Z</time>
      </trkpt>
      <trkpt lat="46.76398" lon="4.8261">
        <ele>179.297308</ele>
        <time>2011-02-12T06:47:56Z</time>
      </trkpt>
      <trkpt lat="46.76397" lon="4.82597">
        <ele>179.234149</ele>
        <time>2011-02-12T06:47:58Z</time>
      </trkpt>
      <trkpt lat="46.76394" lon="4.82577">
        <ele>179.139343</ele>
        <time>2011-02-12T06:48:01Z</time>
      </trkpt>
      <trkpt lat="46.7639" lon="4.82561">
        <ele>179.043574</ele>
        <time>2011-02-12T06:48:04Z</time>
      </trkpt>
      <trkpt lat="46.76384" lon="4.82543">
        <ele>178.976358</ele>
        <time>2011-02-12T06:48:07Z</time>
      </trkpt>
      <trkpt lat="46.76378" lon="4.82526">
        <ele>178.941021</ele>
        <time>2011-02-12T06:48:10Z</time>
      </trkpt>
      <trkpt lat="46.76373" lon="4.82509">
        <ele>178.924849</ele>
        <time>2011-02-12T06:48:13Z</time>
      </trkpt>
      <trkpt lat="46.76368" lon="4.82492">
        <ele>178.877049</ele>
        <time>2011-02-12T06:48:16Z</time>
      </trkpt>
      <trkpt lat="46.76365" lon="4.82479">
        <ele>178.758023</ele>
        <time>2011-02-12T06:48:18Z</time>
      </trkpt>
      <trkpt lat="46.76366" lon="4.82455">
        <ele>178.610931</ele>
        <time>2011-02-12T06:48:21Z</time>
      </trkpt>
      <trkpt lat="46.76369" lon="4.8244">
        <ele>178.509095</ele>
        <time>2011-02-12T06:48:23Z</time>
      </trkpt>
      <trkpt lat="46.7638" lon="4.82423">
        <ele>178.467415</ele>
        <time>2011-02-12T06:48:26Z</time>
      </trkpt>
      <trkpt lat="46.76389" lon="4.82414">
        <ele>178.461796</ele>
        <time>2011-02-12T06:48:28Z</time>
      </trkpt>
      <trkpt lat="46.76403" lon="4.82404">
        <ele>178.47365</ele>
        <time>2011-02-12T06:48:31Z</time>
      </trkpt>
      <trkpt lat="46.76417" lon="4.82395">
        <ele>178.491953</ele>
        <time>2011-02-12T06:48:34Z</time>
      </trkpt>
      <trkpt lat="46.76426" lon="4.82389">
        <ele>178.504996</ele>
        <time>2011-02-12T06:48:36Z</time>
      </trkpt>
      <trkpt lat="46.7644" lon="4.8238">
        <ele>178.506722</ele>
        <time>2011-02-12T06:48:39Z</time>
      </trkpt>
      <trkpt lat="46.76454" lon="4.82373">
        <ele>178.514993</ele>
        <time>2011-02-12T06:48:42Z</time>
      </trkpt>
      <trkpt lat="46.76463" lon="4.82367">
        <ele>178.543392</ele>
        <time>2011-02-12T06:48:44Z</time>
      </trkpt>
      <trkpt lat="46.76476" lon="4.82359">
        <ele>178.574627</ele>
        <time>2011-02-12T06:48:47Z</time>
      </trkpt>
      <trkpt lat="46.76487" lon="4.82349">
        <ele>178.598268</ele>
        <time>2011-02-12T06:48:50Z</time>
      </trkpt>
      <trkpt lat="46.76493" lon="4.82338">
        <ele>178.66362</ele>
        <time>2011-02-12T06:48:52Z</time>
      </trkpt>
      <trkpt lat="46.76503" lon="4.82319">
        <ele>178.874979</ele>
        <time>2011-02-12T06:48:55Z</time>
      </trkpt>
      <trkpt lat="46.76508" lon="4.82306">
        <ele>179.302897</ele>
        <time>2011-02-12T06:48:57Z</time>
      </trkpt>
      <trkpt lat="46.76517" lon="4.82287">
        <ele>179.870553</ele>
        <time>2011-02-12T06:49:00Z</time>
      </trkpt>
      <trkpt lat="46.76526" lon="4.8227">
        <ele>180.458997</ele>
        <time>2011-02-12T06:49:03Z</time>
      </trkpt>
      <trkpt lat="46.76532" lon="4.82259">
        <ele>181.038767</ele>
        <time>2011-02-12T06:49:05Z</time>
      </trkpt>
      <trkpt lat="46.76541" lon="4.82244">
        <ele>181.536062</ele>
        <time>2011-02-12T06:49:08Z</time>
      </trkpt>
      <trkpt lat="46.7655" lon="4.82228">
        <ele>181.818845</ele>
        <time>2011-02-12T06:49:11Z</time>
      </trkpt>
      <trkpt lat="46.76557" lon="4.82217">
        <ele>181.889798</ele>
        <time>2011-02-12T06:49:13Z</time>
      </trkpt>
      <trkpt lat="46.76565" lon="4.82199">
        <ele>181.845409</ele>
        <time>2011-02-12T06:49:16Z</time>
      </trkpt>
      <trkpt lat="46.76573" lon="4.82182">
        <ele>181.758835</ele>
        <time>2011-02-12T06:49:19Z</time>
      </trkpt>
      <trkpt lat="46.76581" lon="4.82163">
        <ele>181.687047</ele>
        <time>2011-02-12T06:49:22Z</time>
      </trkpt>
      <trkpt lat="46.76589" lon="4.82144">
        <ele>181.656564</ele>
        <time>2011-02-12T06:49:25Z</time>
      </trkpt>
      <trkpt lat="46.76596" lon="4.82126">
        <ele>181.654095</ele>
        <time>2011-02-12T06:49:28Z</time>
      </trkpt>
      <trkpt lat="46.76601" lon="4.82113">
        <ele>181.687457</ele>
        <time>2011-02-12T06:49:30Z</time>
      </trkpt>
      <trkpt lat="46.76607" lon="4.82101">
        <ele>181.782621</ele>
        <time>2011-02-12T06:49:32Z</time>
      </trkpt>
      <trkpt lat="46.76615" lon="4.82083">
        <ele>181.910969</ele>
        <time>2011-02-12T06:49:35Z</time>
      </trkpt>
      <trkpt lat="46.76624" lon="4.82063">
        <ele>182.010019</ele>
        <time>2011-02-12T06:49:38Z</time>
      </trkpt>
      <trkpt lat="46.7663" lon="4.82052">
        <ele>182.061378</ele>
        <time>2011-02-12T06:49:40Z</time>
      </trkpt>
      <trkpt lat="46.7664" lon="4.82035">
        <ele>182.108142</ele>
        <time>2011-02-12T06:49:43Z</time>
      </trkpt>
      <trkpt lat="46.76646" lon="4.82024">
        <ele>182.249112</ele>
        <time>2011-02-12T06:49:45Z</time>
      </trkpt>
      <trkpt lat="46.76653" lon="4.82009">
        <ele>182.525832</ele>
        <time>2011-02-12T06:49:48Z</time>
      </trkpt>
      <trkpt lat="46.7666" lon="4.81992">
        <ele>182.881445</ele>
        <time>2011-02-12T06:49:51Z</time>
      </trkpt>
      <trkpt lat="46.76665" lon="4.8198">
        <ele>183.281645</ele>
        <time>2011-02-12T06:49:53Z</time>
      </trkpt>
      <trkpt lat="46.76673" lon="4.81966">
        <ele>183.773595</ele>
        <time>2011-02-12T06:49:56Z</time>
      </trkpt>
      <trkpt lat="46.7668" lon="4.81951">
        <ele>184.391289</ele>
        <time>2011-02-12T06:49:59Z</time>
      </trkpt>
      <trkpt lat="46.76685" lon="4.81935">
        <ele>185.055572</ele>
        <time>2011-02-12T06:50:02Z</time>
      </trkpt>
      <trkpt lat="46.76684" lon="4.81918">
        <ele>185.611302</ele>
        <time>2011-02-12T06:50:05Z</time>
      </trkpt>
      <trkpt lat="46.76679" lon="4.81902">
        <ele>185.960404</ele>
        <time>2011-02-12T06:50:08Z</time>
      </trkpt>
      <trkpt lat="46.76673" lon="4.81888">
        <ele>186.102839</ele>
        <time>2011-02-12T06:50:11Z</time>
      </trkpt>
      <trkpt lat="46.76666" lon="4.81874">
        <ele>186.113404</ele>
        <time>2011-02-12T06:50:14Z</time>
      </trkpt>
      <trkpt lat="46.76657" lon="4.81861">
        <ele>186.080766</ele>
        <time>2011-02-12T06:50:17Z</time>
      </trkpt>
      <trkpt lat="46.76648" lon="4.81847">
        <ele>186.016607</ele>
        <time>2011-02-12T06:50:20Z</time>
      </trkpt>
      <trkpt lat="46.7664" lon="4.81833">
        <ele>185.887127</ele>
        <time>2011-02-12T06:50:23Z</time>
      </trkpt>
      <trkpt lat="46.76632" lon="4.81819">
        <ele>185.718035</ele>
        <time>2011-02-12T06:50:26Z</time>
      </trkpt>
      <trkpt lat="46.76623" lon="4.81806">
        <ele>185.577167</ele>
        <time>2011-02-12T06:50:29Z</time>
      </trkpt>
      <trkpt lat="46.76612" lon="4.81793">
        <ele>185.477278</ele>
        <time>2011-02-12T06:50:32Z</time>
      </trkpt>
      <trkpt lat="46.766" lon="4.8178">
        <ele>185.375777</ele>
        <time>2011-02-12T06:50:35Z</time>
      </trkpt>
      <trkpt lat="46.76589" lon="4.81767">
        <ele>185.254278</ele>
        <time>2011-02-12T06:50:38Z</time>
      </trkpt>
      <trkpt lat="46.76581" lon="4.81759">
        <ele>185.152639</ele>
        <time>2011-02-12T06:50:40Z</time>
      </trkpt>
      <trkpt lat="46.76568" lon="4.81744">
        <ele>185.100703</ele>
        <time>2011-02-12T06:50:43Z</time>
      </trkpt>
      <trkpt lat="46.76556" lon="4.8173">
        <ele>185.046133</ele>
        <time>2011-02-12T06:50:46Z</time>
      </trkpt>
      <trkpt lat="46.76547" lon="4.8172">
        <ele>184.945152</ele>
        <time>2011-02-12T06:50:48Z</time>
      </trkpt>
      <trkpt lat="46.76532" lon="4.81701">
        <ele>184.887912</ele>
        <time>2011-02-12T06:50:51Z</time>
      </trkpt>
      <trkpt lat="46.76522" lon="4.81688">
        <ele>184.951172</ele>
        <time>2011-02-12T06:50:53Z</time>
      </trkpt>
      <trkpt lat="46.76504" lon="4.81667">
        <ele>185.057427</ele>
        <time>2011-02-12T06:50:56Z</time>
      </trkpt>
      <trkpt lat="46.76482" lon="4.81647">
        <ele>185.237301</ele>
        <time>2011-02-12T06:50:59Z</time>
      </trkpt>
      <trkpt lat="46.76458" lon="4.81627">
        <ele>185.61095</ele>
        <time>2011-02-12T06:51:02Z</time>
      </trkpt>
      <trkpt lat="46.76441" lon="4.81611">
        <ele>186.052699</ele>
        <time>2011-02-12T06:51:04Z</time>
      </trkpt>
      <trkpt lat="46.76417" lon="4.81573">
        <ele>186.32962</ele>
        <time>2011-02-12T06:51:07Z</time>
      </trkpt>
      <trkpt lat="46.76394" lon="4.81532">
        <ele>186.411991</ele>
        <time>2011-02-12T06:51:10Z</time>
      </trkpt>
      <trkpt lat="46.76378" lon="4.81503">
        <ele>186.344191</ele>
        <time>2011-02-12T06:51:12Z</time>
      </trkpt>
      <trkpt lat="46.76349" lon="4.8147">
        <ele>186.092691</ele>
        <time>2011-02-12T06:51:15Z</time>
      </trkpt>
      <trkpt lat="46.76316" lon="4.81474">
        <ele>185.638178</ele>
        <time>2011-02-12T06:51:18Z</time>
      </trkpt>
      <trkpt lat="46.76284" lon="4.81487">
        <ele>185.134626</ele>
        <time>2011-02-12T06:51:21Z</time>
      </trkpt>
      <trkpt lat="46.76262" lon="4.81495">
        <ele>184.801967</ele>
        <time>2011-02-12T06:51:23Z</time>
      </trkpt>
      <trkpt lat="46.7623" lon="4.81499">
        <ele>184.607591</ele>
        <time>2011-02-12T06:51:26Z</time>
      </trkpt>
      <trkpt lat="46.7621" lon="4.81496">
        <ele>184.39602</ele>
        <time>2011-02-12T06:51:28Z</time>
      </trkpt>
      <trkpt lat="46.7618" lon="4.81482">
        <ele>184.172212</ele>
        <time>2011-02-12T06:51:31Z</time>
      </trkpt>
      <trkpt lat="46.76162" lon="4.81471">
        <ele>184.00313</ele>
        <time>2011-02-12T06:51:33Z</time>
      </trkpt>
      <trkpt lat="46.76138" lon="4.8145">
        <ele>183.837309</ele>
        <time>2011-02-12T06:51:36Z</time>
      </trkpt>
      <trkpt lat="46.76124" lon="4.8143">
        <ele>183.51966</ele>
        <time>2011-02-12T06:51:38Z</time>
      </trkpt>
      <trkpt lat="46.76103" lon="4.81402">
        <ele>183.007955</ele>
        <time>2011-02-12T06:51:41Z</time>
      </trkpt>
      <trkpt lat="46.76085" lon="4.81373">
        <ele>182.424854</ele>
        <time>2011-02-12T06:51:44Z</time>
      </trkpt>
      <trkpt lat="46.76068" lon="4.81346">
        <ele>181.828538</ele>
        <time>2011-02-12T06:51:47Z</time>
      </trkpt>
      <trkpt lat="46.76057" lon="4.81329">
        <ele>181.103098</ele>
        <time>2011-02-12T06:51:49Z</time>
      </trkpt>
      <trkpt lat="46.76042" lon="4.81305">
        <ele>180.110827</ele>
        <time>2011-02-12T06:51:52Z</time>
      </trkpt>
      <trkpt lat="46.76027" lon="4.81282">
        <ele>178.886443</ele>
        <time>2011-02-12T06:51:55Z</time>
      </trkpt>
      <trkpt lat="46.76012" lon="4.8126">
        <ele>177.675547</ele>
        <time>2011-02-12T06:51:58Z</time>
      </trkpt>
      <trkpt lat="46.75998" lon="4.81239">
        <ele>176.717075</ele>
        <time>2011-02-12T06:52:01Z</time>
      </trkpt>
      <trkpt lat="46.75989" lon="4.81226">
        <ele>176.073325</ele>
        <time>2011-02-12T06:52:03Z</time>
      </trkpt>
      <trkpt lat="46.75975" lon="4.81206">
        <ele>175.634649</ele>
        <time>2011-02-12T06:52:06Z</time>
      </trkpt>
      <trkpt lat="46.75965" lon="4.8119">
        <ele>175.241768</ele>
        <time>2011-02-12T06:52:09Z</time>
      </trkpt>
      <trkpt lat="46.75957" lon="4.81179">
        <ele>174.801536</ele>
        <time>2011-02-12T06:52:12Z</time>
      </trkpt>
      <trkpt lat="46.75949" lon="4.81171">
        <ele>174.289178</ele>
        <time>2011-02-12T06:52:15Z</time>
      </trkpt>
      <trkpt lat="46.75942" lon="4.81162">
        <ele>173.721031</ele>
        <time>2011-02-12T06:52:19Z</time>
      </trkpt>
      <trkpt lat="46.75935" lon="4.8115">
        <ele>173.230075</ele>
        <time>2011-02-12T06:52:24Z</time>
      </trkpt>
      <trkpt lat="46.75931" lon="4.81138">
        <ele>172.950742</ele>
        <time>2011-02-12T06:52:28Z</time>
      </trkpt>
      <trkpt lat="46.75931" lon="4.81138">
        <ele>172.830861</ele>
        <time>2011-02-12T06:52:33Z</time>
      </trkpt>
      <trkpt lat="46.75913" lon="4.81096">
        <ele>172.755566</ele>
        <time>2011-02-12T06:52:42Z</time>
      </trkpt>
      <trkpt lat="46.75906" lon="4.81084">
        <ele>172.64985</ele>
        <time>2011-02-12T06:52:47Z</time>
      </trkpt>
      <trkpt lat="46.75899" lon="4.81074">
        <ele>172.479122</ele>
        <time>2011-02-12T06:52:51Z</time>
      </trkpt>
      <trkpt lat="46.75892" lon="4.81063">
        <ele>172.236882</ele>
        <time>2011-02-12T06:52:55Z</time>
      </trkpt>
      <trkpt lat="46.75884" lon="4.8105">
        <ele>171.962299</ele>
        <time>2011-02-12T06:52:59Z</time>
      </trkpt>
      <trkpt lat="46.75877" lon="4.81037">
        <ele>171.734694</ele>
        <time>2011-02-12T06:53:03Z</time>
      </trkpt>
      <trkpt lat="46.7587" lon="4.81026">
        <ele>171.591634</ele>
        <time>2011-02-12T06:53:07Z</time>
      </trkpt>
      <trkpt lat="46.75862" lon="4.81015">
        <ele>171.501099</ele>
        <time>2011-02-12T06:53:11Z</time>
      </trkpt>
      <trkpt lat="46.75855" lon="4.81004">
        <ele>171.441775</ele>
        <time>2011-02-12T06:53:15Z</time>
      </trkpt>
      <trkpt lat="46.75849" lon="4.80991">
        <ele>171.412549</ele>
        <time>2011-02-12T06:53:19Z</time>
      </trkpt>
      <trkpt lat="46.75845" lon="4.8098">
        <ele>171.407475</ele>
        <time>2011-02-12T06:53:23Z</time>
      </trkpt>
      <trkpt lat="46.7584" lon="4.80965">
        <ele>171.42139</ele>
        <time>2011-02-12T06:53:26Z</time>
      </trkpt>
      <trkpt lat="46.75837" lon="4.80951">
        <ele>171.46548</ele>
        <time>2011-02-12T06:53:29Z</time>
      </trkpt>
      <trkpt lat="46.75834" lon="4.80938">
        <ele>171.545528</ele>
        <time>2011-02-12T06:53:32Z</time>
      </trkpt>
      <trkpt lat="46.75831" lon="4.80921">
        <ele>171.634636</ele>
        <time>2011-02-12T06:53:36Z</time>
      </trkpt>
      <trkpt lat="46.75828" lon="4.80907">
        <ele>171.695179</ele>
        <time>2011-02-12T06:53:39Z</time>
      </trkpt>
      <trkpt lat="46.75824" lon="4.80895">
        <ele>171.724336</ele>
        <time>2011-02-12T06:53:42Z</time>
      </trkpt>
      <trkpt lat="46.7582" lon="4.80879">
        <ele>171.741804</ele>
        <time>2011-02-12T06:53:45Z</time>
      </trkpt>
      <trkpt lat="46.75816" lon="4.80865">
        <ele>171.752902</ele>
        <time>2011-02-12T06:53:48Z</time>
      </trkpt>
      <trkpt lat="46.75811" lon="4.80853">
        <ele>171.756271</ele>
        <time>2011-02-12T06:53:51Z</time>
      </trkpt>
      <trkpt lat="46.75807" lon="4.80841">
        <ele>171.731909</ele>
        <time>2011-02-12T06:53:54Z</time>
      </trkpt>
      <trkpt lat="46.75804" lon="4.80826">
        <ele>171.65853</ele>
        <time>2011-02-12T06:53:57Z</time>
      </trkpt>
      <trkpt lat="46.75805" lon="4.8081">
        <ele>171.567788</ele>
        <time>2011-02-12T06:54:00Z</time>
      </trkpt>
      <trkpt lat="46.75807" lon="4.80795">
        <ele>171.510328</ele>
        <time>2011-02-12T06:54:03Z</time>
      </trkpt>
      <trkpt lat="46.7581" lon="4.8078">
        <ele>171.492973</ele>
        <time>2011-02-12T06:54:06Z</time>
      </trkpt>
      <trkpt lat="46.75812" lon="4.80763">
        <ele>171.507609</ele>
        <time>2011-02-12T06:54:09Z</time>
      </trkpt>
      <trkpt lat="46.75814" lon="4.80748">
        <ele>171.558444</ele>
        <time>2011-02-12T06:54:12Z</time>
      </trkpt>
      <trkpt lat="46.75816" lon="4.80734">
        <ele>171.641833</ele>
        <time>2011-02-12T06:54:15Z</time>
      </trkpt>
      <trkpt lat="46.75818" lon="4.80719">
        <ele>171.732307</ele>
        <time>2011-02-12T06:54:18Z</time>
      </trkpt>
      <trkpt lat="46.75819" lon="4.80706">
        <ele>171.803478</ele>
        <time>2011-02-12T06:54:21Z</time>
      </trkpt>
      <trkpt lat="46.75821" lon="4.80691">
        <ele>171.853596</ele>
        <time>2011-02-12T06:54:25Z</time>
      </trkpt>
      <trkpt lat="46.75821" lon="4.80691">
        <ele>171.89185</ele>
        <time>2011-02-12T06:54:28Z</time>
      </trkpt>
      <trkpt lat="46.75823" lon="4.80666">
        <ele>171.927271</ele>
        <time>2011-02-12T06:54:32Z</time>
      </trkpt>
      <trkpt lat="46.75824" lon="4.80648">
        <ele>171.977157</ele>
        <time>2011-02-12T06:54:35Z</time>
      </trkpt>
      <trkpt lat="46.75825" lon="4.80632">
        <ele>172.050716</ele>
        <time>2011-02-12T06:54:38Z</time>
      </trkpt>
      <trkpt lat="46.75826" lon="4.80618">
        <ele>172.209435</ele>
        <time>2011-02-12T06:54:41Z</time>
      </trkpt>
      <trkpt lat="46.75826" lon="4.80604">
        <ele>172.54391</ele>
        <time>2011-02-12T06:54:44Z</time>
      </trkpt>
      <trkpt lat="46.75824" lon="4.80588">
        <ele>173.032843</ele>
        <time>2011-02-12T06:54:47Z</time>
      </trkpt>
      <trkpt lat="46.7582" lon="4.80574">
        <ele>173.571876</ele>
        <time>2011-02-12T06:54:50Z</time>
      </trkpt>
      <trkpt lat="46.75816" lon="4.80559">
        <ele>174.091927</ele>
        <time>2011-02-12T06:54:53Z</time>
      </trkpt>
      <trkpt lat="46.75815" lon="4.80544">
        <ele>174.56597</ele>
        <time>2011-02-12T06:54:56Z</time>
      </trkpt>
      <trkpt lat="46.75816" lon="4.80528">
        <ele>174.999583</ele>
        <time>2011-02-12T06:54:59Z</time>
      </trkpt>
      <trkpt lat="46.75818" lon="4.80509">
        <ele>175.419835</ele>
        <time>2011-02-12T06:55:02Z</time>
      </trkpt>
      <trkpt lat="46.7582" lon="4.80489">
        <ele>175.85799</ele>
        <time>2011-02-12T06:55:05Z</time>
      </trkpt>
      <trkpt lat="46.75821" lon="4.8047">
        <ele>176.323665</ele>
        <time>2011-02-12T06:55:08Z</time>
      </trkpt>
      <trkpt lat="46.75822" lon="4.80451">
        <ele>176.781386</ele>
        <time>2011-02-12T06:55:11Z</time>
      </trkpt>
      <trkpt lat="46.75823" lon="4.80431">
        <ele>177.167885</ele>
        <time>2011-02-12T06:55:14Z</time>
      </trkpt>
      <trkpt lat="46.75824" lon="4.80407">
        <ele>177.507459</ele>
        <time>2011-02-12T06:55:17Z</time>
      </trkpt>
      <trkpt lat="46.75825" lon="4.80391">
        <ele>177.905958</ele>
        <time>2011-02-12T06:55:19Z</time>
      </trkpt>
      <trkpt lat="46.75825" lon="4.8037">
        <ele>178.386405</ele>
        <time>2011-02-12T06:55:22Z</time>
      </trkpt>
      <trkpt lat="46.75826" lon="4.80357">
        <ele>179.130575</ele>
        <time>2011-02-12T06:55:24Z</time>
      </trkpt>
      <trkpt lat="46.75828" lon="4.80337">
        <ele>180.365759</ele>
        <time>2011-02-12T06:55:27Z</time>
      </trkpt>
      <trkpt lat="46.7583" lon="4.80323">
        <ele>181.945471</ele>
        <time>2011-02-12T06:55:29Z</time>
      </trkpt>
      <trkpt lat="46.75831" lon="4.80308">
        <ele>183.540921</ele>
        <time>2011-02-12T06:55:31Z</time>
      </trkpt>
      <trkpt lat="46.75832" lon="4.80288">
        <ele>184.911511</ele>
        <time>2011-02-12T06:55:34Z</time>
      </trkpt>
      <trkpt lat="46.75835" lon="4.80268">
        <ele>185.89966</ele>
        <time>2011-02-12T06:55:37Z</time>
      </trkpt>
      <trkpt lat="46.75837" lon="4.80247">
        <ele>186.698887</ele>
        <time>2011-02-12T06:55:40Z</time>
      </trkpt>
      <trkpt lat="46.75838" lon="4.80223">
        <ele>187.566735</ele>
        <time>2011-02-12T06:55:43Z</time>
      </trkpt>
      <trkpt lat="46.7584" lon="4.80198">
        <ele>188.378527</ele>
        <time>2011-02-12T06:55:46Z</time>
      </trkpt>
      <trkpt lat="46.75842" lon="4.80182">
        <ele>188.872308</ele>
        <time>2011-02-12T06:55:48Z</time>
      </trkpt>
      <trkpt lat="46.75844" lon="4.80166">
        <ele>189.188236</ele>
        <time>2011-02-12T06:55:50Z</time>
      </trkpt>
      <trkpt lat="46.75845" lon="4.8015">
        <ele>189.715642</ele>
        <time>2011-02-12T06:55:52Z</time>
      </trkpt>
      <trkpt lat="46.75846" lon="4.80129">
        <ele>190.456206</ele>
        <time>2011-02-12T06:55:55Z</time>
      </trkpt>
      <trkpt lat="46.75846" lon="4.80108">
        <ele>191.016654</ele>
        <time>2011-02-12T06:55:58Z</time>
      </trkpt>
      <trkpt lat="46.75847" lon="4.80088">
        <ele>191.227089</ele>
        <time>2011-02-12T06:56:01Z</time>
      </trkpt>
      <trkpt lat="46.75849" lon="4.80066">
        <ele>191.11771</ele>
        <time>2011-02-12T06:56:04Z</time>
      </trkpt>
      <trkpt lat="46.75851" lon="4.8005">
        <ele>190.684262</ele>
        <time>2011-02-12T06:56:06Z</time>
      </trkpt>
      <trkpt lat="46.75851" lon="4.80033">
        <ele>190.031397</ele>
        <time>2011-02-12T06:56:08Z</time>
      </trkpt>
      <trkpt lat="46.75852" lon="4.80008">
        <ele>189.422533</ele>
        <time>2011-02-12T06:56:11Z</time>
      </trkpt>
      <trkpt lat="46.75853" lon="4.79984">
        <ele>189.069655</ele>
        <time>2011-02-12T06:56:14Z</time>
      </trkpt>
      <trkpt lat="46.75855" lon="4.7997">
        <ele>188.977782</ele>
        <time>2011-02-12T06:56:16Z</time>
      </trkpt>
      <trkpt lat="46.75859" lon="4.79952">
        <ele>189.05767</ele>
        <time>2011-02-12T06:56:19Z</time>
      </trkpt>
      <trkpt lat="46.75861" lon="4.79932">
        <ele>189.305911</ele>
        <time>2011-02-12T06:56:22Z</time>
      </trkpt>
      <trkpt lat="46.75863" lon="4.79919">
        <ele>189.652132</ele>
        <time>2011-02-12T06:56:24Z</time>
      </trkpt>
      <trkpt lat="46.75864" lon="4.79905">
        <ele>189.914017</ele>
        <time>2011-02-12T06:56:26Z</time>
      </trkpt>
      <trkpt lat="46.75866" lon="4.79884">
        <ele>190.012301</ele>
        <time>2011-02-12T06:56:29Z</time>
      </trkpt>
      <trkpt lat="46.75867" lon="4.79863">
        <ele>189.969551</ele>
        <time>2011-02-12T06:56:32Z</time>
      </trkpt>
      <trkpt lat="46.75869" lon="4.79839">
        <ele>189.779369</ele>
        <time>2011-02-12T06:56:35Z</time>
      </trkpt>
      <trkpt lat="46.7587" lon="4.79808">
        <ele>189.509881</ele>
        <time>2011-02-12T06:56:38Z</time>
      </trkpt>
      <trkpt lat="46.75871" lon="4.79785">
        <ele>189.309268</ele>
        <time>2011-02-12T06:56:40Z</time>
      </trkpt>
      <trkpt lat="46.75868" lon="4.79753">
        <ele>189.235197</ele>
        <time>2011-02-12T06:56:43Z</time>
      </trkpt>
      <trkpt lat="46.75867" lon="4.79735">
        <ele>189.680005</ele>
        <time>2011-02-12T06:56:45Z</time>
      </trkpt>
      <trkpt lat="46.75867" lon="4.79713">
        <ele>191.166284</ele>
        <time>2011-02-12T06:56:48Z</time>
      </trkpt>
      <trkpt lat="46.75867" lon="4.79691">
        <ele>193.689737</ele>
        <time>2011-02-12T06:56:51Z</time>
      </trkpt>
      <trkpt lat="46.75868" lon="4.79669">
        <ele>196.644362</ele>
        <time>2011-02-12T06:56:54Z</time>
      </trkpt>
      <trkpt lat="46.75869" lon="4.79655">
        <ele>199.072609</ele>
        <time>2011-02-12T06:56:56Z</time>
      </trkpt>
      <trkpt lat="46.75871" lon="4.79632">
        <ele>200.292035</ele>
        <time>2011-02-12T06:56:59Z</time>
      </trkpt>
      <trkpt lat="46.75873" lon="4.79609">
        <ele>200.528065</ele>
        <time>2011-02-12T06:57:02Z</time>
      </trkpt>
      <trkpt lat="46.75874" lon="4.79594">
        <ele>200.35811</ele>
        <time>2011-02-12T06:57:04Z</time>
      </trkpt>
      <trkpt lat="46.75876" lon="4.79571">
        <ele>199.94358</ele>
        <time>2011-02-12T06:57:07Z</time>
      </trkpt>
      <trkpt lat="46.75879" lon="4.79549">
        <ele>199.035043</ele>
        <time>2011-02-12T06:57:10Z</time>
      </trkpt>
      <trkpt lat="46.75881" lon="4.79534">
        <ele>197.678135</ele>
        <time>2011-02-12T06:57:12Z</time>
      </trkpt>
      <trkpt lat="46.75884" lon="4.79511">
        <ele>196.249418</ele>
        <time>2011-02-12T06:57:15Z</time>
      </trkpt>
      <trkpt lat="46.75885" lon="4.79493">
        <ele>194.943645</ele>
        <time>2011-02-12T06:57:17Z</time>
      </trkpt>
      <trkpt lat="46.75886" lon="4.79464">
        <ele>193.84187</ele>
        <time>2011-02-12T06:57:20Z</time>
      </trkpt>
      <trkpt lat="46.75887" lon="4.79437">
        <ele>193.098627</ele>
        <time>2011-02-12T06:57:23Z</time>
      </trkpt>
      <trkpt lat="46.75888" lon="4.79413">
        <ele>192.735371</ele>
        <time>2011-02-12T06:57:26Z</time>
      </trkpt>
      <trkpt lat="46.75889" lon="4.79397">
        <ele>192.595894</ele>
        <time>2011-02-12T06:57:28Z</time>
      </trkpt>
      <trkpt lat="46.7589" lon="4.79381">
        <ele>192.483925</ele>
        <time>2011-02-12T06:57:30Z</time>
      </trkpt>
      <trkpt lat="46.75891" lon="4.79355">
        <ele>192.381711</ele>
        <time>2011-02-12T06:57:33Z</time>
      </trkpt>
      <trkpt lat="46.75892" lon="4.79339">
        <ele>192.394509</ele>
        <time>2011-02-12T06:57:35Z</time>
      </trkpt>
      <trkpt lat="46.75894" lon="4.79312">
        <ele>192.499414</ele>
        <time>2011-02-12T06:57:38Z</time>
      </trkpt>
      <trkpt lat="46.75895" lon="4.79286">
        <ele>192.508495</ele>
        <time>2011-02-12T06:57:41Z</time>
      </trkpt>
      <trkpt lat="46.75897" lon="4.7927">
        <ele>192.365738</ele>
        <time>2011-02-12T06:57:43Z</time>
      </trkpt>
      <trkpt lat="46.75897" lon="4.79253">
        <ele>192.28923</ele>
        <time>2011-02-12T06:57:45Z</time>
      </trkpt>
      <trkpt lat="46.75898" lon="4.79235">
        <ele>192.463693</ele>
        <time>2011-02-12T06:57:47Z</time>
      </trkpt>
      <trkpt lat="46.759" lon="4.79207">
        <ele>192.739186</ele>
        <time>2011-02-12T06:57:50Z</time>
      </trkpt>
      <trkpt lat="46.75902" lon="4.79179">
        <ele>193.090365</ele>
        <time>2011-02-12T06:57:53Z</time>
      </trkpt>
      <trkpt lat="46.75905" lon="4.79151">
        <ele>193.607703</ele>
        <time>2011-02-12T06:57:56Z</time>
      </trkpt>
      <trkpt lat="46.75907" lon="4.79125">
        <ele>194.075742</ele>
        <time>2011-02-12T06:57:59Z</time>
      </trkpt>
      <trkpt lat="46.75911" lon="4.79099">
        <ele>194.28029</ele>
        <time>2011-02-12T06:58:02Z</time>
      </trkpt>
      <trkpt lat="46.75912" lon="4.79082">
        <ele>194.26561</ele>
        <time>2011-02-12T06:58:04Z</time>
      </trkpt>
      <trkpt lat="46.75914" lon="4.79056">
        <ele>194.038716</ele>
        <time>2011-02-12T06:58:07Z</time>
      </trkpt>
      <trkpt lat="46.75916" lon="4.7903">
        <ele>193.627973</ele>
        <time>2011-02-12T06:58:10Z</time>
      </trkpt>
      <trkpt lat="46.75918" lon="4.79004">
        <ele>193.184784</ele>
        <time>2011-02-12T06:58:13Z</time>
      </trkpt>
      <trkpt lat="46.7592" lon="4.78979">
        <ele>192.822287</ele>
        <time>2011-02-12T06:58:16Z</time>
      </trkpt>
      <trkpt lat="46.75922" lon="4.78952">
        <ele>192.480724</ele>
        <time>2011-02-12T06:58:19Z</time>
      </trkpt>
      <trkpt lat="46.75923" lon="4.78932">
        <ele>192.036432</ele>
        <time>2011-02-12T06:58:21Z</time>
      </trkpt>
      <trkpt lat="46.75925" lon="4.78905">
        <ele>191.538614</ele>
        <time>2011-02-12T06:58:24Z</time>
      </trkpt>
      <trkpt lat="46.75927" lon="4.78876">
        <ele>191.194687</ele>
        <time>2011-02-12T06:58:27Z</time>
      </trkpt>
      <trkpt lat="46.75929" lon="4.78857">
        <ele>191.077905</ele>
        <time>2011-02-12T06:58:29Z</time>
      </trkpt>
      <trkpt lat="46.7593" lon="4.78829">
        <ele>191.131801</ele>
        <time>2011-02-12T06:58:32Z</time>
      </trkpt>
      <trkpt lat="46.7593" lon="4.78811">
        <ele>191.486183</ele>
        <time>2011-02-12T06:58:34Z</time>
      </trkpt>
      <trkpt lat="46.75931" lon="4.78787">
        <ele>192.350952</ele>
        <time>2011-02-12T06:58:37Z</time>
      </trkpt>
      <trkpt lat="46.75933" lon="4.78772">
        <ele>193.748467</ele>
        <time>2011-02-12T06:58:39Z</time>
      </trkpt>
      <trkpt lat="46.75935" lon="4.78749">
        <ele>195.393933</ele>
        <time>2011-02-12T06:58:42Z</time>
      </trkpt>
      <trkpt lat="46.75937" lon="4.78726">
        <ele>196.874014</ele>
        <time>2011-02-12T06:58:45Z</time>
      </trkpt>
      <trkpt lat="46.7594" lon="4.78706">
        <ele>197.929487</ele>
        <time>2011-02-12T06:58:48Z</time>
      </trkpt>
      <trkpt lat="46.75943" lon="4.78692">
        <ele>198.515048</ele>
        <time>2011-02-12T06:58:50Z</time>
      </trkpt>
      <trkpt lat="46.7595" lon="4.78674">
        <ele>198.700091</ele>
        <time>2011-02-12T06:58:53Z</time>
      </trkpt>
      <trkpt lat="46.75956" lon="4.78656">
        <ele>198.672398</ele>
        <time>2011-02-12T06:58:56Z</time>
      </trkpt>
      <trkpt lat="46.7596" lon="4.78642">
        <ele>198.478244</ele>
        <time>2011-02-12T06:58:58Z</time>
      </trkpt>
      <trkpt lat="46.75967" lon="4.78621">
        <ele>197.983155</ele>
        <time>2011-02-12T06:59:01Z</time>
      </trkpt>
      <trkpt lat="46.75974" lon="4.78601">
        <ele>197.170427</ele>
        <time>2011-02-12T06:59:04Z</time>
      </trkpt>
      <trkpt lat="46.7598" lon="4.78579">
        <ele>196.238669</ele>
        <time>2011-02-12T06:59:07Z</time>
      </trkpt>
      <trkpt lat="46.75983" lon="4.78563">
        <ele>195.304694</ele>
        <time>2011-02-12T06:59:09Z</time>
      </trkpt>
      <trkpt lat="46.7599" lon="4.7854">
        <ele>194.266323</ele>
        <time>2011-02-12T06:59:12Z</time>
      </trkpt>
      <trkpt lat="46.75994" lon="4.78525">
        <ele>193.214501</ele>
        <time>2011-02-12T06:59:14Z</time>
      </trkpt>
      <trkpt lat="46.75998" lon="4.78498">
        <ele>192.520005</ele>
        <time>2011-02-12T06:59:17Z</time>
      </trkpt>
      <trkpt lat="46.76006" lon="4.78476">
        <ele>192.297456</ele>
        <time>2011-02-12T06:59:20Z</time>
      </trkpt>
      <trkpt lat="46.76013" lon="4.78466">
        <ele>192.558102</ele>
        <time>2011-02-12T06:59:22Z</time>
      </trkpt>
      <trkpt lat="46.7602" lon="4.78455">
        <ele>193.836245</ele>
        <time>2011-02-12T06:59:24Z</time>
      </trkpt>
      <trkpt lat="46.76026" lon="4.78436">
        <ele>196.512353</ele>
        <time>2011-02-12T06:59:27Z</time>
      </trkpt>
      <trkpt lat="46.76032" lon="4.78417">
        <ele>199.769619</ele>
        <time>2011-02-12T06:59:30Z</time>
      </trkpt>
      <trkpt lat="46.76036" lon="4.78396">
        <ele>202.300406</ele>
        <time>2011-02-12T06:59:33Z</time>
      </trkpt>
      <trkpt lat="46.76048" lon="4.78376">
        <ele>203.783015</ele>
        <time>2011-02-12T06:59:36Z</time>
      </trkpt>
      <trkpt lat="46.76057" lon="4.78365">
        <ele>204.657418</ele>
        <time>2011-02-12T06:59:38Z</time>
      </trkpt>
      <trkpt lat="46.76068" lon="4.78357">
        <ele>205.21396</ele>
        <time>2011-02-12T06:59:40Z</time>
      </trkpt>
      <trkpt lat="46.76078" lon="4.78351">
        <ele>205.75719</ele>
        <time>2011-02-12T06:59:42Z</time>
      </trkpt>
      <trkpt lat="46.76091" lon="4.78339">
        <ele>206.657477</ele>
        <time>2011-02-12T06:59:45Z</time>
      </trkpt>
      <trkpt lat="46.76098" lon="4.78323">
        <ele>207.844713</ele>
        <time>2011-02-12T06:59:48Z</time>
      </trkpt>
      <trkpt lat="46.76104" lon="4.78312">
        <ele>208.951869</ele>
        <time>2011-02-12T06:59:50Z</time>
      </trkpt>
      <trkpt lat="46.76115" lon="4.78301">
        <ele>209.706862</ele>
        <time>2011-02-12T06:59:52Z</time>
      </trkpt>
      <trkpt lat="46.76135" lon="4.78289">
        <ele>210.037317</ele>
        <time>2011-02-12T06:59:55Z</time>
      </trkpt>
      <trkpt lat="46.76146" lon="4.78281">
        <ele>210.083259</ele>
        <time>2011-02-12T06:59:57Z</time>
      </trkpt>
      <trkpt lat="46.76158" lon="4.78272">
        <ele>210.184123</ele>
        <time>2011-02-12T06:59:59Z</time>
      </trkpt>
      <trkpt lat="46.76174" lon="4.78259">
        <ele>210.696168</ele>
        <time>2011-02-12T07:00:02Z</time>
      </trkpt>
      <trkpt lat="46.76188" lon="4.78243">
        <ele>211.630497</ele>
        <time>2011-02-12T07:00:05Z</time>
      </trkpt>
      <trkpt lat="46.76196" lon="4.78225">
        <ele>212.709595</ele>
        <time>2011-02-12T07:00:08Z</time>
      </trkpt>
      <trkpt lat="46.76202" lon="4.78215">
        <ele>213.702081</ele>
        <time>2011-02-12T07:00:10Z</time>
      </trkpt>
      <trkpt lat="46.76212" lon="4.78199">
        <ele>214.419524</ele>
        <time>2011-02-12T07:00:13Z</time>
      </trkpt>
      <trkpt lat="46.7622" lon="4.78191">
        <ele>214.753391</ele>
        <time>2011-02-12T07:00:15Z</time>
      </trkpt>
      <trkpt lat="46.76232" lon="4.78177">
        <ele>214.800032</ele>
        <time>2011-02-12T07:00:18Z</time>
      </trkpt>
      <trkpt lat="46.7624" lon="4.78168">
        <ele>214.730044</ele>
        <time>2011-02-12T07:00:20Z</time>
      </trkpt>
      <trkpt lat="46.76253" lon="4.78153">
        <ele>214.586072</ele>
        <time>2011-02-12T07:00:23Z</time>
      </trkpt>
      <trkpt lat="46.76262" lon="4.78133">
        <ele>214.377315</ele>
        <time>2011-02-12T07:00:26Z</time>
      </trkpt>
      <trkpt lat="46.76275" lon="4.78117">
        <ele>214.20171</ele>
        <time>2011-02-12T07:00:29Z</time>
      </trkpt>
      <trkpt lat="46.76282" lon="4.78106">
        <ele>214.12914</ele>
        <time>2011-02-12T07:00:31Z</time>
      </trkpt>
      <trkpt lat="46.76291" lon="4.78087">
        <ele>214.208431</ele>
        <time>2011-02-12T07:00:34Z</time>
      </trkpt>
      <trkpt lat="46.76307" lon="4.78074">
        <ele>214.444029</ele>
        <time>2011-02-12T07:00:37Z</time>
      </trkpt>
      <trkpt lat="46.76319" lon="4.78066">
        <ele>214.682426</ele>
        <time>2011-02-12T07:00:39Z</time>
      </trkpt>
      <trkpt lat="46.76328" lon="4.78057">
        <ele>214.794565</ele>
        <time>2011-02-12T07:00:41Z</time>
      </trkpt>
      <trkpt lat="46.76341" lon="4.78043">
        <ele>214.803868</ele>
        <time>2011-02-12T07:00:44Z</time>
      </trkpt>
      <trkpt lat="46.76353" lon="4.78029">
        <ele>214.765765</ele>
        <time>2011-02-12T07:00:47Z</time>
      </trkpt>
      <trkpt lat="46.76365" lon="4.78018">
        <ele>214.727365</ele>
        <time>2011-02-12T07:00:50Z</time>
      </trkpt>
      <trkpt lat="46.76374" lon="4.78009">
        <ele>214.709346</ele>
        <time>2011-02-12T07:00:52Z</time>
      </trkpt>
      <trkpt lat="46.76385" lon="4.77991">
        <ele>214.957383</ele>
        <time>2011-02-12T07:00:55Z</time>
      </trkpt>
      <trkpt lat="46.76397" lon="4.77977">
        <ele>215.642224</ele>
        <time>2011-02-12T07:00:58Z</time>
      </trkpt>
      <trkpt lat="46.76407" lon="4.77968">
        <ele>216.442637</ele>
        <time>2011-02-12T07:01:00Z</time>
      </trkpt>
      <trkpt lat="46.76418" lon="4.77946">
        <ele>216.974613</ele>
        <time>2011-02-12T07:01:03Z</time>
      </trkpt>
      <trkpt lat="46.76411" lon="4.77923">
        <ele>217.198603</ele>
        <time>2011-02-12T07:01:06Z</time>
      </trkpt>
      <trkpt lat="46.76402" lon="4.77906">
        <ele>217.163446</ele>
        <time>2011-02-12T07:01:09Z</time>
      </trkpt>
      <trkpt lat="46.76393" lon="4.77892">
        <ele>216.86543</ele>
        <time>2011-02-12T07:01:12Z</time>
      </trkpt>
      <trkpt lat="46.76385" lon="4.77876">
        <ele>215.996197</ele>
        <time>2011-02-12T07:01:15Z</time>
      </trkpt>
      <trkpt lat="46.76378" lon="4.77861">
        <ele>214.221577</ele>
        <time>2011-02-12T07:01:18Z</time>
      </trkpt>
      <trkpt lat="46.76371" lon="4.77846">
        <ele>211.639815</ele>
        <time>2011-02-12T07:01:21Z</time>
      </trkpt>
      <trkpt lat="46.76365" lon="4.77829">
        <ele>208.579247</ele>
        <time>2011-02-12T07:01:24Z</time>
      </trkpt>
      <trkpt lat="46.7636" lon="4.77813">
        <ele>205.634564</ele>
        <time>2011-02-12T07:01:27Z</time>
      </trkpt>
      <trkpt lat="46.76356" lon="4.77799">
        <ele>203.566123</ele>
        <time>2011-02-12T07:01:29Z</time>
      </trkpt>
      <trkpt lat="46.7635" lon="4.7778">
        <ele>202.462391</ele>
        <time>2011-02-12T07:01:32Z</time>
      </trkpt>
      <trkpt lat="46.76344" lon="4.77757">
        <ele>201.814849</ele>
        <time>2011-02-12T07:01:35Z</time>
      </trkpt>
      <trkpt lat="46.7634" lon="4.7774">
        <ele>200.81862</ele>
        <time>2011-02-12T07:01:37Z</time>
      </trkpt>
      <trkpt lat="46.76335" lon="4.77724">
        <ele>198.639301</ele>
        <time>2011-02-12T07:01:39Z</time>
      </trkpt>
      <trkpt lat="46.76328" lon="4.77701">
        <ele>195.276263</ele>
        <time>2011-02-12T07:01:42Z</time>
      </trkpt>
      <trkpt lat="46.7632" lon="4.77676">
        <ele>191.700034</ele>
        <time>2011-02-12T07:01:45Z</time>
      </trkpt>
      <trkpt lat="46.76315" lon="4.77662">
        <ele>189.056418</ele>
        <time>2011-02-12T07:01:47Z</time>
      </trkpt>
      <trkpt lat="46.76309" lon="4.77638">
        <ele>187.85916</ele>
        <time>2011-02-12T07:01:50Z</time>
      </trkpt>
      <trkpt lat="46.76302" lon="4.77613">
        <ele>187.665171</ele>
        <time>2011-02-12T07:01:53Z</time>
      </trkpt>
      <trkpt lat="46.76295" lon="4.77589">
        <ele>187.780756</ele>
        <time>2011-02-12T07:01:56Z</time>
      </trkpt>
      <trkpt lat="46.76291" lon="4.77575">
        <ele>187.929123</ele>
        <time>2011-02-12T07:01:58Z</time>
      </trkpt>
      <trkpt lat="46.76286" lon="4.77556">
        <ele>188.132912</ele>
        <time>2011-02-12T07:02:01Z</time>
      </trkpt>
      <trkpt lat="46.76282" lon="4.77543">
        <ele>188.409376</ele>
        <time>2011-02-12T07:02:03Z</time>
      </trkpt>
      <trkpt lat="46.76278" lon="4.77528">
        <ele>188.684289</ele>
        <time>2011-02-12T07:02:05Z</time>
      </trkpt>
      <trkpt lat="46.76273" lon="4.77506">
        <ele>188.855786</ele>
        <time>2011-02-12T07:02:08Z</time>
      </trkpt>
      <trkpt lat="46.76267" lon="4.77482">
        <ele>188.917339</ele>
        <time>2011-02-12T07:02:11Z</time>
      </trkpt>
      <trkpt lat="46.76264" lon="4.7747">
        <ele>189.078705</ele>
        <time>2011-02-12T07:02:13Z</time>
      </trkpt>
      <trkpt lat="46.76264" lon="4.7747">
        <ele>189.459667</ele>
        <time>2011-02-12T07:02:15Z</time>
      </trkpt>
      <trkpt lat="46.76256" lon="4.77419">
        <ele>190.088015</ele>
        <time>2011-02-12T07:02:41Z</time>
      </trkpt>
      <trkpt lat="46.76256" lon="4.77419">
        <ele>190.904264</ele>
        <time>2011-02-12T07:02:44Z</time>
      </trkpt>
      <trkpt lat="46.76251" lon="4.77393">
        <ele>191.79044</ele>
        <time>2011-02-12T07:02:49Z</time>
      </trkpt>
      <trkpt lat="46.76248" lon="4.77378">
        <ele>192.626051</ele>
        <time>2011-02-12T07:02:53Z</time>
      </trkpt>
      <trkpt lat="46.76245" lon="4.77366">
        <ele>193.426086</ele>
        <time>2011-02-12T07:02:56Z</time>
      </trkpt>
      <trkpt lat="46.7624" lon="4.7735">
        <ele>194.236425</ele>
        <time>2011-02-12T07:03:00Z</time>
      </trkpt>
      <trkpt lat="46.76236" lon="4.77334">
        <ele>194.993548</ele>
        <time>2011-02-12T07:03:03Z</time>
      </trkpt>
      <trkpt lat="46.76232" lon="4.77319">
        <ele>195.493877</ele>
        <time>2011-02-12T07:03:06Z</time>
      </trkpt>
      <trkpt lat="46.76229" lon="4.77305">
        <ele>195.752728</ele>
        <time>2011-02-12T07:03:09Z</time>
      </trkpt>
      <trkpt lat="46.76225" lon="4.77289">
        <ele>195.904882</ele>
        <time>2011-02-12T07:03:13Z</time>
      </trkpt>
      <trkpt lat="46.76221" lon="4.77274">
        <ele>196.042948</ele>
        <time>2011-02-12T07:03:17Z</time>
      </trkpt>
      <trkpt lat="46.76217" lon="4.7726">
        <ele>196.197384</ele>
        <time>2011-02-12T07:03:21Z</time>
      </trkpt>
      <trkpt lat="46.76213" lon="4.77246">
        <ele>196.361423</ele>
        <time>2011-02-12T07:03:25Z</time>
      </trkpt>
      <trkpt lat="46.7621" lon="4.77232">
        <ele>196.501504</ele>
        <time>2011-02-12T07:03:28Z</time>
      </trkpt>
      <trkpt lat="46.76207" lon="4.77219">
        <ele>196.593491</ele>
        <time>2011-02-12T07:03:30Z</time>
      </trkpt>
      <trkpt lat="46.76203" lon="4.77202">
        <ele>196.640321</ele>
        <time>2011-02-12T07:03:33Z</time>
      </trkpt>
      <trkpt lat="46.76199" lon="4.77187">
        <ele>196.656074</ele>
        <time>2011-02-12T07:03:36Z</time>
      </trkpt>
      <trkpt lat="46.76195" lon="4.7717">
        <ele>196.654576</ele>
        <time>2011-02-12T07:03:39Z</time>
      </trkpt>
      <trkpt lat="46.76191" lon="4.77154">
        <ele>196.643653</ele>
        <time>2011-02-12T07:03:42Z</time>
      </trkpt>
      <trkpt lat="46.76187" lon="4.77137">
        <ele>196.618659</ele>
        <time>2011-02-12T07:03:45Z</time>
      </trkpt>
      <trkpt lat="46.76183" lon="4.7712">
        <ele>196.574954</ele>
        <time>2011-02-12T07:03:48Z</time>
      </trkpt>
      <trkpt lat="46.7618" lon="4.77105">
        <ele>196.510343</ele>
        <time>2011-02-12T07:03:51Z</time>
      </trkpt>
      <trkpt lat="46.76176" lon="4.77089">
        <ele>196.421471</ele>
        <time>2011-02-12T07:03:54Z</time>
      </trkpt>
      <trkpt lat="46.76172" lon="4.77074">
        <ele>196.306733</ele>
        <time>2011-02-12T07:03:57Z</time>
      </trkpt>
      <trkpt lat="46.76168" lon="4.77061">
        <ele>196.159966</ele>
        <time>2011-02-12T07:03:59Z</time>
      </trkpt>
      <trkpt lat="46.76163" lon="4.77044">
        <ele>195.977207</ele>
        <time>2011-02-12T07:04:02Z</time>
      </trkpt>
      <trkpt lat="46.76157" lon="4.77025">
        <ele>195.772101</ele>
        <time>2011-02-12T07:04:05Z</time>
      </trkpt>
      <trkpt lat="46.76154" lon="4.77012">
        <ele>195.57689</ele>
        <time>2011-02-12T07:04:07Z</time>
      </trkpt>
      <trkpt lat="46.7615" lon="4.76994">
        <ele>195.411206</ele>
        <time>2011-02-12T07:04:10Z</time>
      </trkpt>
      <trkpt lat="46.76145" lon="4.76977">
        <ele>195.168285</ele>
        <time>2011-02-12T07:04:13Z</time>
      </trkpt>
      <trkpt lat="46.76141" lon="4.76959">
        <ele>194.784791</ele>
        <time>2011-02-12T07:04:16Z</time>
      </trkpt>
      <trkpt lat="46.76138" lon="4.76944">
        <ele>194.386954</ele>
        <time>2011-02-12T07:04:19Z</time>
      </trkpt>
      <trkpt lat="46.76135" lon="4.76929">
        <ele>194.097241</ele>
        <time>2011-02-12T07:04:23Z</time>
      </trkpt>
      <trkpt lat="46.76132" lon="4.76915">
        <ele>193.922233</ele>
        <time>2011-02-12T07:04:26Z</time>
      </trkpt>
      <trkpt lat="46.76127" lon="4.76896">
        <ele>193.828456</ele>
        <time>2011-02-12T07:04:29Z</time>
      </trkpt>
      <trkpt lat="46.76123" lon="4.76877">
        <ele>193.755361</ele>
        <time>2011-02-12T07:04:32Z</time>
      </trkpt>
      <trkpt lat="46.76119" lon="4.76862">
        <ele>193.68831</ele>
        <time>2011-02-12T07:04:35Z</time>
      </trkpt>
      <trkpt lat="46.76116" lon="4.76849">
        <ele>193.645458</ele>
        <time>2011-02-12T07:04:38Z</time>
      </trkpt>
      <trkpt lat="46.76112" lon="4.76835">
        <ele>193.63234</ele>
        <time>2011-02-12T07:04:41Z</time>
      </trkpt>
      <trkpt lat="46.76112" lon="4.76835">
        <ele>193.621983</ele>
        <time>2011-02-12T07:04:43Z</time>
      </trkpt>
      <trkpt lat="46.76106" lon="4.76808">
        <ele>193.615631</ele>
        <time>2011-02-12T07:04:47Z</time>
      </trkpt>
      <trkpt lat="46.76103" lon="4.76791">
        <ele>193.64043</ele>
        <time>2011-02-12T07:04:50Z</time>
      </trkpt>
      <trkpt lat="46.76103" lon="4.76791">
        <ele>193.682115</ele>
        <time>2011-02-12T07:04:54Z</time>
      </trkpt>
      <trkpt lat="46.76094" lon="4.76754">
        <ele>193.688483</ele>
        <time>2011-02-12T07:04:58Z</time>
      </trkpt>
      <trkpt lat="46.76089" lon="4.76737">
        <ele>193.626312</ele>
        <time>2011-02-12T07:05:01Z</time>
      </trkpt>
      <trkpt lat="46.76084" lon="4.76721">
        <ele>193.518153</ele>
        <time>2011-02-12T07:05:04Z</time>
      </trkpt>
      <trkpt lat="46.76083" lon="4.76705">
        <ele>193.343606</ele>
        <time>2011-02-12T07:05:07Z</time>
      </trkpt>
      <trkpt lat="46.76089" lon="4.76694">
        <ele>193.075254</ele>
        <time>2011-02-12T07:05:10Z</time>
      </trkpt>
      <trkpt lat="46.76099" lon="4.76683">
        <ele>192.814102</ele>
        <time>2011-02-12T07:05:14Z</time>
      </trkpt>
      <trkpt lat="46.76109" lon="4.76673">
        <ele>192.650173</ele>
        <time>2011-02-12T07:05:17Z</time>
      </trkpt>
      <trkpt lat="46.76117" lon="4.76665">
        <ele>192.550373</ele>
        <time>2011-02-12T07:05:19Z</time>
      </trkpt>
      <trkpt lat="46.76127" lon="4.76653">
        <ele>192.454227</ele>
        <time>2011-02-12T07:05:22Z</time>
      </trkpt>
      <trkpt lat="46.76136" lon="4.76642">
        <ele>192.292477</ele>
        <time>2011-02-12T07:05:25Z</time>
      </trkpt>
      <trkpt lat="46.76146" lon="4.76628">
        <ele>192.08221</ele>
        <time>2011-02-12T07:05:28Z</time>
      </trkpt>
      <trkpt lat="46.76155" lon="4.76615">
        <ele>191.92693</ele>
        <time>2011-02-12T07:05:31Z</time>
      </trkpt>
      <trkpt lat="46.76164" lon="4.76603">
        <ele>191.870075</ele>
        <time>2011-02-12T07:05:34Z</time>
      </trkpt>
      <trkpt lat="46.76171" lon="4.76592">
        <ele>191.894521</ele>
        <time>2011-02-12T07:05:37Z</time>
      </trkpt>
      <trkpt lat="46.76181" lon="4.7658">
        <ele>191.985986</ele>
        <time>2011-02-12T07:05:40Z</time>
      </trkpt>
      <trkpt lat="46.7619" lon="4.76568">
        <ele>192.097348</ele>
        <time>2011-02-12T07:05:43Z</time>
      </trkpt>
      <trkpt lat="46.762" lon="4.76559">
        <ele>192.169383</ele>
        <time>2011-02-12T07:05:46Z</time>
      </trkpt>
      <trkpt lat="46.7621" lon="4.76551">
        <ele>192.191821</ele>
        <time>2011-02-12T07:05:49Z</time>
      </trkpt>
      <trkpt lat="46.7621" lon="4.76551">
        <ele>192.16272</ele>
        <time>2011-02-12T07:05:53Z</time>
      </trkpt>
      <trkpt lat="46.7623" lon="4.76533">
        <ele>192.084763</ele>
        <time>2011-02-12T07:05:58Z</time>
      </trkpt>
      <trkpt lat="46.76238" lon="4.76527">
        <ele>191.923446</ele>
        <time>2011-02-12T07:06:01Z</time>
      </trkpt>
      <trkpt lat="46.76238" lon="4.76527">
        <ele>191.672054</ele>
        <time>2011-02-12T07:06:04Z</time>
      </trkpt>
      <trkpt lat="46.76257" lon="4.76508">
        <ele>191.415981</ele>
        <time>2011-02-12T07:06:08Z</time>
      </trkpt>
      <trkpt lat="46.76266" lon="4.76499">
        <ele>191.155477</ele>
        <time>2011-02-12T07:06:11Z</time>
      </trkpt>
      <trkpt lat="46.76277" lon="4.76489">
        <ele>190.817954</ele>
        <time>2011-02-12T07:06:14Z</time>
      </trkpt>
      <trkpt lat="46.76288" lon="4.76478">
        <ele>190.407013</ele>
        <time>2011-02-12T07:06:17Z</time>
      </trkpt>
      <trkpt lat="46.76298" lon="4.76468">
        <ele>189.954523</ele>
        <time>2011-02-12T07:06:20Z</time>
      </trkpt>
      <trkpt lat="46.76309" lon="4.76458">
        <ele>189.539673</ele>
        <time>2011-02-12T07:06:23Z</time>
      </trkpt>
      <trkpt lat="46.76321" lon="4.76447">
        <ele>189.211427</ele>
        <time>2011-02-12T07:06:26Z</time>
      </trkpt>
      <trkpt lat="46.76328" lon="4.76439">
        <ele>188.940848</ele>
        <time>2011-02-12T07:06:28Z</time>
      </trkpt>
      <trkpt lat="46.76341" lon="4.76427">
        <ele>188.633062</ele>
        <time>2011-02-12T07:06:31Z</time>
      </trkpt>
      <trkpt lat="46.76353" lon="4.76416">
        <ele>188.145186</ele>
        <time>2011-02-12T07:06:34Z</time>
      </trkpt>
      <trkpt lat="46.76365" lon="4.76409">
        <ele>187.55905</ele>
        <time>2011-02-12T07:06:36Z</time>
      </trkpt>
      <trkpt lat="46.76381" lon="4.764">
        <ele>187.155478</ele>
        <time>2011-02-12T07:06:39Z</time>
      </trkpt>
      <trkpt lat="46.7639" lon="4.76393">
        <ele>187.019009</ele>
        <time>2011-02-12T07:06:41Z</time>
      </trkpt>
      <trkpt lat="46.76398" lon="4.76387">
        <ele>187.121629</ele>
        <time>2011-02-12T07:06:43Z</time>
      </trkpt>
      <trkpt lat="46.76408" lon="4.76377">
        <ele>187.637538</ele>
        <time>2011-02-12T07:06:46Z</time>
      </trkpt>
      <trkpt lat="46.76416" lon="4.76369">
        <ele>188.517516</ele>
        <time>2011-02-12T07:06:49Z</time>
      </trkpt>
      <trkpt lat="46.76423" lon="4.7636">
        <ele>189.264893</ele>
        <time>2011-02-12T07:06:52Z</time>
      </trkpt>
      <trkpt lat="46.76432" lon="4.76352">
        <ele>189.57617</ele>
        <time>2011-02-12T07:06:55Z</time>
      </trkpt>
      <trkpt lat="46.76441" lon="4.76345">
        <ele>189.578357</ele>
        <time>2011-02-12T07:06:58Z</time>
      </trkpt>
      <trkpt lat="46.76441" lon="4.76345">
        <ele>189.456227</ele>
        <time>2011-02-12T07:07:01Z</time>
      </trkpt>
      <trkpt lat="46.76478" lon="4.76325">
        <ele>189.344829</ele>
        <time>2011-02-12T07:07:12Z</time>
      </trkpt>
      <trkpt lat="46.76478" lon="4.76325">
        <ele>189.270192</ele>
        <time>2011-02-12T07:07:16Z</time>
      </trkpt>
      <trkpt lat="46.76474" lon="4.76303">
        <ele>189.198258</ele>
        <time>2011-02-12T07:07:30Z</time>
      </trkpt>
      <trkpt lat="46.76474" lon="4.76303">
        <ele>189.139765</ele>
        <time>2011-02-12T07:07:33Z</time>
      </trkpt>
      <trkpt lat="46.76459" lon="4.76264">
        <ele>189.148545</ele>
        <time>2011-02-12T07:07:44Z</time>
      </trkpt>
      <trkpt lat="46.76459" lon="4.76264">
        <ele>189.231593</ele>
        <time>2011-02-12T07:07:48Z</time>
      </trkpt>
      <trkpt lat="46.76446" lon="4.76223">
        <ele>189.399018</ele>
        <time>2011-02-12T07:07:58Z</time>
      </trkpt>
      <trkpt lat="46.76439" lon="4.7621">
        <ele>189.700162</ele>
        <time>2011-02-12T07:08:02Z</time>
      </trkpt>
      <trkpt lat="46.76433" lon="4.76196">
        <ele>190.064488</ele>
        <time>2011-02-12T07:08:06Z</time>
      </trkpt>
      <trkpt lat="46.76433" lon="4.76196">
        <ele>190.244609</ele>
        <time>2011-02-12T07:08:08Z</time>
      </trkpt>
      <trkpt lat="46.76423" lon="4.76164">
        <ele>190.150991</ele>
        <time>2011-02-12T07:08:14Z</time>
      </trkpt>
      <trkpt lat="46.7642" lon="4.76151">
        <ele>189.958312</ele>
        <time>2011-02-12T07:08:18Z</time>
      </trkpt>
      <trkpt lat="46.76409" lon="4.76121">
        <ele>189.833893</ele>
        <time>2011-02-12T07:08:26Z</time>
      </trkpt>
      <trkpt lat="46.76405" lon="4.76109">
        <ele>189.532004</ele>
        <time>2011-02-12T07:08:29Z</time>
      </trkpt>
      <trkpt lat="46.76405" lon="4.76109">
        <ele>188.858991</ele>
        <time>2011-02-12T07:08:31Z</time>
      </trkpt>
      <trkpt lat="46.76392" lon="4.76068">
        <ele>188.054641</ele>
        <time>2011-02-12T07:08:41Z</time>
      </trkpt>
      <trkpt lat="46.76392" lon="4.76068">
        <ele>187.411088</ele>
        <time>2011-02-12T07:08:44Z</time>
      </trkpt>
      <trkpt lat="46.76369" lon="4.7604">
        <ele>186.851824</ele>
        <time>2011-02-12T07:08:52Z</time>
      </trkpt>
      <trkpt lat="46.76369" lon="4.7604">
        <ele>186.280968</ele>
        <time>2011-02-12T07:08:56Z</time>
      </trkpt>
      <trkpt lat="46.76365" lon="4.76">
        <ele>185.781025</ele>
        <time>2011-02-12T07:09:08Z</time>
      </trkpt>
      <trkpt lat="46.76361" lon="4.75987">
        <ele>185.319188</ele>
        <time>2011-02-12T07:09:12Z</time>
      </trkpt>
      <trkpt lat="46.76361" lon="4.75987">
        <ele>184.775291</ele>
        <time>2011-02-12T07:09:15Z</time>
      </trkpt>
      <trkpt lat="46.76344" lon="4.75941">
        <ele>184.34161</ele>
        <time>2011-02-12T07:09:21Z</time>
      </trkpt>
      <trkpt lat="46.76339" lon="4.75927">
        <ele>184.11207</ele>
        <time>2011-02-12T07:09:25Z</time>
      </trkpt>
      <trkpt lat="46.76324" lon="4.75889">
        <ele>183.95534</ele>
        <time>2011-02-12T07:09:37Z</time>
      </trkpt>
      <trkpt lat="46.76316" lon="4.75867">
        <ele>183.844866</ele>
        <time>2011-02-12T07:09:40Z</time>
      </trkpt>
      <trkpt lat="46.76316" lon="4.75867">
        <ele>183.778987</ele>
        <time>2011-02-12T07:09:42Z</time>
      </trkpt>
      <trkpt lat="46.76298" lon="4.75822">
        <ele>183.778288</ele>
        <time>2011-02-12T07:09:52Z</time>
      </trkpt>
      <trkpt lat="46.76292" lon="4.75809">
        <ele>183.89549</ele>
        <time>2011-02-12T07:09:56Z</time>
      </trkpt>
      <trkpt lat="46.76287" lon="4.75795">
        <ele>184.199093</ele>
        <time>2011-02-12T07:10:00Z</time>
      </trkpt>
      <trkpt lat="46.76283" lon="4.75781">
        <ele>185.198567</ele>
        <time>2011-02-12T07:10:04Z</time>
      </trkpt>
      <trkpt lat="46.7628" lon="4.75767">
        <ele>187.186047</ele>
        <time>2011-02-12T07:10:09Z</time>
      </trkpt>
      <trkpt lat="46.76275" lon="4.75753">
        <ele>189.413352</ele>
        <time>2011-02-12T07:10:13Z</time>
      </trkpt>
      <trkpt lat="46.76271" lon="4.75742">
        <ele>190.984446</ele>
        <time>2011-02-12T07:10:16Z</time>
      </trkpt>
      <trkpt lat="46.76266" lon="4.75728">
        <ele>191.72471</ele>
        <time>2011-02-12T07:10:19Z</time>
      </trkpt>
      <trkpt lat="46.76263" lon="4.75714">
        <ele>191.885512</ele>
        <time>2011-02-12T07:10:22Z</time>
      </trkpt>
      <trkpt lat="46.76264" lon="4.75699">
        <ele>191.811701</ele>
        <time>2011-02-12T07:10:25Z</time>
      </trkpt>
      <trkpt lat="46.76264" lon="4.75684">
        <ele>191.710382</ele>
        <time>2011-02-12T07:10:28Z</time>
      </trkpt>
      <trkpt lat="46.76265" lon="4.7567">
        <ele>191.653451</ele>
        <time>2011-02-12T07:10:31Z</time>
      </trkpt>
      <trkpt lat="46.7627" lon="4.75656">
        <ele>191.638551</ele>
        <time>2011-02-12T07:10:34Z</time>
      </trkpt>
      <trkpt lat="46.76277" lon="4.75645">
        <ele>191.644525</ele>
        <time>2011-02-12T07:10:37Z</time>
      </trkpt>
      <trkpt lat="46.76285" lon="4.75637">
        <ele>191.678541</ele>
        <time>2011-02-12T07:10:40Z</time>
      </trkpt>
      <trkpt lat="46.76294" lon="4.75625">
        <ele>191.746919</ele>
        <time>2011-02-12T07:10:43Z</time>
      </trkpt>
      <trkpt lat="46.76301" lon="4.75609">
        <ele>191.81215</ele>
        <time>2011-02-12T07:10:46Z</time>
      </trkpt>
      <trkpt lat="46.76304" lon="4.75596">
        <ele>191.84172</ele>
        <time>2011-02-12T07:10:49Z</time>
      </trkpt>
      <trkpt lat="46.76309" lon="4.75583">
        <ele>191.840549</ele>
        <time>2011-02-12T07:10:53Z</time>
      </trkpt>
      <trkpt lat="46.76317" lon="4.75573">
        <ele>191.779159</ele>
        <time>2011-02-12T07:10:58Z</time>
      </trkpt>
      <trkpt lat="46.76317" lon="4.75573">
        <ele>191.648561</ele>
        <time>2011-02-12T07:10:59Z</time>
      </trkpt>
      <trkpt lat="46.76339" lon="4.7555">
        <ele>191.524691</ele>
        <time>2011-02-12T07:11:37Z</time>
      </trkpt>
      <trkpt lat="46.76339" lon="4.7555">
        <ele>191.468178</ele>
        <time>2011-02-12T07:11:53Z</time>
      </trkpt>
      <trkpt lat="46.76339" lon="4.7555">
        <ele>191.455081</ele>
        <time>2011-02-12T07:12:37Z</time>
      </trkpt>
      <trkpt lat="46.76369" lon="4.75537">
        <ele>191.451819</ele>
        <time>2011-02-12T07:14:51Z</time>
      </trkpt>
      <trkpt lat="46.76377" lon="4.7553">
        <ele>191.46371</ele>
        <time>2011-02-12T07:14:57Z</time>
      </trkpt>
      <trkpt lat="46.76386" lon="4.75525">
        <ele>191.597286</ele>
        <time>2011-02-12T07:15:05Z</time>
      </trkpt>
      <trkpt lat="46.76395" lon="4.75519">
        <ele>194.381373</ele>
        <time>2011-02-12T07:15:11Z</time>
      </trkpt>
      <trkpt lat="46.76403" lon="4.75512">
        <ele>201.154909</ele>
        <time>2011-02-12T07:15:17Z</time>
      </trkpt>
      <trkpt lat="46.76408" lon="4.755">
        <ele>207.951861</ele>
        <time>2011-02-12T07:15:23Z</time>
      </trkpt>
      <trkpt lat="46.76408" lon="4.755">
        <ele>211.135477</ele>
        <time>2011-02-12T07:15:33Z</time>
      </trkpt>
      <trkpt lat="46.76436" lon="4.75522">
        <ele>211.592844</ele>
        <time>2011-02-12T07:15:50Z</time>
      </trkpt>
      <trkpt lat="46.76437" lon="4.75535">
        <ele>211.022719</ele>
        <time>2011-02-12T07:15:57Z</time>
      </trkpt>
      <trkpt lat="46.76434" lon="4.75547">
        <ele>210.118444</ele>
        <time>2011-02-12T07:16:08Z</time>
      </trkpt>
      <trkpt lat="46.76427" lon="4.75559">
        <ele>208.958989</ele>
        <time>2011-02-12T07:16:15Z</time>
      </trkpt>
      <trkpt lat="46.76421" lon="4.75572">
        <ele>207.80788</ele>
        <time>2011-02-12T07:16:20Z</time>
      </trkpt>
      <trkpt lat="46.76417" lon="4.75587">
        <ele>206.591392</ele>
        <time>2011-02-12T07:16:25Z</time>
      </trkpt>
      <trkpt lat="46.76412" lon="4.75599">
        <ele>205.013273</ele>
        <time>2011-02-12T07:16:29Z</time>
      </trkpt>
      <trkpt lat="46.76412" lon="4.75613">
        <ele>203.405291</ele>
        <time>2011-02-12T07:16:34Z</time>
      </trkpt>
      <trkpt lat="46.76414" lon="4.75627">
        <ele>202.249283</ele>
        <time>2011-02-12T07:16:39Z</time>
      </trkpt>
      <trkpt lat="46.76417" lon="4.75639">
        <ele>201.631039</ele>
        <time>2011-02-12T07:16:42Z</time>
      </trkpt>
      <trkpt lat="46.76418" lon="4.75655">
        <ele>201.374941</ele>
        <time>2011-02-12T07:16:45Z</time>
      </trkpt>
      <trkpt lat="46.7642" lon="4.7567">
        <ele>201.218653</ele>
        <time>2011-02-12T07:16:48Z</time>
      </trkpt>
      <trkpt lat="46.76422" lon="4.75685">
        <ele>200.980707</ele>
        <time>2011-02-12T07:16:51Z</time>
      </trkpt>
      <trkpt lat="46.76425" lon="4.75699">
        <ele>200.66389</ele>
        <time>2011-02-12T07:16:54Z</time>
      </trkpt>
      <trkpt lat="46.7643" lon="4.75713">
        <ele>200.352301</ele>
        <time>2011-02-12T07:16:57Z</time>
      </trkpt>
      <trkpt lat="46.76434" lon="4.75725">
        <ele>200.054942</ele>
        <time>2011-02-12T07:17:00Z</time>
      </trkpt>
      <trkpt lat="46.76439" lon="4.75742">
        <ele>199.721368</ele>
        <time>2011-02-12T07:17:04Z</time>
      </trkpt>
      <trkpt lat="46.76443" lon="4.75756">
        <ele>199.332687</ele>
        <time>2011-02-12T07:17:07Z</time>
      </trkpt>
      <trkpt lat="46.76447" lon="4.75771">
        <ele>198.928438</ele>
        <time>2011-02-12T07:17:10Z</time>
      </trkpt>
      <trkpt lat="46.7645" lon="4.75785">
        <ele>198.517062</ele>
        <time>2011-02-12T07:17:13Z</time>
      </trkpt>
      <trkpt lat="46.76453" lon="4.75798">
        <ele>198.039334</ele>
        <time>2011-02-12T07:17:16Z</time>
      </trkpt>
      <trkpt lat="46.76456" lon="4.75812">
        <ele>197.431834</ele>
        <time>2011-02-12T07:17:20Z</time>
      </trkpt>
      <trkpt lat="46.76454" lon="4.75828">
        <ele>196.701084</ele>
        <time>2011-02-12T07:17:25Z</time>
      </trkpt>
      <trkpt lat="46.76453" lon="4.75844">
        <ele>195.916311</ele>
        <time>2011-02-12T07:17:29Z</time>
      </trkpt>
      <trkpt lat="46.76452" lon="4.75858">
        <ele>195.108975</ele>
        <time>2011-02-12T07:17:34Z</time>
      </trkpt>
      <trkpt lat="46.76453" lon="4.75873">
        <ele>194.283095</ele>
        <time>2011-02-12T07:17:40Z</time>
      </trkpt>
      <trkpt lat="46.76449" lon="4.75888">
        <ele>193.584298</ele>
        <time>2011-02-12T07:17:43Z</time>
      </trkpt>
      <trkpt lat="46.76445" lon="4.75905">
        <ele>193.199642</ele>
        <time>2011-02-12T07:17:46Z</time>
      </trkpt>
      <trkpt lat="46.76443" lon="4.7592">
        <ele>193.109497</ele>
        <time>2011-02-12T07:17:49Z</time>
      </trkpt>
      <trkpt lat="46.76441" lon="4.75934">
        <ele>193.196534</ele>
        <time>2011-02-12T07:17:53Z</time>
      </trkpt>
      <trkpt lat="46.76439" lon="4.75948">
        <ele>193.462949</ele>
        <time>2011-02-12T07:17:58Z</time>
      </trkpt>
      <trkpt lat="46.76435" lon="4.75962">
        <ele>193.963135</ele>
        <time>2011-02-12T07:18:04Z</time>
      </trkpt>
      <trkpt lat="46.76436" lon="4.75977">
        <ele>194.695864</ele>
        <time>2011-02-12T07:18:11Z</time>
      </trkpt>
      <trkpt lat="46.76439" lon="4.75994">
        <ele>195.577035</ele>
        <time>2011-02-12T07:18:24Z</time>
      </trkpt>
      <trkpt lat="46.76438" lon="4.76007">
        <ele>196.463809</ele>
        <time>2011-02-12T07:18:34Z</time>
      </trkpt>
      <trkpt lat="46.76438" lon="4.76023">
        <ele>197.237042</ele>
        <time>2011-02-12T07:18:42Z</time>
      </trkpt>
      <trkpt lat="46.76436" lon="4.76037">
        <ele>197.856702</ele>
        <time>2011-02-12T07:18:52Z</time>
      </trkpt>
      <trkpt lat="46.7643" lon="4.76051">
        <ele>198.330522</ele>
        <time>2011-02-12T07:19:01Z</time>
      </trkpt>
      <trkpt lat="46.76424" lon="4.76063">
        <ele>198.686266</ele>
        <time>2011-02-12T07:19:06Z</time>
      </trkpt>
      <trkpt lat="46.76419" lon="4.76076">
        <ele>198.944188</ele>
        <time>2011-02-12T07:19:11Z</time>
      </trkpt>
      <trkpt lat="46.76421" lon="4.76088">
        <ele>199.167028</ele>
        <time>2011-02-12T07:19:20Z</time>
      </trkpt>
      <trkpt lat="46.76421" lon="4.76088">
        <ele>199.396857</ele>
        <time>2011-02-12T07:19:30Z</time>
      </trkpt>
      <trkpt lat="46.76447" lon="4.76114">
        <ele>199.570588</ele>
        <time>2011-02-12T07:19:54Z</time>
      </trkpt>
      <trkpt lat="46.76456" lon="4.76122">
        <ele>199.635744</ele>
        <time>2011-02-12T07:19:58Z</time>
      </trkpt>
      <trkpt lat="46.76463" lon="4.76133">
        <ele>199.543646</ele>
        <time>2011-02-12T07:20:02Z</time>
      </trkpt>
      <trkpt lat="46.7647" lon="4.76144">
        <ele>198.603807</ele>
        <time>2011-02-12T07:20:08Z</time>
      </trkpt>
      <trkpt lat="46.76483" lon="4.7615">
        <ele>196.530575</ele>
        <time>2011-02-12T07:20:27Z</time>
      </trkpt>
      <trkpt lat="46.76483" lon="4.7615">
        <ele>194.488353</ele>
        <time>2011-02-12T07:20:32Z</time>
      </trkpt>
      <trkpt lat="46.76504" lon="4.76115">
        <ele>193.432877</ele>
        <time>2011-02-12T07:21:06Z</time>
      </trkpt>
      <trkpt lat="46.76512" lon="4.76108">
        <ele>192.946377</ele>
        <time>2011-02-12T07:21:21Z</time>
      </trkpt>
      <trkpt lat="46.76517" lon="4.76097">
        <ele>192.437913</ele>
        <time>2011-02-12T07:21:28Z</time>
      </trkpt>
      <trkpt lat="46.76525" lon="4.76089">
        <ele>191.79714</ele>
        <time>2011-02-12T07:21:33Z</time>
      </trkpt>
      <trkpt lat="46.76532" lon="4.76081">
        <ele>191.201035</ele>
        <time>2011-02-12T07:21:39Z</time>
      </trkpt>
      <trkpt lat="46.76535" lon="4.76068">
        <ele>190.78373</ele>
        <time>2011-02-12T07:21:50Z</time>
      </trkpt>
      <trkpt lat="46.76541" lon="4.76058">
        <ele>190.556554</ele>
        <time>2011-02-12T07:22:00Z</time>
      </trkpt>
      <trkpt lat="46.76551" lon="4.76058">
        <ele>190.37053</ele>
        <time>2011-02-12T07:22:09Z</time>
      </trkpt>
      <trkpt lat="46.7656" lon="4.76059">
        <ele>190.093498</ele>
        <time>2011-02-12T07:22:17Z</time>
      </trkpt>
      <trkpt lat="46.76569" lon="4.76058">
        <ele>189.816617</ele>
        <time>2011-02-12T07:22:24Z</time>
      </trkpt>
      <trkpt lat="46.76578" lon="4.76057">
        <ele>189.666327</ele>
        <time>2011-02-12T07:22:34Z</time>
      </trkpt>
      <trkpt lat="46.76578" lon="4.76057">
        <ele>189.631972</ele>
        <time>2011-02-12T07:22:47Z</time>
      </trkpt>
      <trkpt lat="46.7661" lon="4.76053">
        <ele>189.648762</ele>
        <time>2011-02-12T07:23:03Z</time>
      </trkpt>
      <trkpt lat="46.76621" lon="4.76051">
        <ele>189.690623</ele>
        <time>2011-02-12T07:23:13Z</time>
      </trkpt>
      <trkpt lat="46.76631" lon="4.76049">
        <ele>189.781684</ele>
        <time>2011-02-12T07:23:21Z</time>
      </trkpt>
      <trkpt lat="46.76641" lon="4.76048">
        <ele>190.241286</ele>
        <time>2011-02-12T07:23:33Z</time>
      </trkpt>
      <trkpt lat="46.76641" lon="4.76048">
        <ele>191.202731</ele>
        <time>2011-02-12T07:23:53Z</time>
      </trkpt>
      <trkpt lat="46.76641" lon="4.76048">
        <ele>192.125811</ele>
        <time>2011-02-12T07:24:33Z</time>
      </trkpt>
      <trkpt lat="46.76667" lon="4.7608">
        <ele>192.636695</ele>
        <time>2011-02-12T07:25:01Z</time>
      </trkpt>
      <trkpt lat="46.76673" lon="4.76092">
        <ele>193.020721</ele>
        <time>2011-02-12T07:25:06Z</time>
      </trkpt>
      <trkpt lat="46.76677" lon="4.76106">
        <ele>193.596993</ele>
        <time>2011-02-12T07:25:11Z</time>
      </trkpt>
      <trkpt lat="46.76682" lon="4.76118">
        <ele>195.816187</ele>
        <time>2011-02-12T07:25:17Z</time>
      </trkpt>
      <trkpt lat="46.76687" lon="4.7613">
        <ele>200.33796</ele>
        <time>2011-02-12T07:25:24Z</time>
      </trkpt>
      <trkpt lat="46.76691" lon="4.76145">
        <ele>204.804307</ele>
        <time>2011-02-12T07:25:29Z</time>
      </trkpt>
      <trkpt lat="46.76698" lon="4.76157">
        <ele>207.045721</ele>
        <time>2011-02-12T07:25:33Z</time>
      </trkpt>
      <trkpt lat="46.76708" lon="4.76154">
        <ele>207.504045</ele>
        <time>2011-02-12T07:25:39Z</time>
      </trkpt>
      <trkpt lat="46.76717" lon="4.76147">
        <ele>207.21006</ele>
        <time>2011-02-12T07:25:43Z</time>
      </trkpt>
      <trkpt lat="46.76725" lon="4.76139">
        <ele>206.842926</ele>
        <time>2011-02-12T07:25:47Z</time>
      </trkpt>
      <trkpt lat="46.76735" lon="4.76129">
        <ele>206.589624</ele>
        <time>2011-02-12T07:25:51Z</time>
      </trkpt>
      <trkpt lat="46.76744" lon="4.76121">
        <ele>206.387692</ele>
        <time>2011-02-12T07:25:54Z</time>
      </trkpt>
      <trkpt lat="46.76751" lon="4.76113">
        <ele>206.131443</ele>
        <time>2011-02-12T07:25:57Z</time>
      </trkpt>
      <trkpt lat="46.76759" lon="4.76104">
        <ele>205.75278</ele>
        <time>2011-02-12T07:26:00Z</time>
      </trkpt>
      <trkpt lat="46.76775" lon="4.76092">
        <ele>205.276575</ele>
        <time>2011-02-12T07:26:03Z</time>
      </trkpt>
      <trkpt lat="46.7679" lon="4.76078">
        <ele>204.788869</ele>
        <time>2011-02-12T07:26:06Z</time>
      </trkpt>
      <trkpt lat="46.76804" lon="4.76065">
        <ele>204.321045</ele>
        <time>2011-02-12T07:26:09Z</time>
      </trkpt>
      <trkpt lat="46.76811" lon="4.76058">
        <ele>203.279362</ele>
        <time>2011-02-12T07:26:11Z</time>
      </trkpt>
      <trkpt lat="46.76822" lon="4.76048">
        <ele>200.539882</ele>
        <time>2011-02-12T07:26:14Z</time>
      </trkpt>
      <trkpt lat="46.76832" lon="4.76038">
        <ele>195.865519</ele>
        <time>2011-02-12T07:26:17Z</time>
      </trkpt>
      <trkpt lat="46.76845" lon="4.76029">
        <ele>190.611454</ele>
        <time>2011-02-12T07:26:20Z</time>
      </trkpt>
      <trkpt lat="46.76856" lon="4.76022">
        <ele>186.588245</ele>
        <time>2011-02-12T07:26:23Z</time>
      </trkpt>
      <trkpt lat="46.76867" lon="4.76017">
        <ele>184.36522</ele>
        <time>2011-02-12T07:26:26Z</time>
      </trkpt>
      <trkpt lat="46.76876" lon="4.7601">
        <ele>182.903833</ele>
        <time>2011-02-12T07:26:29Z</time>
      </trkpt>
      <trkpt lat="46.76885" lon="4.76002">
        <ele>181.177096</ele>
        <time>2011-02-12T07:26:32Z</time>
      </trkpt>
      <trkpt lat="46.76895" lon="4.75994">
        <ele>179.393014</ele>
        <time>2011-02-12T07:26:35Z</time>
      </trkpt>
      <trkpt lat="46.76899" lon="4.75981">
        <ele>178.145917</ele>
        <time>2011-02-12T07:26:38Z</time>
      </trkpt>
      <trkpt lat="46.76897" lon="4.75968">
        <ele>177.403693</ele>
        <time>2011-02-12T07:26:41Z</time>
      </trkpt>
      <trkpt lat="46.76895" lon="4.75955">
        <ele>176.807778</ele>
        <time>2011-02-12T07:26:44Z</time>
      </trkpt>
      <trkpt lat="46.76893" lon="4.75939">
        <ele>176.243108</ele>
        <time>2011-02-12T07:26:48Z</time>
      </trkpt>
      <trkpt lat="46.76891" lon="4.75924">
        <ele>175.790969</ele>
        <time>2011-02-12T07:26:52Z</time>
      </trkpt>
      <trkpt lat="46.76889" lon="4.7591">
        <ele>175.496761</ele>
        <time>2011-02-12T07:26:55Z</time>
      </trkpt>
      <trkpt lat="46.76887" lon="4.75896">
        <ele>175.269479</ele>
        <time>2011-02-12T07:26:58Z</time>
      </trkpt>
      <trkpt lat="46.76885" lon="4.75881">
        <ele>175.004302</ele>
        <time>2011-02-12T07:27:01Z</time>
      </trkpt>
      <trkpt lat="46.76883" lon="4.75865">
        <ele>174.702598</ele>
        <time>2011-02-12T07:27:04Z</time>
      </trkpt>
      <trkpt lat="46.7689" lon="4.75847">
        <ele>174.410198</ele>
        <time>2011-02-12T07:27:07Z</time>
      </trkpt>
      <trkpt lat="46.76896" lon="4.75837">
        <ele>174.178763</ele>
        <time>2011-02-12T07:27:09Z</time>
      </trkpt>
      <trkpt lat="46.76904" lon="4.75827">
        <ele>174.043022</ele>
        <time>2011-02-12T07:27:11Z</time>
      </trkpt>
      <trkpt lat="46.76912" lon="4.75817">
        <ele>173.972639</ele>
        <time>2011-02-12T07:27:13Z</time>
      </trkpt>
      <trkpt lat="46.76924" lon="4.75801">
        <ele>173.906586</ele>
        <time>2011-02-12T07:27:16Z</time>
      </trkpt>
      <trkpt lat="46.76935" lon="4.75782">
        <ele>173.709938</ele>
        <time>2011-02-12T07:27:19Z</time>
      </trkpt>
      <trkpt lat="46.76935" lon="4.75782">
        <ele>173.33101</ele>
        <time>2011-02-12T07:27:22Z</time>
      </trkpt>
      <trkpt lat="46.76952" lon="4.7576">
        <ele>172.868172</ele>
        <time>2011-02-12T07:27:26Z</time>
      </trkpt>
      <trkpt lat="46.76962" lon="4.75751">
        <ele>172.432601</ele>
        <time>2011-02-12T07:27:29Z</time>
      </trkpt>
      <trkpt lat="46.76969" lon="4.75742">
        <ele>172.131412</ele>
        <time>2011-02-12T07:27:31Z</time>
      </trkpt>
      <trkpt lat="46.76977" lon="4.75733">
        <ele>172.22405</ele>
        <time>2011-02-12T07:27:33Z</time>
      </trkpt>
      <trkpt lat="46.76985" lon="4.75725">
        <ele>172.784876</ele>
        <time>2011-02-12T07:27:35Z</time>
      </trkpt>
      <trkpt lat="46.76998" lon="4.75713">
        <ele>173.608242</ele>
        <time>2011-02-12T07:27:38Z</time>
      </trkpt>
      <trkpt lat="46.77011" lon="4.75697">
        <ele>174.49235</ele>
        <time>2011-02-12T07:27:41Z</time>
      </trkpt>
      <trkpt lat="46.77018" lon="4.75684">
        <ele>175.342225</ele>
        <time>2011-02-12T07:27:43Z</time>
      </trkpt>
      <trkpt lat="46.77024" lon="4.75669">
        <ele>176.010231</ele>
        <time>2011-02-12T07:27:45Z</time>
      </trkpt>
      <trkpt lat="46.7703" lon="4.75653">
        <ele>176.417407</ele>
        <time>2011-02-12T07:27:47Z</time>
      </trkpt>
      <trkpt lat="46.77038" lon="4.75628">
        <ele>176.613757</ele>
        <time>2011-02-12T07:27:50Z</time>
      </trkpt>
      <trkpt lat="46.77045" lon="4.75605">
        <ele>176.846802</ele>
        <time>2011-02-12T07:27:53Z</time>
      </trkpt>
      <trkpt lat="46.77053" lon="4.75586">
        <ele>177.382748</ele>
        <time>2011-02-12T07:27:56Z</time>
      </trkpt>
      <trkpt lat="46.77058" lon="4.75574">
        <ele>178.24624</ele>
        <time>2011-02-12T07:27:58Z</time>
      </trkpt>
      <trkpt lat="46.77063" lon="4.75563">
        <ele>179.253946</ele>
        <time>2011-02-12T07:28:00Z</time>
      </trkpt>
      <trkpt lat="46.77071" lon="4.75546">
        <ele>180.235407</ele>
        <time>2011-02-12T07:28:03Z</time>
      </trkpt>
      <trkpt lat="46.7708" lon="4.75528">
        <ele>181.082609</ele>
        <time>2011-02-12T07:28:06Z</time>
      </trkpt>
      <trkpt lat="46.77088" lon="4.7551">
        <ele>181.741084</ele>
        <time>2011-02-12T07:28:09Z</time>
      </trkpt>
      <trkpt lat="46.77093" lon="4.75498">
        <ele>182.232017</ele>
        <time>2011-02-12T07:28:11Z</time>
      </trkpt>
      <trkpt lat="46.77099" lon="4.7548">
        <ele>182.653805</ele>
        <time>2011-02-12T07:28:14Z</time>
      </trkpt>
      <trkpt lat="46.77104" lon="4.75467">
        <ele>183.109272</ele>
        <time>2011-02-12T07:28:16Z</time>
      </trkpt>
      <trkpt lat="46.7711" lon="4.75449">
        <ele>183.58994</ele>
        <time>2011-02-12T07:28:19Z</time>
      </trkpt>
      <trkpt lat="46.77116" lon="4.7543">
        <ele>184.023232</ele>
        <time>2011-02-12T07:28:22Z</time>
      </trkpt>
      <trkpt lat="46.77121" lon="4.75417">
        <ele>184.408756</ele>
        <time>2011-02-12T07:28:24Z</time>
      </trkpt>
      <trkpt lat="46.77128" lon="4.75398">
        <ele>184.810248</ele>
        <time>2011-02-12T07:28:27Z</time>
      </trkpt>
      <trkpt lat="46.77134" lon="4.75378">
        <ele>185.264498</ele>
        <time>2011-02-12T07:28:30Z</time>
      </trkpt>
      <trkpt lat="46.77137" lon="4.75363">
        <ele>185.734778</ele>
        <time>2011-02-12T07:28:32Z</time>
      </trkpt>
      <trkpt lat="46.77139" lon="4.75348">
        <ele>186.16443</ele>
        <time>2011-02-12T07:28:34Z</time>
      </trkpt>
      <trkpt lat="46.77142" lon="4.75327">
        <ele>186.541369</ele>
        <time>2011-02-12T07:28:37Z</time>
      </trkpt>
      <trkpt lat="46.77146" lon="4.75314">
        <ele>186.829965</ele>
        <time>2011-02-12T07:28:39Z</time>
      </trkpt>
      <trkpt lat="46.77152" lon="4.75302">
        <ele>186.984776</ele>
        <time>2011-02-12T07:28:41Z</time>
      </trkpt>
      <trkpt lat="46.77161" lon="4.75288">
        <ele>187.053917</ele>
        <time>2011-02-12T07:28:44Z</time>
      </trkpt>
      <trkpt lat="46.77171" lon="4.75272">
        <ele>187.144153</ele>
        <time>2011-02-12T07:28:47Z</time>
      </trkpt>
      <trkpt lat="46.77181" lon="4.75255">
        <ele>187.315141</ele>
        <time>2011-02-12T07:28:50Z</time>
      </trkpt>
      <trkpt lat="46.77191" lon="4.75238">
        <ele>187.554164</ele>
        <time>2011-02-12T07:28:53Z</time>
      </trkpt>
      <trkpt lat="46.77198" lon="4.75226">
        <ele>187.810666</ele>
        <time>2011-02-12T07:28:55Z</time>
      </trkpt>
      <trkpt lat="46.77209" lon="4.75207">
        <ele>188.036588</ele>
        <time>2011-02-12T07:28:58Z</time>
      </trkpt>
      <trkpt lat="46.77221" lon="4.75188">
        <ele>188.228586</ele>
        <time>2011-02-12T07:29:01Z</time>
      </trkpt>
      <trkpt lat="46.77228" lon="4.75176">
        <ele>188.389405</ele>
        <time>2011-02-12T07:29:03Z</time>
      </trkpt>
      <trkpt lat="46.77236" lon="4.75163">
        <ele>188.497561</ele>
        <time>2011-02-12T07:29:05Z</time>
      </trkpt>
      <trkpt lat="46.77247" lon="4.75144">
        <ele>188.575341</ele>
        <time>2011-02-12T07:29:08Z</time>
      </trkpt>
      <trkpt lat="46.77261" lon="4.75129">
        <ele>188.717176</ele>
        <time>2011-02-12T07:29:11Z</time>
      </trkpt>
      <trkpt lat="46.77278" lon="4.75125">
        <ele>188.983994</ele>
        <time>2011-02-12T07:29:14Z</time>
      </trkpt>
      <trkpt lat="46.77289" lon="4.7513">
        <ele>189.319999</ele>
        <time>2011-02-12T07:29:16Z</time>
      </trkpt>
      <trkpt lat="46.77303" lon="4.75141">
        <ele>189.59763</ele>
        <time>2011-02-12T07:29:19Z</time>
      </trkpt>
      <trkpt lat="46.77317" lon="4.75154">
        <ele>189.739216</ele>
        <time>2011-02-12T07:29:22Z</time>
      </trkpt>
      <trkpt lat="46.77326" lon="4.75162">
        <ele>189.76658</ele>
        <time>2011-02-12T07:29:24Z</time>
      </trkpt>
      <trkpt lat="46.77341" lon="4.75166">
        <ele>189.713777</ele>
        <time>2011-02-12T07:29:27Z</time>
      </trkpt>
      <trkpt lat="46.7735" lon="4.75161">
        <ele>189.556438</ele>
        <time>2011-02-12T07:29:29Z</time>
      </trkpt>
      <trkpt lat="46.77359" lon="4.75147">
        <ele>189.284389</ele>
        <time>2011-02-12T07:29:32Z</time>
      </trkpt>
      <trkpt lat="46.77364" lon="4.75136">
        <ele>188.86086</ele>
        <time>2011-02-12T07:29:34Z</time>
      </trkpt>
      <trkpt lat="46.77372" lon="4.75118">
        <ele>188.229042</ele>
        <time>2011-02-12T07:29:37Z</time>
      </trkpt>
      <trkpt lat="46.77379" lon="4.75098">
        <ele>187.45836</ele>
        <time>2011-02-12T07:29:40Z</time>
      </trkpt>
      <trkpt lat="46.77384" lon="4.75085">
        <ele>186.74959</ele>
        <time>2011-02-12T07:29:42Z</time>
      </trkpt>
      <trkpt lat="46.77388" lon="4.75072">
        <ele>186.240587</ele>
        <time>2011-02-12T07:29:44Z</time>
      </trkpt>
      <trkpt lat="46.77395" lon="4.75055">
        <ele>185.822011</ele>
        <time>2011-02-12T07:29:47Z</time>
      </trkpt>
      <trkpt lat="46.77401" lon="4.75038">
        <ele>185.268627</ele>
        <time>2011-02-12T07:29:50Z</time>
      </trkpt>
      <trkpt lat="46.77406" lon="4.75023">
        <ele>184.61734</ele>
        <time>2011-02-12T07:29:53Z</time>
      </trkpt>
      <trkpt lat="46.77411" lon="4.75008">
        <ele>184.116126</ele>
        <time>2011-02-12T07:29:56Z</time>
      </trkpt>
      <trkpt lat="46.77416" lon="4.74993">
        <ele>183.883843</ele>
        <time>2011-02-12T07:29:59Z</time>
      </trkpt>
      <trkpt lat="46.77423" lon="4.74978">
        <ele>183.846482</ele>
        <time>2011-02-12T07:30:02Z</time>
      </trkpt>
      <trkpt lat="46.77429" lon="4.74963">
        <ele>183.884571</ele>
        <time>2011-02-12T07:30:05Z</time>
      </trkpt>
      <trkpt lat="46.77435" lon="4.74947">
        <ele>183.948117</ele>
        <time>2011-02-12T07:30:08Z</time>
      </trkpt>
      <trkpt lat="46.7744" lon="4.74933">
        <ele>184.078073</ele>
        <time>2011-02-12T07:30:11Z</time>
      </trkpt>
      <trkpt lat="46.77445" lon="4.74919">
        <ele>184.293549</ele>
        <time>2011-02-12T07:30:14Z</time>
      </trkpt>
      <trkpt lat="46.77451" lon="4.74905">
        <ele>184.514796</ele>
        <time>2011-02-12T07:30:17Z</time>
      </trkpt>
      <trkpt lat="46.77458" lon="4.74892">
        <ele>184.658084</ele>
        <time>2011-02-12T07:30:20Z</time>
      </trkpt>
      <trkpt lat="46.77465" lon="4.74878">
        <ele>184.722863</ele>
        <time>2011-02-12T07:30:23Z</time>
      </trkpt>
      <trkpt lat="46.77472" lon="4.74864">
        <ele>184.756881</ele>
        <time>2011-02-12T07:30:26Z</time>
      </trkpt>
      <trkpt lat="46.77479" lon="4.74851">
        <ele>184.803494</ele>
        <time>2011-02-12T07:30:29Z</time>
      </trkpt>
      <trkpt lat="46.77487" lon="4.74837">
        <ele>184.887156</ele>
        <time>2011-02-12T07:30:32Z</time>
      </trkpt>
      <trkpt lat="46.77495" lon="4.74821">
        <ele>185.102519</ele>
        <time>2011-02-12T07:30:35Z</time>
      </trkpt>
      <trkpt lat="46.77501" lon="4.74812">
        <ele>185.683048</ele>
        <time>2011-02-12T07:30:37Z</time>
      </trkpt>
      <trkpt lat="46.77514" lon="4.74804">
        <ele>186.782325</ele>
        <time>2011-02-12T07:30:40Z</time>
      </trkpt>
      <trkpt lat="46.7753" lon="4.74801">
        <ele>188.182303</ele>
        <time>2011-02-12T07:30:43Z</time>
      </trkpt>
      <trkpt lat="46.7754" lon="4.74802">
        <ele>189.427561</ele>
        <time>2011-02-12T07:30:45Z</time>
      </trkpt>
      <trkpt lat="46.77556" lon="4.74806">
        <ele>190.272597</ele>
        <time>2011-02-12T07:30:48Z</time>
      </trkpt>
      <trkpt lat="46.77566" lon="4.74811">
        <ele>190.748833</ele>
        <time>2011-02-12T07:30:50Z</time>
      </trkpt>
      <trkpt lat="46.77576" lon="4.74816">
        <ele>190.940377</ele>
        <time>2011-02-12T07:30:52Z</time>
      </trkpt>
      <trkpt lat="46.77589" lon="4.74821">
        <ele>190.94872</ele>
        <time>2011-02-12T07:30:55Z</time>
      </trkpt>
      <trkpt lat="46.77598" lon="4.74825">
        <ele>190.88324</ele>
        <time>2011-02-12T07:30:57Z</time>
      </trkpt>
      <trkpt lat="46.77612" lon="4.74831">
        <ele>190.730177</ele>
        <time>2011-02-12T07:31:00Z</time>
      </trkpt>
      <trkpt lat="46.77622" lon="4.74836">
        <ele>190.393348</ele>
        <time>2011-02-12T07:31:02Z</time>
      </trkpt>
      <trkpt lat="46.77635" lon="4.74843">
        <ele>189.854794</ele>
        <time>2011-02-12T07:31:05Z</time>
      </trkpt>
      <trkpt lat="46.77646" lon="4.7485">
        <ele>189.186183</ele>
        <time>2011-02-12T07:31:08Z</time>
      </trkpt>
      <trkpt lat="46.77657" lon="4.74858">
        <ele>188.489949</ele>
        <time>2011-02-12T07:31:11Z</time>
      </trkpt>
      <trkpt lat="46.7767" lon="4.74866">
        <ele>187.888074</ele>
        <time>2011-02-12T07:31:14Z</time>
      </trkpt>
      <trkpt lat="46.77685" lon="4.74875">
        <ele>187.442867</ele>
        <time>2011-02-12T07:31:17Z</time>
      </trkpt>
      <trkpt lat="46.777" lon="4.74883">
        <ele>187.114063</ele>
        <time>2011-02-12T07:31:20Z</time>
      </trkpt>
      <trkpt lat="46.7771" lon="4.74889">
        <ele>186.816612</ele>
        <time>2011-02-12T07:31:22Z</time>
      </trkpt>
      <trkpt lat="46.77725" lon="4.74899">
        <ele>186.508376</ele>
        <time>2011-02-12T07:31:25Z</time>
      </trkpt>
      <trkpt lat="46.77734" lon="4.74907">
        <ele>186.23297</ele>
        <time>2011-02-12T07:31:27Z</time>
      </trkpt>
      <trkpt lat="46.77744" lon="4.74906">
        <ele>186.010287</ele>
        <time>2011-02-12T07:31:29Z</time>
      </trkpt>
      <trkpt lat="46.7775" lon="4.74891">
        <ele>185.825894</ele>
        <time>2011-02-12T07:31:32Z</time>
      </trkpt>
      <trkpt lat="46.77754" lon="4.7487">
        <ele>185.710252</ele>
        <time>2011-02-12T07:31:35Z</time>
      </trkpt>
      <trkpt lat="46.77756" lon="4.74857">
        <ele>185.675831</ele>
        <time>2011-02-12T07:31:37Z</time>
      </trkpt>
      <trkpt lat="46.77757" lon="4.74843">
        <ele>185.702227</ele>
        <time>2011-02-12T07:31:39Z</time>
      </trkpt>
      <trkpt lat="46.77759" lon="4.74825">
        <ele>185.802689</ele>
        <time>2011-02-12T07:31:42Z</time>
      </trkpt>
      <trkpt lat="46.7776" lon="4.74808">
        <ele>186.005714</ele>
        <time>2011-02-12T07:31:45Z</time>
      </trkpt>
      <trkpt lat="46.77761" lon="4.7479">
        <ele>186.307772</ele>
        <time>2011-02-12T07:31:48Z</time>
      </trkpt>
      <trkpt lat="46.77761" lon="4.74772">
        <ele>186.730474</ele>
        <time>2011-02-12T07:31:51Z</time>
      </trkpt>
      <trkpt lat="46.77762" lon="4.74756">
        <ele>187.314339</ele>
        <time>2011-02-12T07:31:54Z</time>
      </trkpt>
      <trkpt lat="46.77763" lon="4.74737">
        <ele>188.006034</ele>
        <time>2011-02-12T07:31:57Z</time>
      </trkpt>
      <trkpt lat="46.77763" lon="4.74723">
        <ele>188.70751</ele>
        <time>2011-02-12T07:31:59Z</time>
      </trkpt>
      <trkpt lat="46.77764" lon="4.74701">
        <ele>189.363626</ele>
        <time>2011-02-12T07:32:02Z</time>
      </trkpt>
      <trkpt lat="46.77765" lon="4.74686">
        <ele>189.927887</ele>
        <time>2011-02-12T07:32:04Z</time>
      </trkpt>
      <trkpt lat="46.77765" lon="4.74665">
        <ele>190.368965</ele>
        <time>2011-02-12T07:32:07Z</time>
      </trkpt>
      <trkpt lat="46.77766" lon="4.74644">
        <ele>190.736883</ele>
        <time>2011-02-12T07:32:10Z</time>
      </trkpt>
      <trkpt lat="46.77766" lon="4.74624">
        <ele>191.111642</ele>
        <time>2011-02-12T07:32:13Z</time>
      </trkpt>
      <trkpt lat="46.77767" lon="4.74606">
        <ele>191.536569</ele>
        <time>2011-02-12T07:32:16Z</time>
      </trkpt>
      <trkpt lat="46.77767" lon="4.74589">
        <ele>192.039113</ele>
        <time>2011-02-12T07:32:19Z</time>
      </trkpt>
      <trkpt lat="46.77768" lon="4.74571">
        <ele>192.611673</ele>
        <time>2011-02-12T07:32:22Z</time>
      </trkpt>
      <trkpt lat="46.77768" lon="4.74553">
        <ele>193.16476</ele>
        <time>2011-02-12T07:32:25Z</time>
      </trkpt>
      <trkpt lat="46.77768" lon="4.74536">
        <ele>193.629239</ele>
        <time>2011-02-12T07:32:28Z</time>
      </trkpt>
      <trkpt lat="46.77769" lon="4.74519">
        <ele>193.975932</ele>
        <time>2011-02-12T07:32:31Z</time>
      </trkpt>
      <trkpt lat="46.7777" lon="4.74502">
        <ele>194.176642</ele>
        <time>2011-02-12T07:32:34Z</time>
      </trkpt>
      <trkpt lat="46.77768" lon="4.74486">
        <ele>194.242581</ele>
        <time>2011-02-12T07:32:37Z</time>
      </trkpt>
      <trkpt lat="46.77768" lon="4.7447">
        <ele>194.237875</ele>
        <time>2011-02-12T07:32:40Z</time>
      </trkpt>
      <trkpt lat="46.77768" lon="4.74456">
        <ele>194.217555</ele>
        <time>2011-02-12T07:32:43Z</time>
      </trkpt>
      <trkpt lat="46.77767" lon="4.74441">
        <ele>194.20434</ele>
        <time>2011-02-12T07:32:46Z</time>
      </trkpt>
      <trkpt lat="46.77766" lon="4.74425">
        <ele>194.200843</ele>
        <time>2011-02-12T07:32:49Z</time>
      </trkpt>
      <trkpt lat="46.77766" lon="4.74408">
        <ele>194.206449</ele>
        <time>2011-02-12T07:32:52Z</time>
      </trkpt>
      <trkpt lat="46.77766" lon="4.74391">
        <ele>194.222177</ele>
        <time>2011-02-12T07:32:55Z</time>
      </trkpt>
      <trkpt lat="46.77765" lon="4.74376">
        <ele>194.24479</ele>
        <time>2011-02-12T07:32:58Z</time>
      </trkpt>
      <trkpt lat="46.77765" lon="4.7436">
        <ele>194.266777</ele>
        <time>2011-02-12T07:33:01Z</time>
      </trkpt>
      <trkpt lat="46.77767" lon="4.74344">
        <ele>194.283882</ele>
        <time>2011-02-12T07:33:04Z</time>
      </trkpt>
      <trkpt lat="46.77767" lon="4.74328">
        <ele>194.304345</ele>
        <time>2011-02-12T07:33:07Z</time>
      </trkpt>
      <trkpt lat="46.77769" lon="4.74313">
        <ele>194.343882</ele>
        <time>2011-02-12T07:33:10Z</time>
      </trkpt>
      <trkpt lat="46.7777" lon="4.74298">
        <ele>194.409693</ele>
        <time>2011-02-12T07:33:13Z</time>
      </trkpt>
      <trkpt lat="46.77773" lon="4.74284">
        <ele>194.500004</ele>
        <time>2011-02-12T07:33:16Z</time>
      </trkpt>
      <trkpt lat="46.77775" lon="4.7427">
        <ele>194.628892</ele>
        <time>2011-02-12T07:33:19Z</time>
      </trkpt>
      <trkpt lat="46.77778" lon="4.74253">
        <ele>194.829947</ele>
        <time>2011-02-12T07:33:23Z</time>
      </trkpt>
      <trkpt lat="46.77781" lon="4.74238">
        <ele>195.118868</ele>
        <time>2011-02-12T07:33:26Z</time>
      </trkpt>
      <trkpt lat="46.77784" lon="4.74224">
        <ele>195.470948</ele>
        <time>2011-02-12T07:33:29Z</time>
      </trkpt>
      <trkpt lat="46.77787" lon="4.7421">
        <ele>195.867544</ele>
        <time>2011-02-12T07:33:32Z</time>
      </trkpt>
      <trkpt lat="46.7779" lon="4.74195">
        <ele>196.301366</ele>
        <time>2011-02-12T07:33:35Z</time>
      </trkpt>
      <trkpt lat="46.77793" lon="4.7418">
        <ele>196.740685</ele>
        <time>2011-02-12T07:33:38Z</time>
      </trkpt>
      <trkpt lat="46.77795" lon="4.74166">
        <ele>197.151751</ele>
        <time>2011-02-12T07:33:41Z</time>
      </trkpt>
      <trkpt lat="46.77797" lon="4.74152">
        <ele>197.530785</ele>
        <time>2011-02-12T07:33:44Z</time>
      </trkpt>
      <trkpt lat="46.778" lon="4.74137">
        <ele>197.885088</ele>
        <time>2011-02-12T07:33:47Z</time>
      </trkpt>
      <trkpt lat="46.77802" lon="4.74122">
        <ele>198.218083</ele>
        <time>2011-02-12T07:33:50Z</time>
      </trkpt>
      <trkpt lat="46.77804" lon="4.74108">
        <ele>198.526623</ele>
        <time>2011-02-12T07:33:53Z</time>
      </trkpt>
      <trkpt lat="46.77805" lon="4.74095">
        <ele>198.810197</ele>
        <time>2011-02-12T07:33:56Z</time>
      </trkpt>
      <trkpt lat="46.77805" lon="4.74081">
        <ele>199.070979</ele>
        <time>2011-02-12T07:33:59Z</time>
      </trkpt>
      <trkpt lat="46.77805" lon="4.74066">
        <ele>199.305308</ele>
        <time>2011-02-12T07:34:02Z</time>
      </trkpt>
      <trkpt lat="46.77804" lon="4.74053">
        <ele>199.511242</ele>
        <time>2011-02-12T07:34:05Z</time>
      </trkpt>
      <trkpt lat="46.77802" lon="4.74037">
        <ele>199.699698</ele>
        <time>2011-02-12T07:34:08Z</time>
      </trkpt>
      <trkpt lat="46.77799" lon="4.74023">
        <ele>199.879949</ele>
        <time>2011-02-12T07:34:11Z</time>
      </trkpt>
      <trkpt lat="46.77797" lon="4.74009">
        <ele>200.045843</ele>
        <time>2011-02-12T07:34:14Z</time>
      </trkpt>
      <trkpt lat="46.77796" lon="4.73995">
        <ele>200.194331</ele>
        <time>2011-02-12T07:34:17Z</time>
      </trkpt>
      <trkpt lat="46.77794" lon="4.73979">
        <ele>200.327644</ele>
        <time>2011-02-12T07:34:21Z</time>
      </trkpt>
      <trkpt lat="46.77794" lon="4.73979">
        <ele>200.428789</ele>
        <time>2011-02-12T07:34:25Z</time>
      </trkpt>
      <trkpt lat="46.77808" lon="4.73973">
        <ele>200.494871</ele>
        <time>2011-02-12T07:34:36Z</time>
      </trkpt>
      <trkpt lat="46.77817" lon="4.73981">
        <ele>200.569576</ele>
        <time>2011-02-12T07:34:39Z</time>
      </trkpt>
      <trkpt lat="46.77827" lon="4.73988">
        <ele>200.70129</ele>
        <time>2011-02-12T07:34:42Z</time>
      </trkpt>
      <trkpt lat="46.77837" lon="4.73995">
        <ele>200.977336</ele>
        <time>2011-02-12T07:34:45Z</time>
      </trkpt>
      <trkpt lat="46.77847" lon="4.74003">
        <ele>201.396731</ele>
        <time>2011-02-12T07:34:48Z</time>
      </trkpt>
      <trkpt lat="46.77856" lon="4.74012">
        <ele>201.761515</ele>
        <time>2011-02-12T07:34:51Z</time>
      </trkpt>
      <trkpt lat="46.77866" lon="4.74021">
        <ele>201.925425</ele>
        <time>2011-02-12T07:34:54Z</time>
      </trkpt>
      <trkpt lat="46.77877" lon="4.74029">
        <ele>201.944745</ele>
        <time>2011-02-12T07:34:57Z</time>
      </trkpt>
      <trkpt lat="46.77888" lon="4.74037">
        <ele>201.882944</ele>
        <time>2011-02-12T07:35:00Z</time>
      </trkpt>
      <trkpt lat="46.77898" lon="4.74045">
        <ele>201.595302</ele>
        <time>2011-02-12T07:35:03Z</time>
      </trkpt>
      <trkpt lat="46.77909" lon="4.74053">
        <ele>200.89112</ele>
        <time>2011-02-12T07:35:06Z</time>
      </trkpt>
      <trkpt lat="46.77922" lon="4.74057">
        <ele>199.958096</ele>
        <time>2011-02-12T07:35:09Z</time>
      </trkpt>
      <trkpt lat="46.77931" lon="4.74062">
        <ele>199.228749</ele>
        <time>2011-02-12T07:35:11Z</time>
      </trkpt>
      <trkpt lat="46.77947" lon="4.74072">
        <ele>198.837588</ele>
        <time>2011-02-12T07:35:14Z</time>
      </trkpt>
      <trkpt lat="46.77957" lon="4.74077">
        <ele>198.647242</ele>
        <time>2011-02-12T07:35:16Z</time>
      </trkpt>
      <trkpt lat="46.77972" lon="4.74083">
        <ele>198.563063</ele>
        <time>2011-02-12T07:35:19Z</time>
      </trkpt>
      <trkpt lat="46.77983" lon="4.74084">
        <ele>198.553998</ele>
        <time>2011-02-12T07:35:21Z</time>
      </trkpt>
      <trkpt lat="46.77991" lon="4.74073">
        <ele>198.58137</ele>
        <time>2011-02-12T07:35:23Z</time>
      </trkpt>
      <trkpt lat="46.77994" lon="4.7406">
        <ele>198.678678</ele>
        <time>2011-02-12T07:35:25Z</time>
      </trkpt>
      <trkpt lat="46.77997" lon="4.74039">
        <ele>198.891093</ele>
        <time>2011-02-12T07:35:28Z</time>
      </trkpt>
      <trkpt lat="46.77999" lon="4.74025">
        <ele>199.20206</ele>
        <time>2011-02-12T07:35:30Z</time>
      </trkpt>
      <trkpt lat="46.78" lon="4.74011">
        <ele>199.596538</ele>
        <time>2011-02-12T07:35:32Z</time>
      </trkpt>
      <trkpt lat="46.78001" lon="4.7399">
        <ele>200.162876</ele>
        <time>2011-02-12T07:35:35Z</time>
      </trkpt>
      <trkpt lat="46.78004" lon="4.73969">
        <ele>201.029366</ele>
        <time>2011-02-12T07:35:38Z</time>
      </trkpt>
      <trkpt lat="46.78007" lon="4.7395">
        <ele>202.196742</ele>
        <time>2011-02-12T07:35:41Z</time>
      </trkpt>
      <trkpt lat="46.7801" lon="4.73932">
        <ele>203.562131</ele>
        <time>2011-02-12T07:35:44Z</time>
      </trkpt>
      <trkpt lat="46.78012" lon="4.73916">
        <ele>205.037697</ele>
        <time>2011-02-12T07:35:47Z</time>
      </trkpt>
      <trkpt lat="46.78013" lon="4.73899">
        <ele>206.563128</ele>
        <time>2011-02-12T07:35:50Z</time>
      </trkpt>
      <trkpt lat="46.78012" lon="4.73882">
        <ele>208.094181</ele>
        <time>2011-02-12T07:35:53Z</time>
      </trkpt>
      <trkpt lat="46.78011" lon="4.73864">
        <ele>209.434347</ele>
        <time>2011-02-12T07:35:56Z</time>
      </trkpt>
      <trkpt lat="46.7801" lon="4.73848">
        <ele>210.270963</ele>
        <time>2011-02-12T07:35:59Z</time>
      </trkpt>
      <trkpt lat="46.78009" lon="4.73831">
        <ele>210.555926</ele>
        <time>2011-02-12T07:36:02Z</time>
      </trkpt>
      <trkpt lat="46.78007" lon="4.73815">
        <ele>210.531838</ele>
        <time>2011-02-12T07:36:05Z</time>
      </trkpt>
      <trkpt lat="46.78005" lon="4.73798">
        <ele>210.424018</ele>
        <time>2011-02-12T07:36:08Z</time>
      </trkpt>
      <trkpt lat="46.78002" lon="4.7378">
        <ele>210.334031</ele>
        <time>2011-02-12T07:36:11Z</time>
      </trkpt>
      <trkpt lat="46.78" lon="4.73761">
        <ele>210.288571</ele>
        <time>2011-02-12T07:36:14Z</time>
      </trkpt>
      <trkpt lat="46.77997" lon="4.73743">
        <ele>210.274143</ele>
        <time>2011-02-12T07:36:17Z</time>
      </trkpt>
      <trkpt lat="46.77994" lon="4.73725">
        <ele>210.259019</ele>
        <time>2011-02-12T07:36:20Z</time>
      </trkpt>
      <trkpt lat="46.77991" lon="4.73708">
        <ele>210.23409</ele>
        <time>2011-02-12T07:36:23Z</time>
      </trkpt>
      <trkpt lat="46.77988" lon="4.7369">
        <ele>210.143374</ele>
        <time>2011-02-12T07:36:26Z</time>
      </trkpt>
      <trkpt lat="46.77984" lon="4.7367">
        <ele>209.930512</ele>
        <time>2011-02-12T07:36:29Z</time>
      </trkpt>
      <trkpt lat="46.77983" lon="4.73656">
        <ele>209.676205</ele>
        <time>2011-02-12T07:36:31Z</time>
      </trkpt>
      <trkpt lat="46.77983" lon="4.73636">
        <ele>209.506786</ele>
        <time>2011-02-12T07:36:34Z</time>
      </trkpt>
      <trkpt lat="46.77983" lon="4.73623">
        <ele>209.442924</ele>
        <time>2011-02-12T07:36:36Z</time>
      </trkpt>
      <trkpt lat="46.77986" lon="4.73603">
        <ele>209.452096</ele>
        <time>2011-02-12T07:36:39Z</time>
      </trkpt>
      <trkpt lat="46.77988" lon="4.73589">
        <ele>209.503511</ele>
        <time>2011-02-12T07:36:41Z</time>
      </trkpt>
      <trkpt lat="46.77991" lon="4.73575">
        <ele>209.576553</ele>
        <time>2011-02-12T07:36:43Z</time>
      </trkpt>
      <trkpt lat="46.77995" lon="4.73555">
        <ele>209.747753</ele>
        <time>2011-02-12T07:36:46Z</time>
      </trkpt>
      <trkpt lat="46.77996" lon="4.73541">
        <ele>210.253133</ele>
        <time>2011-02-12T07:36:48Z</time>
      </trkpt>
      <trkpt lat="46.77997" lon="4.73527">
        <ele>211.261523</ele>
        <time>2011-02-12T07:36:50Z</time>
      </trkpt>
      <trkpt lat="46.77997" lon="4.73505">
        <ele>212.74608</ele>
        <time>2011-02-12T07:36:53Z</time>
      </trkpt>
      <trkpt lat="46.77996" lon="4.7349">
        <ele>214.455564</ele>
        <time>2011-02-12T07:36:55Z</time>
      </trkpt>
      <trkpt lat="46.77995" lon="4.7347">
        <ele>215.993022</ele>
        <time>2011-02-12T07:36:58Z</time>
      </trkpt>
      <trkpt lat="46.77994" lon="4.73453">
        <ele>217.131233</ele>
        <time>2011-02-12T07:37:01Z</time>
      </trkpt>
      <trkpt lat="46.77993" lon="4.73438">
        <ele>217.863371</ele>
        <time>2011-02-12T07:37:04Z</time>
      </trkpt>
      <trkpt lat="46.77993" lon="4.73423">
        <ele>218.21084</ele>
        <time>2011-02-12T07:37:07Z</time>
      </trkpt>
      <trkpt lat="46.77994" lon="4.7341">
        <ele>218.278493</ele>
        <time>2011-02-12T07:37:10Z</time>
      </trkpt>
      <trkpt lat="46.77995" lon="4.73396">
        <ele>218.230364</ele>
        <time>2011-02-12T07:37:13Z</time>
      </trkpt>
      <trkpt lat="46.77997" lon="4.73383">
        <ele>218.170127</ele>
        <time>2011-02-12T07:37:16Z</time>
      </trkpt>
      <trkpt lat="46.77997" lon="4.7337">
        <ele>218.12628</ele>
        <time>2011-02-12T07:37:19Z</time>
      </trkpt>
      <trkpt lat="46.77998" lon="4.73355">
        <ele>218.09252</ele>
        <time>2011-02-12T07:37:22Z</time>
      </trkpt>
      <trkpt lat="46.78" lon="4.7334">
        <ele>218.06299</ele>
        <time>2011-02-12T07:37:25Z</time>
      </trkpt>
      <trkpt lat="46.78002" lon="4.73327">
        <ele>218.041006</ele>
        <time>2011-02-12T07:37:28Z</time>
      </trkpt>
      <trkpt lat="46.78003" lon="4.73309">
        <ele>218.02776</ele>
        <time>2011-02-12T07:37:32Z</time>
      </trkpt>
      <trkpt lat="46.78004" lon="4.73294">
        <ele>218.01934</ele>
        <time>2011-02-12T07:37:35Z</time>
      </trkpt>
      <trkpt lat="46.78004" lon="4.7328">
        <ele>218.015067</ele>
        <time>2011-02-12T07:37:38Z</time>
      </trkpt>
      <trkpt lat="46.78003" lon="4.73266">
        <ele>218.014252</ele>
        <time>2011-02-12T07:37:41Z</time>
      </trkpt>
      <trkpt lat="46.78002" lon="4.7325">
        <ele>218.020217</ele>
        <time>2011-02-12T07:37:45Z</time>
      </trkpt>
      <trkpt lat="46.78" lon="4.73236">
        <ele>218.051284</ele>
        <time>2011-02-12T07:37:49Z</time>
      </trkpt>
      <trkpt lat="46.77997" lon="4.73221">
        <ele>218.126985</ele>
        <time>2011-02-12T07:37:53Z</time>
      </trkpt>
      <trkpt lat="46.77997" lon="4.73221">
        <ele>218.225305</ele>
        <time>2011-02-12T07:37:56Z</time>
      </trkpt>
      <trkpt lat="46.77991" lon="4.73191">
        <ele>218.295928</ele>
        <time>2011-02-12T07:38:02Z</time>
      </trkpt>
      <trkpt lat="46.77989" lon="4.73178">
        <ele>218.321021</ele>
        <time>2011-02-12T07:38:06Z</time>
      </trkpt>
      <trkpt lat="46.77986" lon="4.73162">
        <ele>218.318928</ele>
        <time>2011-02-12T07:38:10Z</time>
      </trkpt>
      <trkpt lat="46.77983" lon="4.73148">
        <ele>218.289468</ele>
        <time>2011-02-12T07:38:14Z</time>
      </trkpt>
      <trkpt lat="46.7798" lon="4.73132">
        <ele>218.231535</ele>
        <time>2011-02-12T07:38:18Z</time>
      </trkpt>
      <trkpt lat="46.77979" lon="4.73117">
        <ele>218.177182</ele>
        <time>2011-02-12T07:38:22Z</time>
      </trkpt>
      <trkpt lat="46.77977" lon="4.731">
        <ele>218.161235</ele>
        <time>2011-02-12T07:38:26Z</time>
      </trkpt>
      <trkpt lat="46.77977" lon="4.73083">
        <ele>218.180321</ele>
        <time>2011-02-12T07:38:30Z</time>
      </trkpt>
      <trkpt lat="46.77973" lon="4.73069">
        <ele>218.225573</ele>
        <time>2011-02-12T07:38:34Z</time>
      </trkpt>
      <trkpt lat="46.77969" lon="4.73055">
        <ele>218.289635</ele>
        <time>2011-02-12T07:38:38Z</time>
      </trkpt>
      <trkpt lat="46.77966" lon="4.73042">
        <ele>218.347848</ele>
        <time>2011-02-12T07:38:42Z</time>
      </trkpt>
      <trkpt lat="46.77963" lon="4.73028">
        <ele>218.381257</ele>
        <time>2011-02-12T07:38:46Z</time>
      </trkpt>
      <trkpt lat="46.77963" lon="4.73028">
        <ele>218.394117</ele>
        <time>2011-02-12T07:38:48Z</time>
      </trkpt>
      <trkpt lat="46.77945" lon="4.72996">
        <ele>218.390792</ele>
        <time>2011-02-12T07:39:01Z</time>
      </trkpt>
      <trkpt lat="46.77945" lon="4.72996">
        <ele>218.38055</ele>
        <time>2011-02-12T07:39:04Z</time>
      </trkpt>
      <trkpt lat="46.77953" lon="4.72953">
        <ele>218.38578</ele>
        <time>2011-02-12T07:39:21Z</time>
      </trkpt>
      <trkpt lat="46.77953" lon="4.72953">
        <ele>218.414833</ele>
        <time>2011-02-12T07:39:25Z</time>
      </trkpt>
      <trkpt lat="46.77973" lon="4.72926">
        <ele>218.452824</ele>
        <time>2011-02-12T07:39:37Z</time>
      </trkpt>
      <trkpt lat="46.7798" lon="4.72914">
        <ele>218.500417</ele>
        <time>2011-02-12T07:39:42Z</time>
      </trkpt>
      <trkpt lat="46.77986" lon="4.72904">
        <ele>218.871502</ele>
        <time>2011-02-12T07:39:48Z</time>
      </trkpt>
      <trkpt lat="46.77992" lon="4.72893">
        <ele>220.102199</ele>
        <time>2011-02-12T07:39:54Z</time>
      </trkpt>
      <trkpt lat="46.78" lon="4.72884">
        <ele>221.989569</ele>
        <time>2011-02-12T07:40:02Z</time>
      </trkpt>
      <trkpt lat="46.78006" lon="4.72874">
        <ele>223.629817</ele>
        <time>2011-02-12T07:40:09Z</time>
      </trkpt>
      <trkpt lat="46.78007" lon="4.72855">
        <ele>224.593755</ele>
        <time>2011-02-12T07:40:18Z</time>
      </trkpt>
      <trkpt lat="46.78019" lon="4.72852">
        <ele>225.058411</ele>
        <time>2011-02-12T07:40:27Z</time>
      </trkpt>
      <trkpt lat="46.7803" lon="4.72854">
        <ele>225.282949</ele>
        <time>2011-02-12T07:40:31Z</time>
      </trkpt>
      <trkpt lat="46.78039" lon="4.72857">
        <ele>225.655103</ele>
        <time>2011-02-12T07:40:36Z</time>
      </trkpt>
      <trkpt lat="46.78048" lon="4.7286">
        <ele>226.528925</ele>
        <time>2011-02-12T07:40:44Z</time>
      </trkpt>
      <trkpt lat="46.78057" lon="4.72864">
        <ele>227.67571</ele>
        <time>2011-02-12T07:40:53Z</time>
      </trkpt>
      <trkpt lat="46.78066" lon="4.72869">
        <ele>228.494544</ele>
        <time>2011-02-12T07:41:03Z</time>
      </trkpt>
      <trkpt lat="46.78075" lon="4.72873">
        <ele>228.783535</ele>
        <time>2011-02-12T07:41:11Z</time>
      </trkpt>
      <trkpt lat="46.78084" lon="4.72875">
        <ele>228.76007</ele>
        <time>2011-02-12T07:41:18Z</time>
      </trkpt>
      <trkpt lat="46.78093" lon="4.72881">
        <ele>228.558775</ele>
        <time>2011-02-12T07:41:26Z</time>
      </trkpt>
      <trkpt lat="46.78104" lon="4.72882">
        <ele>228.102117</ele>
        <time>2011-02-12T07:41:34Z</time>
      </trkpt>
      <trkpt lat="46.78113" lon="4.72886">
        <ele>227.283259</ele>
        <time>2011-02-12T07:41:42Z</time>
      </trkpt>
      <trkpt lat="46.78123" lon="4.72891">
        <ele>226.147825</ele>
        <time>2011-02-12T07:41:48Z</time>
      </trkpt>
      <trkpt lat="46.78132" lon="4.729">
        <ele>225.028696</ele>
        <time>2011-02-12T07:41:53Z</time>
      </trkpt>
      <trkpt lat="46.78139" lon="4.72909">
        <ele>224.339433</ele>
        <time>2011-02-12T07:42:00Z</time>
      </trkpt>
      <trkpt lat="46.78147" lon="4.72913">
        <ele>224.139997</ele>
        <time>2011-02-12T07:42:09Z</time>
      </trkpt>
      <trkpt lat="46.78156" lon="4.72917">
        <ele>224.288731</ele>
        <time>2011-02-12T07:42:18Z</time>
      </trkpt>
      <trkpt lat="46.78164" lon="4.72926">
        <ele>224.931859</ele>
        <time>2011-02-12T07:42:23Z</time>
      </trkpt>
      <trkpt lat="46.78172" lon="4.72935">
        <ele>226.33958</ele>
        <time>2011-02-12T07:42:30Z</time>
      </trkpt>
      <trkpt lat="46.78181" lon="4.72942">
        <ele>228.406066</ele>
        <time>2011-02-12T07:42:38Z</time>
      </trkpt>
      <trkpt lat="46.78193" lon="4.72951">
        <ele>230.717115</ele>
        <time>2011-02-12T07:42:56Z</time>
      </trkpt>
      <trkpt lat="46.78203" lon="4.72955">
        <ele>233.092458</ele>
        <time>2011-02-12T07:43:03Z</time>
      </trkpt>
      <trkpt lat="46.78214" lon="4.72955">
        <ele>235.68037</ele>
        <time>2011-02-12T07:43:15Z</time>
      </trkpt>
      <trkpt lat="46.78226" lon="4.72954">
        <ele>238.792601</ele>
        <time>2011-02-12T07:43:29Z</time>
      </trkpt>
      <trkpt lat="46.78235" lon="4.7295">
        <ele>242.304479</ele>
        <time>2011-02-12T07:43:39Z</time>
      </trkpt>
      <trkpt lat="46.78244" lon="4.72944">
        <ele>245.676344</ele>
        <time>2011-02-12T07:43:44Z</time>
      </trkpt>
      <trkpt lat="46.78248" lon="4.72932">
        <ele>248.605995</ele>
        <time>2011-02-12T07:43:51Z</time>
      </trkpt>
      <trkpt lat="46.78249" lon="4.72918">
        <ele>250.951049</ele>
        <time>2011-02-12T07:44:00Z</time>
      </trkpt>
      <trkpt lat="46.78248" lon="4.72904">
        <ele>252.61651</ele>
        <time>2011-02-12T07:44:09Z</time>
      </trkpt>
      <trkpt lat="46.7825" lon="4.72891">
        <ele>253.924122</ele>
        <time>2011-02-12T07:44:19Z</time>
      </trkpt>
      <trkpt lat="46.78249" lon="4.72876">
        <ele>255.189542</ele>
        <time>2011-02-12T07:44:30Z</time>
      </trkpt>
      <trkpt lat="46.78247" lon="4.72862">
        <ele>256.285364</ele>
        <time>2011-02-12T07:44:38Z</time>
      </trkpt>
      <trkpt lat="46.78246" lon="4.72848">
        <ele>256.913393</ele>
        <time>2011-02-12T07:44:47Z</time>
      </trkpt>
      <trkpt lat="46.78246" lon="4.72834">
        <ele>257.101695</ele>
        <time>2011-02-12T07:44:54Z</time>
      </trkpt>
      <trkpt lat="46.78247" lon="4.72821">
        <ele>257.118943</ele>
        <time>2011-02-12T07:45:04Z</time>
      </trkpt>
      <trkpt lat="46.78252" lon="4.72809">
        <ele>257.110639</ele>
        <time>2011-02-12T07:45:13Z</time>
      </trkpt>
      <trkpt lat="46.78252" lon="4.72796">
        <ele>257.10544</ele>
        <time>2011-02-12T07:45:21Z</time>
      </trkpt>
      <trkpt lat="46.78255" lon="4.72782">
        <ele>257.451606</ele>
        <time>2011-02-12T07:45:29Z</time>
      </trkpt>
      <trkpt lat="46.7826" lon="4.7277">
        <ele>258.610492</ele>
        <time>2011-02-12T07:45:38Z</time>
      </trkpt>
      <trkpt lat="46.78261" lon="4.72757">
        <ele>260.388346</ele>
        <time>2011-02-12T07:45:46Z</time>
      </trkpt>
      <trkpt lat="46.7826" lon="4.72743">
        <ele>262.105348</ele>
        <time>2011-02-12T07:45:54Z</time>
      </trkpt>
      <trkpt lat="46.78259" lon="4.72729">
        <ele>263.372014</ele>
        <time>2011-02-12T07:46:03Z</time>
      </trkpt>
      <trkpt lat="46.78259" lon="4.72716">
        <ele>264.310578</ele>
        <time>2011-02-12T07:46:11Z</time>
      </trkpt>
      <trkpt lat="46.7826" lon="4.72701">
        <ele>265.317706</ele>
        <time>2011-02-12T07:46:21Z</time>
      </trkpt>
      <trkpt lat="46.78259" lon="4.72687">
        <ele>266.609184</ele>
        <time>2011-02-12T07:46:28Z</time>
      </trkpt>
      <trkpt lat="46.78258" lon="4.72674">
        <ele>268.009378</ele>
        <time>2011-02-12T07:46:36Z</time>
      </trkpt>
      <trkpt lat="46.78264" lon="4.72661">
        <ele>269.235424</ele>
        <time>2011-02-12T07:46:47Z</time>
      </trkpt>
      <trkpt lat="46.78268" lon="4.72648">
        <ele>270.276598</ele>
        <time>2011-02-12T07:46:56Z</time>
      </trkpt>
      <trkpt lat="46.78269" lon="4.72634">
        <ele>271.366447</ele>
        <time>2011-02-12T07:47:04Z</time>
      </trkpt>
      <trkpt lat="46.78268" lon="4.7262">
        <ele>272.667145</ele>
        <time>2011-02-12T07:47:09Z</time>
      </trkpt>
      <trkpt lat="46.78271" lon="4.72601">
        <ele>274.185478</ele>
        <time>2011-02-12T07:47:18Z</time>
      </trkpt>
      <trkpt lat="46.78269" lon="4.72588">
        <ele>275.792806</ele>
        <time>2011-02-12T07:47:24Z</time>
      </trkpt>
      <trkpt lat="46.78268" lon="4.72574">
        <ele>277.238347</ele>
        <time>2011-02-12T07:47:30Z</time>
      </trkpt>
      <trkpt lat="46.7827" lon="4.72561">
        <ele>278.305156</ele>
        <time>2011-02-12T07:47:36Z</time>
      </trkpt>
      <trkpt lat="46.78268" lon="4.72548">
        <ele>279.042158</ele>
        <time>2011-02-12T07:47:42Z</time>
      </trkpt>
      <trkpt lat="46.78267" lon="4.72534">
        <ele>279.691603</ele>
        <time>2011-02-12T07:47:48Z</time>
      </trkpt>
      <trkpt lat="46.78271" lon="4.72521">
        <ele>280.356578</ele>
        <time>2011-02-12T07:47:55Z</time>
      </trkpt>
      <trkpt lat="46.7827" lon="4.72504">
        <ele>280.95683</ele>
        <time>2011-02-12T07:48:00Z</time>
      </trkpt>
      <trkpt lat="46.78271" lon="4.72489">
        <ele>281.453605</ele>
        <time>2011-02-12T07:48:05Z</time>
      </trkpt>
      <trkpt lat="46.78273" lon="4.72475">
        <ele>281.972244</ele>
        <time>2011-02-12T07:48:11Z</time>
      </trkpt>
      <trkpt lat="46.78275" lon="4.72462">
        <ele>282.674515</ele>
        <time>2011-02-12T07:48:17Z</time>
      </trkpt>
      <trkpt lat="46.78275" lon="4.72448">
        <ele>283.57039</ele>
        <time>2011-02-12T07:48:23Z</time>
      </trkpt>
      <trkpt lat="46.78275" lon="4.72434">
        <ele>284.493958</ele>
        <time>2011-02-12T07:48:29Z</time>
      </trkpt>
      <trkpt lat="46.78276" lon="4.7242">
        <ele>285.218652</ele>
        <time>2011-02-12T07:48:37Z</time>
      </trkpt>
      <trkpt lat="46.78275" lon="4.72405">
        <ele>285.684237</ele>
        <time>2011-02-12T07:48:44Z</time>
      </trkpt>
      <trkpt lat="46.78274" lon="4.72392">
        <ele>286.072817</ele>
        <time>2011-02-12T07:48:50Z</time>
      </trkpt>
      <trkpt lat="46.78272" lon="4.72378">
        <ele>286.533428</ele>
        <time>2011-02-12T07:48:57Z</time>
      </trkpt>
      <trkpt lat="46.78269" lon="4.72363">
        <ele>287.00594</ele>
        <time>2011-02-12T07:49:04Z</time>
      </trkpt>
      <trkpt lat="46.78262" lon="4.72351">
        <ele>287.352203</ele>
        <time>2011-02-12T07:49:07Z</time>
      </trkpt>
      <trkpt lat="46.78256" lon="4.72338">
        <ele>287.527981</ele>
        <time>2011-02-12T07:49:11Z</time>
      </trkpt>
      <trkpt lat="46.78257" lon="4.72323">
        <ele>287.652852</ele>
        <time>2011-02-12T07:49:17Z</time>
      </trkpt>
      <trkpt lat="46.7826" lon="4.7231">
        <ele>287.960774</ele>
        <time>2011-02-12T07:49:23Z</time>
      </trkpt>
      <trkpt lat="46.78262" lon="4.72295">
        <ele>288.643622</ele>
        <time>2011-02-12T07:49:30Z</time>
      </trkpt>
      <trkpt lat="46.78263" lon="4.7228">
        <ele>289.718371</ele>
        <time>2011-02-12T07:49:36Z</time>
      </trkpt>
      <trkpt lat="46.78264" lon="4.72264">
        <ele>290.9991</ele>
        <time>2011-02-12T07:49:41Z</time>
      </trkpt>
      <trkpt lat="46.78268" lon="4.72251">
        <ele>292.166875</ele>
        <time>2011-02-12T07:49:49Z</time>
      </trkpt>
      <trkpt lat="46.78268" lon="4.72235">
        <ele>292.960547</ele>
        <time>2011-02-12T07:49:57Z</time>
      </trkpt>
      <trkpt lat="46.78268" lon="4.7222">
        <ele>293.339825</ele>
        <time>2011-02-12T07:50:02Z</time>
      </trkpt>
      <trkpt lat="46.78266" lon="4.72206">
        <ele>293.42589</ele>
        <time>2011-02-12T07:50:06Z</time>
      </trkpt>
      <trkpt lat="46.78264" lon="4.72191">
        <ele>293.382544</ele>
        <time>2011-02-12T07:50:12Z</time>
      </trkpt>
      <trkpt lat="46.78261" lon="4.72177">
        <ele>293.325427</ele>
        <time>2011-02-12T07:50:18Z</time>
      </trkpt>
      <trkpt lat="46.7826" lon="4.72162">
        <ele>293.294827</ele>
        <time>2011-02-12T07:50:25Z</time>
      </trkpt>
      <trkpt lat="46.7826" lon="4.72147">
        <ele>293.288091</ele>
        <time>2011-02-12T07:50:32Z</time>
      </trkpt>
      <trkpt lat="46.78261" lon="4.72131">
        <ele>293.352555</ele>
        <time>2011-02-12T07:50:37Z</time>
      </trkpt>
      <trkpt lat="46.78258" lon="4.72118">
        <ele>293.6872</ele>
        <time>2011-02-12T07:50:41Z</time>
      </trkpt>
      <trkpt lat="46.78257" lon="4.72104">
        <ele>294.45418</ele>
        <time>2011-02-12T07:50:47Z</time>
      </trkpt>
      <trkpt lat="46.78257" lon="4.72089">
        <ele>295.47175</ele>
        <time>2011-02-12T07:50:55Z</time>
      </trkpt>
      <trkpt lat="46.78257" lon="4.72075">
        <ele>296.498131</ele>
        <time>2011-02-12T07:51:01Z</time>
      </trkpt>
      <trkpt lat="46.78255" lon="4.72063">
        <ele>297.659994</ele>
        <time>2011-02-12T07:51:06Z</time>
      </trkpt>
      <trkpt lat="46.78254" lon="4.72049">
        <ele>299.270755</ele>
        <time>2011-02-12T07:51:13Z</time>
      </trkpt>
      <trkpt lat="46.78256" lon="4.72036">
        <ele>301.344169</ele>
        <time>2011-02-12T07:51:20Z</time>
      </trkpt>
      <trkpt lat="46.78257" lon="4.72023">
        <ele>303.591661</ele>
        <time>2011-02-12T07:51:26Z</time>
      </trkpt>
      <trkpt lat="46.78255" lon="4.72009">
        <ele>305.889336</ele>
        <time>2011-02-12T07:51:31Z</time>
      </trkpt>
      <trkpt lat="46.78254" lon="4.71995">
        <ele>308.337493</ele>
        <time>2011-02-12T07:51:36Z</time>
      </trkpt>
      <trkpt lat="46.78254" lon="4.71982">
        <ele>310.841156</ele>
        <time>2011-02-12T07:51:40Z</time>
      </trkpt>
      <trkpt lat="46.78254" lon="4.71968">
        <ele>313.16298</ele>
        <time>2011-02-12T07:51:45Z</time>
      </trkpt>
      <trkpt lat="46.78257" lon="4.71955">
        <ele>315.230459</ele>
        <time>2011-02-12T07:51:51Z</time>
      </trkpt>
      <trkpt lat="46.78258" lon="4.71941">
        <ele>317.126665</ele>
        <time>2011-02-12T07:51:57Z</time>
      </trkpt>
      <trkpt lat="46.78259" lon="4.71928">
        <ele>318.998446</ele>
        <time>2011-02-12T07:52:02Z</time>
      </trkpt>
      <trkpt lat="46.78259" lon="4.71928">
        <ele>320.682916</ele>
        <time>2011-02-12T07:52:19Z</time>
      </trkpt>
      <trkpt lat="46.78259" lon="4.71928">
        <ele>321.719414</ele>
        <time>2011-02-12T07:52:32Z</time>
      </trkpt>
      <trkpt lat="46.78282" lon="4.71942">
        <ele>322.344267</ele>
        <time>2011-02-12T07:54:26Z</time>
      </trkpt>
      <trkpt lat="46.78286" lon="4.71954">
        <ele>323.402897</ele>
        <time>2011-02-12T07:54:31Z</time>
      </trkpt>
      <trkpt lat="46.78293" lon="4.71964">
        <ele>325.057053</ele>
        <time>2011-02-12T07:54:36Z</time>
      </trkpt>
      <trkpt lat="46.78299" lon="4.71976">
        <ele>327.724757</ele>
        <time>2011-02-12T07:54:41Z</time>
      </trkpt>
      <trkpt lat="46.78304" lon="4.71989">
        <ele>331.473682</ele>
        <time>2011-02-12T07:54:46Z</time>
      </trkpt>
      <trkpt lat="46.78312" lon="4.71998">
        <ele>334.625478</ele>
        <time>2011-02-12T07:54:50Z</time>
      </trkpt>
      <trkpt lat="46.78322" lon="4.72006">
        <ele>335.92737</ele>
        <time>2011-02-12T07:54:54Z</time>
      </trkpt>
      <trkpt lat="46.7833" lon="4.72013">
        <ele>335.823358</ele>
        <time>2011-02-12T07:54:57Z</time>
      </trkpt>
      <trkpt lat="46.78338" lon="4.72022">
        <ele>334.877794</ele>
        <time>2011-02-12T07:55:00Z</time>
      </trkpt>
      <trkpt lat="46.78345" lon="4.7203">
        <ele>333.525445</ele>
        <time>2011-02-12T07:55:03Z</time>
      </trkpt>
      <trkpt lat="46.78354" lon="4.72036">
        <ele>332.136302</ele>
        <time>2011-02-12T07:55:06Z</time>
      </trkpt>
      <trkpt lat="46.78365" lon="4.72041">
        <ele>330.993174</ele>
        <time>2011-02-12T07:55:09Z</time>
      </trkpt>
      <trkpt lat="46.78377" lon="4.72047">
        <ele>330.285888</ele>
        <time>2011-02-12T07:55:12Z</time>
      </trkpt>
      <trkpt lat="46.78389" lon="4.72054">
        <ele>330.01049</ele>
        <time>2011-02-12T07:55:15Z</time>
      </trkpt>
      <trkpt lat="46.78399" lon="4.72058">
        <ele>330.004922</ele>
        <time>2011-02-12T07:55:18Z</time>
      </trkpt>
      <trkpt lat="46.78409" lon="4.72061">
        <ele>330.162093</ele>
        <time>2011-02-12T07:55:21Z</time>
      </trkpt>
      <trkpt lat="46.78419" lon="4.72066">
        <ele>330.518902</ele>
        <time>2011-02-12T07:55:24Z</time>
      </trkpt>
      <trkpt lat="46.7843" lon="4.72068">
        <ele>331.052161</ele>
        <time>2011-02-12T07:55:27Z</time>
      </trkpt>
      <trkpt lat="46.7844" lon="4.72071">
        <ele>331.620885</ele>
        <time>2011-02-12T07:55:30Z</time>
      </trkpt>
      <trkpt lat="46.7845" lon="4.72076">
        <ele>332.11636</ele>
        <time>2011-02-12T07:55:33Z</time>
      </trkpt>
      <trkpt lat="46.78459" lon="4.72082">
        <ele>332.516856</ele>
        <time>2011-02-12T07:55:36Z</time>
      </trkpt>
      <trkpt lat="46.78468" lon="4.72087">
        <ele>332.852991</ele>
        <time>2011-02-12T07:55:39Z</time>
      </trkpt>
      <trkpt lat="46.78477" lon="4.72091">
        <ele>333.176053</ele>
        <time>2011-02-12T07:55:42Z</time>
      </trkpt>
      <trkpt lat="46.78488" lon="4.72092">
        <ele>333.533624</ele>
        <time>2011-02-12T07:55:46Z</time>
      </trkpt>
      <trkpt lat="46.78497" lon="4.72092">
        <ele>333.920279</ele>
        <time>2011-02-12T07:55:50Z</time>
      </trkpt>
      <trkpt lat="46.78509" lon="4.72093">
        <ele>334.256057</ele>
        <time>2011-02-12T07:55:54Z</time>
      </trkpt>
      <trkpt lat="46.78518" lon="4.72096">
        <ele>334.470223</ele>
        <time>2011-02-12T07:55:57Z</time>
      </trkpt>
      <trkpt lat="46.78529" lon="4.721">
        <ele>334.578759</ele>
        <time>2011-02-12T07:56:00Z</time>
      </trkpt>
      <trkpt lat="46.78539" lon="4.72104">
        <ele>334.645005</ele>
        <time>2011-02-12T07:56:03Z</time>
      </trkpt>
      <trkpt lat="46.78548" lon="4.72112">
        <ele>334.709314</ele>
        <time>2011-02-12T07:56:07Z</time>
      </trkpt>
      <trkpt lat="46.78558" lon="4.72114">
        <ele>334.7786</ele>
        <time>2011-02-12T07:56:11Z</time>
      </trkpt>
      <trkpt lat="46.78568" lon="4.72117">
        <ele>334.838181</ele>
        <time>2011-02-12T07:56:15Z</time>
      </trkpt>
      <trkpt lat="46.78579" lon="4.7212">
        <ele>334.925023</ele>
        <time>2011-02-12T07:56:19Z</time>
      </trkpt>
      <trkpt lat="46.7859" lon="4.72125">
        <ele>335.084189</ele>
        <time>2011-02-12T07:56:23Z</time>
      </trkpt>
      <trkpt lat="46.78603" lon="4.72125">
        <ele>335.287192</ele>
        <time>2011-02-12T07:56:26Z</time>
      </trkpt>
      <trkpt lat="46.78615" lon="4.72127">
        <ele>335.521543</ele>
        <time>2011-02-12T07:56:29Z</time>
      </trkpt>
      <trkpt lat="46.78625" lon="4.72131">
        <ele>335.872847</ele>
        <time>2011-02-12T07:56:32Z</time>
      </trkpt>
      <trkpt lat="46.78635" lon="4.72136">
        <ele>336.401416</ele>
        <time>2011-02-12T07:56:35Z</time>
      </trkpt>
      <trkpt lat="46.78645" lon="4.72143">
        <ele>337.105038</ele>
        <time>2011-02-12T07:56:39Z</time>
      </trkpt>
      <trkpt lat="46.78654" lon="4.72148">
        <ele>337.956995</ele>
        <time>2011-02-12T07:56:43Z</time>
      </trkpt>
      <trkpt lat="46.78664" lon="4.72154">
        <ele>338.877828</ele>
        <time>2011-02-12T07:56:47Z</time>
      </trkpt>
      <trkpt lat="46.78674" lon="4.72157">
        <ele>339.774719</ele>
        <time>2011-02-12T07:56:50Z</time>
      </trkpt>
      <trkpt lat="46.78684" lon="4.72162">
        <ele>340.611697</ele>
        <time>2011-02-12T07:56:53Z</time>
      </trkpt>
      <trkpt lat="46.78693" lon="4.72168">
        <ele>341.355845</ele>
        <time>2011-02-12T07:56:56Z</time>
      </trkpt>
      <trkpt lat="46.78703" lon="4.72177">
        <ele>341.943069</ele>
        <time>2011-02-12T07:57:00Z</time>
      </trkpt>
      <trkpt lat="46.78712" lon="4.72185">
        <ele>342.338241</ele>
        <time>2011-02-12T07:57:04Z</time>
      </trkpt>
      <trkpt lat="46.78723" lon="4.72194">
        <ele>342.578631</ele>
        <time>2011-02-12T07:57:08Z</time>
      </trkpt>
      <trkpt lat="46.7873" lon="4.72204">
        <ele>342.762232</ele>
        <time>2011-02-12T07:57:11Z</time>
      </trkpt>
      <trkpt lat="46.78739" lon="4.72213">
        <ele>342.964488</ele>
        <time>2011-02-12T07:57:14Z</time>
      </trkpt>
      <trkpt lat="46.78749" lon="4.72215">
        <ele>343.161112</ele>
        <time>2011-02-12T07:57:17Z</time>
      </trkpt>
      <trkpt lat="46.78756" lon="4.72202">
        <ele>343.280125</ele>
        <time>2011-02-12T07:57:24Z</time>
      </trkpt>
      <trkpt lat="46.78761" lon="4.72187">
        <ele>343.313595</ele>
        <time>2011-02-12T07:57:27Z</time>
      </trkpt>
      <trkpt lat="46.78765" lon="4.7217">
        <ele>343.304854</ele>
        <time>2011-02-12T07:57:30Z</time>
      </trkpt>
      <trkpt lat="46.78769" lon="4.72153">
        <ele>343.288745</ele>
        <time>2011-02-12T07:57:33Z</time>
      </trkpt>
      <trkpt lat="46.78775" lon="4.72135">
        <ele>343.279122</ele>
        <time>2011-02-12T07:57:36Z</time>
      </trkpt>
      <trkpt lat="46.78781" lon="4.72116">
        <ele>343.303278</ele>
        <time>2011-02-12T07:57:39Z</time>
      </trkpt>
      <trkpt lat="46.78789" lon="4.72099">
        <ele>343.436408</ele>
        <time>2011-02-12T07:57:42Z</time>
      </trkpt>
      <trkpt lat="46.78794" lon="4.72087">
        <ele>343.758731</ele>
        <time>2011-02-12T07:57:44Z</time>
      </trkpt>
      <trkpt lat="46.788" lon="4.72072">
        <ele>344.276401</ele>
        <time>2011-02-12T07:57:47Z</time>
      </trkpt>
      <trkpt lat="46.78805" lon="4.72058">
        <ele>344.899159</ele>
        <time>2011-02-12T07:57:50Z</time>
      </trkpt>
      <trkpt lat="46.78806" lon="4.72045">
        <ele>345.483361</ele>
        <time>2011-02-12T07:57:53Z</time>
      </trkpt>
      <trkpt lat="46.78807" lon="4.72031">
        <ele>345.954587</ele>
        <time>2011-02-12T07:57:56Z</time>
      </trkpt>
      <trkpt lat="46.78808" lon="4.72017">
        <ele>346.351367</ele>
        <time>2011-02-12T07:57:59Z</time>
      </trkpt>
      <trkpt lat="46.78812" lon="4.72003">
        <ele>346.715911</ele>
        <time>2011-02-12T07:58:02Z</time>
      </trkpt>
      <trkpt lat="46.78815" lon="4.71988">
        <ele>347.033672</ele>
        <time>2011-02-12T07:58:05Z</time>
      </trkpt>
      <trkpt lat="46.78815" lon="4.71973">
        <ele>347.281475</ele>
        <time>2011-02-12T07:58:08Z</time>
      </trkpt>
      <trkpt lat="46.78817" lon="4.71958">
        <ele>347.461281</ele>
        <time>2011-02-12T07:58:11Z</time>
      </trkpt>
      <trkpt lat="46.78818" lon="4.71942">
        <ele>347.606298</ele>
        <time>2011-02-12T07:58:14Z</time>
      </trkpt>
      <trkpt lat="46.78818" lon="4.71926">
        <ele>347.752084</ele>
        <time>2011-02-12T07:58:17Z</time>
      </trkpt>
      <trkpt lat="46.78819" lon="4.7191">
        <ele>347.907046</ele>
        <time>2011-02-12T07:58:20Z</time>
      </trkpt>
      <trkpt lat="46.7882" lon="4.71894">
        <ele>348.053802</ele>
        <time>2011-02-12T07:58:23Z</time>
      </trkpt>
      <trkpt lat="46.7882" lon="4.71878">
        <ele>348.162351</ele>
        <time>2011-02-12T07:58:26Z</time>
      </trkpt>
      <trkpt lat="46.7882" lon="4.71862">
        <ele>348.21443</ele>
        <time>2011-02-12T07:58:29Z</time>
      </trkpt>
      <trkpt lat="46.78817" lon="4.71845">
        <ele>348.222663</ele>
        <time>2011-02-12T07:58:32Z</time>
      </trkpt>
      <trkpt lat="46.78816" lon="4.71826">
        <ele>348.205877</ele>
        <time>2011-02-12T07:58:35Z</time>
      </trkpt>
      <trkpt lat="46.78818" lon="4.71813">
        <ele>348.156472</ele>
        <time>2011-02-12T07:58:39Z</time>
      </trkpt>
      <trkpt lat="46.78821" lon="4.718">
        <ele>348.026419</ele>
        <time>2011-02-12T07:58:44Z</time>
      </trkpt>
      <trkpt lat="46.78821" lon="4.71784">
        <ele>347.764241</ele>
        <time>2011-02-12T07:58:48Z</time>
      </trkpt>
      <trkpt lat="46.7882" lon="4.71771">
        <ele>347.439956</ele>
        <time>2011-02-12T07:58:51Z</time>
      </trkpt>
      <trkpt lat="46.78823" lon="4.71754">
        <ele>347.211154</ele>
        <time>2011-02-12T07:58:55Z</time>
      </trkpt>
      <trkpt lat="46.78823" lon="4.71739">
        <ele>347.131498</ele>
        <time>2011-02-12T07:59:00Z</time>
      </trkpt>
      <trkpt lat="46.78823" lon="4.71724">
        <ele>347.182484</ele>
        <time>2011-02-12T07:59:05Z</time>
      </trkpt>
      <trkpt lat="46.78822" lon="4.71709">
        <ele>347.42037</ele>
        <time>2011-02-12T07:59:10Z</time>
      </trkpt>
      <trkpt lat="46.78819" lon="4.71695">
        <ele>347.906171</ele>
        <time>2011-02-12T07:59:15Z</time>
      </trkpt>
      <trkpt lat="46.78821" lon="4.71679">
        <ele>348.588728</ele>
        <time>2011-02-12T07:59:19Z</time>
      </trkpt>
      <trkpt lat="46.78819" lon="4.71665">
        <ele>349.328984</ele>
        <time>2011-02-12T07:59:25Z</time>
      </trkpt>
      <trkpt lat="46.78817" lon="4.71652">
        <ele>349.954443</ele>
        <time>2011-02-12T07:59:29Z</time>
      </trkpt>
      <trkpt lat="46.78814" lon="4.71639">
        <ele>350.339247</ele>
        <time>2011-02-12T07:59:32Z</time>
      </trkpt>
      <trkpt lat="46.78812" lon="4.71625">
        <ele>350.49112</ele>
        <time>2011-02-12T07:59:37Z</time>
      </trkpt>
      <trkpt lat="46.78811" lon="4.71611">
        <ele>350.541116</ele>
        <time>2011-02-12T07:59:41Z</time>
      </trkpt>
      <trkpt lat="46.78814" lon="4.71598">
        <ele>350.687519</ele>
        <time>2011-02-12T07:59:45Z</time>
      </trkpt>
      <trkpt lat="46.78813" lon="4.71583">
        <ele>351.119922</ele>
        <time>2011-02-12T07:59:49Z</time>
      </trkpt>
      <trkpt lat="46.78813" lon="4.71569">
        <ele>351.817247</ele>
        <time>2011-02-12T07:59:53Z</time>
      </trkpt>
      <trkpt lat="46.78815" lon="4.71555">
        <ele>352.527161</ele>
        <time>2011-02-12T07:59:59Z</time>
      </trkpt>
      <trkpt lat="46.78814" lon="4.7154">
        <ele>353.053254</ele>
        <time>2011-02-12T08:00:05Z</time>
      </trkpt>
      <trkpt lat="46.78814" lon="4.71527">
        <ele>353.368397</ele>
        <time>2011-02-12T08:00:11Z</time>
      </trkpt>
      <trkpt lat="46.78815" lon="4.71512">
        <ele>353.499122</ele>
        <time>2011-02-12T08:00:17Z</time>
      </trkpt>
      <trkpt lat="46.78815" lon="4.71498">
        <ele>353.507632</ele>
        <time>2011-02-12T08:00:23Z</time>
      </trkpt>
      <trkpt lat="46.7881" lon="4.71481">
        <ele>353.476785</ele>
        <time>2011-02-12T08:00:29Z</time>
      </trkpt>
      <trkpt lat="46.78805" lon="4.71468">
        <ele>353.451164</ele>
        <time>2011-02-12T08:00:33Z</time>
      </trkpt>
      <trkpt lat="46.78801" lon="4.71456">
        <ele>353.440687</ele>
        <time>2011-02-12T08:00:43Z</time>
      </trkpt>
      <trkpt lat="46.788" lon="4.71442">
        <ele>353.445607</ele>
        <time>2011-02-12T08:00:53Z</time>
      </trkpt>
      <trkpt lat="46.78802" lon="4.71424">
        <ele>353.598186</ele>
        <time>2011-02-12T08:01:04Z</time>
      </trkpt>
      <trkpt lat="46.78798" lon="4.71412">
        <ele>354.250104</ele>
        <time>2011-02-12T08:01:09Z</time>
      </trkpt>
      <trkpt lat="46.78793" lon="4.71398">
        <ele>355.654285</ele>
        <time>2011-02-12T08:01:14Z</time>
      </trkpt>
      <trkpt lat="46.78788" lon="4.71386">
        <ele>357.556594</ele>
        <time>2011-02-12T08:01:19Z</time>
      </trkpt>
      <trkpt lat="46.78784" lon="4.71373">
        <ele>359.353684</ele>
        <time>2011-02-12T08:01:29Z</time>
      </trkpt>
      <trkpt lat="46.78782" lon="4.71359">
        <ele>360.68108</ele>
        <time>2011-02-12T08:01:41Z</time>
      </trkpt>
      <trkpt lat="46.78781" lon="4.71345">
        <ele>361.656109</ele>
        <time>2011-02-12T08:01:49Z</time>
      </trkpt>
      <trkpt lat="46.7878" lon="4.71331">
        <ele>362.693859</ele>
        <time>2011-02-12T08:01:55Z</time>
      </trkpt>
      <trkpt lat="46.78778" lon="4.71316">
        <ele>364.209586</ele>
        <time>2011-02-12T08:02:01Z</time>
      </trkpt>
      <trkpt lat="46.78777" lon="4.71302">
        <ele>366.162948</ele>
        <time>2011-02-12T08:02:07Z</time>
      </trkpt>
      <trkpt lat="46.78773" lon="4.71289">
        <ele>367.903763</ele>
        <time>2011-02-12T08:02:13Z</time>
      </trkpt>
      <trkpt lat="46.78769" lon="4.71276">
        <ele>368.857994</ele>
        <time>2011-02-12T08:02:20Z</time>
      </trkpt>
      <trkpt lat="46.78765" lon="4.71263">
        <ele>369.084678</ele>
        <time>2011-02-12T08:02:26Z</time>
      </trkpt>
      <trkpt lat="46.78762" lon="4.7125">
        <ele>368.983255</ele>
        <time>2011-02-12T08:02:31Z</time>
      </trkpt>
      <trkpt lat="46.78759" lon="4.71236">
        <ele>368.842401</ele>
        <time>2011-02-12T08:02:34Z</time>
      </trkpt>
      <trkpt lat="46.78755" lon="4.71222">
        <ele>368.76538</ele>
        <time>2011-02-12T08:02:37Z</time>
      </trkpt>
      <trkpt lat="46.78751" lon="4.7121">
        <ele>368.747597</ele>
        <time>2011-02-12T08:02:41Z</time>
      </trkpt>
      <trkpt lat="46.7875" lon="4.71194">
        <ele>368.8099</ele>
        <time>2011-02-12T08:02:46Z</time>
      </trkpt>
      <trkpt lat="46.78744" lon="4.71181">
        <ele>369.071435</ele>
        <time>2011-02-12T08:02:50Z</time>
      </trkpt>
      <trkpt lat="46.7874" lon="4.71167">
        <ele>369.669897</ele>
        <time>2011-02-12T08:03:01Z</time>
      </trkpt>
      <trkpt lat="46.78744" lon="4.71155">
        <ele>370.663813</ele>
        <time>2011-02-12T08:03:13Z</time>
      </trkpt>
      <trkpt lat="46.78747" lon="4.71142">
        <ele>371.996527</ele>
        <time>2011-02-12T08:03:24Z</time>
      </trkpt>
      <trkpt lat="46.78747" lon="4.71142">
        <ele>373.308948</ele>
        <time>2011-02-12T08:03:33Z</time>
      </trkpt>
      <trkpt lat="46.78744" lon="4.71102">
        <ele>374.560734</ele>
        <time>2011-02-12T08:04:00Z</time>
      </trkpt>
      <trkpt lat="46.78742" lon="4.71089">
        <ele>376.312896</ele>
        <time>2011-02-12T08:04:06Z</time>
      </trkpt>
      <trkpt lat="46.78741" lon="4.71076">
        <ele>378.878908</ele>
        <time>2011-02-12T08:04:13Z</time>
      </trkpt>
      <trkpt lat="46.78736" lon="4.71064">
        <ele>382.300247</ele>
        <time>2011-02-12T08:04:22Z</time>
      </trkpt>
      <trkpt lat="46.78734" lon="4.71049">
        <ele>386.054622</ele>
        <time>2011-02-12T08:04:29Z</time>
      </trkpt>
      <trkpt lat="46.78733" lon="4.71036">
        <ele>388.806012</ele>
        <time>2011-02-12T08:04:36Z</time>
      </trkpt>
      <trkpt lat="46.78731" lon="4.71021">
        <ele>390.025604</ele>
        <time>2011-02-12T08:04:43Z</time>
      </trkpt>
      <trkpt lat="46.78728" lon="4.71007">
        <ele>390.418135</ele>
        <time>2011-02-12T08:04:49Z</time>
      </trkpt>
      <trkpt lat="46.78728" lon="4.70993">
        <ele>390.610022</ele>
        <time>2011-02-12T08:04:56Z</time>
      </trkpt>
      <trkpt lat="46.78728" lon="4.70979">
        <ele>390.778793</ele>
        <time>2011-02-12T08:05:03Z</time>
      </trkpt>
      <trkpt lat="46.7873" lon="4.70964">
        <ele>390.890103</ele>
        <time>2011-02-12T08:05:10Z</time>
      </trkpt>
      <trkpt lat="46.78734" lon="4.70951">
        <ele>390.925718</ele>
        <time>2011-02-12T08:05:16Z</time>
      </trkpt>
      <trkpt lat="46.78741" lon="4.70941">
        <ele>390.909572</ele>
        <time>2011-02-12T08:05:21Z</time>
      </trkpt>
      <trkpt lat="46.78746" lon="4.70928">
        <ele>390.861982</ele>
        <time>2011-02-12T08:05:26Z</time>
      </trkpt>
      <trkpt lat="46.78749" lon="4.70914">
        <ele>390.779478</ele>
        <time>2011-02-12T08:05:31Z</time>
      </trkpt>
      <trkpt lat="46.78752" lon="4.709">
        <ele>390.647165</ele>
        <time>2011-02-12T08:05:36Z</time>
      </trkpt>
      <trkpt lat="46.78756" lon="4.70887">
        <ele>390.501394</ele>
        <time>2011-02-12T08:05:40Z</time>
      </trkpt>
      <trkpt lat="46.78759" lon="4.70874">
        <ele>390.408929</ele>
        <time>2011-02-12T08:05:45Z</time>
      </trkpt>
      <trkpt lat="46.78759" lon="4.7086">
        <ele>390.380932</ele>
        <time>2011-02-12T08:05:51Z</time>
      </trkpt>
      <trkpt lat="46.78757" lon="4.70846">
        <ele>390.408254</ele>
        <time>2011-02-12T08:05:57Z</time>
      </trkpt>
      <trkpt lat="46.78755" lon="4.70832">
        <ele>390.508365</ele>
        <time>2011-02-12T08:06:02Z</time>
      </trkpt>
      <trkpt lat="46.78752" lon="4.70817">
        <ele>390.672671</ele>
        <time>2011-02-12T08:06:08Z</time>
      </trkpt>
      <trkpt lat="46.78751" lon="4.70802">
        <ele>390.871064</ele>
        <time>2011-02-12T08:06:14Z</time>
      </trkpt>
      <trkpt lat="46.78751" lon="4.70787">
        <ele>391.094344</ele>
        <time>2011-02-12T08:06:19Z</time>
      </trkpt>
      <trkpt lat="46.78751" lon="4.70772">
        <ele>391.337944</ele>
        <time>2011-02-12T08:06:24Z</time>
      </trkpt>
      <trkpt lat="46.78752" lon="4.70753">
        <ele>391.591231</ele>
        <time>2011-02-12T08:06:34Z</time>
      </trkpt>
      <trkpt lat="46.78754" lon="4.7074">
        <ele>391.829344</ele>
        <time>2011-02-12T08:06:47Z</time>
      </trkpt>
      <trkpt lat="46.78754" lon="4.7074">
        <ele>391.999805</ele>
        <time>2011-02-12T08:06:55Z</time>
      </trkpt>
      <trkpt lat="46.78754" lon="4.7074">
        <ele>392.075917</ele>
        <time>2011-02-12T08:07:17Z</time>
      </trkpt>
      <trkpt lat="46.78778" lon="4.70719">
        <ele>392.099422</ele>
        <time>2011-02-12T08:08:47Z</time>
      </trkpt>
      <trkpt lat="46.78786" lon="4.70709">
        <ele>392.201175</ele>
        <time>2011-02-12T08:08:51Z</time>
      </trkpt>
      <trkpt lat="46.78793" lon="4.70701">
        <ele>392.484006</ele>
        <time>2011-02-12T08:08:54Z</time>
      </trkpt>
      <trkpt lat="46.78801" lon="4.70692">
        <ele>394.899421</ele>
        <time>2011-02-12T08:08:58Z</time>
      </trkpt>
      <trkpt lat="46.78811" lon="4.70683">
        <ele>400.583443</ele>
        <time>2011-02-12T08:09:01Z</time>
      </trkpt>
      <trkpt lat="46.7882" lon="4.70675">
        <ele>406.44438</ele>
        <time>2011-02-12T08:09:04Z</time>
      </trkpt>
      <trkpt lat="46.78832" lon="4.70666">
        <ele>409.490071</ele>
        <time>2011-02-12T08:09:07Z</time>
      </trkpt>
      <trkpt lat="46.78845" lon="4.70657">
        <ele>410.328825</ele>
        <time>2011-02-12T08:09:10Z</time>
      </trkpt>
      <trkpt lat="46.78861" lon="4.70648">
        <ele>410.270418</ele>
        <time>2011-02-12T08:09:13Z</time>
      </trkpt>
      <trkpt lat="46.78879" lon="4.70637">
        <ele>410.359985</ele>
        <time>2011-02-12T08:09:16Z</time>
      </trkpt>
      <trkpt lat="46.78891" lon="4.70631">
        <ele>411.094272</ele>
        <time>2011-02-12T08:09:18Z</time>
      </trkpt>
      <trkpt lat="46.78909" lon="4.70622">
        <ele>412.118381</ele>
        <time>2011-02-12T08:09:21Z</time>
      </trkpt>
      <trkpt lat="46.78921" lon="4.70618">
        <ele>412.805881</ele>
        <time>2011-02-12T08:09:23Z</time>
      </trkpt>
      <trkpt lat="46.78941" lon="4.70615">
        <ele>413.031066</ele>
        <time>2011-02-12T08:09:26Z</time>
      </trkpt>
      <trkpt lat="46.78962" lon="4.70616">
        <ele>412.989034</ele>
        <time>2011-02-12T08:09:29Z</time>
      </trkpt>
      <trkpt lat="46.78976" lon="4.70619">
        <ele>412.791531</ele>
        <time>2011-02-12T08:09:31Z</time>
      </trkpt>
      <trkpt lat="46.78997" lon="4.70626">
        <ele>412.443604</ele>
        <time>2011-02-12T08:09:34Z</time>
      </trkpt>
      <trkpt lat="46.79018" lon="4.70633">
        <ele>412.052854</ele>
        <time>2011-02-12T08:09:37Z</time>
      </trkpt>
      <trkpt lat="46.7904" lon="4.70642">
        <ele>411.793013</ele>
        <time>2011-02-12T08:09:40Z</time>
      </trkpt>
      <trkpt lat="46.79063" lon="4.7065">
        <ele>411.700808</ele>
        <time>2011-02-12T08:09:43Z</time>
      </trkpt>
      <trkpt lat="46.79078" lon="4.70654">
        <ele>411.705508</ele>
        <time>2011-02-12T08:09:45Z</time>
      </trkpt>
      <trkpt lat="46.79091" lon="4.70655">
        <ele>411.743459</ele>
        <time>2011-02-12T08:09:47Z</time>
      </trkpt>
      <trkpt lat="46.79104" lon="4.70655">
        <ele>411.789226</ele>
        <time>2011-02-12T08:09:49Z</time>
      </trkpt>
      <trkpt lat="46.79124" lon="4.70661">
        <ele>411.83888</ele>
        <time>2011-02-12T08:09:52Z</time>
      </trkpt>
      <trkpt lat="46.79141" lon="4.70674">
        <ele>411.877165</ele>
        <time>2011-02-12T08:09:55Z</time>
      </trkpt>
      <trkpt lat="46.7916" lon="4.70691">
        <ele>411.891807</ele>
        <time>2011-02-12T08:09:58Z</time>
      </trkpt>
      <trkpt lat="46.79181" lon="4.70706">
        <ele>411.886427</ele>
        <time>2011-02-12T08:10:01Z</time>
      </trkpt>
      <trkpt lat="46.79195" lon="4.70713">
        <ele>411.840488</ele>
        <time>2011-02-12T08:10:03Z</time>
      </trkpt>
      <trkpt lat="46.79217" lon="4.70723">
        <ele>411.711023</ele>
        <time>2011-02-12T08:10:06Z</time>
      </trkpt>
      <trkpt lat="46.79239" lon="4.70732">
        <ele>411.471957</ele>
        <time>2011-02-12T08:10:09Z</time>
      </trkpt>
      <trkpt lat="46.79254" lon="4.70739">
        <ele>411.125041</ele>
        <time>2011-02-12T08:10:11Z</time>
      </trkpt>
      <trkpt lat="46.79268" lon="4.70747">
        <ele>410.599088</ele>
        <time>2011-02-12T08:10:13Z</time>
      </trkpt>
      <trkpt lat="46.79283" lon="4.70758">
        <ele>409.851128</ele>
        <time>2011-02-12T08:10:15Z</time>
      </trkpt>
      <trkpt lat="46.79299" lon="4.70768">
        <ele>409.043504</ele>
        <time>2011-02-12T08:10:17Z</time>
      </trkpt>
      <trkpt lat="46.79322" lon="4.70782">
        <ele>408.372706</ele>
        <time>2011-02-12T08:10:20Z</time>
      </trkpt>
      <trkpt lat="46.79346" lon="4.70792">
        <ele>407.874039</ele>
        <time>2011-02-12T08:10:23Z</time>
      </trkpt>
      <trkpt lat="46.79371" lon="4.708">
        <ele>407.48388</ele>
        <time>2011-02-12T08:10:26Z</time>
      </trkpt>
      <trkpt lat="46.79387" lon="4.70805">
        <ele>406.997601</ele>
        <time>2011-02-12T08:10:28Z</time>
      </trkpt>
      <trkpt lat="46.79412" lon="4.70815">
        <ele>406.091603</ele>
        <time>2011-02-12T08:10:31Z</time>
      </trkpt>
      <trkpt lat="46.79428" lon="4.70824">
        <ele>404.630859</ele>
        <time>2011-02-12T08:10:33Z</time>
      </trkpt>
      <trkpt lat="46.79453" lon="4.70839">
        <ele>402.960726</ele>
        <time>2011-02-12T08:10:36Z</time>
      </trkpt>
      <trkpt lat="46.7947" lon="4.70846">
        <ele>401.580058</ele>
        <time>2011-02-12T08:10:38Z</time>
      </trkpt>
      <trkpt lat="46.79489" lon="4.70851">
        <ele>400.659643</ele>
        <time>2011-02-12T08:10:40Z</time>
      </trkpt>
      <trkpt lat="46.79517" lon="4.70859">
        <ele>400.080447</ele>
        <time>2011-02-12T08:10:43Z</time>
      </trkpt>
      <trkpt lat="46.79533" lon="4.70865">
        <ele>399.626381</ele>
        <time>2011-02-12T08:10:45Z</time>
      </trkpt>
      <trkpt lat="46.79549" lon="4.70881">
        <ele>399.072874</ele>
        <time>2011-02-12T08:10:48Z</time>
      </trkpt>
      <trkpt lat="46.79559" lon="4.70892">
        <ele>398.235358</ele>
        <time>2011-02-12T08:10:50Z</time>
      </trkpt>
      <trkpt lat="46.79568" lon="4.70899">
        <ele>396.884981</ele>
        <time>2011-02-12T08:10:52Z</time>
      </trkpt>
      <trkpt lat="46.79575" lon="4.70907">
        <ele>394.805252</ele>
        <time>2011-02-12T08:10:55Z</time>
      </trkpt>
      <trkpt lat="46.79582" lon="4.70915">
        <ele>392.190104</ele>
        <time>2011-02-12T08:10:59Z</time>
      </trkpt>
      <trkpt lat="46.79594" lon="4.70908">
        <ele>389.661924</ele>
        <time>2011-02-12T08:11:03Z</time>
      </trkpt>
      <trkpt lat="46.79608" lon="4.70898">
        <ele>387.685705</ele>
        <time>2011-02-12T08:11:06Z</time>
      </trkpt>
      <trkpt lat="46.79618" lon="4.70891">
        <ele>386.323041</ele>
        <time>2011-02-12T08:11:08Z</time>
      </trkpt>
      <trkpt lat="46.79631" lon="4.70885">
        <ele>385.225333</ele>
        <time>2011-02-12T08:11:10Z</time>
      </trkpt>
      <trkpt lat="46.79653" lon="4.70877">
        <ele>383.578984</ele>
        <time>2011-02-12T08:11:13Z</time>
      </trkpt>
      <trkpt lat="46.79676" lon="4.70868">
        <ele>381.104401</ele>
        <time>2011-02-12T08:11:16Z</time>
      </trkpt>
      <trkpt lat="46.797" lon="4.70862">
        <ele>378.57534</ele>
        <time>2011-02-12T08:11:19Z</time>
      </trkpt>
      <trkpt lat="46.79723" lon="4.70865">
        <ele>376.489323</ele>
        <time>2011-02-12T08:11:22Z</time>
      </trkpt>
      <trkpt lat="46.79746" lon="4.70875">
        <ele>374.579112</ele>
        <time>2011-02-12T08:11:25Z</time>
      </trkpt>
      <trkpt lat="46.79771" lon="4.70885">
        <ele>372.749477</ele>
        <time>2011-02-12T08:11:28Z</time>
      </trkpt>
      <trkpt lat="46.79786" lon="4.70893">
        <ele>371.134239</ele>
        <time>2011-02-12T08:11:30Z</time>
      </trkpt>
      <trkpt lat="46.798" lon="4.70898">
        <ele>369.622113</ele>
        <time>2011-02-12T08:11:32Z</time>
      </trkpt>
      <trkpt lat="46.79813" lon="4.70903">
        <ele>368.091134</ele>
        <time>2011-02-12T08:11:34Z</time>
      </trkpt>
      <trkpt lat="46.79832" lon="4.70916">
        <ele>366.718415</ele>
        <time>2011-02-12T08:11:37Z</time>
      </trkpt>
      <trkpt lat="46.79846" lon="4.70928">
        <ele>365.701907</ele>
        <time>2011-02-12T08:11:39Z</time>
      </trkpt>
      <trkpt lat="46.79866" lon="4.70945">
        <ele>364.894989</ele>
        <time>2011-02-12T08:11:42Z</time>
      </trkpt>
      <trkpt lat="46.79887" lon="4.7096">
        <ele>363.997231</ele>
        <time>2011-02-12T08:11:45Z</time>
      </trkpt>
      <trkpt lat="46.79904" lon="4.70965">
        <ele>362.996701</ele>
        <time>2011-02-12T08:11:47Z</time>
      </trkpt>
      <trkpt lat="46.7993" lon="4.70971">
        <ele>362.055331</ele>
        <time>2011-02-12T08:11:50Z</time>
      </trkpt>
      <trkpt lat="46.79956" lon="4.70977">
        <ele>361.181747</ele>
        <time>2011-02-12T08:11:53Z</time>
      </trkpt>
      <trkpt lat="46.79973" lon="4.7098">
        <ele>360.313392</ele>
        <time>2011-02-12T08:11:55Z</time>
      </trkpt>
      <trkpt lat="46.79992" lon="4.7098">
        <ele>359.313832</ele>
        <time>2011-02-12T08:11:57Z</time>
      </trkpt>
      <trkpt lat="46.80015" lon="4.70977">
        <ele>357.948069</ele>
        <time>2011-02-12T08:12:00Z</time>
      </trkpt>
      <trkpt lat="46.80028" lon="4.70975">
        <ele>356.28077</ele>
        <time>2011-02-12T08:12:02Z</time>
      </trkpt>
      <trkpt lat="46.80043" lon="4.70976">
        <ele>354.697898</ele>
        <time>2011-02-12T08:12:04Z</time>
      </trkpt>
      <trkpt lat="46.8006" lon="4.70978">
        <ele>353.397158</ele>
        <time>2011-02-12T08:12:06Z</time>
      </trkpt>
      <trkpt lat="46.80078" lon="4.70981">
        <ele>352.30872</ele>
        <time>2011-02-12T08:12:08Z</time>
      </trkpt>
      <trkpt lat="46.80098" lon="4.70986">
        <ele>351.210167</ele>
        <time>2011-02-12T08:12:10Z</time>
      </trkpt>
      <trkpt lat="46.80119" lon="4.70993">
        <ele>349.751067</ele>
        <time>2011-02-12T08:12:12Z</time>
      </trkpt>
      <trkpt lat="46.80141" lon="4.71003">
        <ele>347.771999</ele>
        <time>2011-02-12T08:12:14Z</time>
      </trkpt>
      <trkpt lat="46.80163" lon="4.71015">
        <ele>345.573528</ele>
        <time>2011-02-12T08:12:16Z</time>
      </trkpt>
      <trkpt lat="46.8019" lon="4.71033">
        <ele>343.665547</ele>
        <time>2011-02-12T08:12:19Z</time>
      </trkpt>
      <trkpt lat="46.80206" lon="4.71042">
        <ele>342.43706</ele>
        <time>2011-02-12T08:12:21Z</time>
      </trkpt>
      <trkpt lat="46.80231" lon="4.71053">
        <ele>341.933302</ele>
        <time>2011-02-12T08:12:24Z</time>
      </trkpt>
      <trkpt lat="46.8026" lon="4.71063">
        <ele>341.862425</ele>
        <time>2011-02-12T08:12:27Z</time>
      </trkpt>
      <trkpt lat="46.80292" lon="4.71074">
        <ele>341.697475</ele>
        <time>2011-02-12T08:12:30Z</time>
      </trkpt>
      <trkpt lat="46.8031" lon="4.71081">
        <ele>340.84069</ele>
        <time>2011-02-12T08:12:32Z</time>
      </trkpt>
      <trkpt lat="46.80328" lon="4.71085">
        <ele>338.987921</ele>
        <time>2011-02-12T08:12:35Z</time>
      </trkpt>
      <trkpt lat="46.80336" lon="4.71079">
        <ele>336.46237</ele>
        <time>2011-02-12T08:12:38Z</time>
      </trkpt>
      <trkpt lat="46.80334" lon="4.71063">
        <ele>333.893788</ele>
        <time>2011-02-12T08:12:41Z</time>
      </trkpt>
      <trkpt lat="46.80325" lon="4.71044">
        <ele>331.276946</ele>
        <time>2011-02-12T08:12:44Z</time>
      </trkpt>
      <trkpt lat="46.80318" lon="4.71032">
        <ele>328.386442</ele>
        <time>2011-02-12T08:12:46Z</time>
      </trkpt>
      <trkpt lat="46.80312" lon="4.71018">
        <ele>325.683211</ele>
        <time>2011-02-12T08:12:49Z</time>
      </trkpt>
      <trkpt lat="46.80313" lon="4.71004">
        <ele>323.320799</ele>
        <time>2011-02-12T08:12:52Z</time>
      </trkpt>
      <trkpt lat="46.80323" lon="4.70996">
        <ele>320.833009</ele>
        <time>2011-02-12T08:12:55Z</time>
      </trkpt>
      <trkpt lat="46.80336" lon="4.70992">
        <ele>318.374004</ele>
        <time>2011-02-12T08:12:57Z</time>
      </trkpt>
      <trkpt lat="46.80361" lon="4.70992">
        <ele>316.525217</ele>
        <time>2011-02-12T08:13:00Z</time>
      </trkpt>
      <trkpt lat="46.80386" lon="4.70998">
        <ele>315.130603</ele>
        <time>2011-02-12T08:13:03Z</time>
      </trkpt>
      <trkpt lat="46.8041" lon="4.71005">
        <ele>313.26367</ele>
        <time>2011-02-12T08:13:06Z</time>
      </trkpt>
      <trkpt lat="46.80429" lon="4.71009">
        <ele>310.264014</ele>
        <time>2011-02-12T08:13:08Z</time>
      </trkpt>
      <trkpt lat="46.8045" lon="4.71013">
        <ele>306.430358</ele>
        <time>2011-02-12T08:13:10Z</time>
      </trkpt>
      <trkpt lat="46.80472" lon="4.71016">
        <ele>302.553595</ele>
        <time>2011-02-12T08:13:13Z</time>
      </trkpt>
      <trkpt lat="46.80482" lon="4.71017">
        <ele>299.206907</ele>
        <time>2011-02-12T08:13:15Z</time>
      </trkpt>
      <trkpt lat="46.80493" lon="4.71016">
        <ele>296.46521</ele>
        <time>2011-02-12T08:13:18Z</time>
      </trkpt>
      <trkpt lat="46.80503" lon="4.71008">
        <ele>294.032645</ele>
        <time>2011-02-12T08:13:21Z</time>
      </trkpt>
      <trkpt lat="46.80509" lon="4.70986">
        <ele>291.325023</ele>
        <time>2011-02-12T08:13:24Z</time>
      </trkpt>
      <trkpt lat="46.80511" lon="4.70971">
        <ele>287.731057</ele>
        <time>2011-02-12T08:13:26Z</time>
      </trkpt>
      <trkpt lat="46.8051" lon="4.70952">
        <ele>283.316775</ele>
        <time>2011-02-12T08:13:28Z</time>
      </trkpt>
      <trkpt lat="46.80506" lon="4.7092">
        <ele>278.771019</ele>
        <time>2011-02-12T08:13:31Z</time>
      </trkpt>
      <trkpt lat="46.80496" lon="4.70892">
        <ele>274.816</ele>
        <time>2011-02-12T08:13:34Z</time>
      </trkpt>
      <trkpt lat="46.80489" lon="4.70873">
        <ele>271.926273</ele>
        <time>2011-02-12T08:13:36Z</time>
      </trkpt>
      <trkpt lat="46.80481" lon="4.70857">
        <ele>269.694659</ele>
        <time>2011-02-12T08:13:38Z</time>
      </trkpt>
      <trkpt lat="46.80476" lon="4.70842">
        <ele>266.988359</ele>
        <time>2011-02-12T08:13:40Z</time>
      </trkpt>
      <trkpt lat="46.8048" lon="4.7083">
        <ele>263.662595</ele>
        <time>2011-02-12T08:13:44Z</time>
      </trkpt>
      <trkpt lat="46.80489" lon="4.70838">
        <ele>260.711008</ele>
        <time>2011-02-12T08:13:49Z</time>
      </trkpt>
      <trkpt lat="46.80499" lon="4.70848">
        <ele>258.747157</ele>
        <time>2011-02-12T08:13:53Z</time>
      </trkpt>
      <trkpt lat="46.80499" lon="4.70848">
        <ele>257.694653</ele>
        <time>2011-02-12T08:13:55Z</time>
      </trkpt>
      <trkpt lat="46.80513" lon="4.70865">
        <ele>257.301992</ele>
        <time>2011-02-12T08:14:00Z</time>
      </trkpt>
      <trkpt lat="46.80522" lon="4.70874">
        <ele>257.187227</ele>
        <time>2011-02-12T08:14:03Z</time>
      </trkpt>
      <trkpt lat="46.80531" lon="4.70884">
        <ele>256.971612</ele>
        <time>2011-02-12T08:14:06Z</time>
      </trkpt>
      <trkpt lat="46.8054" lon="4.70892">
        <ele>256.402188</ele>
        <time>2011-02-12T08:14:09Z</time>
      </trkpt>
      <trkpt lat="46.80551" lon="4.709">
        <ele>255.464895</ele>
        <time>2011-02-12T08:14:12Z</time>
      </trkpt>
      <trkpt lat="46.80563" lon="4.70909">
        <ele>254.439567</ele>
        <time>2011-02-12T08:14:15Z</time>
      </trkpt>
      <trkpt lat="46.8057" lon="4.70917">
        <ele>253.555594</ele>
        <time>2011-02-12T08:14:17Z</time>
      </trkpt>
      <trkpt lat="46.80579" lon="4.70925">
        <ele>252.050212</ele>
        <time>2011-02-12T08:14:19Z</time>
      </trkpt>
      <trkpt lat="46.80592" lon="4.70937">
        <ele>249.006095</ele>
        <time>2011-02-12T08:14:22Z</time>
      </trkpt>
      <trkpt lat="46.80599" lon="4.70947">
        <ele>245.027181</ele>
        <time>2011-02-12T08:14:24Z</time>
      </trkpt>
      <trkpt lat="46.80606" lon="4.70957">
        <ele>241.397977</ele>
        <time>2011-02-12T08:14:26Z</time>
      </trkpt>
      <trkpt lat="46.80614" lon="4.70972">
        <ele>238.380216</ele>
        <time>2011-02-12T08:14:29Z</time>
      </trkpt>
      <trkpt lat="46.80622" lon="4.70985">
        <ele>235.89275</ele>
        <time>2011-02-12T08:14:32Z</time>
      </trkpt>
      <trkpt lat="46.80629" lon="4.70998">
        <ele>234.139004</ele>
        <time>2011-02-12T08:14:35Z</time>
      </trkpt>
      <trkpt lat="46.80637" lon="4.71011">
        <ele>233.141266</ele>
        <time>2011-02-12T08:14:38Z</time>
      </trkpt>
      <trkpt lat="46.80645" lon="4.71024">
        <ele>232.533833</ele>
        <time>2011-02-12T08:14:41Z</time>
      </trkpt>
      <trkpt lat="46.80653" lon="4.71035">
        <ele>231.99387</ele>
        <time>2011-02-12T08:14:44Z</time>
      </trkpt>
      <trkpt lat="46.80661" lon="4.71046">
        <ele>231.393238</ele>
        <time>2011-02-12T08:14:47Z</time>
      </trkpt>
      <trkpt lat="46.80669" lon="4.71058">
        <ele>230.701773</ele>
        <time>2011-02-12T08:14:50Z</time>
      </trkpt>
      <trkpt lat="46.80677" lon="4.71069">
        <ele>229.897531</ele>
        <time>2011-02-12T08:14:53Z</time>
      </trkpt>
      <trkpt lat="46.80688" lon="4.71082">
        <ele>229.105515</ele>
        <time>2011-02-12T08:14:56Z</time>
      </trkpt>
      <trkpt lat="46.80699" lon="4.71094">
        <ele>228.55806</ele>
        <time>2011-02-12T08:14:59Z</time>
      </trkpt>
      <trkpt lat="46.80709" lon="4.71106">
        <ele>228.067076</ele>
        <time>2011-02-12T08:15:02Z</time>
      </trkpt>
      <trkpt lat="46.8072" lon="4.71115">
        <ele>227.098536</ele>
        <time>2011-02-12T08:15:05Z</time>
      </trkpt>
      <trkpt lat="46.8073" lon="4.71125">
        <ele>225.618762</ele>
        <time>2011-02-12T08:15:08Z</time>
      </trkpt>
      <trkpt lat="46.80741" lon="4.71134">
        <ele>224.17353</ele>
        <time>2011-02-12T08:15:11Z</time>
      </trkpt>
      <trkpt lat="46.80751" lon="4.71141">
        <ele>223.166021</ele>
        <time>2011-02-12T08:15:14Z</time>
      </trkpt>
      <trkpt lat="46.80762" lon="4.71148">
        <ele>222.570346</ele>
        <time>2011-02-12T08:15:17Z</time>
      </trkpt>
      <trkpt lat="46.80773" lon="4.71157">
        <ele>222.109277</ele>
        <time>2011-02-12T08:15:20Z</time>
      </trkpt>
      <trkpt lat="46.80782" lon="4.71165">
        <ele>221.459601</ele>
        <time>2011-02-12T08:15:22Z</time>
      </trkpt>
      <trkpt lat="46.80791" lon="4.71173">
        <ele>220.45029</ele>
        <time>2011-02-12T08:15:24Z</time>
      </trkpt>
      <trkpt lat="46.80805" lon="4.71188">
        <ele>219.172206</ele>
        <time>2011-02-12T08:15:27Z</time>
      </trkpt>
      <trkpt lat="46.80819" lon="4.71202">
        <ele>217.897744</ele>
        <time>2011-02-12T08:15:30Z</time>
      </trkpt>
      <trkpt lat="46.80829" lon="4.71211">
        <ele>216.82945</ele>
        <time>2011-02-12T08:15:32Z</time>
      </trkpt>
      <trkpt lat="46.80838" lon="4.71222">
        <ele>215.915758</ele>
        <time>2011-02-12T08:15:34Z</time>
      </trkpt>
      <trkpt lat="46.80851" lon="4.71239">
        <ele>215.127643</ele>
        <time>2011-02-12T08:15:37Z</time>
      </trkpt>
      <trkpt lat="46.80863" lon="4.71252">
        <ele>214.618149</ele>
        <time>2011-02-12T08:15:40Z</time>
      </trkpt>
      <trkpt lat="46.80878" lon="4.71254">
        <ele>214.402569</ele>
        <time>2011-02-12T08:15:43Z</time>
      </trkpt>
      <trkpt lat="46.80888" lon="4.71236">
        <ele>214.324042</ele>
        <time>2011-02-12T08:15:46Z</time>
      </trkpt>
      <trkpt lat="46.80887" lon="4.71218">
        <ele>214.300655</ele>
        <time>2011-02-12T08:15:48Z</time>
      </trkpt>
      <trkpt lat="46.80883" lon="4.71187">
        <ele>214.19868</ele>
        <time>2011-02-12T08:15:51Z</time>
      </trkpt>
      <trkpt lat="46.80882" lon="4.71165">
        <ele>213.928906</ele>
        <time>2011-02-12T08:15:53Z</time>
      </trkpt>
      <trkpt lat="46.80882" lon="4.71144">
        <ele>213.619435</ele>
        <time>2011-02-12T08:15:55Z</time>
      </trkpt>
      <trkpt lat="46.80881" lon="4.71118">
        <ele>213.407211</ele>
        <time>2011-02-12T08:15:58Z</time>
      </trkpt>
      <trkpt lat="46.8088" lon="4.71102">
        <ele>213.279302</ele>
        <time>2011-02-12T08:16:00Z</time>
      </trkpt>
      <trkpt lat="46.80879" lon="4.71078">
        <ele>213.171708</ele>
        <time>2011-02-12T08:16:03Z</time>
      </trkpt>
      <trkpt lat="46.80878" lon="4.71063">
        <ele>212.974718</ele>
        <time>2011-02-12T08:16:05Z</time>
      </trkpt>
      <trkpt lat="46.80877" lon="4.71042">
        <ele>212.635685</ele>
        <time>2011-02-12T08:16:08Z</time>
      </trkpt>
      <trkpt lat="46.80877" lon="4.71024">
        <ele>212.166826</ele>
        <time>2011-02-12T08:16:11Z</time>
      </trkpt>
      <trkpt lat="46.80877" lon="4.71005">
        <ele>211.580288</ele>
        <time>2011-02-12T08:16:14Z</time>
      </trkpt>
      <trkpt lat="46.80877" lon="4.70988">
        <ele>210.890776</ele>
        <time>2011-02-12T08:16:17Z</time>
      </trkpt>
      <trkpt lat="46.80877" lon="4.70973">
        <ele>210.204954</ele>
        <time>2011-02-12T08:16:20Z</time>
      </trkpt>
      <trkpt lat="46.80878" lon="4.70959">
        <ele>209.705178</ele>
        <time>2011-02-12T08:16:23Z</time>
      </trkpt>
      <trkpt lat="46.80879" lon="4.70946">
        <ele>209.487496</ele>
        <time>2011-02-12T08:16:26Z</time>
      </trkpt>
      <trkpt lat="46.80883" lon="4.70933">
        <ele>209.466204</ele>
        <time>2011-02-12T08:16:29Z</time>
      </trkpt>
      <trkpt lat="46.80886" lon="4.7092">
        <ele>209.520704</ele>
        <time>2011-02-12T08:16:32Z</time>
      </trkpt>
      <trkpt lat="46.8089" lon="4.70905">
        <ele>209.597066</ele>
        <time>2011-02-12T08:16:35Z</time>
      </trkpt>
      <trkpt lat="46.80894" lon="4.70891">
        <ele>209.688001</ele>
        <time>2011-02-12T08:16:38Z</time>
      </trkpt>
      <trkpt lat="46.80896" lon="4.70875">
        <ele>209.792316</ele>
        <time>2011-02-12T08:16:42Z</time>
      </trkpt>
      <trkpt lat="46.80899" lon="4.7086">
        <ele>209.907693</ele>
        <time>2011-02-12T08:16:46Z</time>
      </trkpt>
      <trkpt lat="46.80901" lon="4.70847">
        <ele>210.040161</ele>
        <time>2011-02-12T08:16:50Z</time>
      </trkpt>
      <trkpt lat="46.80904" lon="4.70835">
        <ele>210.21733</ele>
        <time>2011-02-12T08:16:54Z</time>
      </trkpt>
      <trkpt lat="46.80908" lon="4.7082">
        <ele>210.4681</ele>
        <time>2011-02-12T08:16:58Z</time>
      </trkpt>
      <trkpt lat="46.80913" lon="4.70807">
        <ele>210.790113</ele>
        <time>2011-02-12T08:17:02Z</time>
      </trkpt>
      <trkpt lat="46.80918" lon="4.70795">
        <ele>211.162483</ele>
        <time>2011-02-12T08:17:06Z</time>
      </trkpt>
      <trkpt lat="46.80923" lon="4.70781">
        <ele>211.570798</ele>
        <time>2011-02-12T08:17:10Z</time>
      </trkpt>
      <trkpt lat="46.80927" lon="4.70765">
        <ele>212.004402</ele>
        <time>2011-02-12T08:17:14Z</time>
      </trkpt>
      <trkpt lat="46.80929" lon="4.70751">
        <ele>212.45648</ele>
        <time>2011-02-12T08:17:17Z</time>
      </trkpt>
      <trkpt lat="46.8093" lon="4.70738">
        <ele>212.922063</ele>
        <time>2011-02-12T08:17:20Z</time>
      </trkpt>
      <trkpt lat="46.8093" lon="4.70724">
        <ele>213.391983</ele>
        <time>2011-02-12T08:17:23Z</time>
      </trkpt>
      <trkpt lat="46.8093" lon="4.7071">
        <ele>213.837423</ele>
        <time>2011-02-12T08:17:26Z</time>
      </trkpt>
      <trkpt lat="46.80928" lon="4.70697">
        <ele>214.223155</ele>
        <time>2011-02-12T08:17:29Z</time>
      </trkpt>
      <trkpt lat="46.80927" lon="4.70681">
        <ele>214.543742</ele>
        <time>2011-02-12T08:17:33Z</time>
      </trkpt>
      <trkpt lat="46.80927" lon="4.70665">
        <ele>214.819953</ele>
        <time>2011-02-12T08:17:37Z</time>
      </trkpt>
      <trkpt lat="46.80926" lon="4.70648">
        <ele>215.067912</ele>
        <time>2011-02-12T08:17:41Z</time>
      </trkpt>
      <trkpt lat="46.80926" lon="4.70633">
        <ele>215.298452</ele>
        <time>2011-02-12T08:17:44Z</time>
      </trkpt>
      <trkpt lat="46.80927" lon="4.70617">
        <ele>215.515284</ele>
        <time>2011-02-12T08:17:47Z</time>
      </trkpt>
      <trkpt lat="46.80929" lon="4.70599">
        <ele>215.70905</ele>
        <time>2011-02-12T08:17:50Z</time>
      </trkpt>
      <trkpt lat="46.80934" lon="4.70582">
        <ele>215.867469</ele>
        <time>2011-02-12T08:17:53Z</time>
      </trkpt>
      <trkpt lat="46.8094" lon="4.70565">
        <ele>215.995546</ele>
        <time>2011-02-12T08:17:56Z</time>
      </trkpt>
      <trkpt lat="46.80946" lon="4.70548">
        <ele>216.243043</ele>
        <time>2011-02-12T08:17:59Z</time>
      </trkpt>
      <trkpt lat="46.80952" lon="4.70531">
        <ele>216.839749</ele>
        <time>2011-02-12T08:18:02Z</time>
      </trkpt>
      <trkpt lat="46.80957" lon="4.70515">
        <ele>217.775141</ele>
        <time>2011-02-12T08:18:05Z</time>
      </trkpt>
      <trkpt lat="46.80964" lon="4.705">
        <ele>218.835683</ele>
        <time>2011-02-12T08:18:08Z</time>
      </trkpt>
      <trkpt lat="46.80975" lon="4.70496">
        <ele>219.899442</ele>
        <time>2011-02-12T08:18:11Z</time>
      </trkpt>
      <trkpt lat="46.80986" lon="4.705">
        <ele>220.867843</ele>
        <time>2011-02-12T08:18:14Z</time>
      </trkpt>
      <trkpt lat="46.80995" lon="4.70513">
        <ele>221.587208</ele>
        <time>2011-02-12T08:18:17Z</time>
      </trkpt>
      <trkpt lat="46.81003" lon="4.70529">
        <ele>221.985202</ele>
        <time>2011-02-12T08:18:20Z</time>
      </trkpt>
      <trkpt lat="46.81009" lon="4.70545">
        <ele>222.128007</ele>
        <time>2011-02-12T08:18:23Z</time>
      </trkpt>
      <trkpt lat="46.81016" lon="4.70559">
        <ele>222.135827</ele>
        <time>2011-02-12T08:18:26Z</time>
      </trkpt>
      <trkpt lat="46.81023" lon="4.70575">
        <ele>222.128256</ele>
        <time>2011-02-12T08:18:29Z</time>
      </trkpt>
      <trkpt lat="46.81029" lon="4.70589">
        <ele>222.161791</ele>
        <time>2011-02-12T08:18:32Z</time>
      </trkpt>
      <trkpt lat="46.81036" lon="4.70603">
        <ele>222.218723</ele>
        <time>2011-02-12T08:18:35Z</time>
      </trkpt>
      <trkpt lat="46.81043" lon="4.70616">
        <ele>222.268437</ele>
        <time>2011-02-12T08:18:38Z</time>
      </trkpt>
      <trkpt lat="46.81051" lon="4.70629">
        <ele>222.313699</ele>
        <time>2011-02-12T08:18:41Z</time>
      </trkpt>
      <trkpt lat="46.81058" lon="4.70642">
        <ele>222.359436</ele>
        <time>2011-02-12T08:18:44Z</time>
      </trkpt>
      <trkpt lat="46.81066" lon="4.70654">
        <ele>222.551859</ele>
        <time>2011-02-12T08:18:47Z</time>
      </trkpt>
      <trkpt lat="46.81074" lon="4.70666">
        <ele>223.060233</ele>
        <time>2011-02-12T08:18:50Z</time>
      </trkpt>
      <trkpt lat="46.81083" lon="4.70678">
        <ele>223.712656</ele>
        <time>2011-02-12T08:18:53Z</time>
      </trkpt>
      <trkpt lat="46.81092" lon="4.70689">
        <ele>224.172568</ele>
        <time>2011-02-12T08:18:56Z</time>
      </trkpt>
      <trkpt lat="46.81101" lon="4.707">
        <ele>224.368216</ele>
        <time>2011-02-12T08:18:59Z</time>
      </trkpt>
      <trkpt lat="46.8111" lon="4.70709">
        <ele>224.469577</ele>
        <time>2011-02-12T08:19:02Z</time>
      </trkpt>
      <trkpt lat="46.81119" lon="4.70719">
        <ele>224.657475</ele>
        <time>2011-02-12T08:19:05Z</time>
      </trkpt>
      <trkpt lat="46.81128" lon="4.7073">
        <ele>224.936184</ele>
        <time>2011-02-12T08:19:08Z</time>
      </trkpt>
      <trkpt lat="46.81137" lon="4.70741">
        <ele>225.178233</ele>
        <time>2011-02-12T08:19:11Z</time>
      </trkpt>
      <trkpt lat="46.81146" lon="4.70751">
        <ele>225.308107</ele>
        <time>2011-02-12T08:19:14Z</time>
      </trkpt>
      <trkpt lat="46.81155" lon="4.70762">
        <ele>225.362354</ele>
        <time>2011-02-12T08:19:17Z</time>
      </trkpt>
      <trkpt lat="46.81164" lon="4.70773">
        <ele>225.409344</ele>
        <time>2011-02-12T08:19:20Z</time>
      </trkpt>
      <trkpt lat="46.81173" lon="4.70785">
        <ele>225.515852</ele>
        <time>2011-02-12T08:19:23Z</time>
      </trkpt>
      <trkpt lat="46.81182" lon="4.70797">
        <ele>225.731732</ele>
        <time>2011-02-12T08:19:26Z</time>
      </trkpt>
      <trkpt lat="46.81191" lon="4.70809">
        <ele>226.023534</ele>
        <time>2011-02-12T08:19:29Z</time>
      </trkpt>
      <trkpt lat="46.81199" lon="4.70821">
        <ele>226.339298</ele>
        <time>2011-02-12T08:19:32Z</time>
      </trkpt>
      <trkpt lat="46.81208" lon="4.70834">
        <ele>226.698638</ele>
        <time>2011-02-12T08:19:35Z</time>
      </trkpt>
      <trkpt lat="46.81216" lon="4.70847">
        <ele>227.094392</ele>
        <time>2011-02-12T08:19:38Z</time>
      </trkpt>
      <trkpt lat="46.81224" lon="4.7086">
        <ele>227.456292</ele>
        <time>2011-02-12T08:19:41Z</time>
      </trkpt>
      <trkpt lat="46.8123" lon="4.70874">
        <ele>227.752201</ele>
        <time>2011-02-12T08:19:44Z</time>
      </trkpt>
      <trkpt lat="46.81234" lon="4.70888">
        <ele>228.006667</ele>
        <time>2011-02-12T08:19:47Z</time>
      </trkpt>
      <trkpt lat="46.81237" lon="4.70902">
        <ele>228.247962</ele>
        <time>2011-02-12T08:19:50Z</time>
      </trkpt>
      <trkpt lat="46.81239" lon="4.70916">
        <ele>228.491592</ele>
        <time>2011-02-12T08:19:53Z</time>
      </trkpt>
      <trkpt lat="46.81241" lon="4.7093">
        <ele>228.716378</ele>
        <time>2011-02-12T08:19:56Z</time>
      </trkpt>
      <trkpt lat="46.81244" lon="4.70945">
        <ele>228.877455</ele>
        <time>2011-02-12T08:19:59Z</time>
      </trkpt>
      <trkpt lat="46.81247" lon="4.70959">
        <ele>228.971638</ele>
        <time>2011-02-12T08:20:02Z</time>
      </trkpt>
      <trkpt lat="46.81251" lon="4.70972">
        <ele>229.024502</ele>
        <time>2011-02-12T08:20:05Z</time>
      </trkpt>
      <trkpt lat="46.81257" lon="4.70986">
        <ele>229.051336</ele>
        <time>2011-02-12T08:20:09Z</time>
      </trkpt>
      <trkpt lat="46.81263" lon="4.70999">
        <ele>229.060942</ele>
        <time>2011-02-12T08:20:13Z</time>
      </trkpt>
      <trkpt lat="46.81271" lon="4.71012">
        <ele>229.063836</ele>
        <time>2011-02-12T08:20:17Z</time>
      </trkpt>
      <trkpt lat="46.81277" lon="4.71021">
        <ele>229.073476</ele>
        <time>2011-02-12T08:20:20Z</time>
      </trkpt>
      <trkpt lat="46.81285" lon="4.71031">
        <ele>229.101167</ele>
        <time>2011-02-12T08:20:23Z</time>
      </trkpt>
      <trkpt lat="46.81292" lon="4.7104">
        <ele>229.147784</ele>
        <time>2011-02-12T08:20:26Z</time>
      </trkpt>
      <trkpt lat="46.81301" lon="4.71047">
        <ele>229.20449</ele>
        <time>2011-02-12T08:20:29Z</time>
      </trkpt>
      <trkpt lat="46.81311" lon="4.71054">
        <ele>229.263638</ele>
        <time>2011-02-12T08:20:32Z</time>
      </trkpt>
      <trkpt lat="46.8132" lon="4.71061">
        <ele>229.321708</ele>
        <time>2011-02-12T08:20:35Z</time>
      </trkpt>
      <trkpt lat="46.81327" lon="4.7107">
        <ele>229.369815</ele>
        <time>2011-02-12T08:20:38Z</time>
      </trkpt>
      <trkpt lat="46.81334" lon="4.71081">
        <ele>229.396836</ele>
        <time>2011-02-12T08:20:41Z</time>
      </trkpt>
      <trkpt lat="46.81341" lon="4.71095">
        <ele>229.404761</ele>
        <time>2011-02-12T08:20:44Z</time>
      </trkpt>
      <trkpt lat="46.81349" lon="4.71109">
        <ele>229.40552</ele>
        <time>2011-02-12T08:20:47Z</time>
      </trkpt>
      <trkpt lat="46.81356" lon="4.71124">
        <ele>229.409219</ele>
        <time>2011-02-12T08:20:50Z</time>
      </trkpt>
      <trkpt lat="46.81361" lon="4.71136">
        <ele>229.552175</ele>
        <time>2011-02-12T08:20:52Z</time>
      </trkpt>
      <trkpt lat="46.81365" lon="4.71152">
        <ele>230.131865</ele>
        <time>2011-02-12T08:20:54Z</time>
      </trkpt>
      <trkpt lat="46.81368" lon="4.71168">
        <ele>231.253061</ele>
        <time>2011-02-12T08:20:56Z</time>
      </trkpt>
      <trkpt lat="46.81372" lon="4.71183">
        <ele>232.567861</ele>
        <time>2011-02-12T08:20:58Z</time>
      </trkpt>
      <trkpt lat="46.81378" lon="4.71205">
        <ele>233.644294</ele>
        <time>2011-02-12T08:21:01Z</time>
      </trkpt>
      <trkpt lat="46.81383" lon="4.71219">
        <ele>234.381028</ele>
        <time>2011-02-12T08:21:03Z</time>
      </trkpt>
      <trkpt lat="46.81392" lon="4.7124">
        <ele>234.910109</ele>
        <time>2011-02-12T08:21:06Z</time>
      </trkpt>
      <trkpt lat="46.814" lon="4.71255">
        <ele>235.36337</ele>
        <time>2011-02-12T08:21:08Z</time>
      </trkpt>
      <trkpt lat="46.81411" lon="4.71275">
        <ele>235.803161</ele>
        <time>2011-02-12T08:21:11Z</time>
      </trkpt>
      <trkpt lat="46.8142" lon="4.7129">
        <ele>236.175017</ele>
        <time>2011-02-12T08:21:14Z</time>
      </trkpt>
      <trkpt lat="46.81431" lon="4.71303">
        <ele>236.385836</ele>
        <time>2011-02-12T08:21:17Z</time>
      </trkpt>
      <trkpt lat="46.81441" lon="4.71317">
        <ele>236.442475</ele>
        <time>2011-02-12T08:21:20Z</time>
      </trkpt>
      <trkpt lat="46.81452" lon="4.71332">
        <ele>236.424999</ele>
        <time>2011-02-12T08:21:23Z</time>
      </trkpt>
      <trkpt lat="46.81459" lon="4.71343">
        <ele>236.348752</ele>
        <time>2011-02-12T08:21:25Z</time>
      </trkpt>
      <trkpt lat="46.81471" lon="4.71361">
        <ele>236.167339</ele>
        <time>2011-02-12T08:21:28Z</time>
      </trkpt>
      <trkpt lat="46.81483" lon="4.7138">
        <ele>235.87817</ele>
        <time>2011-02-12T08:21:31Z</time>
      </trkpt>
      <trkpt lat="46.81496" lon="4.71391">
        <ele>235.554662</ele>
        <time>2011-02-12T08:21:34Z</time>
      </trkpt>
      <trkpt lat="46.81508" lon="4.71399">
        <ele>235.287418</ele>
        <time>2011-02-12T08:21:37Z</time>
      </trkpt>
      <trkpt lat="46.81517" lon="4.71401">
        <ele>235.127844</ele>
        <time>2011-02-12T08:21:40Z</time>
      </trkpt>
      <trkpt lat="46.81527" lon="4.71404">
        <ele>235.055894</ele>
        <time>2011-02-12T08:21:43Z</time>
      </trkpt>
      <trkpt lat="46.81536" lon="4.71416">
        <ele>234.995908</ele>
        <time>2011-02-12T08:21:46Z</time>
      </trkpt>
      <trkpt lat="46.81545" lon="4.71429">
        <ele>234.896066</ele>
        <time>2011-02-12T08:21:49Z</time>
      </trkpt>
      <trkpt lat="46.81553" lon="4.71444">
        <ele>234.678539</ele>
        <time>2011-02-12T08:21:52Z</time>
      </trkpt>
      <trkpt lat="46.81564" lon="4.7146">
        <ele>234.161261</ele>
        <time>2011-02-12T08:21:55Z</time>
      </trkpt>
      <trkpt lat="46.81576" lon="4.71463">
        <ele>233.416131</ele>
        <time>2011-02-12T08:21:58Z</time>
      </trkpt>
      <trkpt lat="46.81588" lon="4.7147">
        <ele>232.838416</ele>
        <time>2011-02-12T08:22:01Z</time>
      </trkpt>
      <trkpt lat="46.81599" lon="4.71473">
        <ele>232.616298</ele>
        <time>2011-02-12T08:22:04Z</time>
      </trkpt>
      <trkpt lat="46.81608" lon="4.71466">
        <ele>232.623925</ele>
        <time>2011-02-12T08:22:07Z</time>
      </trkpt>
      <trkpt lat="46.81616" lon="4.71457">
        <ele>232.711564</ele>
        <time>2011-02-12T08:22:10Z</time>
      </trkpt>
      <trkpt lat="46.81624" lon="4.71447">
        <ele>232.78534</ele>
        <time>2011-02-12T08:22:13Z</time>
      </trkpt>
      <trkpt lat="46.81631" lon="4.71437">
        <ele>232.815848</ele>
        <time>2011-02-12T08:22:16Z</time>
      </trkpt>
      <trkpt lat="46.8164" lon="4.71427">
        <ele>232.793306</ele>
        <time>2011-02-12T08:22:19Z</time>
      </trkpt>
      <trkpt lat="46.81649" lon="4.71425">
        <ele>232.696002</ele>
        <time>2011-02-12T08:22:22Z</time>
      </trkpt>
      <trkpt lat="46.81656" lon="4.71436">
        <ele>232.525832</ele>
        <time>2011-02-12T08:22:26Z</time>
      </trkpt>
      <trkpt lat="46.81663" lon="4.71451">
        <ele>232.317117</ele>
        <time>2011-02-12T08:22:30Z</time>
      </trkpt>
      <trkpt lat="46.8167" lon="4.71463">
        <ele>232.106097</ele>
        <time>2011-02-12T08:22:33Z</time>
      </trkpt>
      <trkpt lat="46.81679" lon="4.71476">
        <ele>231.936633</ele>
        <time>2011-02-12T08:22:36Z</time>
      </trkpt>
      <trkpt lat="46.81689" lon="4.71491">
        <ele>231.84558</ele>
        <time>2011-02-12T08:22:39Z</time>
      </trkpt>
      <trkpt lat="46.81701" lon="4.71506">
        <ele>231.825396</ele>
        <time>2011-02-12T08:22:42Z</time>
      </trkpt>
      <trkpt lat="46.81709" lon="4.71515">
        <ele>231.85356</ele>
        <time>2011-02-12T08:22:44Z</time>
      </trkpt>
      <trkpt lat="46.81721" lon="4.71531">
        <ele>231.981642</ele>
        <time>2011-02-12T08:22:47Z</time>
      </trkpt>
      <trkpt lat="46.81736" lon="4.71548">
        <ele>232.326492</ele>
        <time>2011-02-12T08:22:50Z</time>
      </trkpt>
      <trkpt lat="46.81745" lon="4.71562">
        <ele>232.893679</ele>
        <time>2011-02-12T08:22:52Z</time>
      </trkpt>
      <trkpt lat="46.81758" lon="4.71587">
        <ele>233.535861</ele>
        <time>2011-02-12T08:22:55Z</time>
      </trkpt>
      <trkpt lat="46.81766" lon="4.71605">
        <ele>234.25731</ele>
        <time>2011-02-12T08:22:57Z</time>
      </trkpt>
      <trkpt lat="46.81777" lon="4.71628">
        <ele>235.084638</ele>
        <time>2011-02-12T08:23:00Z</time>
      </trkpt>
      <trkpt lat="46.81787" lon="4.71651">
        <ele>235.760626</ele>
        <time>2011-02-12T08:23:03Z</time>
      </trkpt>
      <trkpt lat="46.81796" lon="4.71672">
        <ele>236.069233</ele>
        <time>2011-02-12T08:23:06Z</time>
      </trkpt>
      <trkpt lat="46.81807" lon="4.71693">
        <ele>236.108691</ele>
        <time>2011-02-12T08:23:09Z</time>
      </trkpt>
      <trkpt lat="46.81813" lon="4.71707">
        <ele>235.967391</ele>
        <time>2011-02-12T08:23:11Z</time>
      </trkpt>
      <trkpt lat="46.81823" lon="4.71726">
        <ele>235.696051</ele>
        <time>2011-02-12T08:23:14Z</time>
      </trkpt>
      <trkpt lat="46.8183" lon="4.71741">
        <ele>235.44923</ele>
        <time>2011-02-12T08:23:16Z</time>
      </trkpt>
      <trkpt lat="46.8184" lon="4.71764">
        <ele>235.34094</ele>
        <time>2011-02-12T08:23:19Z</time>
      </trkpt>
      <trkpt lat="46.81847" lon="4.71779">
        <ele>235.408879</ele>
        <time>2011-02-12T08:23:21Z</time>
      </trkpt>
      <trkpt lat="46.81857" lon="4.71801">
        <ele>235.637259</ele>
        <time>2011-02-12T08:23:24Z</time>
      </trkpt>
      <trkpt lat="46.81864" lon="4.71816">
        <ele>235.868681</ele>
        <time>2011-02-12T08:23:26Z</time>
      </trkpt>
      <trkpt lat="46.81875" lon="4.71838">
        <ele>235.977632</ele>
        <time>2011-02-12T08:23:29Z</time>
      </trkpt>
      <trkpt lat="46.81882" lon="4.71853">
        <ele>235.973377</ele>
        <time>2011-02-12T08:23:31Z</time>
      </trkpt>
      <trkpt lat="46.81893" lon="4.71875">
        <ele>235.884356</ele>
        <time>2011-02-12T08:23:34Z</time>
      </trkpt>
      <trkpt lat="46.81893" lon="4.71875">
        <ele>235.757359</ele>
        <time>2011-02-12T08:23:37Z</time>
      </trkpt>
      <trkpt lat="46.8191" lon="4.71899">
        <ele>235.651791</ele>
        <time>2011-02-12T08:23:45Z</time>
      </trkpt>
      <trkpt lat="46.81919" lon="4.7191">
        <ele>235.594836</ele>
        <time>2011-02-12T08:23:48Z</time>
      </trkpt>
      <trkpt lat="46.8193" lon="4.71923">
        <ele>235.574211</ele>
        <time>2011-02-12T08:23:51Z</time>
      </trkpt>
      <trkpt lat="46.81938" lon="4.71931">
        <ele>235.508685</ele>
        <time>2011-02-12T08:23:53Z</time>
      </trkpt>
      <trkpt lat="46.81949" lon="4.71941">
        <ele>235.287907</ele>
        <time>2011-02-12T08:23:56Z</time>
      </trkpt>
      <trkpt lat="46.81959" lon="4.71951">
        <ele>234.858441</ele>
        <time>2011-02-12T08:23:59Z</time>
      </trkpt>
      <trkpt lat="46.81967" lon="4.71958">
        <ele>234.278291</ele>
        <time>2011-02-12T08:24:01Z</time>
      </trkpt>
      <trkpt lat="46.81976" lon="4.71965">
        <ele>233.63946</ele>
        <time>2011-02-12T08:24:03Z</time>
      </trkpt>
      <trkpt lat="46.81988" lon="4.71976">
        <ele>232.988348</ele>
        <time>2011-02-12T08:24:06Z</time>
      </trkpt>
      <trkpt lat="46.81996" lon="4.71985">
        <ele>232.368158</ele>
        <time>2011-02-12T08:24:09Z</time>
      </trkpt>
      <trkpt lat="46.8199" lon="4.72002">
        <ele>231.83129</ele>
        <time>2011-02-12T08:24:14Z</time>
      </trkpt>
      <trkpt lat="46.81985" lon="4.72014">
        <ele>231.315727</ele>
        <time>2011-02-12T08:24:16Z</time>
      </trkpt>
      <trkpt lat="46.81979" lon="4.72028">
        <ele>230.778743</ele>
        <time>2011-02-12T08:24:18Z</time>
      </trkpt>
      <trkpt lat="46.81969" lon="4.72049">
        <ele>230.256295</ele>
        <time>2011-02-12T08:24:21Z</time>
      </trkpt>
      <trkpt lat="46.81961" lon="4.72063">
        <ele>229.68487</ele>
        <time>2011-02-12T08:24:23Z</time>
      </trkpt>
      <trkpt lat="46.81949" lon="4.72088">
        <ele>228.982375</ele>
        <time>2011-02-12T08:24:26Z</time>
      </trkpt>
      <trkpt lat="46.8194" lon="4.72104">
        <ele>228.228326</ele>
        <time>2011-02-12T08:24:28Z</time>
      </trkpt>
      <trkpt lat="46.81927" lon="4.72128">
        <ele>227.58598</ele>
        <time>2011-02-12T08:24:31Z</time>
      </trkpt>
      <trkpt lat="46.81921" lon="4.72141">
        <ele>227.162796</ele>
        <time>2011-02-12T08:24:33Z</time>
      </trkpt>
      <trkpt lat="46.81911" lon="4.72148">
        <ele>226.90335</ele>
        <time>2011-02-12T08:24:36Z</time>
      </trkpt>
      <trkpt lat="46.81902" lon="4.72139">
        <ele>226.622462</ele>
        <time>2011-02-12T08:24:39Z</time>
      </trkpt>
      <trkpt lat="46.81892" lon="4.72133">
        <ele>226.207118</ele>
        <time>2011-02-12T08:24:43Z</time>
      </trkpt>
      <trkpt lat="46.81886" lon="4.72142">
        <ele>225.721482</ele>
        <time>2011-02-12T08:24:46Z</time>
      </trkpt>
      <trkpt lat="46.8188" lon="4.72155">
        <ele>225.305984</ele>
        <time>2011-02-12T08:24:50Z</time>
      </trkpt>
      <trkpt lat="46.81881" lon="4.72171">
        <ele>225.038766</ele>
        <time>2011-02-12T08:24:55Z</time>
      </trkpt>
      <trkpt lat="46.81883" lon="4.72187">
        <ele>224.903127</ele>
        <time>2011-02-12T08:24:59Z</time>
      </trkpt>
      <trkpt lat="46.81889" lon="4.72198">
        <ele>224.806489</ele>
        <time>2011-02-12T08:25:03Z</time>
      </trkpt>
      <trkpt lat="46.81896" lon="4.7221">
        <ele>224.652286</ele>
        <time>2011-02-12T08:25:07Z</time>
      </trkpt>
      <trkpt lat="46.81903" lon="4.7222">
        <ele>224.423173</ele>
        <time>2011-02-12T08:25:11Z</time>
      </trkpt>
      <trkpt lat="46.81907" lon="4.72234">
        <ele>224.166972</ele>
        <time>2011-02-12T08:25:17Z</time>
      </trkpt>
      <trkpt lat="46.81903" lon="4.72247">
        <ele>223.920592</ele>
        <time>2011-02-12T08:25:21Z</time>
      </trkpt>
      <trkpt lat="46.81895" lon="4.72258">
        <ele>223.674802</ele>
        <time>2011-02-12T08:25:25Z</time>
      </trkpt>
      <trkpt lat="46.81888" lon="4.72267">
        <ele>223.386245</ele>
        <time>2011-02-12T08:25:30Z</time>
      </trkpt>
      <trkpt lat="46.81888" lon="4.72267">
        <ele>223.080271</ele>
        <time>2011-02-12T08:25:35Z</time>
      </trkpt>
      <trkpt lat="46.81907" lon="4.72306">
        <ele>222.824766</ele>
        <time>2011-02-12T08:25:48Z</time>
      </trkpt>
      <trkpt lat="46.81914" lon="4.72318">
        <ele>222.599386</ele>
        <time>2011-02-12T08:25:53Z</time>
      </trkpt>
      <trkpt lat="46.81921" lon="4.72327">
        <ele>222.348253</ele>
        <time>2011-02-12T08:25:58Z</time>
      </trkpt>
      <trkpt lat="46.81927" lon="4.72337">
        <ele>222.017916</ele>
        <time>2011-02-12T08:26:03Z</time>
      </trkpt>
      <trkpt lat="46.81934" lon="4.72347">
        <ele>221.604664</ele>
        <time>2011-02-12T08:26:08Z</time>
      </trkpt>
      <trkpt lat="46.81942" lon="4.72359">
        <ele>221.242804</ele>
        <time>2011-02-12T08:26:15Z</time>
      </trkpt>
      <trkpt lat="46.81944" lon="4.72374">
        <ele>221.047146</ele>
        <time>2011-02-12T08:26:21Z</time>
      </trkpt>
      <trkpt lat="46.81934" lon="4.72383">
        <ele>220.992084</ele>
        <time>2011-02-12T08:26:25Z</time>
      </trkpt>
      <trkpt lat="46.81923" lon="4.7239">
        <ele>221.006427</ele>
        <time>2011-02-12T08:26:28Z</time>
      </trkpt>
      <trkpt lat="46.8191" lon="4.72398">
        <ele>221.052315</ele>
        <time>2011-02-12T08:26:31Z</time>
      </trkpt>
      <trkpt lat="46.81897" lon="4.72408">
        <ele>221.148548</ele>
        <time>2011-02-12T08:26:34Z</time>
      </trkpt>
      <trkpt lat="46.81887" lon="4.72423">
        <ele>221.45712</ele>
        <time>2011-02-12T08:26:37Z</time>
      </trkpt>
      <trkpt lat="46.81879" lon="4.72438">
        <ele>222.143531</ele>
        <time>2011-02-12T08:26:40Z</time>
      </trkpt>
      <trkpt lat="46.8187" lon="4.72454">
        <ele>223.000977</ele>
        <time>2011-02-12T08:26:43Z</time>
      </trkpt>
      <trkpt lat="46.8186" lon="4.72471">
        <ele>223.611228</ele>
        <time>2011-02-12T08:26:46Z</time>
      </trkpt>
      <trkpt lat="46.81851" lon="4.72484">
        <ele>223.851771</ele>
        <time>2011-02-12T08:26:49Z</time>
      </trkpt>
      <trkpt lat="46.81842" lon="4.72498">
        <ele>223.871595</ele>
        <time>2011-02-12T08:26:52Z</time>
      </trkpt>
      <trkpt lat="46.81832" lon="4.72511">
        <ele>223.817966</ele>
        <time>2011-02-12T08:26:55Z</time>
      </trkpt>
      <trkpt lat="46.81824" lon="4.72524">
        <ele>223.759172</ele>
        <time>2011-02-12T08:26:58Z</time>
      </trkpt>
      <trkpt lat="46.81816" lon="4.72537">
        <ele>223.718049</ele>
        <time>2011-02-12T08:27:01Z</time>
      </trkpt>
      <trkpt lat="46.81809" lon="4.7255">
        <ele>223.672929</ele>
        <time>2011-02-12T08:27:04Z</time>
      </trkpt>
      <trkpt lat="46.81803" lon="4.72565">
        <ele>223.575875</ele>
        <time>2011-02-12T08:27:07Z</time>
      </trkpt>
      <trkpt lat="46.81801" lon="4.72579">
        <ele>223.3984</ele>
        <time>2011-02-12T08:27:10Z</time>
      </trkpt>
      <trkpt lat="46.81792" lon="4.72588">
        <ele>223.163153</ele>
        <time>2011-02-12T08:27:14Z</time>
      </trkpt>
      <trkpt lat="46.81781" lon="4.72595">
        <ele>222.913394</ele>
        <time>2011-02-12T08:27:17Z</time>
      </trkpt>
      <trkpt lat="46.8177" lon="4.72605">
        <ele>222.69612</ele>
        <time>2011-02-12T08:27:20Z</time>
      </trkpt>
      <trkpt lat="46.81762" lon="4.72613">
        <ele>222.547534</ele>
        <time>2011-02-12T08:27:22Z</time>
      </trkpt>
      <trkpt lat="46.8175" lon="4.72622">
        <ele>222.366662</ele>
        <time>2011-02-12T08:27:25Z</time>
      </trkpt>
      <trkpt lat="46.81741" lon="4.7263">
        <ele>221.99033</ele>
        <time>2011-02-12T08:27:28Z</time>
      </trkpt>
      <trkpt lat="46.81738" lon="4.72645">
        <ele>221.459957</ele>
        <time>2011-02-12T08:27:31Z</time>
      </trkpt>
      <trkpt lat="46.81738" lon="4.72662">
        <ele>220.894268</ele>
        <time>2011-02-12T08:27:34Z</time>
      </trkpt>
      <trkpt lat="46.81738" lon="4.72678">
        <ele>220.34884</ele>
        <time>2011-02-12T08:27:37Z</time>
      </trkpt>
      <trkpt lat="46.81738" lon="4.72696">
        <ele>219.932535</ele>
        <time>2011-02-12T08:27:40Z</time>
      </trkpt>
      <trkpt lat="46.81738" lon="4.72714">
        <ele>219.728193</ele>
        <time>2011-02-12T08:27:43Z</time>
      </trkpt>
      <trkpt lat="46.81738" lon="4.72735">
        <ele>219.664016</ele>
        <time>2011-02-12T08:27:46Z</time>
      </trkpt>
      <trkpt lat="46.81737" lon="4.72748">
        <ele>219.592136</ele>
        <time>2011-02-12T08:27:48Z</time>
      </trkpt>
      <trkpt lat="46.81737" lon="4.72769">
        <ele>219.377973</ele>
        <time>2011-02-12T08:27:51Z</time>
      </trkpt>
      <trkpt lat="46.81736" lon="4.72791">
        <ele>219.000478</ele>
        <time>2011-02-12T08:27:54Z</time>
      </trkpt>
      <trkpt lat="46.81734" lon="4.72814">
        <ele>218.552704</ele>
        <time>2011-02-12T08:27:57Z</time>
      </trkpt>
      <trkpt lat="46.81733" lon="4.7283">
        <ele>218.116593</ele>
        <time>2011-02-12T08:27:59Z</time>
      </trkpt>
      <trkpt lat="46.8173" lon="4.72856">
        <ele>217.760176</ele>
        <time>2011-02-12T08:28:02Z</time>
      </trkpt>
      <trkpt lat="46.81729" lon="4.72875">
        <ele>217.542047</ele>
        <time>2011-02-12T08:28:04Z</time>
      </trkpt>
      <trkpt lat="46.81726" lon="4.72905">
        <ele>217.437751</ele>
        <time>2011-02-12T08:28:07Z</time>
      </trkpt>
      <trkpt lat="46.81724" lon="4.72925">
        <ele>217.371256</ele>
        <time>2011-02-12T08:28:09Z</time>
      </trkpt>
      <trkpt lat="46.81719" lon="4.72954">
        <ele>217.292733</ele>
        <time>2011-02-12T08:28:12Z</time>
      </trkpt>
      <trkpt lat="46.81715" lon="4.72984">
        <ele>217.190828</ele>
        <time>2011-02-12T08:28:15Z</time>
      </trkpt>
      <trkpt lat="46.8171" lon="4.73004">
        <ele>217.088786</ele>
        <time>2011-02-12T08:28:17Z</time>
      </trkpt>
      <trkpt lat="46.81706" lon="4.73026">
        <ele>217.005752</ele>
        <time>2011-02-12T08:28:19Z</time>
      </trkpt>
      <trkpt lat="46.81698" lon="4.73057">
        <ele>216.916352</ele>
        <time>2011-02-12T08:28:22Z</time>
      </trkpt>
      <trkpt lat="46.81694" lon="4.73078">
        <ele>216.776114</ele>
        <time>2011-02-12T08:28:24Z</time>
      </trkpt>
      <trkpt lat="46.81686" lon="4.73108">
        <ele>216.558423</ele>
        <time>2011-02-12T08:28:27Z</time>
      </trkpt>
      <trkpt lat="46.81677" lon="4.73135">
        <ele>216.200545</ele>
        <time>2011-02-12T08:28:30Z</time>
      </trkpt>
      <trkpt lat="46.8167" lon="4.73151">
        <ele>215.684535</ele>
        <time>2011-02-12T08:28:32Z</time>
      </trkpt>
      <trkpt lat="46.81659" lon="4.73172">
        <ele>215.074806</ele>
        <time>2011-02-12T08:28:35Z</time>
      </trkpt>
      <trkpt lat="46.81652" lon="4.73183">
        <ele>214.399238</ele>
        <time>2011-02-12T08:28:37Z</time>
      </trkpt>
      <trkpt lat="46.81646" lon="4.73195">
        <ele>213.703911</ele>
        <time>2011-02-12T08:28:39Z</time>
      </trkpt>
      <trkpt lat="46.8164" lon="4.73213">
        <ele>213.080932</ele>
        <time>2011-02-12T08:28:42Z</time>
      </trkpt>
      <trkpt lat="46.81634" lon="4.73226">
        <ele>212.568424</ele>
        <time>2011-02-12T08:28:44Z</time>
      </trkpt>
      <trkpt lat="46.81626" lon="4.73246">
        <ele>212.162472</ele>
        <time>2011-02-12T08:28:47Z</time>
      </trkpt>
      <trkpt lat="46.81615" lon="4.73266">
        <ele>211.803653</ele>
        <time>2011-02-12T08:28:50Z</time>
      </trkpt>
      <trkpt lat="46.81606" lon="4.73276">
        <ele>211.426873</ele>
        <time>2011-02-12T08:28:52Z</time>
      </trkpt>
      <trkpt lat="46.81592" lon="4.73289">
        <ele>210.990539</ele>
        <time>2011-02-12T08:28:55Z</time>
      </trkpt>
      <trkpt lat="46.81583" lon="4.73298">
        <ele>210.487465</ele>
        <time>2011-02-12T08:28:57Z</time>
      </trkpt>
      <trkpt lat="46.81568" lon="4.73311">
        <ele>210.00792</ele>
        <time>2011-02-12T08:29:00Z</time>
      </trkpt>
      <trkpt lat="46.81557" lon="4.73317">
        <ele>209.625259</ele>
        <time>2011-02-12T08:29:02Z</time>
      </trkpt>
      <trkpt lat="46.81546" lon="4.73323">
        <ele>209.321078</ele>
        <time>2011-02-12T08:29:04Z</time>
      </trkpt>
      <trkpt lat="46.81535" lon="4.73328">
        <ele>209.056715</ele>
        <time>2011-02-12T08:29:06Z</time>
      </trkpt>
      <trkpt lat="46.81525" lon="4.73334">
        <ele>208.785629</ele>
        <time>2011-02-12T08:29:08Z</time>
      </trkpt>
      <trkpt lat="46.81509" lon="4.73344">
        <ele>208.495789</ele>
        <time>2011-02-12T08:29:11Z</time>
      </trkpt>
      <trkpt lat="46.81494" lon="4.73356">
        <ele>208.200873</ele>
        <time>2011-02-12T08:29:14Z</time>
      </trkpt>
      <trkpt lat="46.81483" lon="4.73371">
        <ele>207.878334</ele>
        <time>2011-02-12T08:29:17Z</time>
      </trkpt>
      <trkpt lat="46.81477" lon="4.73384">
        <ele>207.42951</ele>
        <time>2011-02-12T08:29:19Z</time>
      </trkpt>
      <trkpt lat="46.81471" lon="4.73403">
        <ele>206.679308</ele>
        <time>2011-02-12T08:29:22Z</time>
      </trkpt>
      <trkpt lat="46.81465" lon="4.73422">
        <ele>205.63921</ele>
        <time>2011-02-12T08:29:25Z</time>
      </trkpt>
      <trkpt lat="46.81461" lon="4.73445">
        <ele>204.62221</ele>
        <time>2011-02-12T08:29:28Z</time>
      </trkpt>
      <trkpt lat="46.81459" lon="4.73468">
        <ele>203.826761</ele>
        <time>2011-02-12T08:29:31Z</time>
      </trkpt>
      <trkpt lat="46.81459" lon="4.73485">
        <ele>203.065469</ele>
        <time>2011-02-12T08:29:33Z</time>
      </trkpt>
      <trkpt lat="46.81459" lon="4.735">
        <ele>202.079989</ele>
        <time>2011-02-12T08:29:35Z</time>
      </trkpt>
      <trkpt lat="46.8146" lon="4.73521">
        <ele>200.807969</ele>
        <time>2011-02-12T08:29:38Z</time>
      </trkpt>
      <trkpt lat="46.81461" lon="4.73538">
        <ele>199.42268</ele>
        <time>2011-02-12T08:29:41Z</time>
      </trkpt>
      <trkpt lat="46.81461" lon="4.73553">
        <ele>198.212088</ele>
        <time>2011-02-12T08:29:44Z</time>
      </trkpt>
      <trkpt lat="46.81461" lon="4.73553">
        <ele>197.399057</ele>
        <time>2011-02-12T08:29:48Z</time>
      </trkpt>
      <trkpt lat="46.81467" lon="4.73583">
        <ele>196.990435</ele>
        <time>2011-02-12T08:30:01Z</time>
      </trkpt>
      <trkpt lat="46.81475" lon="4.73593">
        <ele>196.83314</ele>
        <time>2011-02-12T08:30:04Z</time>
      </trkpt>
      <trkpt lat="46.81483" lon="4.73603">
        <ele>196.787198</ele>
        <time>2011-02-12T08:30:07Z</time>
      </trkpt>
      <trkpt lat="46.81484" lon="4.73619">
        <ele>196.804135</ele>
        <time>2011-02-12T08:30:10Z</time>
      </trkpt>
      <trkpt lat="46.81481" lon="4.73635">
        <ele>196.862827</ele>
        <time>2011-02-12T08:30:13Z</time>
      </trkpt>
      <trkpt lat="46.81478" lon="4.73651">
        <ele>196.975681</ele>
        <time>2011-02-12T08:30:16Z</time>
      </trkpt>
      <trkpt lat="46.81474" lon="4.73668">
        <ele>197.117826</ele>
        <time>2011-02-12T08:30:19Z</time>
      </trkpt>
      <trkpt lat="46.81471" lon="4.73686">
        <ele>197.252383</ele>
        <time>2011-02-12T08:30:22Z</time>
      </trkpt>
      <trkpt lat="46.81469" lon="4.73705">
        <ele>197.397656</ele>
        <time>2011-02-12T08:30:25Z</time>
      </trkpt>
      <trkpt lat="46.81468" lon="4.73724">
        <ele>197.763668</ele>
        <time>2011-02-12T08:30:28Z</time>
      </trkpt>
      <trkpt lat="46.81468" lon="4.73742">
        <ele>198.523218</ele>
        <time>2011-02-12T08:30:31Z</time>
      </trkpt>
      <trkpt lat="46.81468" lon="4.7376">
        <ele>199.461479</ele>
        <time>2011-02-12T08:30:34Z</time>
      </trkpt>
      <trkpt lat="46.81467" lon="4.73776">
        <ele>200.179318</ele>
        <time>2011-02-12T08:30:37Z</time>
      </trkpt>
      <trkpt lat="46.81464" lon="4.73792">
        <ele>200.526992</ele>
        <time>2011-02-12T08:30:40Z</time>
      </trkpt>
      <trkpt lat="46.81459" lon="4.73807">
        <ele>200.640237</ele>
        <time>2011-02-12T08:30:43Z</time>
      </trkpt>
      <trkpt lat="46.81453" lon="4.7382">
        <ele>200.785457</ele>
        <time>2011-02-12T08:30:46Z</time>
      </trkpt>
      <trkpt lat="46.81446" lon="4.73834">
        <ele>201.097792</ele>
        <time>2011-02-12T08:30:49Z</time>
      </trkpt>
      <trkpt lat="46.81439" lon="4.73849">
        <ele>201.487813</ele>
        <time>2011-02-12T08:30:52Z</time>
      </trkpt>
      <trkpt lat="46.8143" lon="4.73863">
        <ele>201.785064</ele>
        <time>2011-02-12T08:30:55Z</time>
      </trkpt>
      <trkpt lat="46.81423" lon="4.73873">
        <ele>201.949629</ele>
        <time>2011-02-12T08:30:57Z</time>
      </trkpt>
      <trkpt lat="46.81411" lon="4.73884">
        <ele>202.044404</ele>
        <time>2011-02-12T08:31:00Z</time>
      </trkpt>
      <trkpt lat="46.81401" lon="4.73898">
        <ele>202.096042</ele>
        <time>2011-02-12T08:31:03Z</time>
      </trkpt>
      <trkpt lat="46.81391" lon="4.73912">
        <ele>202.111351</ele>
        <time>2011-02-12T08:31:06Z</time>
      </trkpt>
      <trkpt lat="46.81381" lon="4.73925">
        <ele>202.124454</ele>
        <time>2011-02-12T08:31:09Z</time>
      </trkpt>
      <trkpt lat="46.81369" lon="4.73935">
        <ele>202.151677</ele>
        <time>2011-02-12T08:31:12Z</time>
      </trkpt>
      <trkpt lat="46.81359" lon="4.73945">
        <ele>202.168415</ele>
        <time>2011-02-12T08:31:15Z</time>
      </trkpt>
      <trkpt lat="46.8135" lon="4.73956">
        <ele>202.1449</ele>
        <time>2011-02-12T08:31:18Z</time>
      </trkpt>
      <trkpt lat="46.8134" lon="4.7397">
        <ele>202.080056</ele>
        <time>2011-02-12T08:31:21Z</time>
      </trkpt>
      <trkpt lat="46.81335" lon="4.73984">
        <ele>201.983771</ele>
        <time>2011-02-12T08:31:24Z</time>
      </trkpt>
      <trkpt lat="46.81337" lon="4.73999">
        <ele>201.854092</ele>
        <time>2011-02-12T08:31:27Z</time>
      </trkpt>
      <trkpt lat="46.81342" lon="4.74011">
        <ele>201.626036</ele>
        <time>2011-02-12T08:31:30Z</time>
      </trkpt>
      <trkpt lat="46.81349" lon="4.74022">
        <ele>201.27707</ele>
        <time>2011-02-12T08:31:33Z</time>
      </trkpt>
      <trkpt lat="46.81356" lon="4.74032">
        <ele>200.948277</ele>
        <time>2011-02-12T08:31:36Z</time>
      </trkpt>
      <trkpt lat="46.81363" lon="4.74042">
        <ele>200.777195</ele>
        <time>2011-02-12T08:31:39Z</time>
      </trkpt>
      <trkpt lat="46.81371" lon="4.74054">
        <ele>200.742227</ele>
        <time>2011-02-12T08:31:43Z</time>
      </trkpt>
      <trkpt lat="46.81378" lon="4.74065">
        <ele>200.764678</ele>
        <time>2011-02-12T08:31:47Z</time>
      </trkpt>
      <trkpt lat="46.81383" lon="4.74076">
        <ele>200.791524</ele>
        <time>2011-02-12T08:31:51Z</time>
      </trkpt>
      <trkpt lat="46.81387" lon="4.7409">
        <ele>200.805314</ele>
        <time>2011-02-12T08:31:56Z</time>
      </trkpt>
      <trkpt lat="46.8139" lon="4.74105">
        <ele>200.808283</ele>
        <time>2011-02-12T08:32:00Z</time>
      </trkpt>
      <trkpt lat="46.8139" lon="4.74121">
        <ele>200.807048</ele>
        <time>2011-02-12T08:32:04Z</time>
      </trkpt>
      <trkpt lat="46.81388" lon="4.74135">
        <ele>200.805522</ele>
        <time>2011-02-12T08:32:08Z</time>
      </trkpt>
      <trkpt lat="46.81386" lon="4.74151">
        <ele>200.819515</ele>
        <time>2011-02-12T08:32:12Z</time>
      </trkpt>
      <trkpt lat="46.81383" lon="4.74166">
        <ele>200.880914</ele>
        <time>2011-02-12T08:32:16Z</time>
      </trkpt>
      <trkpt lat="46.81379" lon="4.74182">
        <ele>201.007061</ele>
        <time>2011-02-12T08:32:20Z</time>
      </trkpt>
      <trkpt lat="46.81373" lon="4.74197">
        <ele>201.186179</ele>
        <time>2011-02-12T08:32:24Z</time>
      </trkpt>
      <trkpt lat="46.81369" lon="4.74209">
        <ele>201.402504</ele>
        <time>2011-02-12T08:32:27Z</time>
      </trkpt>
      <trkpt lat="46.81363" lon="4.74222">
        <ele>201.649182</ele>
        <time>2011-02-12T08:32:30Z</time>
      </trkpt>
      <trkpt lat="46.81355" lon="4.74235">
        <ele>201.911011</ele>
        <time>2011-02-12T08:32:34Z</time>
      </trkpt>
      <trkpt lat="46.81348" lon="4.74247">
        <ele>202.140924</ele>
        <time>2011-02-12T08:32:37Z</time>
      </trkpt>
      <trkpt lat="46.81339" lon="4.7426">
        <ele>202.289794</ele>
        <time>2011-02-12T08:32:40Z</time>
      </trkpt>
      <trkpt lat="46.8133" lon="4.74272">
        <ele>202.367877</ele>
        <time>2011-02-12T08:32:43Z</time>
      </trkpt>
      <trkpt lat="46.81321" lon="4.74284">
        <ele>202.42967</ele>
        <time>2011-02-12T08:32:46Z</time>
      </trkpt>
      <trkpt lat="46.81313" lon="4.74295">
        <ele>202.509491</ele>
        <time>2011-02-12T08:32:49Z</time>
      </trkpt>
      <trkpt lat="46.81304" lon="4.74308">
        <ele>202.66702</ele>
        <time>2011-02-12T08:32:52Z</time>
      </trkpt>
      <trkpt lat="46.81293" lon="4.74321">
        <ele>202.949749</ele>
        <time>2011-02-12T08:32:55Z</time>
      </trkpt>
      <trkpt lat="46.81282" lon="4.74331">
        <ele>203.258846</ele>
        <time>2011-02-12T08:32:58Z</time>
      </trkpt>
      <trkpt lat="46.81272" lon="4.74338">
        <ele>203.44791</ele>
        <time>2011-02-12T08:33:01Z</time>
      </trkpt>
      <trkpt lat="46.81262" lon="4.74344">
        <ele>203.50201</ele>
        <time>2011-02-12T08:33:04Z</time>
      </trkpt>
      <trkpt lat="46.81252" lon="4.74349">
        <ele>203.470974</ele>
        <time>2011-02-12T08:33:07Z</time>
      </trkpt>
      <trkpt lat="46.81241" lon="4.74354">
        <ele>203.396171</ele>
        <time>2011-02-12T08:33:10Z</time>
      </trkpt>
      <trkpt lat="46.81229" lon="4.74359">
        <ele>203.325391</ele>
        <time>2011-02-12T08:33:13Z</time>
      </trkpt>
      <trkpt lat="46.81218" lon="4.74365">
        <ele>203.290499</ele>
        <time>2011-02-12T08:33:16Z</time>
      </trkpt>
      <trkpt lat="46.81208" lon="4.74371">
        <ele>203.284429</ele>
        <time>2011-02-12T08:33:19Z</time>
      </trkpt>
      <trkpt lat="46.81197" lon="4.74378">
        <ele>203.289805</ele>
        <time>2011-02-12T08:33:22Z</time>
      </trkpt>
      <trkpt lat="46.81189" lon="4.74385">
        <ele>203.295577</ele>
        <time>2011-02-12T08:33:25Z</time>
      </trkpt>
      <trkpt lat="46.8118" lon="4.74392">
        <ele>203.298386</ele>
        <time>2011-02-12T08:33:28Z</time>
      </trkpt>
      <trkpt lat="46.81171" lon="4.74398">
        <ele>203.284382</ele>
        <time>2011-02-12T08:33:31Z</time>
      </trkpt>
      <trkpt lat="46.81166" lon="4.74411">
        <ele>203.235431</ele>
        <time>2011-02-12T08:33:34Z</time>
      </trkpt>
      <trkpt lat="46.81162" lon="4.74424">
        <ele>203.165946</ele>
        <time>2011-02-12T08:33:37Z</time>
      </trkpt>
      <trkpt lat="46.81158" lon="4.74438">
        <ele>203.112812</ele>
        <time>2011-02-12T08:33:40Z</time>
      </trkpt>
      <trkpt lat="46.81154" lon="4.74452">
        <ele>203.090483</ele>
        <time>2011-02-12T08:33:43Z</time>
      </trkpt>
      <trkpt lat="46.81151" lon="4.74467">
        <ele>203.088831</ele>
        <time>2011-02-12T08:33:46Z</time>
      </trkpt>
      <trkpt lat="46.81148" lon="4.74482">
        <ele>203.112548</ele>
        <time>2011-02-12T08:33:49Z</time>
      </trkpt>
      <trkpt lat="46.81146" lon="4.74498">
        <ele>203.197234</ele>
        <time>2011-02-12T08:33:52Z</time>
      </trkpt>
      <trkpt lat="46.81145" lon="4.74513">
        <ele>203.365325</ele>
        <time>2011-02-12T08:33:55Z</time>
      </trkpt>
      <trkpt lat="46.81143" lon="4.74529">
        <ele>203.585941</ele>
        <time>2011-02-12T08:33:58Z</time>
      </trkpt>
      <trkpt lat="46.81141" lon="4.74544">
        <ele>203.801548</ele>
        <time>2011-02-12T08:34:01Z</time>
      </trkpt>
      <trkpt lat="46.81139" lon="4.74564">
        <ele>203.975733</ele>
        <time>2011-02-12T08:34:04Z</time>
      </trkpt>
      <trkpt lat="46.81137" lon="4.74592">
        <ele>204.092969</ele>
        <time>2011-02-12T08:34:07Z</time>
      </trkpt>
      <trkpt lat="46.8114" lon="4.74612">
        <ele>204.147096</ele>
        <time>2011-02-12T08:34:09Z</time>
      </trkpt>
      <trkpt lat="46.81147" lon="4.74646">
        <ele>204.154395</ele>
        <time>2011-02-12T08:34:12Z</time>
      </trkpt>
      <trkpt lat="46.81153" lon="4.74673">
        <ele>204.09312</ele>
        <time>2011-02-12T08:34:14Z</time>
      </trkpt>
      <trkpt lat="46.81162" lon="4.74713">
        <ele>203.949853</ele>
        <time>2011-02-12T08:34:17Z</time>
      </trkpt>
      <trkpt lat="46.81168" lon="4.74738">
        <ele>203.808238</ele>
        <time>2011-02-12T08:34:19Z</time>
      </trkpt>
      <trkpt lat="46.81177" lon="4.74772">
        <ele>203.742569</ele>
        <time>2011-02-12T08:34:22Z</time>
      </trkpt>
      <trkpt lat="46.81181" lon="4.74793">
        <ele>203.842049</ele>
        <time>2011-02-12T08:34:24Z</time>
      </trkpt>
      <trkpt lat="46.81184" lon="4.74826">
        <ele>204.213093</ele>
        <time>2011-02-12T08:34:27Z</time>
      </trkpt>
      <trkpt lat="46.81183" lon="4.74862">
        <ele>204.722646</ele>
        <time>2011-02-12T08:34:30Z</time>
      </trkpt>
      <trkpt lat="46.81178" lon="4.74886">
        <ele>205.098985</ele>
        <time>2011-02-12T08:34:32Z</time>
      </trkpt>
      <trkpt lat="46.81166" lon="4.74921">
        <ele>205.257239</ele>
        <time>2011-02-12T08:34:35Z</time>
      </trkpt>
      <trkpt lat="46.81158" lon="4.74945">
        <ele>205.275375</ele>
        <time>2011-02-12T08:34:38Z</time>
      </trkpt>
      <trkpt lat="46.8115" lon="4.74969">
        <ele>205.228907</ele>
        <time>2011-02-12T08:34:41Z</time>
      </trkpt>
      <trkpt lat="46.81142" lon="4.74993">
        <ele>205.132536</ele>
        <time>2011-02-12T08:34:44Z</time>
      </trkpt>
      <trkpt lat="46.81131" lon="4.75014">
        <ele>204.951374</ele>
        <time>2011-02-12T08:34:47Z</time>
      </trkpt>
      <trkpt lat="46.81121" lon="4.75022">
        <ele>204.654476</ele>
        <time>2011-02-12T08:34:49Z</time>
      </trkpt>
      <trkpt lat="46.81106" lon="4.75027">
        <ele>204.274365</ele>
        <time>2011-02-12T08:34:52Z</time>
      </trkpt>
      <trkpt lat="46.8109" lon="4.75028">
        <ele>203.887005</ele>
        <time>2011-02-12T08:34:55Z</time>
      </trkpt>
      <trkpt lat="46.81078" lon="4.75039">
        <ele>203.54224</ele>
        <time>2011-02-12T08:34:58Z</time>
      </trkpt>
      <trkpt lat="46.81071" lon="4.75056">
        <ele>203.212785</ele>
        <time>2011-02-12T08:35:01Z</time>
      </trkpt>
      <trkpt lat="46.81069" lon="4.75071">
        <ele>202.786354</ele>
        <time>2011-02-12T08:35:04Z</time>
      </trkpt>
      <trkpt lat="46.81069" lon="4.75086">
        <ele>202.222152</ele>
        <time>2011-02-12T08:35:08Z</time>
      </trkpt>
      <trkpt lat="46.81069" lon="4.75086">
        <ele>201.693434</ele>
        <time>2011-02-12T08:35:11Z</time>
      </trkpt>
      <trkpt lat="46.81079" lon="4.75111">
        <ele>201.361975</ele>
        <time>2011-02-12T08:35:16Z</time>
      </trkpt>
      <trkpt lat="46.81082" lon="4.75125">
        <ele>201.198009</ele>
        <time>2011-02-12T08:35:19Z</time>
      </trkpt>
      <trkpt lat="46.81085" lon="4.75141">
        <ele>201.120184</ele>
        <time>2011-02-12T08:35:22Z</time>
      </trkpt>
      <trkpt lat="46.81088" lon="4.75158">
        <ele>201.065151</ele>
        <time>2011-02-12T08:35:25Z</time>
      </trkpt>
      <trkpt lat="46.81091" lon="4.75174">
        <ele>200.978923</ele>
        <time>2011-02-12T08:35:28Z</time>
      </trkpt>
      <trkpt lat="46.81095" lon="4.75191">
        <ele>200.827904</ele>
        <time>2011-02-12T08:35:31Z</time>
      </trkpt>
      <trkpt lat="46.81097" lon="4.75206">
        <ele>200.589343</ele>
        <time>2011-02-12T08:35:34Z</time>
      </trkpt>
      <trkpt lat="46.81098" lon="4.75223">
        <ele>200.273109</ele>
        <time>2011-02-12T08:35:37Z</time>
      </trkpt>
      <trkpt lat="46.81098" lon="4.7524">
        <ele>199.938262</ele>
        <time>2011-02-12T08:35:40Z</time>
      </trkpt>
      <trkpt lat="46.81098" lon="4.75256">
        <ele>199.674755</ele>
        <time>2011-02-12T08:35:43Z</time>
      </trkpt>
      <trkpt lat="46.81096" lon="4.75273">
        <ele>199.546121</ele>
        <time>2011-02-12T08:35:46Z</time>
      </trkpt>
      <trkpt lat="46.81095" lon="4.75288">
        <ele>199.524256</ele>
        <time>2011-02-12T08:35:49Z</time>
      </trkpt>
      <trkpt lat="46.81095" lon="4.75288">
        <ele>199.544067</ele>
        <time>2011-02-12T08:35:52Z</time>
      </trkpt>
      <trkpt lat="46.81103" lon="4.7531">
        <ele>199.565194</ele>
        <time>2011-02-12T08:36:03Z</time>
      </trkpt>
      <trkpt lat="46.81113" lon="4.75309">
        <ele>199.577378</ele>
        <time>2011-02-12T08:36:07Z</time>
      </trkpt>
      <trkpt lat="46.81125" lon="4.75305">
        <ele>199.586694</ele>
        <time>2011-02-12T08:36:11Z</time>
      </trkpt>
      <trkpt lat="46.81135" lon="4.75303">
        <ele>199.694286</ele>
        <time>2011-02-12T08:36:14Z</time>
      </trkpt>
      <trkpt lat="46.81147" lon="4.75299">
        <ele>200.024794</ele>
        <time>2011-02-12T08:36:17Z</time>
      </trkpt>
      <trkpt lat="46.8116" lon="4.75295">
        <ele>200.522404</ele>
        <time>2011-02-12T08:36:20Z</time>
      </trkpt>
      <trkpt lat="46.81173" lon="4.75292">
        <ele>201.00285</ele>
        <time>2011-02-12T08:36:23Z</time>
      </trkpt>
      <trkpt lat="46.81188" lon="4.75289">
        <ele>201.479622</ele>
        <time>2011-02-12T08:36:26Z</time>
      </trkpt>
      <trkpt lat="46.81202" lon="4.75286">
        <ele>202.002315</ele>
        <time>2011-02-12T08:36:29Z</time>
      </trkpt>
      <trkpt lat="46.81211" lon="4.75283">
        <ele>202.405068</ele>
        <time>2011-02-12T08:36:31Z</time>
      </trkpt>
      <trkpt lat="46.81225" lon="4.7528">
        <ele>202.558999</ele>
        <time>2011-02-12T08:36:34Z</time>
      </trkpt>
      <trkpt lat="46.81238" lon="4.75278">
        <ele>202.493951</ele>
        <time>2011-02-12T08:36:37Z</time>
      </trkpt>
      <trkpt lat="46.81251" lon="4.75275">
        <ele>202.199937</ele>
        <time>2011-02-12T08:36:40Z</time>
      </trkpt>
      <trkpt lat="46.81264" lon="4.75272">
        <ele>201.675955</ele>
        <time>2011-02-12T08:36:43Z</time>
      </trkpt>
      <trkpt lat="46.81276" lon="4.75269">
        <ele>200.970394</ele>
        <time>2011-02-12T08:36:46Z</time>
      </trkpt>
      <trkpt lat="46.81286" lon="4.75266">
        <ele>200.19289</ele>
        <time>2011-02-12T08:36:48Z</time>
      </trkpt>
      <trkpt lat="46.81295" lon="4.75264">
        <ele>199.48783</ele>
        <time>2011-02-12T08:36:50Z</time>
      </trkpt>
      <trkpt lat="46.81309" lon="4.75262">
        <ele>198.848036</ele>
        <time>2011-02-12T08:36:53Z</time>
      </trkpt>
      <trkpt lat="46.8132" lon="4.7526">
        <ele>198.173011</ele>
        <time>2011-02-12T08:36:56Z</time>
      </trkpt>
      <trkpt lat="46.81329" lon="4.75257">
        <ele>197.511781</ele>
        <time>2011-02-12T08:36:58Z</time>
      </trkpt>
      <trkpt lat="46.81342" lon="4.75254">
        <ele>197.001961</ele>
        <time>2011-02-12T08:37:01Z</time>
      </trkpt>
      <trkpt lat="46.81358" lon="4.75251">
        <ele>196.658349</ele>
        <time>2011-02-12T08:37:04Z</time>
      </trkpt>
      <trkpt lat="46.81371" lon="4.75247">
        <ele>196.377599</ele>
        <time>2011-02-12T08:37:06Z</time>
      </trkpt>
      <trkpt lat="46.81392" lon="4.75241">
        <ele>195.994453</ele>
        <time>2011-02-12T08:37:09Z</time>
      </trkpt>
      <trkpt lat="46.81407" lon="4.75237">
        <ele>195.348262</ele>
        <time>2011-02-12T08:37:11Z</time>
      </trkpt>
      <trkpt lat="46.81428" lon="4.75233">
        <ele>194.446971</ele>
        <time>2011-02-12T08:37:14Z</time>
      </trkpt>
      <trkpt lat="46.8144" lon="4.75231">
        <ele>193.58617</ele>
        <time>2011-02-12T08:37:16Z</time>
      </trkpt>
      <trkpt lat="46.81458" lon="4.75228">
        <ele>193.082048</ele>
        <time>2011-02-12T08:37:19Z</time>
      </trkpt>
      <trkpt lat="46.8147" lon="4.75226">
        <ele>192.948227</ele>
        <time>2011-02-12T08:37:21Z</time>
      </trkpt>
      <trkpt lat="46.81487" lon="4.75222">
        <ele>193.119215</ele>
        <time>2011-02-12T08:37:24Z</time>
      </trkpt>
      <trkpt lat="46.81497" lon="4.7522">
        <ele>193.602489</ele>
        <time>2011-02-12T08:37:26Z</time>
      </trkpt>
      <trkpt lat="46.81508" lon="4.75218">
        <ele>194.192386</ele>
        <time>2011-02-12T08:37:28Z</time>
      </trkpt>
      <trkpt lat="46.81519" lon="4.75215">
        <ele>194.577743</ele>
        <time>2011-02-12T08:37:30Z</time>
      </trkpt>
      <trkpt lat="46.81534" lon="4.75211">
        <ele>194.699444</ele>
        <time>2011-02-12T08:37:33Z</time>
      </trkpt>
      <trkpt lat="46.81543" lon="4.75208">
        <ele>194.659837</ele>
        <time>2011-02-12T08:37:35Z</time>
      </trkpt>
      <trkpt lat="46.81553" lon="4.75204">
        <ele>194.533861</ele>
        <time>2011-02-12T08:37:37Z</time>
      </trkpt>
      <trkpt lat="46.81567" lon="4.75197">
        <ele>194.307817</ele>
        <time>2011-02-12T08:37:40Z</time>
      </trkpt>
      <trkpt lat="46.8158" lon="4.75203">
        <ele>193.875723</ele>
        <time>2011-02-12T08:37:43Z</time>
      </trkpt>
      <trkpt lat="46.81587" lon="4.75216">
        <ele>193.177465</ele>
        <time>2011-02-12T08:37:46Z</time>
      </trkpt>
      <trkpt lat="46.81595" lon="4.75231">
        <ele>192.422244</ele>
        <time>2011-02-12T08:37:49Z</time>
      </trkpt>
      <trkpt lat="46.81602" lon="4.75241">
        <ele>191.931089</ele>
        <time>2011-02-12T08:37:51Z</time>
      </trkpt>
      <trkpt lat="46.81615" lon="4.75245">
        <ele>191.776935</ele>
        <time>2011-02-12T08:37:54Z</time>
      </trkpt>
      <trkpt lat="46.81627" lon="4.75243">
        <ele>191.902589</ele>
        <time>2011-02-12T08:37:57Z</time>
      </trkpt>
      <trkpt lat="46.81642" lon="4.75239">
        <ele>192.397366</ele>
        <time>2011-02-12T08:38:00Z</time>
      </trkpt>
      <trkpt lat="46.81655" lon="4.75233">
        <ele>193.347085</ele>
        <time>2011-02-12T08:38:03Z</time>
      </trkpt>
      <trkpt lat="46.81664" lon="4.75227">
        <ele>194.548952</ele>
        <time>2011-02-12T08:38:05Z</time>
      </trkpt>
      <trkpt lat="46.81677" lon="4.75216">
        <ele>195.555266</ele>
        <time>2011-02-12T08:38:08Z</time>
      </trkpt>
      <trkpt lat="46.81686" lon="4.75211">
        <ele>196.138279</ele>
        <time>2011-02-12T08:38:10Z</time>
      </trkpt>
      <trkpt lat="46.81696" lon="4.75207">
        <ele>196.479871</ele>
        <time>2011-02-12T08:38:12Z</time>
      </trkpt>
      <trkpt lat="46.81705" lon="4.75203">
        <ele>196.83717</ele>
        <time>2011-02-12T08:38:14Z</time>
      </trkpt>
      <trkpt lat="46.81717" lon="4.75199">
        <ele>197.294762</ele>
        <time>2011-02-12T08:38:17Z</time>
      </trkpt>
      <trkpt lat="46.81729" lon="4.75197">
        <ele>197.794684</ele>
        <time>2011-02-12T08:38:20Z</time>
      </trkpt>
      <trkpt lat="46.8174" lon="4.75197">
        <ele>198.203445</ele>
        <time>2011-02-12T08:38:23Z</time>
      </trkpt>
      <trkpt lat="46.81749" lon="4.75197">
        <ele>198.423183</ele>
        <time>2011-02-12T08:38:26Z</time>
      </trkpt>
      <trkpt lat="46.81759" lon="4.75198">
        <ele>198.471953</ele>
        <time>2011-02-12T08:38:29Z</time>
      </trkpt>
      <trkpt lat="46.81771" lon="4.75198">
        <ele>198.428645</ele>
        <time>2011-02-12T08:38:32Z</time>
      </trkpt>
      <trkpt lat="46.81782" lon="4.75198">
        <ele>198.347425</ele>
        <time>2011-02-12T08:38:35Z</time>
      </trkpt>
      <trkpt lat="46.81793" lon="4.75198">
        <ele>198.268846</ele>
        <time>2011-02-12T08:38:38Z</time>
      </trkpt>
      <trkpt lat="46.81804" lon="4.75198">
        <ele>198.140598</ele>
        <time>2011-02-12T08:38:41Z</time>
      </trkpt>
      <trkpt lat="46.81816" lon="4.75199">
        <ele>197.910912</ele>
        <time>2011-02-12T08:38:44Z</time>
      </trkpt>
      <trkpt lat="46.81829" lon="4.752">
        <ele>197.672763</ele>
        <time>2011-02-12T08:38:47Z</time>
      </trkpt>
      <trkpt lat="46.81843" lon="4.75201">
        <ele>197.517744</ele>
        <time>2011-02-12T08:38:50Z</time>
      </trkpt>
      <trkpt lat="46.81856" lon="4.75201">
        <ele>197.326021</ele>
        <time>2011-02-12T08:38:53Z</time>
      </trkpt>
      <trkpt lat="46.8187" lon="4.75201">
        <ele>196.870782</ele>
        <time>2011-02-12T08:38:56Z</time>
      </trkpt>
      <trkpt lat="46.81881" lon="4.75202">
        <ele>196.136453</ele>
        <time>2011-02-12T08:38:59Z</time>
      </trkpt>
      <trkpt lat="46.81894" lon="4.75202">
        <ele>195.316789</ele>
        <time>2011-02-12T08:39:02Z</time>
      </trkpt>
      <trkpt lat="46.81909" lon="4.75203">
        <ele>194.521052</ele>
        <time>2011-02-12T08:39:05Z</time>
      </trkpt>
      <trkpt lat="46.81924" lon="4.75203">
        <ele>193.843824</ele>
        <time>2011-02-12T08:39:08Z</time>
      </trkpt>
      <trkpt lat="46.81938" lon="4.75203">
        <ele>193.350446</ele>
        <time>2011-02-12T08:39:11Z</time>
      </trkpt>
      <trkpt lat="46.81951" lon="4.75203">
        <ele>192.797956</ele>
        <time>2011-02-12T08:39:14Z</time>
      </trkpt>
      <trkpt lat="46.81963" lon="4.75202">
        <ele>192.065146</ele>
        <time>2011-02-12T08:39:17Z</time>
      </trkpt>
      <trkpt lat="46.81976" lon="4.75202">
        <ele>191.471332</ele>
        <time>2011-02-12T08:39:20Z</time>
      </trkpt>
      <trkpt lat="46.81988" lon="4.75203">
        <ele>191.233597</ele>
        <time>2011-02-12T08:39:23Z</time>
      </trkpt>
      <trkpt lat="46.82" lon="4.75204">
        <ele>191.337639</ele>
        <time>2011-02-12T08:39:26Z</time>
      </trkpt>
      <trkpt lat="46.82013" lon="4.75204">
        <ele>191.788942</ele>
        <time>2011-02-12T08:39:29Z</time>
      </trkpt>
      <trkpt lat="46.82026" lon="4.75204">
        <ele>192.44045</ele>
        <time>2011-02-12T08:39:32Z</time>
      </trkpt>
      <trkpt lat="46.82038" lon="4.75204">
        <ele>193.023211</ele>
        <time>2011-02-12T08:39:35Z</time>
      </trkpt>
      <trkpt lat="46.8205" lon="4.75204">
        <ele>193.408555</ele>
        <time>2011-02-12T08:39:38Z</time>
      </trkpt>
      <trkpt lat="46.82062" lon="4.75204">
        <ele>193.635916</ele>
        <time>2011-02-12T08:39:41Z</time>
      </trkpt>
      <trkpt lat="46.82072" lon="4.75206">
        <ele>193.796456</ele>
        <time>2011-02-12T08:39:44Z</time>
      </trkpt>
      <trkpt lat="46.82083" lon="4.75213">
        <ele>193.927453</ele>
        <time>2011-02-12T08:39:48Z</time>
      </trkpt>
      <trkpt lat="46.82091" lon="4.7522">
        <ele>194.018695</ele>
        <time>2011-02-12T08:39:51Z</time>
      </trkpt>
      <trkpt lat="46.821" lon="4.75226">
        <ele>194.076533</ele>
        <time>2011-02-12T08:39:54Z</time>
      </trkpt>
      <trkpt lat="46.82108" lon="4.75233">
        <ele>194.131941</ele>
        <time>2011-02-12T08:39:58Z</time>
      </trkpt>
      <trkpt lat="46.82108" lon="4.75233">
        <ele>194.192026</ele>
        <time>2011-02-12T08:40:03Z</time>
      </trkpt>
      <trkpt lat="46.82138" lon="4.7526">
        <ele>194.252865</ele>
        <time>2011-02-12T08:40:29Z</time>
      </trkpt>
      <trkpt lat="46.82138" lon="4.7526">
        <ele>194.313087</ele>
        <time>2011-02-12T08:40:33Z</time>
      </trkpt>
      <trkpt lat="46.82137" lon="4.75304">
        <ele>194.371483</ele>
        <time>2011-02-12T08:40:48Z</time>
      </trkpt>
      <trkpt lat="46.82138" lon="4.7532">
        <ele>194.451115</ele>
        <time>2011-02-12T08:40:53Z</time>
      </trkpt>
      <trkpt lat="46.82137" lon="4.75335">
        <ele>194.829525</ele>
        <time>2011-02-12T08:40:58Z</time>
      </trkpt>
      <trkpt lat="46.82135" lon="4.75349">
        <ele>195.738946</ele>
        <time>2011-02-12T08:41:03Z</time>
      </trkpt>
      <trkpt lat="46.82136" lon="4.75363">
        <ele>196.854903</ele>
        <time>2011-02-12T08:41:08Z</time>
      </trkpt>
      <trkpt lat="46.82136" lon="4.75377">
        <ele>197.705528</ele>
        <time>2011-02-12T08:41:14Z</time>
      </trkpt>
      <trkpt lat="46.82136" lon="4.75391">
        <ele>198.254029</ele>
        <time>2011-02-12T08:41:21Z</time>
      </trkpt>
      <trkpt lat="46.82134" lon="4.75406">
        <ele>198.674225</ele>
        <time>2011-02-12T08:41:28Z</time>
      </trkpt>
      <trkpt lat="46.82135" lon="4.7542">
        <ele>199.109025</ele>
        <time>2011-02-12T08:41:34Z</time>
      </trkpt>
      <trkpt lat="46.82136" lon="4.75433">
        <ele>199.625427</ele>
        <time>2011-02-12T08:41:39Z</time>
      </trkpt>
      <trkpt lat="46.82137" lon="4.75449">
        <ele>200.208659</ele>
        <time>2011-02-12T08:41:44Z</time>
      </trkpt>
      <trkpt lat="46.82136" lon="4.75464">
        <ele>200.775869</ele>
        <time>2011-02-12T08:41:49Z</time>
      </trkpt>
      <trkpt lat="46.82134" lon="4.75478">
        <ele>201.237848</ele>
        <time>2011-02-12T08:41:55Z</time>
      </trkpt>
      <trkpt lat="46.82133" lon="4.75491">
        <ele>201.564483</ele>
        <time>2011-02-12T08:42:01Z</time>
      </trkpt>
      <trkpt lat="46.82129" lon="4.75504">
        <ele>201.788188</ele>
        <time>2011-02-12T08:42:07Z</time>
      </trkpt>
      <trkpt lat="46.82123" lon="4.75517">
        <ele>201.95641</ele>
        <time>2011-02-12T08:42:12Z</time>
      </trkpt>
      <trkpt lat="46.82117" lon="4.75532">
        <ele>202.081671</ele>
        <time>2011-02-12T08:42:19Z</time>
      </trkpt>
      <trkpt lat="46.82115" lon="4.75545">
        <ele>202.148678</ele>
        <time>2011-02-12T08:42:32Z</time>
      </trkpt>
      <trkpt lat="46.82115" lon="4.75545">
        <ele>202.163377</ele>
        <time>2011-02-12T08:42:37Z</time>
      </trkpt>
      <trkpt lat="46.82115" lon="4.75545">
        <ele>202.126332</ele>
        <time>2011-02-12T08:43:22Z</time>
      </trkpt>
      <trkpt lat="46.82094" lon="4.75571">
        <ele>202.040552</ele>
        <time>2011-02-12T08:43:40Z</time>
      </trkpt>
      <trkpt lat="46.82094" lon="4.75571">
        <ele>201.955567</ele>
        <time>2011-02-12T08:43:44Z</time>
      </trkpt>
      <trkpt lat="46.82094" lon="4.75571">
        <ele>201.907692</ele>
        <time>2011-02-12T08:44:10Z</time>
      </trkpt>
      <trkpt lat="46.82081" lon="4.75602">
        <ele>201.889914</ele>
        <time>2011-02-12T08:45:04Z</time>
      </trkpt>
      <trkpt lat="46.82084" lon="4.75617">
        <ele>201.896178</ele>
        <time>2011-02-12T08:45:16Z</time>
      </trkpt>
      <trkpt lat="46.82085" lon="4.75631">
        <ele>201.924528</ele>
        <time>2011-02-12T08:45:27Z</time>
      </trkpt>
      <trkpt lat="46.82086" lon="4.75644">
        <ele>202.26009</ele>
        <time>2011-02-12T08:45:41Z</time>
      </trkpt>
      <trkpt lat="46.82098" lon="4.75651">
        <ele>203.080064</ele>
        <time>2011-02-12T08:45:54Z</time>
      </trkpt>
      <trkpt lat="46.82107" lon="4.75654">
        <ele>203.960241</ele>
        <time>2011-02-12T08:46:02Z</time>
      </trkpt>
      <trkpt lat="46.82108" lon="4.75669">
        <ele>204.53921</ele>
        <time>2011-02-12T08:46:10Z</time>
      </trkpt>
      <trkpt lat="46.82109" lon="4.75688">
        <ele>204.897024</ele>
        <time>2011-02-12T08:46:22Z</time>
      </trkpt>
      <trkpt lat="46.82113" lon="4.757">
        <ele>205.178973</ele>
        <time>2011-02-12T08:46:32Z</time>
      </trkpt>
      <trkpt lat="46.82116" lon="4.75715">
        <ele>205.806618</ele>
        <time>2011-02-12T08:46:46Z</time>
      </trkpt>
      <trkpt lat="46.82121" lon="4.75728">
        <ele>207.333096</ele>
        <time>2011-02-12T08:46:54Z</time>
      </trkpt>
      <trkpt lat="46.82127" lon="4.75741">
        <ele>209.606547</ele>
        <time>2011-02-12T08:46:59Z</time>
      </trkpt>
      <trkpt lat="46.82131" lon="4.75754">
        <ele>211.66637</ele>
        <time>2011-02-12T08:47:05Z</time>
      </trkpt>
      <trkpt lat="46.82134" lon="4.75768">
        <ele>212.770401</ele>
        <time>2011-02-12T08:47:16Z</time>
      </trkpt>
      <trkpt lat="46.82134" lon="4.75768">
        <ele>213.017918</ele>
        <time>2011-02-12T08:47:19Z</time>
      </trkpt>
      <trkpt lat="46.82118" lon="4.7577">
        <ele>212.889479</ele>
        <time>2011-02-12T08:47:26Z</time>
      </trkpt>
      <trkpt lat="46.82107" lon="4.75768">
        <ele>212.705909</ele>
        <time>2011-02-12T08:47:29Z</time>
      </trkpt>
      <trkpt lat="46.82095" lon="4.75765">
        <ele>212.39994</ele>
        <time>2011-02-12T08:47:32Z</time>
      </trkpt>
      <trkpt lat="46.82077" lon="4.75759">
        <ele>211.685115</ele>
        <time>2011-02-12T08:47:35Z</time>
      </trkpt>
      <trkpt lat="46.82065" lon="4.75755">
        <ele>210.488315</ele>
        <time>2011-02-12T08:47:37Z</time>
      </trkpt>
      <trkpt lat="46.82048" lon="4.75751">
        <ele>208.876212</ele>
        <time>2011-02-12T08:47:40Z</time>
      </trkpt>
      <trkpt lat="46.82038" lon="4.75748">
        <ele>206.954745</ele>
        <time>2011-02-12T08:47:42Z</time>
      </trkpt>
      <trkpt lat="46.82028" lon="4.75746">
        <ele>205.053936</ele>
        <time>2011-02-12T08:47:44Z</time>
      </trkpt>
      <trkpt lat="46.82017" lon="4.75743">
        <ele>203.329767</ele>
        <time>2011-02-12T08:47:46Z</time>
      </trkpt>
      <trkpt lat="46.81999" lon="4.75741">
        <ele>201.655925</ele>
        <time>2011-02-12T08:47:49Z</time>
      </trkpt>
      <trkpt lat="46.81984" lon="4.7574">
        <ele>200.020744</ele>
        <time>2011-02-12T08:47:52Z</time>
      </trkpt>
      <trkpt lat="46.81974" lon="4.75738">
        <ele>198.490774</ele>
        <time>2011-02-12T08:47:55Z</time>
      </trkpt>
      <trkpt lat="46.81964" lon="4.75735">
        <ele>196.776174</ele>
        <time>2011-02-12T08:47:58Z</time>
      </trkpt>
      <trkpt lat="46.81964" lon="4.75735">
        <ele>194.864276</ele>
        <time>2011-02-12T08:48:01Z</time>
      </trkpt>
      <trkpt lat="46.81943" lon="4.75728">
        <ele>193.150234</ele>
        <time>2011-02-12T08:48:06Z</time>
      </trkpt>
      <trkpt lat="46.81931" lon="4.75723">
        <ele>191.828393</ele>
        <time>2011-02-12T08:48:09Z</time>
      </trkpt>
      <trkpt lat="46.81919" lon="4.75719">
        <ele>190.900787</ele>
        <time>2011-02-12T08:48:12Z</time>
      </trkpt>
      <trkpt lat="46.8191" lon="4.75715">
        <ele>190.266416</ele>
        <time>2011-02-12T08:48:14Z</time>
      </trkpt>
      <trkpt lat="46.81898" lon="4.75709">
        <ele>189.615514</ele>
        <time>2011-02-12T08:48:17Z</time>
      </trkpt>
      <trkpt lat="46.81887" lon="4.75705">
        <ele>189.009924</ele>
        <time>2011-02-12T08:48:20Z</time>
      </trkpt>
      <trkpt lat="46.81877" lon="4.75701">
        <ele>188.671722</ele>
        <time>2011-02-12T08:48:23Z</time>
      </trkpt>
      <trkpt lat="46.81867" lon="4.75698">
        <ele>188.589952</ele>
        <time>2011-02-12T08:48:27Z</time>
      </trkpt>
      <trkpt lat="46.81856" lon="4.75695">
        <ele>188.643527</ele>
        <time>2011-02-12T08:48:30Z</time>
      </trkpt>
      <trkpt lat="46.81846" lon="4.75692">
        <ele>188.772031</ele>
        <time>2011-02-12T08:48:33Z</time>
      </trkpt>
      <trkpt lat="46.81833" lon="4.75687">
        <ele>188.928182</ele>
        <time>2011-02-12T08:48:36Z</time>
      </trkpt>
      <trkpt lat="46.81815" lon="4.75684">
        <ele>189.039261</ele>
        <time>2011-02-12T08:48:39Z</time>
      </trkpt>
      <trkpt lat="46.81798" lon="4.75677">
        <ele>189.078299</ele>
        <time>2011-02-12T08:48:42Z</time>
      </trkpt>
      <trkpt lat="46.81781" lon="4.75682">
        <ele>188.865819</ele>
        <time>2011-02-12T08:48:45Z</time>
      </trkpt>
      <trkpt lat="46.81773" lon="4.75686">
        <ele>187.96562</ele>
        <time>2011-02-12T08:48:47Z</time>
      </trkpt>
      <trkpt lat="46.81761" lon="4.75689">
        <ele>186.180402</ele>
        <time>2011-02-12T08:48:50Z</time>
      </trkpt>
      <trkpt lat="46.81745" lon="4.7569">
        <ele>183.701657</ele>
        <time>2011-02-12T08:48:53Z</time>
      </trkpt>
      <trkpt lat="46.81732" lon="4.75689">
        <ele>181.195791</ele>
        <time>2011-02-12T08:48:55Z</time>
      </trkpt>
      <trkpt lat="46.81723" lon="4.75689">
        <ele>179.574202</ele>
        <time>2011-02-12T08:48:57Z</time>
      </trkpt>
      <trkpt lat="46.81714" lon="4.75696">
        <ele>179.0688</ele>
        <time>2011-02-12T08:49:00Z</time>
      </trkpt>
      <trkpt lat="46.81705" lon="4.75707">
        <ele>179.158153</ele>
        <time>2011-02-12T08:49:04Z</time>
      </trkpt>
      <trkpt lat="46.81697" lon="4.75716">
        <ele>179.471722</ele>
        <time>2011-02-12T08:49:07Z</time>
      </trkpt>
      <trkpt lat="46.81689" lon="4.75728">
        <ele>179.973288</ele>
        <time>2011-02-12T08:49:10Z</time>
      </trkpt>
      <trkpt lat="46.81684" lon="4.75743">
        <ele>180.727586</ele>
        <time>2011-02-12T08:49:13Z</time>
      </trkpt>
      <trkpt lat="46.81684" lon="4.75743">
        <ele>181.561099</ele>
        <time>2011-02-12T08:49:14Z</time>
      </trkpt>
      <trkpt lat="46.81676" lon="4.75786">
        <ele>182.252078</ele>
        <time>2011-02-12T08:49:23Z</time>
      </trkpt>
      <trkpt lat="46.81676" lon="4.75786">
        <ele>182.761563</ele>
        <time>2011-02-12T08:49:26Z</time>
      </trkpt>
      <trkpt lat="46.81658" lon="4.75819">
        <ele>183.209371</ele>
        <time>2011-02-12T08:49:41Z</time>
      </trkpt>
      <trkpt lat="46.81658" lon="4.75819">
        <ele>183.658141</ele>
        <time>2011-02-12T08:49:44Z</time>
      </trkpt>
      <trkpt lat="46.8166" lon="4.75848">
        <ele>184.140298</ele>
        <time>2011-02-12T08:49:53Z</time>
      </trkpt>
      <trkpt lat="46.81662" lon="4.75861">
        <ele>184.754219</ele>
        <time>2011-02-12T08:49:56Z</time>
      </trkpt>
      <trkpt lat="46.81667" lon="4.75873">
        <ele>185.669504</ele>
        <time>2011-02-12T08:49:59Z</time>
      </trkpt>
      <trkpt lat="46.81671" lon="4.75888">
        <ele>186.869194</ele>
        <time>2011-02-12T08:50:04Z</time>
      </trkpt>
      <trkpt lat="46.81671" lon="4.75903">
        <ele>188.178423</ele>
        <time>2011-02-12T08:50:07Z</time>
      </trkpt>
      <trkpt lat="46.8167" lon="4.75917">
        <ele>189.507695</ele>
        <time>2011-02-12T08:50:09Z</time>
      </trkpt>
      <trkpt lat="46.81666" lon="4.75937">
        <ele>190.943713</ele>
        <time>2011-02-12T08:50:12Z</time>
      </trkpt>
      <trkpt lat="46.81662" lon="4.75957">
        <ele>192.438411</ele>
        <time>2011-02-12T08:50:15Z</time>
      </trkpt>
      <trkpt lat="46.81656" lon="4.75975">
        <ele>193.768243</ele>
        <time>2011-02-12T08:50:18Z</time>
      </trkpt>
      <trkpt lat="46.81648" lon="4.7599">
        <ele>195.358239</ele>
        <time>2011-02-12T08:50:21Z</time>
      </trkpt>
      <trkpt lat="46.81639" lon="4.76005">
        <ele>198.381492</ele>
        <time>2011-02-12T08:50:24Z</time>
      </trkpt>
      <trkpt lat="46.81633" lon="4.76016">
        <ele>202.903831</ele>
        <time>2011-02-12T08:50:26Z</time>
      </trkpt>
      <trkpt lat="46.81633" lon="4.76016">
        <ele>207.095838</ele>
        <time>2011-02-12T08:50:29Z</time>
      </trkpt>
      <trkpt lat="46.81622" lon="4.76055">
        <ele>209.705297</ele>
        <time>2011-02-12T08:50:35Z</time>
      </trkpt>
      <trkpt lat="46.81619" lon="4.7607">
        <ele>211.089631</ele>
        <time>2011-02-12T08:50:38Z</time>
      </trkpt>
      <trkpt lat="46.81619" lon="4.7607">
        <ele>211.733185</ele>
        <time>2011-02-12T08:50:39Z</time>
      </trkpt>
      <trkpt lat="46.81617" lon="4.76114">
        <ele>211.832811</ele>
        <time>2011-02-12T08:50:50Z</time>
      </trkpt>
      <trkpt lat="46.81617" lon="4.76114">
        <ele>211.724364</ele>
        <time>2011-02-12T08:50:53Z</time>
      </trkpt>
      <trkpt lat="46.81601" lon="4.76155">
        <ele>211.513537</ele>
        <time>2011-02-12T08:51:02Z</time>
      </trkpt>
      <trkpt lat="46.81602" lon="4.76171">
        <ele>211.198989</ele>
        <time>2011-02-12T08:51:05Z</time>
      </trkpt>
      <trkpt lat="46.81603" lon="4.76187">
        <ele>210.721783</ele>
        <time>2011-02-12T08:51:08Z</time>
      </trkpt>
      <trkpt lat="46.81604" lon="4.76205">
        <ele>209.792279</ele>
        <time>2011-02-12T08:51:11Z</time>
      </trkpt>
      <trkpt lat="46.81607" lon="4.76222">
        <ele>208.429411</ele>
        <time>2011-02-12T08:51:14Z</time>
      </trkpt>
      <trkpt lat="46.81609" lon="4.76241">
        <ele>207.187127</ele>
        <time>2011-02-12T08:51:17Z</time>
      </trkpt>
      <trkpt lat="46.81611" lon="4.7626">
        <ele>206.351207</ele>
        <time>2011-02-12T08:51:20Z</time>
      </trkpt>
      <trkpt lat="46.81613" lon="4.76273">
        <ele>205.753867</ele>
        <time>2011-02-12T08:51:22Z</time>
      </trkpt>
      <trkpt lat="46.81614" lon="4.76286">
        <ele>205.215754</ele>
        <time>2011-02-12T08:51:24Z</time>
      </trkpt>
      <trkpt lat="46.81616" lon="4.76304">
        <ele>204.268379</ele>
        <time>2011-02-12T08:51:27Z</time>
      </trkpt>
      <trkpt lat="46.81618" lon="4.76322">
        <ele>202.467073</ele>
        <time>2011-02-12T08:51:30Z</time>
      </trkpt>
      <trkpt lat="46.81621" lon="4.76339">
        <ele>200.222227</ele>
        <time>2011-02-12T08:51:33Z</time>
      </trkpt>
      <trkpt lat="46.81624" lon="4.76357">
        <ele>198.293147</ele>
        <time>2011-02-12T08:51:36Z</time>
      </trkpt>
      <trkpt lat="46.81626" lon="4.76377">
        <ele>196.926737</ele>
        <time>2011-02-12T08:51:39Z</time>
      </trkpt>
      <trkpt lat="46.81628" lon="4.76396">
        <ele>196.120674</ele>
        <time>2011-02-12T08:51:42Z</time>
      </trkpt>
      <trkpt lat="46.81631" lon="4.76415">
        <ele>195.771041</ele>
        <time>2011-02-12T08:51:45Z</time>
      </trkpt>
      <trkpt lat="46.81634" lon="4.76428">
        <ele>195.425258</ele>
        <time>2011-02-12T08:51:47Z</time>
      </trkpt>
      <trkpt lat="46.81636" lon="4.76448">
        <ele>194.651133</ele>
        <time>2011-02-12T08:51:50Z</time>
      </trkpt>
      <trkpt lat="46.81639" lon="4.76466">
        <ele>193.641135</ele>
        <time>2011-02-12T08:51:53Z</time>
      </trkpt>
      <trkpt lat="46.81643" lon="4.76484">
        <ele>192.885659</ele>
        <time>2011-02-12T08:51:56Z</time>
      </trkpt>
      <trkpt lat="46.81648" lon="4.76504">
        <ele>192.483188</ele>
        <time>2011-02-12T08:51:59Z</time>
      </trkpt>
      <trkpt lat="46.8165" lon="4.76517">
        <ele>192.155053</ele>
        <time>2011-02-12T08:52:01Z</time>
      </trkpt>
      <trkpt lat="46.81653" lon="4.76531">
        <ele>191.675936</ele>
        <time>2011-02-12T08:52:04Z</time>
      </trkpt>
      <trkpt lat="46.81656" lon="4.7655">
        <ele>191.130657</ele>
        <time>2011-02-12T08:52:07Z</time>
      </trkpt>
      <trkpt lat="46.81658" lon="4.76569">
        <ele>190.68999</ele>
        <time>2011-02-12T08:52:10Z</time>
      </trkpt>
      <trkpt lat="46.81658" lon="4.76589">
        <ele>190.415051</ele>
        <time>2011-02-12T08:52:13Z</time>
      </trkpt>
      <trkpt lat="46.81653" lon="4.76603">
        <ele>190.298065</ele>
        <time>2011-02-12T08:52:16Z</time>
      </trkpt>
      <trkpt lat="46.81646" lon="4.76612">
        <ele>190.288432</ele>
        <time>2011-02-12T08:52:19Z</time>
      </trkpt>
      <trkpt lat="46.81637" lon="4.76616">
        <ele>190.318758</ele>
        <time>2011-02-12T08:52:22Z</time>
      </trkpt>
      <trkpt lat="46.81627" lon="4.7662">
        <ele>190.387635</ele>
        <time>2011-02-12T08:52:25Z</time>
      </trkpt>
      <trkpt lat="46.81617" lon="4.76623">
        <ele>190.566097</ele>
        <time>2011-02-12T08:52:28Z</time>
      </trkpt>
      <trkpt lat="46.81607" lon="4.76623">
        <ele>190.910824</ele>
        <time>2011-02-12T08:52:31Z</time>
      </trkpt>
      <trkpt lat="46.81598" lon="4.76621">
        <ele>191.387824</ele>
        <time>2011-02-12T08:52:34Z</time>
      </trkpt>
      <trkpt lat="46.81585" lon="4.7662">
        <ele>191.909043</ele>
        <time>2011-02-12T08:52:38Z</time>
      </trkpt>
      <trkpt lat="46.81576" lon="4.76627">
        <ele>192.407137</ele>
        <time>2011-02-12T08:52:41Z</time>
      </trkpt>
      <trkpt lat="46.81569" lon="4.76641">
        <ele>192.85264</ele>
        <time>2011-02-12T08:52:44Z</time>
      </trkpt>
      <trkpt lat="46.81564" lon="4.76657">
        <ele>193.241443</ele>
        <time>2011-02-12T08:52:47Z</time>
      </trkpt>
      <trkpt lat="46.8156" lon="4.76673">
        <ele>193.587584</ele>
        <time>2011-02-12T08:52:50Z</time>
      </trkpt>
      <trkpt lat="46.81556" lon="4.76688">
        <ele>193.923575</ele>
        <time>2011-02-12T08:52:53Z</time>
      </trkpt>
      <trkpt lat="46.81553" lon="4.76702">
        <ele>194.285119</ele>
        <time>2011-02-12T08:52:56Z</time>
      </trkpt>
      <trkpt lat="46.81551" lon="4.76716">
        <ele>194.681087</ele>
        <time>2011-02-12T08:52:59Z</time>
      </trkpt>
      <trkpt lat="46.81551" lon="4.76716">
        <ele>195.037732</ele>
        <time>2011-02-12T08:53:01Z</time>
      </trkpt>
      <trkpt lat="46.81524" lon="4.76731">
        <ele>195.249617</ele>
        <time>2011-02-12T08:53:13Z</time>
      </trkpt>
      <trkpt lat="46.81513" lon="4.76732">
        <ele>195.30733</ele>
        <time>2011-02-12T08:53:16Z</time>
      </trkpt>
      <trkpt lat="46.81501" lon="4.76729">
        <ele>195.18141</ele>
        <time>2011-02-12T08:53:19Z</time>
      </trkpt>
      <trkpt lat="46.81487" lon="4.76727">
        <ele>194.843452</ele>
        <time>2011-02-12T08:53:22Z</time>
      </trkpt>
      <trkpt lat="46.81475" lon="4.76727">
        <ele>194.434525</ele>
        <time>2011-02-12T08:53:25Z</time>
      </trkpt>
      <trkpt lat="46.81465" lon="4.76721">
        <ele>193.881544</ele>
        <time>2011-02-12T08:53:28Z</time>
      </trkpt>
      <trkpt lat="46.81453" lon="4.76716">
        <ele>192.882036</ele>
        <time>2011-02-12T08:53:31Z</time>
      </trkpt>
      <trkpt lat="46.81441" lon="4.76712">
        <ele>191.623126</ele>
        <time>2011-02-12T08:53:34Z</time>
      </trkpt>
      <trkpt lat="46.81428" lon="4.76709">
        <ele>190.537113</ele>
        <time>2011-02-12T08:53:37Z</time>
      </trkpt>
      <trkpt lat="46.81415" lon="4.76706">
        <ele>189.582404</ele>
        <time>2011-02-12T08:53:40Z</time>
      </trkpt>
      <trkpt lat="46.81403" lon="4.76712">
        <ele>188.578739</ele>
        <time>2011-02-12T08:53:43Z</time>
      </trkpt>
      <trkpt lat="46.81396" lon="4.76726">
        <ele>187.681914</ele>
        <time>2011-02-12T08:53:46Z</time>
      </trkpt>
      <trkpt lat="46.81393" lon="4.7674">
        <ele>187.097585</ele>
        <time>2011-02-12T08:53:49Z</time>
      </trkpt>
      <trkpt lat="46.81388" lon="4.76754">
        <ele>186.800717</ele>
        <time>2011-02-12T08:53:52Z</time>
      </trkpt>
      <trkpt lat="46.81382" lon="4.76769">
        <ele>186.563615</ele>
        <time>2011-02-12T08:53:55Z</time>
      </trkpt>
      <trkpt lat="46.81376" lon="4.76785">
        <ele>186.244835</ele>
        <time>2011-02-12T08:53:58Z</time>
      </trkpt>
      <trkpt lat="46.81372" lon="4.768">
        <ele>185.946482</ele>
        <time>2011-02-12T08:54:01Z</time>
      </trkpt>
      <trkpt lat="46.81369" lon="4.76812">
        <ele>185.770828</ele>
        <time>2011-02-12T08:54:04Z</time>
      </trkpt>
      <trkpt lat="46.81362" lon="4.76826">
        <ele>185.654367</ele>
        <time>2011-02-12T08:54:08Z</time>
      </trkpt>
      <trkpt lat="46.81349" lon="4.76845">
        <ele>185.511986</ele>
        <time>2011-02-12T08:54:11Z</time>
      </trkpt>
      <trkpt lat="46.81336" lon="4.76858">
        <ele>185.335127</ele>
        <time>2011-02-12T08:54:14Z</time>
      </trkpt>
      <trkpt lat="46.81322" lon="4.76869">
        <ele>185.193636</ele>
        <time>2011-02-12T08:54:17Z</time>
      </trkpt>
      <trkpt lat="46.81313" lon="4.76872">
        <ele>185.13125</ele>
        <time>2011-02-12T08:54:19Z</time>
      </trkpt>
      <trkpt lat="46.81313" lon="4.76872">
        <ele>185.103496</ele>
        <time>2011-02-12T08:54:22Z</time>
      </trkpt>
      <trkpt lat="46.81272" lon="4.76872">
        <ele>185.082364</ele>
        <time>2011-02-12T08:54:33Z</time>
      </trkpt>
      <trkpt lat="46.81263" lon="4.76875">
        <ele>185.115674</ele>
        <time>2011-02-12T08:54:36Z</time>
      </trkpt>
      <trkpt lat="46.81237" lon="4.76897">
        <ele>185.228023</ele>
        <time>2011-02-12T08:54:48Z</time>
      </trkpt>
      <trkpt lat="46.8123" lon="4.76907">
        <ele>185.431399</ele>
        <time>2011-02-12T08:54:52Z</time>
      </trkpt>
      <trkpt lat="46.81201" lon="4.76931">
        <ele>185.716202</ele>
        <time>2011-02-12T08:55:06Z</time>
      </trkpt>
      <trkpt lat="46.8119" lon="4.76935">
        <ele>186.054677</ele>
        <time>2011-02-12T08:55:09Z</time>
      </trkpt>
      <trkpt lat="46.8119" lon="4.76935">
        <ele>186.403728</ele>
        <time>2011-02-12T08:55:12Z</time>
      </trkpt>
      <trkpt lat="46.81172" lon="4.76941">
        <ele>186.691859</ele>
        <time>2011-02-12T08:55:15Z</time>
      </trkpt>
      <trkpt lat="46.81164" lon="4.76947">
        <ele>186.988622</ele>
        <time>2011-02-12T08:55:18Z</time>
      </trkpt>
      <trkpt lat="46.81142" lon="4.76952">
        <ele>187.392683</ele>
        <time>2011-02-12T08:55:26Z</time>
      </trkpt>
      <trkpt lat="46.81131" lon="4.76946">
        <ele>187.74999</ele>
        <time>2011-02-12T08:55:29Z</time>
      </trkpt>
      <trkpt lat="46.81121" lon="4.76939">
        <ele>187.914102</ele>
        <time>2011-02-12T08:55:32Z</time>
      </trkpt>
      <trkpt lat="46.81121" lon="4.76939">
        <ele>187.912323</ele>
        <time>2011-02-12T08:55:35Z</time>
      </trkpt>
      <trkpt lat="46.81092" lon="4.76927">
        <ele>187.844291</ele>
        <time>2011-02-12T08:55:41Z</time>
      </trkpt>
      <trkpt lat="46.81084" lon="4.7692">
        <ele>187.813575</ele>
        <time>2011-02-12T08:55:44Z</time>
      </trkpt>
      <trkpt lat="46.81084" lon="4.7692">
        <ele>187.809861</ele>
        <time>2011-02-12T08:55:49Z</time>
      </trkpt>
      <trkpt lat="46.81045" lon="4.7691">
        <ele>187.772505</ele>
        <time>2011-02-12T08:55:55Z</time>
      </trkpt>
      <trkpt lat="46.81035" lon="4.76906">
        <ele>187.76166</ele>
        <time>2011-02-12T08:55:59Z</time>
      </trkpt>
      <trkpt lat="46.81007" lon="4.7692">
        <ele>187.887641</ele>
        <time>2011-02-12T08:56:13Z</time>
      </trkpt>
      <trkpt lat="46.81007" lon="4.7692">
        <ele>188.118005</ele>
        <time>2011-02-12T08:56:16Z</time>
      </trkpt>
      <trkpt lat="46.80992" lon="4.76936">
        <ele>188.545545</ele>
        <time>2011-02-12T08:56:21Z</time>
      </trkpt>
      <trkpt lat="46.80989" lon="4.76949">
        <ele>189.38122</ele>
        <time>2011-02-12T08:56:24Z</time>
      </trkpt>
      <trkpt lat="46.80989" lon="4.76964">
        <ele>190.7286</ele>
        <time>2011-02-12T08:56:28Z</time>
      </trkpt>
      <trkpt lat="46.80989" lon="4.76964">
        <ele>192.287972</ele>
        <time>2011-02-12T08:56:32Z</time>
      </trkpt>
      <trkpt lat="46.80986" lon="4.76996">
        <ele>193.445664</ele>
        <time>2011-02-12T08:56:36Z</time>
      </trkpt>
      <trkpt lat="46.80984" lon="4.77011">
        <ele>193.906369</ele>
        <time>2011-02-12T08:56:39Z</time>
      </trkpt>
      <trkpt lat="46.80982" lon="4.77025">
        <ele>193.941551</ele>
        <time>2011-02-12T08:56:42Z</time>
      </trkpt>
      <trkpt lat="46.80978" lon="4.77039">
        <ele>193.810825</ele>
        <time>2011-02-12T08:56:45Z</time>
      </trkpt>
      <trkpt lat="46.8097" lon="4.77052">
        <ele>193.630167</ele>
        <time>2011-02-12T08:56:49Z</time>
      </trkpt>
      <trkpt lat="46.80963" lon="4.77064">
        <ele>193.437386</ele>
        <time>2011-02-12T08:56:52Z</time>
      </trkpt>
      <trkpt lat="46.80955" lon="4.77076">
        <ele>193.276579</ele>
        <time>2011-02-12T08:56:55Z</time>
      </trkpt>
      <trkpt lat="46.80945" lon="4.77093">
        <ele>193.156356</ele>
        <time>2011-02-12T08:56:58Z</time>
      </trkpt>
      <trkpt lat="46.80938" lon="4.77112">
        <ele>193.025225</ele>
        <time>2011-02-12T08:57:00Z</time>
      </trkpt>
      <trkpt lat="46.80938" lon="4.77112">
        <ele>192.875981</ele>
        <time>2011-02-12T08:57:02Z</time>
      </trkpt>
      <trkpt lat="46.8093" lon="4.77137">
        <ele>192.742781</ele>
        <time>2011-02-12T08:57:06Z</time>
      </trkpt>
      <trkpt lat="46.80923" lon="4.77151">
        <ele>192.603402</ele>
        <time>2011-02-12T08:57:09Z</time>
      </trkpt>
      <trkpt lat="46.80916" lon="4.77166">
        <ele>192.440243</ele>
        <time>2011-02-12T08:57:12Z</time>
      </trkpt>
      <trkpt lat="46.80907" lon="4.77177">
        <ele>192.283568</ele>
        <time>2011-02-12T08:57:15Z</time>
      </trkpt>
      <trkpt lat="46.80901" lon="4.77187">
        <ele>192.153327</ele>
        <time>2011-02-12T08:57:17Z</time>
      </trkpt>
      <trkpt lat="46.80891" lon="4.77205">
        <ele>192.043</ele>
        <time>2011-02-12T08:57:20Z</time>
      </trkpt>
      <trkpt lat="46.80884" lon="4.77216">
        <ele>191.926823</ele>
        <time>2011-02-12T08:57:22Z</time>
      </trkpt>
      <trkpt lat="46.80874" lon="4.77234">
        <ele>191.705992</ele>
        <time>2011-02-12T08:57:25Z</time>
      </trkpt>
      <trkpt lat="46.80863" lon="4.77252">
        <ele>191.155474</ele>
        <time>2011-02-12T08:57:28Z</time>
      </trkpt>
      <trkpt lat="46.80855" lon="4.77267">
        <ele>190.231148</ele>
        <time>2011-02-12T08:57:31Z</time>
      </trkpt>
      <trkpt lat="46.80847" lon="4.77282">
        <ele>189.296832</ele>
        <time>2011-02-12T08:57:34Z</time>
      </trkpt>
      <trkpt lat="46.80841" lon="4.77294">
        <ele>188.726675</ele>
        <time>2011-02-12T08:57:37Z</time>
      </trkpt>
      <trkpt lat="46.80835" lon="4.77304">
        <ele>188.536903</ele>
        <time>2011-02-12T08:57:40Z</time>
      </trkpt>
      <trkpt lat="46.80823" lon="4.77313">
        <ele>188.546324</ele>
        <time>2011-02-12T08:57:43Z</time>
      </trkpt>
      <trkpt lat="46.80811" lon="4.77326">
        <ele>188.607027</ele>
        <time>2011-02-12T08:57:46Z</time>
      </trkpt>
      <trkpt lat="46.80807" lon="4.7734">
        <ele>188.659933</ele>
        <time>2011-02-12T08:57:48Z</time>
      </trkpt>
      <trkpt lat="46.80805" lon="4.77354">
        <ele>188.691816</ele>
        <time>2011-02-12T08:57:50Z</time>
      </trkpt>
      <trkpt lat="46.80801" lon="4.77375">
        <ele>188.749734</ele>
        <time>2011-02-12T08:57:53Z</time>
      </trkpt>
      <trkpt lat="46.80797" lon="4.77397">
        <ele>188.908004</ele>
        <time>2011-02-12T08:57:56Z</time>
      </trkpt>
      <trkpt lat="46.80795" lon="4.77423">
        <ele>189.362455</ele>
        <time>2011-02-12T08:57:59Z</time>
      </trkpt>
      <trkpt lat="46.80793" lon="4.77441">
        <ele>190.518017</ele>
        <time>2011-02-12T08:58:01Z</time>
      </trkpt>
      <trkpt lat="46.80791" lon="4.77462">
        <ele>192.384233</ele>
        <time>2011-02-12T08:58:03Z</time>
      </trkpt>
      <trkpt lat="46.8079" lon="4.77485">
        <ele>194.229109</ele>
        <time>2011-02-12T08:58:05Z</time>
      </trkpt>
      <trkpt lat="46.80786" lon="4.77526">
        <ele>195.364107</ele>
        <time>2011-02-12T08:58:08Z</time>
      </trkpt>
      <trkpt lat="46.80784" lon="4.77554">
        <ele>195.747286</ele>
        <time>2011-02-12T08:58:10Z</time>
      </trkpt>
      <trkpt lat="46.80779" lon="4.77592">
        <ele>195.712037</ele>
        <time>2011-02-12T08:58:13Z</time>
      </trkpt>
      <trkpt lat="46.80775" lon="4.77627">
        <ele>195.557822</ele>
        <time>2011-02-12T08:58:16Z</time>
      </trkpt>
      <trkpt lat="46.80773" lon="4.77658">
        <ele>195.393218</ele>
        <time>2011-02-12T08:58:19Z</time>
      </trkpt>
      <trkpt lat="46.80771" lon="4.77678">
        <ele>195.208251</ele>
        <time>2011-02-12T08:58:21Z</time>
      </trkpt>
      <trkpt lat="46.8077" lon="4.77698">
        <ele>194.791057</ele>
        <time>2011-02-12T08:58:23Z</time>
      </trkpt>
      <trkpt lat="46.80768" lon="4.77726">
        <ele>193.694309</ele>
        <time>2011-02-12T08:58:26Z</time>
      </trkpt>
      <trkpt lat="46.80766" lon="4.77751">
        <ele>191.879276</ele>
        <time>2011-02-12T08:58:29Z</time>
      </trkpt>
      <trkpt lat="46.80764" lon="4.77775">
        <ele>189.995084</ele>
        <time>2011-02-12T08:58:32Z</time>
      </trkpt>
      <trkpt lat="46.80763" lon="4.77798">
        <ele>188.597776</ele>
        <time>2011-02-12T08:58:35Z</time>
      </trkpt>
      <trkpt lat="46.80762" lon="4.77814">
        <ele>187.648725</ele>
        <time>2011-02-12T08:58:37Z</time>
      </trkpt>
      <trkpt lat="46.80762" lon="4.77832">
        <ele>186.775064</ele>
        <time>2011-02-12T08:58:40Z</time>
      </trkpt>
      <trkpt lat="46.80761" lon="4.77847">
        <ele>185.630537</ele>
        <time>2011-02-12T08:58:43Z</time>
      </trkpt>
      <trkpt lat="46.80759" lon="4.77863">
        <ele>184.250962</ele>
        <time>2011-02-12T08:58:46Z</time>
      </trkpt>
      <trkpt lat="46.80757" lon="4.77879">
        <ele>183.039277</ele>
        <time>2011-02-12T08:58:49Z</time>
      </trkpt>
      <trkpt lat="46.80755" lon="4.77896">
        <ele>182.272727</ele>
        <time>2011-02-12T08:58:53Z</time>
      </trkpt>
      <trkpt lat="46.80755" lon="4.77913">
        <ele>181.839933</ele>
        <time>2011-02-12T08:58:57Z</time>
      </trkpt>
      <trkpt lat="46.80754" lon="4.77927">
        <ele>181.486179</ele>
        <time>2011-02-12T08:59:00Z</time>
      </trkpt>
      <trkpt lat="46.80754" lon="4.77941">
        <ele>181.039822</ele>
        <time>2011-02-12T08:59:03Z</time>
      </trkpt>
      <trkpt lat="46.80753" lon="4.77957">
        <ele>180.436587</ele>
        <time>2011-02-12T08:59:06Z</time>
      </trkpt>
      <trkpt lat="46.80753" lon="4.77973">
        <ele>179.722692</ele>
        <time>2011-02-12T08:59:09Z</time>
      </trkpt>
      <trkpt lat="46.80751" lon="4.77993">
        <ele>178.979563</ele>
        <time>2011-02-12T08:59:12Z</time>
      </trkpt>
      <trkpt lat="46.80748" lon="4.78013">
        <ele>178.242354</ele>
        <time>2011-02-12T08:59:15Z</time>
      </trkpt>
      <trkpt lat="46.80747" lon="4.78029">
        <ele>177.513232</ele>
        <time>2011-02-12T08:59:18Z</time>
      </trkpt>
      <trkpt lat="46.80746" lon="4.78045">
        <ele>176.767131</ele>
        <time>2011-02-12T08:59:21Z</time>
      </trkpt>
      <trkpt lat="46.80744" lon="4.7806">
        <ele>175.949699</ele>
        <time>2011-02-12T08:59:24Z</time>
      </trkpt>
      <trkpt lat="46.80743" lon="4.78076">
        <ele>175.04798</ele>
        <time>2011-02-12T08:59:27Z</time>
      </trkpt>
      <trkpt lat="46.80742" lon="4.78091">
        <ele>174.11728</ele>
        <time>2011-02-12T08:59:30Z</time>
      </trkpt>
      <trkpt lat="46.80741" lon="4.78107">
        <ele>173.218498</ele>
        <time>2011-02-12T08:59:33Z</time>
      </trkpt>
      <trkpt lat="46.80741" lon="4.78122">
        <ele>172.385275</ele>
        <time>2011-02-12T08:59:36Z</time>
      </trkpt>
      <trkpt lat="46.8074" lon="4.78138">
        <ele>171.641458</ele>
        <time>2011-02-12T08:59:39Z</time>
      </trkpt>
      <trkpt lat="46.80739" lon="4.78156">
        <ele>171.000032</ele>
        <time>2011-02-12T08:59:42Z</time>
      </trkpt>
      <trkpt lat="46.80738" lon="4.7817">
        <ele>170.44307</ele>
        <time>2011-02-12T08:59:44Z</time>
      </trkpt>
      <trkpt lat="46.80736" lon="4.78185">
        <ele>169.926287</ele>
        <time>2011-02-12T08:59:46Z</time>
      </trkpt>
      <trkpt lat="46.80735" lon="4.78202">
        <ele>169.412578</ele>
        <time>2011-02-12T08:59:48Z</time>
      </trkpt>
      <trkpt lat="46.80733" lon="4.78215">
        <ele>168.773285</ele>
        <time>2011-02-12T08:59:50Z</time>
      </trkpt>
      <trkpt lat="46.80731" lon="4.78229">
        <ele>167.98915</ele>
        <time>2011-02-12T08:59:52Z</time>
      </trkpt>
      <trkpt lat="46.80729" lon="4.78248">
        <ele>167.319933</ele>
        <time>2011-02-12T08:59:55Z</time>
      </trkpt>
      <trkpt lat="46.80726" lon="4.7827">
        <ele>166.939536</ele>
        <time>2011-02-12T08:59:58Z</time>
      </trkpt>
      <trkpt lat="46.80725" lon="4.7829">
        <ele>166.741465</ele>
        <time>2011-02-12T09:00:01Z</time>
      </trkpt>
      <trkpt lat="46.80724" lon="4.78309">
        <ele>166.591621</ele>
        <time>2011-02-12T09:00:04Z</time>
      </trkpt>
      <trkpt lat="46.80722" lon="4.78328">
        <ele>166.22096</ele>
        <time>2011-02-12T09:00:07Z</time>
      </trkpt>
      <trkpt lat="46.80721" lon="4.78343">
        <ele>165.423822</ele>
        <time>2011-02-12T09:00:09Z</time>
      </trkpt>
      <trkpt lat="46.8072" lon="4.78365">
        <ele>164.501415</ele>
        <time>2011-02-12T09:00:12Z</time>
      </trkpt>
      <trkpt lat="46.80719" lon="4.7838">
        <ele>163.925432</ele>
        <time>2011-02-12T09:00:14Z</time>
      </trkpt>
      <trkpt lat="46.80717" lon="4.78404">
        <ele>163.755127</ele>
        <time>2011-02-12T09:00:17Z</time>
      </trkpt>
      <trkpt lat="46.80714" lon="4.78433">
        <ele>163.802053</ele>
        <time>2011-02-12T09:00:20Z</time>
      </trkpt>
      <trkpt lat="46.80712" lon="4.78453">
        <ele>163.953725</ele>
        <time>2011-02-12T09:00:22Z</time>
      </trkpt>
      <trkpt lat="46.80709" lon="4.78479">
        <ele>164.315709</ele>
        <time>2011-02-12T09:00:25Z</time>
      </trkpt>
      <trkpt lat="46.80708" lon="4.78496">
        <ele>165.037887</ele>
        <time>2011-02-12T09:00:27Z</time>
      </trkpt>
      <trkpt lat="46.80707" lon="4.78518">
        <ele>165.908999</ele>
        <time>2011-02-12T09:00:30Z</time>
      </trkpt>
      <trkpt lat="46.80706" lon="4.78536">
        <ele>166.503564</ele>
        <time>2011-02-12T09:00:33Z</time>
      </trkpt>
      <trkpt lat="46.80706" lon="4.78551">
        <ele>166.702458</ele>
        <time>2011-02-12T09:00:36Z</time>
      </trkpt>
      <trkpt lat="46.80706" lon="4.78568">
        <ele>166.59452</ele>
        <time>2011-02-12T09:00:40Z</time>
      </trkpt>
      <trkpt lat="46.80707" lon="4.78582">
        <ele>166.050718</ele>
        <time>2011-02-12T09:00:43Z</time>
      </trkpt>
      <trkpt lat="46.80706" lon="4.78598">
        <ele>165.068918</ele>
        <time>2011-02-12T09:00:46Z</time>
      </trkpt>
      <trkpt lat="46.80705" lon="4.78615">
        <ele>164.007442</ele>
        <time>2011-02-12T09:00:48Z</time>
      </trkpt>
      <trkpt lat="46.80703" lon="4.78631">
        <ele>163.212958</ele>
        <time>2011-02-12T09:00:50Z</time>
      </trkpt>
      <trkpt lat="46.807" lon="4.78652">
        <ele>162.804491</ele>
        <time>2011-02-12T09:00:53Z</time>
      </trkpt>
      <trkpt lat="46.80698" lon="4.78674">
        <ele>162.723704</ele>
        <time>2011-02-12T09:00:56Z</time>
      </trkpt>
      <trkpt lat="46.80697" lon="4.78689">
        <ele>162.820662</ele>
        <time>2011-02-12T09:00:58Z</time>
      </trkpt>
      <trkpt lat="46.80695" lon="4.78708">
        <ele>163.125169</ele>
        <time>2011-02-12T09:01:01Z</time>
      </trkpt>
      <trkpt lat="46.80694" lon="4.78721">
        <ele>163.810056</ele>
        <time>2011-02-12T09:01:03Z</time>
      </trkpt>
      <trkpt lat="46.80694" lon="4.78721">
        <ele>164.736451</ele>
        <time>2011-02-12T09:01:05Z</time>
      </trkpt>
      <trkpt lat="46.80691" lon="4.78754">
        <ele>165.601958</ele>
        <time>2011-02-12T09:01:08Z</time>
      </trkpt>
      <trkpt lat="46.80689" lon="4.78772">
        <ele>166.56721</ele>
        <time>2011-02-12T09:01:11Z</time>
      </trkpt>
      <trkpt lat="46.80687" lon="4.78791">
        <ele>167.92854</ele>
        <time>2011-02-12T09:01:14Z</time>
      </trkpt>
      <trkpt lat="46.80687" lon="4.78805">
        <ele>169.890303</ele>
        <time>2011-02-12T09:01:16Z</time>
      </trkpt>
      <trkpt lat="46.80685" lon="4.78827">
        <ele>172.479429</ele>
        <time>2011-02-12T09:01:19Z</time>
      </trkpt>
      <trkpt lat="46.80682" lon="4.78846">
        <ele>175.768578</ele>
        <time>2011-02-12T09:01:22Z</time>
      </trkpt>
      <trkpt lat="46.80682" lon="4.78862">
        <ele>179.969766</ele>
        <time>2011-02-12T09:01:25Z</time>
      </trkpt>
      <trkpt lat="46.8068" lon="4.78882">
        <ele>185.352126</ele>
        <time>2011-02-12T09:01:28Z</time>
      </trkpt>
      <trkpt lat="46.80678" lon="4.78909">
        <ele>191.310392</ele>
        <time>2011-02-12T09:01:31Z</time>
      </trkpt>
      <trkpt lat="46.80676" lon="4.78926">
        <ele>196.080099</ele>
        <time>2011-02-12T09:01:33Z</time>
      </trkpt>
      <trkpt lat="46.80673" lon="4.78947">
        <ele>198.42297</ele>
        <time>2011-02-12T09:01:36Z</time>
      </trkpt>
      <trkpt lat="46.80671" lon="4.78962">
        <ele>198.949858</ele>
        <time>2011-02-12T09:01:38Z</time>
      </trkpt>
      <trkpt lat="46.8067" lon="4.78975">
        <ele>198.751086</ele>
        <time>2011-02-12T09:01:40Z</time>
      </trkpt>
      <trkpt lat="46.80668" lon="4.78994">
        <ele>198.491426</ele>
        <time>2011-02-12T09:01:43Z</time>
      </trkpt>
      <trkpt lat="46.80666" lon="4.79011">
        <ele>198.371409</ele>
        <time>2011-02-12T09:01:46Z</time>
      </trkpt>
      <trkpt lat="46.80666" lon="4.79011">
        <ele>198.355144</ele>
        <time>2011-02-12T09:01:48Z</time>
      </trkpt>
      <trkpt lat="46.80664" lon="4.79061">
        <ele>198.373651</ele>
        <time>2011-02-12T09:02:07Z</time>
      </trkpt>
      <trkpt lat="46.80664" lon="4.79077">
        <ele>198.353024</ele>
        <time>2011-02-12T09:02:10Z</time>
      </trkpt>
      <trkpt lat="46.80662" lon="4.79095">
        <ele>198.257445</ele>
        <time>2011-02-12T09:02:13Z</time>
      </trkpt>
      <trkpt lat="46.8066" lon="4.79115">
        <ele>198.005255</ele>
        <time>2011-02-12T09:02:16Z</time>
      </trkpt>
      <trkpt lat="46.80657" lon="4.79135">
        <ele>197.479715</ele>
        <time>2011-02-12T09:02:19Z</time>
      </trkpt>
      <trkpt lat="46.80654" lon="4.79152">
        <ele>196.706178</ele>
        <time>2011-02-12T09:02:22Z</time>
      </trkpt>
      <trkpt lat="46.80653" lon="4.79167">
        <ele>195.116001</ele>
        <time>2011-02-12T09:02:25Z</time>
      </trkpt>
      <trkpt lat="46.80653" lon="4.79167">
        <ele>192.48666</ele>
        <time>2011-02-12T09:02:26Z</time>
      </trkpt>
      <trkpt lat="46.80667" lon="4.79194">
        <ele>189.424826</ele>
        <time>2011-02-12T09:02:39Z</time>
      </trkpt>
      <trkpt lat="46.80676" lon="4.79198">
        <ele>186.352083</ele>
        <time>2011-02-12T09:02:43Z</time>
      </trkpt>
      <trkpt lat="46.80685" lon="4.79199">
        <ele>183.782281</ele>
        <time>2011-02-12T09:02:46Z</time>
      </trkpt>
      <trkpt lat="46.80696" lon="4.79201">
        <ele>182.241904</ele>
        <time>2011-02-12T09:02:50Z</time>
      </trkpt>
      <trkpt lat="46.80696" lon="4.79201">
        <ele>181.406335</ele>
        <time>2011-02-12T09:02:51Z</time>
      </trkpt>
      <trkpt lat="46.80707" lon="4.79216">
        <ele>180.984125</ele>
        <time>2011-02-12T09:02:57Z</time>
      </trkpt>
      <trkpt lat="46.80708" lon="4.7923">
        <ele>180.795562</ele>
        <time>2011-02-12T09:03:00Z</time>
      </trkpt>
      <trkpt lat="46.80708" lon="4.79247">
        <ele>180.621041</ele>
        <time>2011-02-12T09:03:03Z</time>
      </trkpt>
      <trkpt lat="46.80707" lon="4.79266">
        <ele>180.349889</ele>
        <time>2011-02-12T09:03:06Z</time>
      </trkpt>
      <trkpt lat="46.80705" lon="4.79279">
        <ele>179.66051</ele>
        <time>2011-02-12T09:03:08Z</time>
      </trkpt>
      <trkpt lat="46.80702" lon="4.793">
        <ele>178.394697</ele>
        <time>2011-02-12T09:03:11Z</time>
      </trkpt>
      <trkpt lat="46.80699" lon="4.79315">
        <ele>177.107866</ele>
        <time>2011-02-12T09:03:13Z</time>
      </trkpt>
      <trkpt lat="46.80695" lon="4.79337">
        <ele>176.402788</ele>
        <time>2011-02-12T09:03:16Z</time>
      </trkpt>
      <trkpt lat="46.80691" lon="4.79352">
        <ele>176.239239</ele>
        <time>2011-02-12T09:03:18Z</time>
      </trkpt>
      <trkpt lat="46.80686" lon="4.79376">
        <ele>176.380866</ele>
        <time>2011-02-12T09:03:21Z</time>
      </trkpt>
      <trkpt lat="46.80683" lon="4.79392">
        <ele>176.733529</ele>
        <time>2011-02-12T09:03:23Z</time>
      </trkpt>
      <trkpt lat="46.80679" lon="4.79408">
        <ele>177.261239</ele>
        <time>2011-02-12T09:03:25Z</time>
      </trkpt>
      <trkpt lat="46.80672" lon="4.79434">
        <ele>177.89809</ele>
        <time>2011-02-12T09:03:28Z</time>
      </trkpt>
      <trkpt lat="46.80666" lon="4.7946">
        <ele>178.540129</ele>
        <time>2011-02-12T09:03:31Z</time>
      </trkpt>
      <trkpt lat="46.8066" lon="4.79486">
        <ele>179.074107</ele>
        <time>2011-02-12T09:03:34Z</time>
      </trkpt>
      <trkpt lat="46.80656" lon="4.79502">
        <ele>179.443287</ele>
        <time>2011-02-12T09:03:36Z</time>
      </trkpt>
      <trkpt lat="46.80649" lon="4.79525">
        <ele>179.662319</ele>
        <time>2011-02-12T09:03:39Z</time>
      </trkpt>
      <trkpt lat="46.80645" lon="4.79538">
        <ele>179.822795</ele>
        <time>2011-02-12T09:03:41Z</time>
      </trkpt>
      <trkpt lat="46.80641" lon="4.79551">
        <ele>180.02207</ele>
        <time>2011-02-12T09:03:44Z</time>
      </trkpt>
      <trkpt lat="46.80638" lon="4.79565">
        <ele>180.229482</ele>
        <time>2011-02-12T09:03:47Z</time>
      </trkpt>
      <trkpt lat="46.80635" lon="4.79579">
        <ele>180.358385</ele>
        <time>2011-02-12T09:03:50Z</time>
      </trkpt>
      <trkpt lat="46.80631" lon="4.79595">
        <ele>180.39689</ele>
        <time>2011-02-12T09:03:53Z</time>
      </trkpt>
      <trkpt lat="46.80627" lon="4.79612">
        <ele>180.388505</ele>
        <time>2011-02-12T09:03:56Z</time>
      </trkpt>
      <trkpt lat="46.80623" lon="4.7963">
        <ele>180.370097</ele>
        <time>2011-02-12T09:03:59Z</time>
      </trkpt>
      <trkpt lat="46.80618" lon="4.79648">
        <ele>180.351053</ele>
        <time>2011-02-12T09:04:02Z</time>
      </trkpt>
      <trkpt lat="46.80613" lon="4.79669">
        <ele>180.232292</ele>
        <time>2011-02-12T09:04:05Z</time>
      </trkpt>
      <trkpt lat="46.80609" lon="4.7969">
        <ele>179.900769</ele>
        <time>2011-02-12T09:04:08Z</time>
      </trkpt>
      <trkpt lat="46.80604" lon="4.79712">
        <ele>179.460363</ele>
        <time>2011-02-12T09:04:11Z</time>
      </trkpt>
      <trkpt lat="46.80599" lon="4.79736">
        <ele>179.076465</ele>
        <time>2011-02-12T09:04:14Z</time>
      </trkpt>
      <trkpt lat="46.80595" lon="4.79751">
        <ele>178.729941</ele>
        <time>2011-02-12T09:04:16Z</time>
      </trkpt>
      <trkpt lat="46.80592" lon="4.79766">
        <ele>178.364553</ele>
        <time>2011-02-12T09:04:18Z</time>
      </trkpt>
      <trkpt lat="46.80587" lon="4.79788">
        <ele>178.027934</ele>
        <time>2011-02-12T09:04:21Z</time>
      </trkpt>
      <trkpt lat="46.80583" lon="4.79811">
        <ele>177.787865</ele>
        <time>2011-02-12T09:04:24Z</time>
      </trkpt>
      <trkpt lat="46.8058" lon="4.79826">
        <ele>177.615635</ele>
        <time>2011-02-12T09:04:26Z</time>
      </trkpt>
      <trkpt lat="46.80577" lon="4.79842">
        <ele>177.437195</ele>
        <time>2011-02-12T09:04:28Z</time>
      </trkpt>
      <trkpt lat="46.80572" lon="4.79867">
        <ele>177.265572</ele>
        <time>2011-02-12T09:04:31Z</time>
      </trkpt>
      <trkpt lat="46.80569" lon="4.79885">
        <ele>177.159708</ele>
        <time>2011-02-12T09:04:33Z</time>
      </trkpt>
      <trkpt lat="46.80566" lon="4.79911">
        <ele>177.122432</ele>
        <time>2011-02-12T09:04:36Z</time>
      </trkpt>
      <trkpt lat="46.80563" lon="4.79938">
        <ele>177.111921</ele>
        <time>2011-02-12T09:04:39Z</time>
      </trkpt>
      <trkpt lat="46.8056" lon="4.79965">
        <ele>177.083338</ele>
        <time>2011-02-12T09:04:42Z</time>
      </trkpt>
      <trkpt lat="46.80557" lon="4.79983">
        <ele>177.030058</ele>
        <time>2011-02-12T09:04:44Z</time>
      </trkpt>
      <trkpt lat="46.80555" lon="4.80002">
        <ele>176.982022</ele>
        <time>2011-02-12T09:04:46Z</time>
      </trkpt>
      <trkpt lat="46.80551" lon="4.80028">
        <ele>176.927422</ele>
        <time>2011-02-12T09:04:49Z</time>
      </trkpt>
      <trkpt lat="46.80549" lon="4.80045">
        <ele>176.810761</ele>
        <time>2011-02-12T09:04:51Z</time>
      </trkpt>
      <trkpt lat="46.80545" lon="4.80069">
        <ele>176.60391</ele>
        <time>2011-02-12T09:04:54Z</time>
      </trkpt>
      <trkpt lat="46.80542" lon="4.80093">
        <ele>176.292534</ele>
        <time>2011-02-12T09:04:57Z</time>
      </trkpt>
      <trkpt lat="46.8054" lon="4.8011">
        <ele>175.868485</ele>
        <time>2011-02-12T09:04:59Z</time>
      </trkpt>
      <trkpt lat="46.80537" lon="4.80127">
        <ele>175.3683</ele>
        <time>2011-02-12T09:05:01Z</time>
      </trkpt>
      <trkpt lat="46.80533" lon="4.80151">
        <ele>174.860104</ele>
        <time>2011-02-12T09:05:04Z</time>
      </trkpt>
      <trkpt lat="46.8053" lon="4.80173">
        <ele>174.45175</ele>
        <time>2011-02-12T09:05:07Z</time>
      </trkpt>
      <trkpt lat="46.80524" lon="4.80185">
        <ele>174.236447</ele>
        <time>2011-02-12T09:05:09Z</time>
      </trkpt>
      <trkpt lat="46.80513" lon="4.80193">
        <ele>174.185178</ele>
        <time>2011-02-12T09:05:12Z</time>
      </trkpt>
      <trkpt lat="46.80499" lon="4.80194">
        <ele>174.197376</ele>
        <time>2011-02-12T09:05:15Z</time>
      </trkpt>
      <trkpt lat="46.80486" lon="4.80192">
        <ele>174.223582</ele>
        <time>2011-02-12T09:05:18Z</time>
      </trkpt>
      <trkpt lat="46.80473" lon="4.8019">
        <ele>174.26234</ele>
        <time>2011-02-12T09:05:21Z</time>
      </trkpt>
      <trkpt lat="46.80459" lon="4.80195">
        <ele>174.315239</ele>
        <time>2011-02-12T09:05:24Z</time>
      </trkpt>
      <trkpt lat="46.80452" lon="4.8021">
        <ele>174.386004</ele>
        <time>2011-02-12T09:05:27Z</time>
      </trkpt>
      <trkpt lat="46.80445" lon="4.80229">
        <ele>174.482842</ele>
        <time>2011-02-12T09:05:30Z</time>
      </trkpt>
      <trkpt lat="46.80438" lon="4.80247">
        <ele>174.62663</ele>
        <time>2011-02-12T09:05:33Z</time>
      </trkpt>
      <trkpt lat="46.80432" lon="4.80258">
        <ele>174.820716</ele>
        <time>2011-02-12T09:05:35Z</time>
      </trkpt>
      <trkpt lat="46.80424" lon="4.8027">
        <ele>175.105085</ele>
        <time>2011-02-12T09:05:38Z</time>
      </trkpt>
      <trkpt lat="46.80416" lon="4.80284">
        <ele>175.540647</ele>
        <time>2011-02-12T09:05:41Z</time>
      </trkpt>
      <trkpt lat="46.80411" lon="4.803">
        <ele>176.046908</ele>
        <time>2011-02-12T09:05:44Z</time>
      </trkpt>
      <trkpt lat="46.80406" lon="4.80318">
        <ele>176.454658</ele>
        <time>2011-02-12T09:05:47Z</time>
      </trkpt>
      <trkpt lat="46.80403" lon="4.80338">
        <ele>176.701715</ele>
        <time>2011-02-12T09:05:50Z</time>
      </trkpt>
      <trkpt lat="46.80399" lon="4.80359">
        <ele>176.844409</ele>
        <time>2011-02-12T09:05:53Z</time>
      </trkpt>
      <trkpt lat="46.80397" lon="4.80373">
        <ele>177.093127</ele>
        <time>2011-02-12T09:05:55Z</time>
      </trkpt>
      <trkpt lat="46.80392" lon="4.80394">
        <ele>177.665632</ele>
        <time>2011-02-12T09:05:58Z</time>
      </trkpt>
      <trkpt lat="46.8039" lon="4.8041">
        <ele>178.496654</ele>
        <time>2011-02-12T09:06:00Z</time>
      </trkpt>
      <trkpt lat="46.80388" lon="4.80425">
        <ele>179.283491</ele>
        <time>2011-02-12T09:06:02Z</time>
      </trkpt>
      <trkpt lat="46.80384" lon="4.80447">
        <ele>179.810797</ele>
        <time>2011-02-12T09:06:05Z</time>
      </trkpt>
      <trkpt lat="46.80376" lon="4.80465">
        <ele>180.064193</ele>
        <time>2011-02-12T09:06:08Z</time>
      </trkpt>
      <trkpt lat="46.80368" lon="4.80472">
        <ele>180.130893</ele>
        <time>2011-02-12T09:06:10Z</time>
      </trkpt>
      <trkpt lat="46.80354" lon="4.80475">
        <ele>180.108852</ele>
        <time>2011-02-12T09:06:13Z</time>
      </trkpt>
      <trkpt lat="46.8034" lon="4.80473">
        <ele>179.997449</ele>
        <time>2011-02-12T09:06:16Z</time>
      </trkpt>
      <trkpt lat="46.80325" lon="4.80471">
        <ele>179.740534</ele>
        <time>2011-02-12T09:06:19Z</time>
      </trkpt>
      <trkpt lat="46.80314" lon="4.80469">
        <ele>179.412554</ele>
        <time>2011-02-12T09:06:21Z</time>
      </trkpt>
      <trkpt lat="46.80298" lon="4.80468">
        <ele>179.136977</ele>
        <time>2011-02-12T09:06:24Z</time>
      </trkpt>
      <trkpt lat="46.80287" lon="4.80469">
        <ele>178.892957</ele>
        <time>2011-02-12T09:06:26Z</time>
      </trkpt>
      <trkpt lat="46.80269" lon="4.80471">
        <ele>178.59221</ele>
        <time>2011-02-12T09:06:29Z</time>
      </trkpt>
      <trkpt lat="46.80257" lon="4.80472">
        <ele>178.244315</ele>
        <time>2011-02-12T09:06:31Z</time>
      </trkpt>
      <trkpt lat="46.80238" lon="4.80471">
        <ele>177.935645</ele>
        <time>2011-02-12T09:06:34Z</time>
      </trkpt>
      <trkpt lat="46.80225" lon="4.80468">
        <ele>177.523537</ele>
        <time>2011-02-12T09:06:36Z</time>
      </trkpt>
      <trkpt lat="46.80211" lon="4.80466">
        <ele>176.816003</ele>
        <time>2011-02-12T09:06:38Z</time>
      </trkpt>
      <trkpt lat="46.8019" lon="4.80462">
        <ele>175.93522</ele>
        <time>2011-02-12T09:06:41Z</time>
      </trkpt>
      <trkpt lat="46.80169" lon="4.80457">
        <ele>175.060901</ele>
        <time>2011-02-12T09:06:44Z</time>
      </trkpt>
      <trkpt lat="46.80155" lon="4.80453">
        <ele>174.142889</ele>
        <time>2011-02-12T09:06:46Z</time>
      </trkpt>
      <trkpt lat="46.80141" lon="4.80451">
        <ele>173.209025</ele>
        <time>2011-02-12T09:06:48Z</time>
      </trkpt>
      <trkpt lat="46.8012" lon="4.80447">
        <ele>172.453026</ele>
        <time>2011-02-12T09:06:51Z</time>
      </trkpt>
      <trkpt lat="46.801" lon="4.80443">
        <ele>172.005747</ele>
        <time>2011-02-12T09:06:54Z</time>
      </trkpt>
      <trkpt lat="46.80085" lon="4.80439">
        <ele>171.824661</ele>
        <time>2011-02-12T09:06:56Z</time>
      </trkpt>
      <trkpt lat="46.80071" lon="4.80435">
        <ele>171.773997</ele>
        <time>2011-02-12T09:06:58Z</time>
      </trkpt>
      <trkpt lat="46.80049" lon="4.8043">
        <ele>171.698701</ele>
        <time>2011-02-12T09:07:01Z</time>
      </trkpt>
      <trkpt lat="46.80035" lon="4.80426">
        <ele>171.482765</ele>
        <time>2011-02-12T09:07:03Z</time>
      </trkpt>
      <trkpt lat="46.80021" lon="4.80423">
        <ele>171.056085</ele>
        <time>2011-02-12T09:07:05Z</time>
      </trkpt>
      <trkpt lat="46.80008" lon="4.8042">
        <ele>170.535081</ele>
        <time>2011-02-12T09:07:07Z</time>
      </trkpt>
      <trkpt lat="46.79991" lon="4.80418">
        <ele>170.169724</ele>
        <time>2011-02-12T09:07:10Z</time>
      </trkpt>
      <trkpt lat="46.7998" lon="4.80416">
        <ele>170.043435</ele>
        <time>2011-02-12T09:07:12Z</time>
      </trkpt>
      <trkpt lat="46.7997" lon="4.80413">
        <ele>170.054866</ele>
        <time>2011-02-12T09:07:14Z</time>
      </trkpt>
      <trkpt lat="46.79955" lon="4.8041">
        <ele>170.103702</ele>
        <time>2011-02-12T09:07:17Z</time>
      </trkpt>
      <trkpt lat="46.79941" lon="4.80405">
        <ele>170.139466</ele>
        <time>2011-02-12T09:07:20Z</time>
      </trkpt>
      <trkpt lat="46.79931" lon="4.80403">
        <ele>170.152445</ele>
        <time>2011-02-12T09:07:22Z</time>
      </trkpt>
      <trkpt lat="46.79922" lon="4.80401">
        <ele>170.12972</ele>
        <time>2011-02-12T09:07:24Z</time>
      </trkpt>
      <trkpt lat="46.79908" lon="4.80399">
        <ele>170.067631</ele>
        <time>2011-02-12T09:07:27Z</time>
      </trkpt>
      <trkpt lat="46.79894" lon="4.80395">
        <ele>170.005123</ele>
        <time>2011-02-12T09:07:30Z</time>
      </trkpt>
      <trkpt lat="46.79885" lon="4.80391">
        <ele>169.975809</ele>
        <time>2011-02-12T09:07:32Z</time>
      </trkpt>
      <trkpt lat="46.79872" lon="4.80387">
        <ele>170.103977</ele>
        <time>2011-02-12T09:07:35Z</time>
      </trkpt>
      <trkpt lat="46.79859" lon="4.80385">
        <ele>170.512138</ele>
        <time>2011-02-12T09:07:38Z</time>
      </trkpt>
      <trkpt lat="46.7985" lon="4.80383">
        <ele>171.034679</ele>
        <time>2011-02-12T09:07:40Z</time>
      </trkpt>
      <trkpt lat="46.79841" lon="4.80381">
        <ele>171.428876</ele>
        <time>2011-02-12T09:07:42Z</time>
      </trkpt>
      <trkpt lat="46.79828" lon="4.80379">
        <ele>171.728986</ele>
        <time>2011-02-12T09:07:45Z</time>
      </trkpt>
      <trkpt lat="46.79819" lon="4.80377">
        <ele>172.048162</ele>
        <time>2011-02-12T09:07:47Z</time>
      </trkpt>
      <trkpt lat="46.79805" lon="4.80373">
        <ele>172.377144</ele>
        <time>2011-02-12T09:07:50Z</time>
      </trkpt>
      <trkpt lat="46.79795" lon="4.8037">
        <ele>172.652358</ele>
        <time>2011-02-12T09:07:53Z</time>
      </trkpt>
      <trkpt lat="46.79795" lon="4.8037">
        <ele>172.830645</ele>
        <time>2011-02-12T09:07:55Z</time>
      </trkpt>
      <trkpt lat="46.79777" lon="4.80385">
        <ele>172.914124</ele>
        <time>2011-02-12T09:08:28Z</time>
      </trkpt>
      <trkpt lat="46.7977" lon="4.80397">
        <ele>172.956996</ele>
        <time>2011-02-12T09:08:32Z</time>
      </trkpt>
      <trkpt lat="46.79765" lon="4.80411">
        <ele>173.000925</ele>
        <time>2011-02-12T09:08:35Z</time>
      </trkpt>
      <trkpt lat="46.79762" lon="4.80427">
        <ele>173.609279</ele>
        <time>2011-02-12T09:08:38Z</time>
      </trkpt>
      <trkpt lat="46.79758" lon="4.80445">
        <ele>175.182402</ele>
        <time>2011-02-12T09:08:41Z</time>
      </trkpt>
      <trkpt lat="46.79753" lon="4.80465">
        <ele>176.933456</ele>
        <time>2011-02-12T09:08:44Z</time>
      </trkpt>
      <trkpt lat="46.79749" lon="4.80486">
        <ele>178.209642</ele>
        <time>2011-02-12T09:08:47Z</time>
      </trkpt>
      <trkpt lat="46.79746" lon="4.80508">
        <ele>179.417762</ele>
        <time>2011-02-12T09:08:50Z</time>
      </trkpt>
      <trkpt lat="46.79745" lon="4.8053">
        <ele>180.763475</ele>
        <time>2011-02-12T09:08:53Z</time>
      </trkpt>
      <trkpt lat="46.79744" lon="4.80553">
        <ele>181.980557</ele>
        <time>2011-02-12T09:08:56Z</time>
      </trkpt>
      <trkpt lat="46.79741" lon="4.80577">
        <ele>182.87306</ele>
        <time>2011-02-12T09:08:59Z</time>
      </trkpt>
      <trkpt lat="46.79739" lon="4.80592">
        <ele>183.40306</ele>
        <time>2011-02-12T09:09:01Z</time>
      </trkpt>
      <trkpt lat="46.79736" lon="4.80605">
        <ele>183.606162</ele>
        <time>2011-02-12T09:09:04Z</time>
      </trkpt>
      <trkpt lat="46.79732" lon="4.8062">
        <ele>183.607879</ele>
        <time>2011-02-12T09:09:07Z</time>
      </trkpt>
      <trkpt lat="46.79727" lon="4.80636">
        <ele>183.519503</ele>
        <time>2011-02-12T09:09:10Z</time>
      </trkpt>
      <trkpt lat="46.79721" lon="4.80654">
        <ele>183.388287</ele>
        <time>2011-02-12T09:09:13Z</time>
      </trkpt>
      <trkpt lat="46.79717" lon="4.80666">
        <ele>183.232051</ele>
        <time>2011-02-12T09:09:15Z</time>
      </trkpt>
      <trkpt lat="46.79711" lon="4.80685">
        <ele>183.008825</ele>
        <time>2011-02-12T09:09:18Z</time>
      </trkpt>
      <trkpt lat="46.79705" lon="4.80703">
        <ele>182.675172</ele>
        <time>2011-02-12T09:09:21Z</time>
      </trkpt>
      <trkpt lat="46.797" lon="4.80722">
        <ele>182.292293</ele>
        <time>2011-02-12T09:09:24Z</time>
      </trkpt>
      <trkpt lat="46.79694" lon="4.80737">
        <ele>181.954285</ele>
        <time>2011-02-12T09:09:27Z</time>
      </trkpt>
      <trkpt lat="46.79691" lon="4.8075">
        <ele>181.681646</ele>
        <time>2011-02-12T09:09:30Z</time>
      </trkpt>
      <trkpt lat="46.79687" lon="4.80764">
        <ele>181.467611</ele>
        <time>2011-02-12T09:09:33Z</time>
      </trkpt>
      <trkpt lat="46.79684" lon="4.80782">
        <ele>181.330492</ele>
        <time>2011-02-12T09:09:36Z</time>
      </trkpt>
      <trkpt lat="46.79678" lon="4.80799">
        <ele>181.26366</ele>
        <time>2011-02-12T09:09:39Z</time>
      </trkpt>
      <trkpt lat="46.79672" lon="4.80816">
        <ele>181.209325</ele>
        <time>2011-02-12T09:09:41Z</time>
      </trkpt>
      <trkpt lat="46.79662" lon="4.80844">
        <ele>181.066505</ele>
        <time>2011-02-12T09:09:44Z</time>
      </trkpt>
      <trkpt lat="46.79651" lon="4.80876">
        <ele>180.805535</ele>
        <time>2011-02-12T09:09:47Z</time>
      </trkpt>
      <trkpt lat="46.79642" lon="4.80912">
        <ele>180.539856</ele>
        <time>2011-02-12T09:09:50Z</time>
      </trkpt>
      <trkpt lat="46.79636" lon="4.80937">
        <ele>180.371706</ele>
        <time>2011-02-12T09:09:52Z</time>
      </trkpt>
      <trkpt lat="46.79629" lon="4.80973">
        <ele>180.294892</ele>
        <time>2011-02-12T09:09:55Z</time>
      </trkpt>
      <trkpt lat="46.79624" lon="4.80998">
        <ele>180.248821</ele>
        <time>2011-02-12T09:09:57Z</time>
      </trkpt>
      <trkpt lat="46.79618" lon="4.81033">
        <ele>180.187643</ele>
        <time>2011-02-12T09:10:00Z</time>
      </trkpt>
      <trkpt lat="46.7961" lon="4.81067">
        <ele>180.127172</ele>
        <time>2011-02-12T09:10:03Z</time>
      </trkpt>
      <trkpt lat="46.79603" lon="4.81103">
        <ele>180.083592</ele>
        <time>2011-02-12T09:10:06Z</time>
      </trkpt>
      <trkpt lat="46.79598" lon="4.81126">
        <ele>179.950797</ele>
        <time>2011-02-12T09:10:08Z</time>
      </trkpt>
      <trkpt lat="46.7959" lon="4.8116">
        <ele>179.462251</ele>
        <time>2011-02-12T09:10:11Z</time>
      </trkpt>
      <trkpt lat="46.79583" lon="4.81196">
        <ele>178.515445</ele>
        <time>2011-02-12T09:10:14Z</time>
      </trkpt>
      <trkpt lat="46.79579" lon="4.81219">
        <ele>177.426336</ele>
        <time>2011-02-12T09:10:16Z</time>
      </trkpt>
      <trkpt lat="46.79574" lon="4.8124">
        <ele>176.501196</ele>
        <time>2011-02-12T09:10:18Z</time>
      </trkpt>
      <trkpt lat="46.79568" lon="4.81266">
        <ele>175.702596</ele>
        <time>2011-02-12T09:10:21Z</time>
      </trkpt>
      <trkpt lat="46.79566" lon="4.81288">
        <ele>174.974724</ele>
        <time>2011-02-12T09:10:24Z</time>
      </trkpt>
      <trkpt lat="46.79565" lon="4.81304">
        <ele>174.397291</ele>
        <time>2011-02-12T09:10:26Z</time>
      </trkpt>
      <trkpt lat="46.79563" lon="4.81319">
        <ele>173.967091</ele>
        <time>2011-02-12T09:10:28Z</time>
      </trkpt>
      <trkpt lat="46.79561" lon="4.81338">
        <ele>173.557978</ele>
        <time>2011-02-12T09:10:31Z</time>
      </trkpt>
      <trkpt lat="46.79556" lon="4.81356">
        <ele>173.094609</ele>
        <time>2011-02-12T09:10:34Z</time>
      </trkpt>
      <trkpt lat="46.79552" lon="4.81374">
        <ele>172.622574</ele>
        <time>2011-02-12T09:10:37Z</time>
      </trkpt>
      <trkpt lat="46.79549" lon="4.81388">
        <ele>172.169398</ele>
        <time>2011-02-12T09:10:39Z</time>
      </trkpt>
      <trkpt lat="46.79547" lon="4.81402">
        <ele>171.663953</ele>
        <time>2011-02-12T09:10:41Z</time>
      </trkpt>
      <trkpt lat="46.79544" lon="4.81417">
        <ele>171.07157</ele>
        <time>2011-02-12T09:10:43Z</time>
      </trkpt>
      <trkpt lat="46.79541" lon="4.8144">
        <ele>170.444058</ele>
        <time>2011-02-12T09:10:46Z</time>
      </trkpt>
      <trkpt lat="46.79538" lon="4.81456">
        <ele>169.815626</ele>
        <time>2011-02-12T09:10:48Z</time>
      </trkpt>
      <trkpt lat="46.79533" lon="4.81483">
        <ele>169.198425</ele>
        <time>2011-02-12T09:10:51Z</time>
      </trkpt>
      <trkpt lat="46.79529" lon="4.81501">
        <ele>168.606379</ele>
        <time>2011-02-12T09:10:53Z</time>
      </trkpt>
      <trkpt lat="46.79524" lon="4.81524">
        <ele>168.068097</ele>
        <time>2011-02-12T09:10:56Z</time>
      </trkpt>
      <trkpt lat="46.7952" lon="4.81546">
        <ele>167.631803</ele>
        <time>2011-02-12T09:10:59Z</time>
      </trkpt>
      <trkpt lat="46.79517" lon="4.81559">
        <ele>167.338924</ele>
        <time>2011-02-12T09:11:01Z</time>
      </trkpt>
      <trkpt lat="46.79512" lon="4.81577">
        <ele>167.182472</ele>
        <time>2011-02-12T09:11:04Z</time>
      </trkpt>
      <trkpt lat="46.79507" lon="4.81597">
        <ele>167.053661</ele>
        <time>2011-02-12T09:11:07Z</time>
      </trkpt>
      <trkpt lat="46.79505" lon="4.8161">
        <ele>166.702672</ele>
        <time>2011-02-12T09:11:09Z</time>
      </trkpt>
      <trkpt lat="46.79502" lon="4.8163">
        <ele>165.991094</ele>
        <time>2011-02-12T09:11:12Z</time>
      </trkpt>
      <trkpt lat="46.795" lon="4.8165">
        <ele>165.181651</ele>
        <time>2011-02-12T09:11:15Z</time>
      </trkpt>
      <trkpt lat="46.79497" lon="4.81667">
        <ele>164.663301</ele>
        <time>2011-02-12T09:11:18Z</time>
      </trkpt>
      <trkpt lat="46.79493" lon="4.81682">
        <ele>164.504147</ele>
        <time>2011-02-12T09:11:21Z</time>
      </trkpt>
      <trkpt lat="46.79488" lon="4.817">
        <ele>164.549056</ele>
        <time>2011-02-12T09:11:24Z</time>
      </trkpt>
      <trkpt lat="46.79484" lon="4.81719">
        <ele>164.659475</ele>
        <time>2011-02-12T09:11:27Z</time>
      </trkpt>
      <trkpt lat="46.79481" lon="4.81735">
        <ele>164.746609</ele>
        <time>2011-02-12T09:11:29Z</time>
      </trkpt>
      <trkpt lat="46.79478" lon="4.81751">
        <ele>164.780669</ele>
        <time>2011-02-12T09:11:31Z</time>
      </trkpt>
      <trkpt lat="46.79473" lon="4.81777">
        <ele>164.755386</ele>
        <time>2011-02-12T09:11:34Z</time>
      </trkpt>
      <trkpt lat="46.79469" lon="4.81803">
        <ele>164.644974</ele>
        <time>2011-02-12T09:11:37Z</time>
      </trkpt>
      <trkpt lat="46.79464" lon="4.8183">
        <ele>164.456496</ele>
        <time>2011-02-12T09:11:40Z</time>
      </trkpt>
      <trkpt lat="46.79459" lon="4.81855">
        <ele>164.264527</ele>
        <time>2011-02-12T09:11:43Z</time>
      </trkpt>
      <trkpt lat="46.79455" lon="4.81879">
        <ele>164.127288</ele>
        <time>2011-02-12T09:11:46Z</time>
      </trkpt>
      <trkpt lat="46.79452" lon="4.81895">
        <ele>164.044394</ele>
        <time>2011-02-12T09:11:48Z</time>
      </trkpt>
      <trkpt lat="46.79449" lon="4.81911">
        <ele>164.003962</ele>
        <time>2011-02-12T09:11:50Z</time>
      </trkpt>
      <trkpt lat="46.79444" lon="4.81936">
        <ele>163.997177</ele>
        <time>2011-02-12T09:11:53Z</time>
      </trkpt>
      <trkpt lat="46.79441" lon="4.81952">
        <ele>164.071343</ele>
        <time>2011-02-12T09:11:55Z</time>
      </trkpt>
      <trkpt lat="46.79437" lon="4.81977">
        <ele>164.310168</ele>
        <time>2011-02-12T09:11:58Z</time>
      </trkpt>
      <trkpt lat="46.79434" lon="4.81993">
        <ele>164.639399</ele>
        <time>2011-02-12T09:12:00Z</time>
      </trkpt>
      <trkpt lat="46.79431" lon="4.82008">
        <ele>164.874534</ele>
        <time>2011-02-12T09:12:02Z</time>
      </trkpt>
      <trkpt lat="46.79428" lon="4.82024">
        <ele>164.957543</ele>
        <time>2011-02-12T09:12:04Z</time>
      </trkpt>
      <trkpt lat="46.79423" lon="4.82048">
        <ele>164.948481</ele>
        <time>2011-02-12T09:12:07Z</time>
      </trkpt>
      <trkpt lat="46.79418" lon="4.82073">
        <ele>164.870259</ele>
        <time>2011-02-12T09:12:10Z</time>
      </trkpt>
      <trkpt lat="46.79411" lon="4.82099">
        <ele>164.651903</ele>
        <time>2011-02-12T09:12:13Z</time>
      </trkpt>
      <trkpt lat="46.79402" lon="4.82128">
        <ele>164.171186</ele>
        <time>2011-02-12T09:12:16Z</time>
      </trkpt>
      <trkpt lat="46.79397" lon="4.82146">
        <ele>163.49205</ele>
        <time>2011-02-12T09:12:18Z</time>
      </trkpt>
      <trkpt lat="46.7939" lon="4.82168">
        <ele>162.835808</ele>
        <time>2011-02-12T09:12:21Z</time>
      </trkpt>
      <trkpt lat="46.79383" lon="4.8219">
        <ele>162.352028</ele>
        <time>2011-02-12T09:12:24Z</time>
      </trkpt>
      <trkpt lat="46.79375" lon="4.82216">
        <ele>162.092692</ele>
        <time>2011-02-12T09:12:27Z</time>
      </trkpt>
      <trkpt lat="46.79371" lon="4.82235">
        <ele>162.033745</ele>
        <time>2011-02-12T09:12:29Z</time>
      </trkpt>
      <trkpt lat="46.79363" lon="4.82265">
        <ele>162.039906</ele>
        <time>2011-02-12T09:12:32Z</time>
      </trkpt>
      <trkpt lat="46.79358" lon="4.82285">
        <ele>162.022295</ele>
        <time>2011-02-12T09:12:34Z</time>
      </trkpt>
      <trkpt lat="46.79354" lon="4.82304">
        <ele>161.987183</ele>
        <time>2011-02-12T09:12:36Z</time>
      </trkpt>
      <trkpt lat="46.79349" lon="4.82332">
        <ele>161.915553</ele>
        <time>2011-02-12T09:12:39Z</time>
      </trkpt>
      <trkpt lat="46.79345" lon="4.82351">
        <ele>161.729027</ele>
        <time>2011-02-12T09:12:41Z</time>
      </trkpt>
      <trkpt lat="46.7934" lon="4.82377">
        <ele>161.42619</ele>
        <time>2011-02-12T09:12:44Z</time>
      </trkpt>
      <trkpt lat="46.79337" lon="4.82402">
        <ele>161.072219</ele>
        <time>2011-02-12T09:12:47Z</time>
      </trkpt>
      <trkpt lat="46.79335" lon="4.82419">
        <ele>160.751269</ele>
        <time>2011-02-12T09:12:49Z</time>
      </trkpt>
      <trkpt lat="46.79331" lon="4.82446">
        <ele>160.556702</ele>
        <time>2011-02-12T09:12:52Z</time>
      </trkpt>
      <trkpt lat="46.79327" lon="4.82463">
        <ele>160.501841</ele>
        <time>2011-02-12T09:12:54Z</time>
      </trkpt>
      <trkpt lat="46.79321" lon="4.82489">
        <ele>160.569282</ele>
        <time>2011-02-12T09:12:57Z</time>
      </trkpt>
      <trkpt lat="46.79316" lon="4.82515">
        <ele>160.861643</ele>
        <time>2011-02-12T09:13:00Z</time>
      </trkpt>
      <trkpt lat="46.79311" lon="4.82542">
        <ele>161.402313</ele>
        <time>2011-02-12T09:13:03Z</time>
      </trkpt>
      <trkpt lat="46.79308" lon="4.82561">
        <ele>162.069966</ele>
        <time>2011-02-12T09:13:05Z</time>
      </trkpt>
      <trkpt lat="46.79304" lon="4.82579">
        <ele>162.720383</ele>
        <time>2011-02-12T09:13:07Z</time>
      </trkpt>
      <trkpt lat="46.79299" lon="4.82605">
        <ele>163.186559</ele>
        <time>2011-02-12T09:13:10Z</time>
      </trkpt>
      <trkpt lat="46.79295" lon="4.8263">
        <ele>163.375805</ele>
        <time>2011-02-12T09:13:13Z</time>
      </trkpt>
      <trkpt lat="46.79292" lon="4.82644">
        <ele>163.385287</ele>
        <time>2011-02-12T09:13:15Z</time>
      </trkpt>
      <trkpt lat="46.79289" lon="4.82663">
        <ele>163.264504</ele>
        <time>2011-02-12T09:13:18Z</time>
      </trkpt>
      <trkpt lat="46.79289" lon="4.82678">
        <ele>163.012337</ele>
        <time>2011-02-12T09:13:20Z</time>
      </trkpt>
      <trkpt lat="46.79292" lon="4.82701">
        <ele>162.743194</ele>
        <time>2011-02-12T09:13:23Z</time>
      </trkpt>
      <trkpt lat="46.79293" lon="4.82717">
        <ele>162.591094</ele>
        <time>2011-02-12T09:13:25Z</time>
      </trkpt>
      <trkpt lat="46.79293" lon="4.8274">
        <ele>162.553405</ele>
        <time>2011-02-12T09:13:28Z</time>
      </trkpt>
      <trkpt lat="46.7929" lon="4.8276">
        <ele>162.603001</ele>
        <time>2011-02-12T09:13:31Z</time>
      </trkpt>
      <trkpt lat="46.79284" lon="4.82778">
        <ele>162.715131</ele>
        <time>2011-02-12T09:13:34Z</time>
      </trkpt>
      <trkpt lat="46.79277" lon="4.82796">
        <ele>162.819918</ele>
        <time>2011-02-12T09:13:37Z</time>
      </trkpt>
      <trkpt lat="46.79272" lon="4.82808">
        <ele>162.866766</ele>
        <time>2011-02-12T09:13:39Z</time>
      </trkpt>
      <trkpt lat="46.79264" lon="4.82818">
        <ele>162.841283</ele>
        <time>2011-02-12T09:13:41Z</time>
      </trkpt>
      <trkpt lat="46.79254" lon="4.8283">
        <ele>162.663661</ele>
        <time>2011-02-12T09:13:43Z</time>
      </trkpt>
      <trkpt lat="46.79239" lon="4.82851">
        <ele>162.308909</ele>
        <time>2011-02-12T09:13:46Z</time>
      </trkpt>
      <trkpt lat="46.7923" lon="4.82863">
        <ele>161.920357</ele>
        <time>2011-02-12T09:13:48Z</time>
      </trkpt>
      <trkpt lat="46.79221" lon="4.82873">
        <ele>161.634493</ele>
        <time>2011-02-12T09:13:50Z</time>
      </trkpt>
      <trkpt lat="46.79213" lon="4.82883">
        <ele>161.423161</ele>
        <time>2011-02-12T09:13:52Z</time>
      </trkpt>
      <trkpt lat="46.79213" lon="4.82883">
        <ele>161.239786</ele>
        <time>2011-02-12T09:13:55Z</time>
      </trkpt>
      <trkpt lat="46.79199" lon="4.82907">
        <ele>161.117134</ele>
        <time>2011-02-12T09:14:13Z</time>
      </trkpt>
      <trkpt lat="46.79194" lon="4.82923">
        <ele>161.077152</ele>
        <time>2011-02-12T09:14:17Z</time>
      </trkpt>
      <trkpt lat="46.79186" lon="4.82938">
        <ele>161.09998</ele>
        <time>2011-02-12T09:14:20Z</time>
      </trkpt>
      <trkpt lat="46.79177" lon="4.82952">
        <ele>161.31426</ele>
        <time>2011-02-12T09:14:23Z</time>
      </trkpt>
      <trkpt lat="46.79171" lon="4.82962">
        <ele>161.936658</ele>
        <time>2011-02-12T09:14:25Z</time>
      </trkpt>
      <trkpt lat="46.79164" lon="4.82974">
        <ele>163.078957</ele>
        <time>2011-02-12T09:14:27Z</time>
      </trkpt>
      <trkpt lat="46.79157" lon="4.82987">
        <ele>164.433366</ele>
        <time>2011-02-12T09:14:30Z</time>
      </trkpt>
      <trkpt lat="46.7915" lon="4.83001">
        <ele>165.399188</ele>
        <time>2011-02-12T09:14:33Z</time>
      </trkpt>
      <trkpt lat="46.79144" lon="4.83013">
        <ele>165.739551</ele>
        <time>2011-02-12T09:14:36Z</time>
      </trkpt>
      <trkpt lat="46.79138" lon="4.83024">
        <ele>165.691284</ele>
        <time>2011-02-12T09:14:39Z</time>
      </trkpt>
      <trkpt lat="46.79138" lon="4.83024">
        <ele>165.504241</ele>
        <time>2011-02-12T09:14:42Z</time>
      </trkpt>
      <trkpt lat="46.79125" lon="4.83045">
        <ele>165.299609</ele>
        <time>2011-02-12T09:14:46Z</time>
      </trkpt>
      <trkpt lat="46.79117" lon="4.83057">
        <ele>165.044545</ele>
        <time>2011-02-12T09:14:49Z</time>
      </trkpt>
      <trkpt lat="46.7911" lon="4.83071">
        <ele>164.681761</ele>
        <time>2011-02-12T09:14:52Z</time>
      </trkpt>
      <trkpt lat="46.79101" lon="4.83084">
        <ele>164.107691</ele>
        <time>2011-02-12T09:14:55Z</time>
      </trkpt>
      <trkpt lat="46.79096" lon="4.83094">
        <ele>163.00218</ele>
        <time>2011-02-12T09:14:57Z</time>
      </trkpt>
      <trkpt lat="46.79086" lon="4.83111">
        <ele>161.049618</ele>
        <time>2011-02-12T09:15:00Z</time>
      </trkpt>
      <trkpt lat="46.7908" lon="4.83121">
        <ele>158.38121</ele>
        <time>2011-02-12T09:15:02Z</time>
      </trkpt>
      <trkpt lat="46.79071" lon="4.83136">
        <ele>155.716401</ele>
        <time>2011-02-12T09:15:05Z</time>
      </trkpt>
      <trkpt lat="46.79063" lon="4.83152">
        <ele>153.894919</ele>
        <time>2011-02-12T09:15:08Z</time>
      </trkpt>
      <trkpt lat="46.79054" lon="4.83164">
        <ele>153.164858</ele>
        <time>2011-02-12T09:15:11Z</time>
      </trkpt>
      <trkpt lat="46.79046" lon="4.83175">
        <ele>153.134859</ele>
        <time>2011-02-12T09:15:14Z</time>
      </trkpt>
      <trkpt lat="46.7904" lon="4.83187">
        <ele>153.348787</ele>
        <time>2011-02-12T09:15:17Z</time>
      </trkpt>
      <trkpt lat="46.79034" lon="4.83199">
        <ele>153.594095</ele>
        <time>2011-02-12T09:15:20Z</time>
      </trkpt>
      <trkpt lat="46.79028" lon="4.83211">
        <ele>153.802753</ele>
        <time>2011-02-12T09:15:23Z</time>
      </trkpt>
      <trkpt lat="46.79028" lon="4.83211">
        <ele>153.938477</ele>
        <time>2011-02-12T09:15:25Z</time>
      </trkpt>
      <trkpt lat="46.79018" lon="4.83232">
        <ele>154.01628</ele>
        <time>2011-02-12T09:15:29Z</time>
      </trkpt>
      <trkpt lat="46.79011" lon="4.83244">
        <ele>154.097791</ele>
        <time>2011-02-12T09:15:33Z</time>
      </trkpt>
      <trkpt lat="46.79004" lon="4.83258">
        <ele>154.22462</ele>
        <time>2011-02-12T09:15:37Z</time>
      </trkpt>
      <trkpt lat="46.78998" lon="4.83271">
        <ele>154.442885</ele>
        <time>2011-02-12T09:15:40Z</time>
      </trkpt>
      <trkpt lat="46.78992" lon="4.83283">
        <ele>154.771918</ele>
        <time>2011-02-12T09:15:43Z</time>
      </trkpt>
      <trkpt lat="46.78987" lon="4.83297">
        <ele>155.128741</ele>
        <time>2011-02-12T09:15:46Z</time>
      </trkpt>
      <trkpt lat="46.78982" lon="4.83312">
        <ele>155.443384</ele>
        <time>2011-02-12T09:15:49Z</time>
      </trkpt>
      <trkpt lat="46.78976" lon="4.83324">
        <ele>155.728899</ele>
        <time>2011-02-12T09:15:52Z</time>
      </trkpt>
      <trkpt lat="46.78971" lon="4.83336">
        <ele>156.004276</ele>
        <time>2011-02-12T09:15:55Z</time>
      </trkpt>
      <trkpt lat="46.78966" lon="4.83349">
        <ele>156.310171</ele>
        <time>2011-02-12T09:15:58Z</time>
      </trkpt>
      <trkpt lat="46.78962" lon="4.83362">
        <ele>156.692416</ele>
        <time>2011-02-12T09:16:01Z</time>
      </trkpt>
      <trkpt lat="46.78958" lon="4.83375">
        <ele>157.140168</ele>
        <time>2011-02-12T09:16:04Z</time>
      </trkpt>
      <trkpt lat="46.78952" lon="4.83389">
        <ele>157.611414</ele>
        <time>2011-02-12T09:16:07Z</time>
      </trkpt>
      <trkpt lat="46.78948" lon="4.83402">
        <ele>158.089768</ele>
        <time>2011-02-12T09:16:10Z</time>
      </trkpt>
      <trkpt lat="46.78944" lon="4.83414">
        <ele>158.584062</ele>
        <time>2011-02-12T09:16:13Z</time>
      </trkpt>
      <trkpt lat="46.78944" lon="4.83414">
        <ele>159.027272</ele>
        <time>2011-02-12T09:16:17Z</time>
      </trkpt>
      <trkpt lat="46.78933" lon="4.83441">
        <ele>159.366889</ele>
        <time>2011-02-12T09:16:22Z</time>
      </trkpt>
      <trkpt lat="46.78929" lon="4.83455">
        <ele>159.696129</ele>
        <time>2011-02-12T09:16:26Z</time>
      </trkpt>
      <trkpt lat="46.78925" lon="4.83468">
        <ele>160.092239</ele>
        <time>2011-02-12T09:16:29Z</time>
      </trkpt>
      <trkpt lat="46.78919" lon="4.83482">
        <ele>160.61359</ele>
        <time>2011-02-12T09:16:33Z</time>
      </trkpt>
      <trkpt lat="46.78915" lon="4.83494">
        <ele>161.294098</ele>
        <time>2011-02-12T09:16:36Z</time>
      </trkpt>
      <trkpt lat="46.78909" lon="4.83509">
        <ele>161.976997</ele>
        <time>2011-02-12T09:16:40Z</time>
      </trkpt>
      <trkpt lat="46.78905" lon="4.83521">
        <ele>162.513697</ele>
        <time>2011-02-12T09:16:43Z</time>
      </trkpt>
      <trkpt lat="46.78902" lon="4.83534">
        <ele>162.911123</ele>
        <time>2011-02-12T09:16:46Z</time>
      </trkpt>
      <trkpt lat="46.78898" lon="4.83547">
        <ele>163.190815</ele>
        <time>2011-02-12T09:16:49Z</time>
      </trkpt>
      <trkpt lat="46.78894" lon="4.83563">
        <ele>163.380909</ele>
        <time>2011-02-12T09:16:53Z</time>
      </trkpt>
      <trkpt lat="46.78889" lon="4.83578">
        <ele>163.519444</ele>
        <time>2011-02-12T09:16:57Z</time>
      </trkpt>
      <trkpt lat="46.78885" lon="4.83591">
        <ele>163.627731</ele>
        <time>2011-02-12T09:17:00Z</time>
      </trkpt>
      <trkpt lat="46.78879" lon="4.83606">
        <ele>163.72201</ele>
        <time>2011-02-12T09:17:04Z</time>
      </trkpt>
      <trkpt lat="46.78875" lon="4.83617">
        <ele>163.808614</ele>
        <time>2011-02-12T09:17:07Z</time>
      </trkpt>
      <trkpt lat="46.78871" lon="4.8363">
        <ele>163.875797</ele>
        <time>2011-02-12T09:17:10Z</time>
      </trkpt>
      <trkpt lat="46.78866" lon="4.83642">
        <ele>163.909349</ele>
        <time>2011-02-12T09:17:13Z</time>
      </trkpt>
      <trkpt lat="46.78862" lon="4.83655">
        <ele>163.915438</ele>
        <time>2011-02-12T09:17:16Z</time>
      </trkpt>
      <trkpt lat="46.78858" lon="4.8367">
        <ele>163.900483</ele>
        <time>2011-02-12T09:17:19Z</time>
      </trkpt>
      <trkpt lat="46.78853" lon="4.83684">
        <ele>163.869027</ele>
        <time>2011-02-12T09:17:22Z</time>
      </trkpt>
      <trkpt lat="46.78848" lon="4.83698">
        <ele>163.839662</ele>
        <time>2011-02-12T09:17:25Z</time>
      </trkpt>
      <trkpt lat="46.78841" lon="4.83711">
        <ele>163.826542</ele>
        <time>2011-02-12T09:17:28Z</time>
      </trkpt>
      <trkpt lat="46.78835" lon="4.83725">
        <ele>163.8375</ele>
        <time>2011-02-12T09:17:31Z</time>
      </trkpt>
      <trkpt lat="46.7883" lon="4.83737">
        <ele>163.89851</ele>
        <time>2011-02-12T09:17:34Z</time>
      </trkpt>
      <trkpt lat="46.78825" lon="4.83748">
        <ele>164.016282</ele>
        <time>2011-02-12T09:17:37Z</time>
      </trkpt>
      <trkpt lat="46.78819" lon="4.83759">
        <ele>164.140718</ele>
        <time>2011-02-12T09:17:40Z</time>
      </trkpt>
      <trkpt lat="46.78813" lon="4.83772">
        <ele>164.21742</ele>
        <time>2011-02-12T09:17:43Z</time>
      </trkpt>
      <trkpt lat="46.78808" lon="4.83784">
        <ele>164.242933</ele>
        <time>2011-02-12T09:17:46Z</time>
      </trkpt>
      <trkpt lat="46.788" lon="4.83798">
        <ele>164.26198</ele>
        <time>2011-02-12T09:17:51Z</time>
      </trkpt>
      <trkpt lat="46.7878" lon="4.83831">
        <ele>164.336423</ele>
        <time>2011-02-12T09:18:06Z</time>
      </trkpt>
      <trkpt lat="46.7878" lon="4.83831">
        <ele>164.463189</ele>
        <time>2011-02-12T09:18:09Z</time>
      </trkpt>
      <trkpt lat="46.78764" lon="4.83864">
        <ele>164.60532</ele>
        <time>2011-02-12T09:18:26Z</time>
      </trkpt>
      <trkpt lat="46.78756" lon="4.83873">
        <ele>164.822668</ele>
        <time>2011-02-12T09:18:30Z</time>
      </trkpt>
      <trkpt lat="46.78747" lon="4.83878">
        <ele>165.351404</ele>
        <time>2011-02-12T09:18:35Z</time>
      </trkpt>
      <trkpt lat="46.78744" lon="4.83893">
        <ele>166.756337</ele>
        <time>2011-02-12T09:18:39Z</time>
      </trkpt>
      <trkpt lat="46.78739" lon="4.83908">
        <ele>169.129151</ele>
        <time>2011-02-12T09:18:44Z</time>
      </trkpt>
      <trkpt lat="46.78742" lon="4.83921">
        <ele>171.624322</ele>
        <time>2011-02-12T09:18:49Z</time>
      </trkpt>
      <trkpt lat="46.78753" lon="4.8392">
        <ele>173.528628</ele>
        <time>2011-02-12T09:18:53Z</time>
      </trkpt>
      <trkpt lat="46.78762" lon="4.83924">
        <ele>174.871751</ele>
        <time>2011-02-12T09:18:56Z</time>
      </trkpt>
      <trkpt lat="46.7877" lon="4.83933">
        <ele>175.881355</ele>
        <time>2011-02-12T09:18:59Z</time>
      </trkpt>
      <trkpt lat="46.78779" lon="4.83943">
        <ele>176.71219</ele>
        <time>2011-02-12T09:19:02Z</time>
      </trkpt>
      <trkpt lat="46.7879" lon="4.8396">
        <ele>177.373391</ele>
        <time>2011-02-12T09:19:05Z</time>
      </trkpt>
      <trkpt lat="46.78795" lon="4.83979">
        <ele>177.863323</ele>
        <time>2011-02-12T09:19:08Z</time>
      </trkpt>
      <trkpt lat="46.78797" lon="4.83997">
        <ele>178.399021</ele>
        <time>2011-02-12T09:19:10Z</time>
      </trkpt>
      <trkpt lat="46.788" lon="4.84019">
        <ele>179.174909</ele>
        <time>2011-02-12T09:19:13Z</time>
      </trkpt>
      <trkpt lat="46.78801" lon="4.84042">
        <ele>180.018845</ele>
        <time>2011-02-12T09:19:16Z</time>
      </trkpt>
      <trkpt lat="46.78801" lon="4.84058">
        <ele>181.090149</ele>
        <time>2011-02-12T09:19:18Z</time>
      </trkpt>
      <trkpt lat="46.788" lon="4.84081">
        <ele>182.955801</ele>
        <time>2011-02-12T09:19:21Z</time>
      </trkpt>
      <trkpt lat="46.78799" lon="4.84106">
        <ele>185.393167</ele>
        <time>2011-02-12T09:19:24Z</time>
      </trkpt>
      <trkpt lat="46.78797" lon="4.84131">
        <ele>187.51342</ele>
        <time>2011-02-12T09:19:27Z</time>
      </trkpt>
      <trkpt lat="46.78795" lon="4.84147">
        <ele>188.88909</ele>
        <time>2011-02-12T09:19:29Z</time>
      </trkpt>
      <trkpt lat="46.78796" lon="4.84169">
        <ele>189.636125</ele>
        <time>2011-02-12T09:19:31Z</time>
      </trkpt>
      <trkpt lat="46.78801" lon="4.84198">
        <ele>189.967212</ele>
        <time>2011-02-12T09:19:34Z</time>
      </trkpt>
      <trkpt lat="46.78803" lon="4.84215">
        <ele>190.114709</ele>
        <time>2011-02-12T09:19:36Z</time>
      </trkpt>
      <trkpt lat="46.78803" lon="4.84234">
        <ele>190.476178</ele>
        <time>2011-02-12T09:19:39Z</time>
      </trkpt>
      <trkpt lat="46.78801" lon="4.8425">
        <ele>191.925149</ele>
        <time>2011-02-12T09:19:42Z</time>
      </trkpt>
      <trkpt lat="46.78796" lon="4.84264">
        <ele>194.80406</ele>
        <time>2011-02-12T09:19:45Z</time>
      </trkpt>
      <trkpt lat="46.78786" lon="4.84274">
        <ele>197.835563</ele>
        <time>2011-02-12T09:19:47Z</time>
      </trkpt>
      <trkpt lat="46.78766" lon="4.84286">
        <ele>199.580846</ele>
        <time>2011-02-12T09:19:50Z</time>
      </trkpt>
      <trkpt lat="46.78748" lon="4.84297">
        <ele>200.029497</ele>
        <time>2011-02-12T09:19:53Z</time>
      </trkpt>
      <trkpt lat="46.78737" lon="4.84304">
        <ele>199.73924</ele>
        <time>2011-02-12T09:19:55Z</time>
      </trkpt>
      <trkpt lat="46.78721" lon="4.84315">
        <ele>198.240726</ele>
        <time>2011-02-12T09:19:58Z</time>
      </trkpt>
      <trkpt lat="46.78706" lon="4.84326">
        <ele>194.764364</ele>
        <time>2011-02-12T09:20:01Z</time>
      </trkpt>
      <trkpt lat="46.78696" lon="4.84334">
        <ele>190.259166</ele>
        <time>2011-02-12T09:20:03Z</time>
      </trkpt>
      <trkpt lat="46.78681" lon="4.84346">
        <ele>186.459086</ele>
        <time>2011-02-12T09:20:06Z</time>
      </trkpt>
      <trkpt lat="46.78665" lon="4.84357">
        <ele>183.9259</ele>
        <time>2011-02-12T09:20:09Z</time>
      </trkpt>
      <trkpt lat="46.78655" lon="4.84365">
        <ele>182.43774</ele>
        <time>2011-02-12T09:20:11Z</time>
      </trkpt>
      <trkpt lat="46.78645" lon="4.84373">
        <ele>181.674037</ele>
        <time>2011-02-12T09:20:13Z</time>
      </trkpt>
      <trkpt lat="46.78629" lon="4.84386">
        <ele>181.353717</ele>
        <time>2011-02-12T09:20:16Z</time>
      </trkpt>
      <trkpt lat="46.78619" lon="4.84394">
        <ele>181.2887</ele>
        <time>2011-02-12T09:20:18Z</time>
      </trkpt>
      <trkpt lat="46.78604" lon="4.84405">
        <ele>181.331076</ele>
        <time>2011-02-12T09:20:21Z</time>
      </trkpt>
      <trkpt lat="46.78589" lon="4.84417">
        <ele>181.432301</ele>
        <time>2011-02-12T09:20:24Z</time>
      </trkpt>
      <trkpt lat="46.78574" lon="4.8443">
        <ele>181.590519</ele>
        <time>2011-02-12T09:20:27Z</time>
      </trkpt>
      <trkpt lat="46.78559" lon="4.84445">
        <ele>181.731487</ele>
        <time>2011-02-12T09:20:30Z</time>
      </trkpt>
      <trkpt lat="46.7855" lon="4.84453">
        <ele>181.79241</ele>
        <time>2011-02-12T09:20:32Z</time>
      </trkpt>
      <trkpt lat="46.78539" lon="4.84464">
        <ele>181.752992</ele>
        <time>2011-02-12T09:20:35Z</time>
      </trkpt>
      <trkpt lat="46.78524" lon="4.84479">
        <ele>181.622505</ele>
        <time>2011-02-12T09:20:38Z</time>
      </trkpt>
      <trkpt lat="46.78515" lon="4.84485">
        <ele>181.490548</ele>
        <time>2011-02-12T09:20:40Z</time>
      </trkpt>
      <trkpt lat="46.78504" lon="4.84491">
        <ele>181.4285</ele>
        <time>2011-02-12T09:20:43Z</time>
      </trkpt>
      <trkpt lat="46.7849" lon="4.84491">
        <ele>181.915527</ele>
        <time>2011-02-12T09:20:46Z</time>
      </trkpt>
      <trkpt lat="46.78474" lon="4.84489">
        <ele>183.465905</ele>
        <time>2011-02-12T09:20:49Z</time>
      </trkpt>
      <trkpt lat="46.78463" lon="4.84487">
        <ele>185.65361</ele>
        <time>2011-02-12T09:20:51Z</time>
      </trkpt>
      <trkpt lat="46.78453" lon="4.8449">
        <ele>187.556664</ele>
        <time>2011-02-12T09:20:54Z</time>
      </trkpt>
      <trkpt lat="46.78446" lon="4.84505">
        <ele>188.738542</ele>
        <time>2011-02-12T09:20:57Z</time>
      </trkpt>
      <trkpt lat="46.78439" lon="4.84528">
        <ele>189.247749</ele>
        <time>2011-02-12T09:21:00Z</time>
      </trkpt>
      <trkpt lat="46.78431" lon="4.84549">
        <ele>189.375973</ele>
        <time>2011-02-12T09:21:03Z</time>
      </trkpt>
      <trkpt lat="46.78425" lon="4.84562">
        <ele>189.504198</ele>
        <time>2011-02-12T09:21:05Z</time>
      </trkpt>
      <trkpt lat="46.78417" lon="4.84576">
        <ele>190.008849</ele>
        <time>2011-02-12T09:21:07Z</time>
      </trkpt>
      <trkpt lat="46.78403" lon="4.84601">
        <ele>190.807313</ele>
        <time>2011-02-12T09:21:10Z</time>
      </trkpt>
      <trkpt lat="46.78386" lon="4.84628">
        <ele>191.42914</ele>
        <time>2011-02-12T09:21:13Z</time>
      </trkpt>
      <trkpt lat="46.78364" lon="4.84654">
        <ele>191.669233</ele>
        <time>2011-02-12T09:21:16Z</time>
      </trkpt>
      <trkpt lat="46.78347" lon="4.84665">
        <ele>191.612495</ele>
        <time>2011-02-12T09:21:18Z</time>
      </trkpt>
      <trkpt lat="46.78325" lon="4.84678">
        <ele>191.181473</ele>
        <time>2011-02-12T09:21:21Z</time>
      </trkpt>
      <trkpt lat="46.78309" lon="4.84685">
        <ele>190.078993</ele>
        <time>2011-02-12T09:21:24Z</time>
      </trkpt>
      <trkpt lat="46.78299" lon="4.84689">
        <ele>188.381224</ele>
        <time>2011-02-12T09:21:26Z</time>
      </trkpt>
      <trkpt lat="46.78291" lon="4.847">
        <ele>186.506022</ele>
        <time>2011-02-12T09:21:28Z</time>
      </trkpt>
      <trkpt lat="46.78289" lon="4.84717">
        <ele>184.577239</ele>
        <time>2011-02-12T09:21:30Z</time>
      </trkpt>
      <trkpt lat="46.78295" lon="4.84741">
        <ele>182.680274</ele>
        <time>2011-02-12T09:21:33Z</time>
      </trkpt>
      <trkpt lat="46.78305" lon="4.84768">
        <ele>181.171176</ele>
        <time>2011-02-12T09:21:36Z</time>
      </trkpt>
      <trkpt lat="46.78311" lon="4.84785">
        <ele>180.184934</ele>
        <time>2011-02-12T09:21:38Z</time>
      </trkpt>
      <trkpt lat="46.7832" lon="4.84812">
        <ele>179.539031</ele>
        <time>2011-02-12T09:21:41Z</time>
      </trkpt>
      <trkpt lat="46.78324" lon="4.84829">
        <ele>178.962262</ele>
        <time>2011-02-12T09:21:43Z</time>
      </trkpt>
      <trkpt lat="46.78331" lon="4.84856">
        <ele>178.26811</ele>
        <time>2011-02-12T09:21:46Z</time>
      </trkpt>
      <trkpt lat="46.78334" lon="4.84874">
        <ele>177.461925</ele>
        <time>2011-02-12T09:21:48Z</time>
      </trkpt>
      <trkpt lat="46.78334" lon="4.84896">
        <ele>176.730763</ele>
        <time>2011-02-12T09:21:51Z</time>
      </trkpt>
      <trkpt lat="46.78323" lon="4.84905">
        <ele>176.27796</ele>
        <time>2011-02-12T09:21:54Z</time>
      </trkpt>
      <trkpt lat="46.78314" lon="4.84912">
        <ele>176.116338</ele>
        <time>2011-02-12T09:21:56Z</time>
      </trkpt>
      <trkpt lat="46.78306" lon="4.8492">
        <ele>176.042195</ele>
        <time>2011-02-12T09:21:58Z</time>
      </trkpt>
      <trkpt lat="46.78294" lon="4.84932">
        <ele>175.68887</ele>
        <time>2011-02-12T09:22:01Z</time>
      </trkpt>
      <trkpt lat="46.78281" lon="4.84944">
        <ele>174.816379</ele>
        <time>2011-02-12T09:22:04Z</time>
      </trkpt>
      <trkpt lat="46.78273" lon="4.84952">
        <ele>173.57418</ele>
        <time>2011-02-12T09:22:06Z</time>
      </trkpt>
      <trkpt lat="46.78265" lon="4.84959">
        <ele>172.25043</ele>
        <time>2011-02-12T09:22:08Z</time>
      </trkpt>
      <trkpt lat="46.78254" lon="4.84967">
        <ele>171.082228</ele>
        <time>2011-02-12T09:22:11Z</time>
      </trkpt>
      <trkpt lat="46.78244" lon="4.84973">
        <ele>170.288392</ele>
        <time>2011-02-12T09:22:15Z</time>
      </trkpt>
      <trkpt lat="46.78232" lon="4.84978">
        <ele>169.903593</ele>
        <time>2011-02-12T09:22:18Z</time>
      </trkpt>
      <trkpt lat="46.7822" lon="4.8498">
        <ele>169.778768</ele>
        <time>2011-02-12T09:22:21Z</time>
      </trkpt>
      <trkpt lat="46.78207" lon="4.8498">
        <ele>169.74075</ele>
        <time>2011-02-12T09:22:24Z</time>
      </trkpt>
      <trkpt lat="46.78191" lon="4.84981">
        <ele>169.651072</ele>
        <time>2011-02-12T09:22:27Z</time>
      </trkpt>
      <trkpt lat="46.7818" lon="4.84981">
        <ele>169.43561</ele>
        <time>2011-02-12T09:22:29Z</time>
      </trkpt>
      <trkpt lat="46.78164" lon="4.84982">
        <ele>168.928754</ele>
        <time>2011-02-12T09:22:32Z</time>
      </trkpt>
      <trkpt lat="46.78155" lon="4.84984">
        <ele>167.878583</ele>
        <time>2011-02-12T09:22:34Z</time>
      </trkpt>
      <trkpt lat="46.78142" lon="4.84987">
        <ele>166.441114</ele>
        <time>2011-02-12T09:22:37Z</time>
      </trkpt>
      <trkpt lat="46.78128" lon="4.84992">
        <ele>165.142363</ele>
        <time>2011-02-12T09:22:40Z</time>
      </trkpt>
      <trkpt lat="46.78115" lon="4.84998">
        <ele>164.311589</ele>
        <time>2011-02-12T09:22:43Z</time>
      </trkpt>
      <trkpt lat="46.78102" lon="4.85006">
        <ele>163.963705</ele>
        <time>2011-02-12T09:22:46Z</time>
      </trkpt>
      <trkpt lat="46.78089" lon="4.85014">
        <ele>163.938814</ele>
        <time>2011-02-12T09:22:49Z</time>
      </trkpt>
      <trkpt lat="46.7808" lon="4.8502">
        <ele>164.109222</ele>
        <time>2011-02-12T09:22:51Z</time>
      </trkpt>
      <trkpt lat="46.78066" lon="4.85029">
        <ele>164.48661</ele>
        <time>2011-02-12T09:22:54Z</time>
      </trkpt>
      <trkpt lat="46.78058" lon="4.85037">
        <ele>164.95736</ele>
        <time>2011-02-12T09:22:56Z</time>
      </trkpt>
      <trkpt lat="46.7805" lon="4.85047">
        <ele>165.289984</ele>
        <time>2011-02-12T09:22:58Z</time>
      </trkpt>
      <trkpt lat="46.78035" lon="4.85057">
        <ele>165.411783</ele>
        <time>2011-02-12T09:23:01Z</time>
      </trkpt>
      <trkpt lat="46.78025" lon="4.85063">
        <ele>165.408598</ele>
        <time>2011-02-12T09:23:03Z</time>
      </trkpt>
      <trkpt lat="46.7801" lon="4.85072">
        <ele>165.365698</ele>
        <time>2011-02-12T09:23:06Z</time>
      </trkpt>
      <trkpt lat="46.77997" lon="4.85079">
        <ele>165.316605</ele>
        <time>2011-02-12T09:23:09Z</time>
      </trkpt>
      <trkpt lat="46.77987" lon="4.85087">
        <ele>165.25866</ele>
        <time>2011-02-12T09:23:12Z</time>
      </trkpt>
      <trkpt lat="46.77987" lon="4.85087">
        <ele>165.189747</ele>
        <time>2011-02-12T09:23:16Z</time>
      </trkpt>
      <trkpt lat="46.77997" lon="4.85115">
        <ele>165.124907</ele>
        <time>2011-02-12T09:23:20Z</time>
      </trkpt>
      <trkpt lat="46.78006" lon="4.85128">
        <ele>165.015355</ele>
        <time>2011-02-12T09:23:23Z</time>
      </trkpt>
      <trkpt lat="46.78018" lon="4.85142">
        <ele>164.782982</ele>
        <time>2011-02-12T09:23:26Z</time>
      </trkpt>
      <trkpt lat="46.78029" lon="4.85155">
        <ele>164.471369</ele>
        <time>2011-02-12T09:23:29Z</time>
      </trkpt>
      <trkpt lat="46.78037" lon="4.85165">
        <ele>164.110559</ele>
        <time>2011-02-12T09:23:31Z</time>
      </trkpt>
      <trkpt lat="46.78048" lon="4.85179">
        <ele>163.64408</ele>
        <time>2011-02-12T09:23:34Z</time>
      </trkpt>
      <trkpt lat="46.78049" lon="4.85198">
        <ele>163.127912</ele>
        <time>2011-02-12T09:23:36Z</time>
      </trkpt>
      <trkpt lat="46.78052" lon="4.8523">
        <ele>162.703622</ele>
        <time>2011-02-12T09:23:39Z</time>
      </trkpt>
      <trkpt lat="46.78059" lon="4.85252">
        <ele>162.414656</ele>
        <time>2011-02-12T09:23:41Z</time>
      </trkpt>
      <trkpt lat="46.78071" lon="4.85289">
        <ele>162.154416</ele>
        <time>2011-02-12T09:23:44Z</time>
      </trkpt>
      <trkpt lat="46.78079" lon="4.85314">
        <ele>161.831148</ele>
        <time>2011-02-12T09:23:46Z</time>
      </trkpt>
      <trkpt lat="46.78085" lon="4.85352">
        <ele>161.473119</ele>
        <time>2011-02-12T09:23:49Z</time>
      </trkpt>
      <trkpt lat="46.78088" lon="4.85373">
        <ele>161.00063</ele>
        <time>2011-02-12T09:23:51Z</time>
      </trkpt>
      <trkpt lat="46.78088" lon="4.85373">
        <ele>160.392889</ele>
        <time>2011-02-12T09:23:54Z</time>
      </trkpt>
      <trkpt lat="46.78106" lon="4.8542">
        <ele>159.614963</ele>
        <time>2011-02-12T09:24:05Z</time>
      </trkpt>
      <trkpt lat="46.78106" lon="4.8542">
        <ele>158.651161</ele>
        <time>2011-02-12T09:24:09Z</time>
      </trkpt>
      <trkpt lat="46.78106" lon="4.8542">
        <ele>157.850108</ele>
        <time>2011-02-12T09:24:49Z</time>
      </trkpt>
      <trkpt lat="46.78133" lon="4.85415">
        <ele>157.633745</ele>
        <time>2011-02-12T09:25:16Z</time>
      </trkpt>
      <trkpt lat="46.78133" lon="4.85415">
        <ele>157.905652</ele>
        <time>2011-02-12T09:25:17Z</time>
      </trkpt>
      <trkpt lat="46.78133" lon="4.85415">
        <ele>158.283158</ele>
        <time>2011-02-12T09:25:18Z</time>
      </trkpt>
      <trkpt lat="46.78133" lon="4.85415">
        <ele>158.438707</ele>
        <time>2011-02-12T09:25:18Z</time>
      </trkpt>
    </trkseg>
  </trk>
</gpx>